<?xml version="1.0" encoding="UTF-8" standalone="no" ?>
<gpx xmlns="http://www.topografix.com/GPX/1/1" xmlns:xsi="http://www.w3.org/2001/XMLSchema-instance" xsi:schemaLocation="http://www.topografix.com/GPX/1/1 http://www.topografix.com/GPX/1/1/gpx.xsd" version="1.1" creator="VisuGPX - https://www.visugpx.com">
  <metadata>
    <name>Trail des reculées 2023 - Les Tufs - 37 km</name>
    <desc><![CDATA[proposition pour 2023 37 k les tufs]]></desc>
  </metadata>
  <trk>
    <name><![CDATA[Trail des reculées 2022 - Les Tufs - 34 km sur TraceDeTrail.fr]]></name>
    <extensions>
      <line xmlns="http://www.topografix.com/GPX/gpx_style/0/2">
        <color>0000FF</color>
        <width>4</width>
      </line>
    </extensions>
    <trkseg>
      <trkpt lat="46.67448" lon="5.55321">
        <ele>269</ele>
        <time>2000-01-01T00:25:23.000Z</time>
        <extensions>
          <visugpx:TrkExtension xmlns:visugpx="https://www.visugpx.com/editgpx/">
            <visugpx:node>3</visugpx:node>
            </visugpx:TrkExtension>
        </extensions>
      </trkpt>
      <trkpt lat="46.67447" lon="5.55325">
        <ele>254.1</ele>
        <time>2000-01-01T00:25:33.000Z</time>
      </trkpt>
      <trkpt lat="46.67452" lon="5.55329">
        <ele>254.2</ele>
        <time>2000-01-01T00:25:43.000Z</time>
      </trkpt>
      <trkpt lat="46.6746" lon="5.55339">
        <ele>269</ele>
        <time>2000-01-01T00:25:53.000Z</time>
      </trkpt>
      <trkpt lat="46.67465" lon="5.5535">
        <ele>254.9</ele>
        <time>2000-01-01T00:26:03.000Z</time>
      </trkpt>
      <trkpt lat="46.67533" lon="5.55397">
        <ele>265</ele>
        <time>2000-01-01T00:26:13.000Z</time>
      </trkpt>
      <trkpt lat="46.67522" lon="5.5544">
        <ele>266</ele>
        <time>2000-01-01T00:26:23.000Z</time>
      </trkpt>
      <trkpt lat="46.6751" lon="5.55483">
        <ele>265</ele>
        <time>2000-01-01T00:26:33.000Z</time>
      </trkpt>
      <trkpt lat="46.67502" lon="5.55515">
        <ele>264</ele>
        <time>2000-01-01T00:26:43.000Z</time>
      </trkpt>
      <trkpt lat="46.67493" lon="5.55547">
        <ele>264</ele>
        <time>2000-01-01T00:26:53.000Z</time>
      </trkpt>
      <trkpt lat="46.67455" lon="5.55526">
        <ele>265</ele>
        <time>2000-01-01T00:27:03.000Z</time>
      </trkpt>
      <trkpt lat="46.67429" lon="5.5551">
        <ele>263</ele>
        <time>2000-01-01T00:27:13.000Z</time>
      </trkpt>
      <trkpt lat="46.67399" lon="5.55493">
        <ele>262</ele>
        <time>2000-01-01T00:27:23.000Z</time>
      </trkpt>
      <trkpt lat="46.67379" lon="5.55484">
        <ele>258</ele>
        <time>2000-01-01T00:27:33.000Z</time>
      </trkpt>
      <trkpt lat="46.67366" lon="5.55481">
        <ele>256.3</ele>
        <time>2000-01-01T00:27:43.000Z</time>
      </trkpt>
      <trkpt lat="46.67361" lon="5.55481">
        <ele>256.3</ele>
        <time>2000-01-01T00:27:53.000Z</time>
      </trkpt>
      <trkpt lat="46.67356" lon="5.55483">
        <ele>258</ele>
        <time>2000-01-01T00:28:03.000Z</time>
      </trkpt>
      <trkpt lat="46.67352" lon="5.55486">
        <ele>256.3</ele>
        <time>2000-01-01T00:28:13.000Z</time>
      </trkpt>
      <trkpt lat="46.67351" lon="5.5549">
        <ele>256.4</ele>
        <time>2000-01-01T00:28:23.000Z</time>
      </trkpt>
      <trkpt lat="46.67332" lon="5.55485">
        <ele>258</ele>
        <time>2000-01-01T00:28:33.000Z</time>
      </trkpt>
      <trkpt lat="46.67327" lon="5.55482">
        <ele>256</ele>
        <time>2000-01-01T00:28:43.000Z</time>
      </trkpt>
      <trkpt lat="46.6732" lon="5.55475">
        <ele>256</ele>
        <time>2000-01-01T00:28:53.000Z</time>
      </trkpt>
      <trkpt lat="46.67314" lon="5.55472">
        <ele>260</ele>
        <time>2000-01-01T00:29:03.000Z</time>
      </trkpt>
      <trkpt lat="46.67307" lon="5.5547">
        <ele>256</ele>
        <time>2000-01-01T00:29:13.000Z</time>
      </trkpt>
      <trkpt lat="46.67277" lon="5.55466">
        <ele>262</ele>
        <time>2000-01-01T00:29:23.000Z</time>
      </trkpt>
      <trkpt lat="46.67261" lon="5.55465">
        <ele>256.4</ele>
        <time>2000-01-01T00:29:33.000Z</time>
      </trkpt>
      <trkpt lat="46.67258" lon="5.55498">
        <ele>261</ele>
        <time>2000-01-01T00:29:43.000Z</time>
      </trkpt>
      <trkpt lat="46.67256" lon="5.55506">
        <ele>256.2</ele>
        <time>2000-01-01T00:29:53.000Z</time>
      </trkpt>
      <trkpt lat="46.67255" lon="5.55517">
        <ele>256.2</ele>
        <time>2000-01-01T00:30:03.000Z</time>
      </trkpt>
      <trkpt lat="46.67255" lon="5.55526">
        <ele>260</ele>
        <time>2000-01-01T00:30:13.000Z</time>
      </trkpt>
      <trkpt lat="46.67252" lon="5.55553">
        <ele>259</ele>
        <time>2000-01-01T00:30:23.000Z</time>
      </trkpt>
      <trkpt lat="46.67254" lon="5.55564">
        <ele>256</ele>
        <time>2000-01-01T00:30:33.000Z</time>
      </trkpt>
      <trkpt lat="46.67258" lon="5.55575">
        <ele>256</ele>
        <time>2000-01-01T00:30:43.000Z</time>
      </trkpt>
      <trkpt lat="46.67262" lon="5.55582">
        <ele>257</ele>
        <time>2000-01-01T00:30:53.000Z</time>
      </trkpt>
      <trkpt lat="46.67264" lon="5.55593">
        <ele>256</ele>
        <time>2000-01-01T00:31:03.000Z</time>
      </trkpt>
      <trkpt lat="46.67268" lon="5.55604">
        <ele>256</ele>
        <time>2000-01-01T00:31:13.000Z</time>
      </trkpt>
      <trkpt lat="46.67269" lon="5.55617">
        <ele>257</ele>
        <time>2000-01-01T00:31:23.000Z</time>
      </trkpt>
      <trkpt lat="46.67271" lon="5.55629">
        <ele>256</ele>
        <time>2000-01-01T00:31:33.000Z</time>
      </trkpt>
      <trkpt lat="46.67276" lon="5.55653">
        <ele>262</ele>
        <time>2000-01-01T00:31:43.000Z</time>
      </trkpt>
      <trkpt lat="46.67279" lon="5.55662">
        <ele>256.9</ele>
        <time>2000-01-01T00:31:53.000Z</time>
      </trkpt>
      <trkpt lat="46.67283" lon="5.55681">
        <ele>265</ele>
        <time>2000-01-01T00:32:03.000Z</time>
      </trkpt>
      <trkpt lat="46.67283" lon="5.55698">
        <ele>257.2</ele>
        <time>2000-01-01T00:32:13.000Z</time>
      </trkpt>
      <trkpt lat="46.67284" lon="5.55706">
        <ele>257.2</ele>
        <time>2000-01-01T00:32:23.000Z</time>
      </trkpt>
      <trkpt lat="46.67283" lon="5.55717">
        <ele>267</ele>
        <time>2000-01-01T00:32:33.000Z</time>
      </trkpt>
      <trkpt lat="46.67284" lon="5.55728">
        <ele>257.2</ele>
        <time>2000-01-01T00:32:43.000Z</time>
      </trkpt>
      <trkpt lat="46.67286" lon="5.55742">
        <ele>257.3</ele>
        <time>2000-01-01T00:32:53.000Z</time>
      </trkpt>
      <trkpt lat="46.67286" lon="5.55753">
        <ele>267</ele>
        <time>2000-01-01T00:33:03.000Z</time>
      </trkpt>
      <trkpt lat="46.67287" lon="5.55767">
        <ele>257.7</ele>
        <time>2000-01-01T00:33:13.000Z</time>
      </trkpt>
      <trkpt lat="46.67285" lon="5.55795">
        <ele>267</ele>
        <time>2000-01-01T00:33:23.000Z</time>
      </trkpt>
      <trkpt lat="46.67285" lon="5.55813">
        <ele>258.1</ele>
        <time>2000-01-01T00:33:33.000Z</time>
      </trkpt>
      <trkpt lat="46.67281" lon="5.55855">
        <ele>264</ele>
        <time>2000-01-01T00:33:43.000Z</time>
      </trkpt>
      <trkpt lat="46.6728" lon="5.55872">
        <ele>259.4</ele>
        <time>2000-01-01T00:33:53.000Z</time>
      </trkpt>
      <trkpt lat="46.67277" lon="5.55881">
        <ele>261</ele>
        <time>2000-01-01T00:34:03.000Z</time>
      </trkpt>
      <trkpt lat="46.67273" lon="5.5589">
        <ele>260</ele>
        <time>2000-01-01T00:34:13.000Z</time>
      </trkpt>
      <trkpt lat="46.67277" lon="5.55902">
        <ele>260</ele>
        <time>2000-01-01T00:34:23.000Z</time>
      </trkpt>
      <trkpt lat="46.6728" lon="5.55909">
        <ele>261</ele>
        <time>2000-01-01T00:34:33.000Z</time>
      </trkpt>
      <trkpt lat="46.67285" lon="5.55918">
        <ele>259.7</ele>
        <time>2000-01-01T00:34:43.000Z</time>
      </trkpt>
      <trkpt lat="46.67287" lon="5.55928">
        <ele>259.5</ele>
        <time>2000-01-01T00:34:53.000Z</time>
      </trkpt>
      <trkpt lat="46.67283" lon="5.55938">
        <ele>261</ele>
        <time>2000-01-01T00:35:03.000Z</time>
      </trkpt>
      <trkpt lat="46.67274" lon="5.55972">
        <ele>261</ele>
        <time>2000-01-01T00:35:13.000Z</time>
      </trkpt>
      <trkpt lat="46.67264" lon="5.55976">
        <ele>259.6</ele>
        <time>2000-01-01T00:35:23.000Z</time>
      </trkpt>
      <trkpt lat="46.67252" lon="5.55986">
        <ele>262</ele>
        <time>2000-01-01T00:35:33.000Z</time>
      </trkpt>
      <trkpt lat="46.67246" lon="5.55998">
        <ele>260</ele>
        <time>2000-01-01T00:35:43.000Z</time>
      </trkpt>
      <trkpt lat="46.67236" lon="5.56016">
        <ele>262</ele>
        <time>2000-01-01T00:35:53.000Z</time>
      </trkpt>
      <trkpt lat="46.67227" lon="5.56044">
        <ele>261</ele>
        <time>2000-01-01T00:36:03.000Z</time>
      </trkpt>
      <trkpt lat="46.67224" lon="5.56056">
        <ele>260.9</ele>
        <time>2000-01-01T00:36:13.000Z</time>
      </trkpt>
      <trkpt lat="46.67222" lon="5.56069">
        <ele>261</ele>
        <time>2000-01-01T00:36:23.000Z</time>
      </trkpt>
      <trkpt lat="46.67216" lon="5.56089">
        <ele>263</ele>
        <time>2000-01-01T00:36:33.000Z</time>
      </trkpt>
      <trkpt lat="46.67208" lon="5.56096">
        <ele>261.5</ele>
        <time>2000-01-01T00:36:43.000Z</time>
      </trkpt>
      <trkpt lat="46.67202" lon="5.56098">
        <ele>261.7</ele>
        <time>2000-01-01T00:36:53.000Z</time>
      </trkpt>
      <trkpt lat="46.67188" lon="5.5611">
        <ele>266</ele>
        <time>2000-01-01T00:37:03.000Z</time>
      </trkpt>
      <trkpt lat="46.67186" lon="5.56119">
        <ele>261.9</ele>
        <time>2000-01-01T00:37:13.000Z</time>
      </trkpt>
      <trkpt lat="46.67186" lon="5.56128">
        <ele>261.8</ele>
        <time>2000-01-01T00:37:23.000Z</time>
      </trkpt>
      <trkpt lat="46.67189" lon="5.56138">
        <ele>266</ele>
        <time>2000-01-01T00:37:33.000Z</time>
      </trkpt>
      <trkpt lat="46.67191" lon="5.5615">
        <ele>261.5</ele>
        <time>2000-01-01T00:37:43.000Z</time>
      </trkpt>
      <trkpt lat="46.6719" lon="5.56168">
        <ele>265</ele>
        <time>2000-01-01T00:37:53.000Z</time>
      </trkpt>
      <trkpt lat="46.67186" lon="5.56189">
        <ele>261.6</ele>
        <time>2000-01-01T00:38:03.000Z</time>
      </trkpt>
      <trkpt lat="46.67186" lon="5.56199">
        <ele>264</ele>
        <time>2000-01-01T00:38:13.000Z</time>
      </trkpt>
      <trkpt lat="46.67185" lon="5.56212">
        <ele>261.9</ele>
        <time>2000-01-01T00:38:23.000Z</time>
      </trkpt>
      <trkpt lat="46.67178" lon="5.56221">
        <ele>262</ele>
        <time>2000-01-01T00:38:33.000Z</time>
      </trkpt>
      <trkpt lat="46.67169" lon="5.56226">
        <ele>264</ele>
        <time>2000-01-01T00:38:43.000Z</time>
      </trkpt>
      <trkpt lat="46.67153" lon="5.56239">
        <ele>262.3</ele>
        <time>2000-01-01T00:38:53.000Z</time>
      </trkpt>
      <trkpt lat="46.67144" lon="5.5625">
        <ele>265</ele>
        <time>2000-01-01T00:39:03.000Z</time>
      </trkpt>
      <trkpt lat="46.67135" lon="5.56269">
        <ele>262.4</ele>
        <time>2000-01-01T00:39:13.000Z</time>
      </trkpt>
      <trkpt lat="46.67127" lon="5.56293">
        <ele>267</ele>
        <time>2000-01-01T00:39:23.000Z</time>
      </trkpt>
      <trkpt lat="46.67124" lon="5.5631">
        <ele>263</ele>
        <time>2000-01-01T00:39:33.000Z</time>
      </trkpt>
      <trkpt lat="46.67122" lon="5.56318">
        <ele>263</ele>
        <time>2000-01-01T00:39:43.000Z</time>
      </trkpt>
      <trkpt lat="46.67111" lon="5.56355">
        <ele>273</ele>
        <time>2000-01-01T00:39:53.000Z</time>
      </trkpt>
      <trkpt lat="46.67104" lon="5.56381">
        <ele>272</ele>
        <time>2000-01-01T00:40:03.000Z</time>
      </trkpt>
      <trkpt lat="46.67104" lon="5.56395">
        <ele>264.3</ele>
        <time>2000-01-01T00:40:13.000Z</time>
      </trkpt>
      <trkpt lat="46.67105" lon="5.56411">
        <ele>272</ele>
        <time>2000-01-01T00:40:23.000Z</time>
      </trkpt>
      <trkpt lat="46.67105" lon="5.56422">
        <ele>264.3</ele>
        <time>2000-01-01T00:40:33.000Z</time>
      </trkpt>
      <trkpt lat="46.67106" lon="5.56431">
        <ele>264.3</ele>
        <time>2000-01-01T00:40:43.000Z</time>
      </trkpt>
      <trkpt lat="46.67106" lon="5.56441">
        <ele>270</ele>
        <time>2000-01-01T00:40:53.000Z</time>
      </trkpt>
      <trkpt lat="46.67108" lon="5.56451">
        <ele>264.4</ele>
        <time>2000-01-01T00:41:03.000Z</time>
      </trkpt>
      <trkpt lat="46.67109" lon="5.56461">
        <ele>264.7</ele>
        <time>2000-01-01T00:41:13.000Z</time>
      </trkpt>
      <trkpt lat="46.67109" lon="5.56475">
        <ele>268</ele>
        <time>2000-01-01T00:41:23.000Z</time>
      </trkpt>
      <trkpt lat="46.67107" lon="5.56491">
        <ele>265</ele>
        <time>2000-01-01T00:41:33.000Z</time>
      </trkpt>
      <trkpt lat="46.67104" lon="5.56499">
        <ele>265</ele>
        <time>2000-01-01T00:41:43.000Z</time>
      </trkpt>
      <trkpt lat="46.67103" lon="5.56508">
        <ele>267</ele>
        <time>2000-01-01T00:41:53.000Z</time>
      </trkpt>
      <trkpt lat="46.67099" lon="5.56518">
        <ele>265</ele>
        <time>2000-01-01T00:42:03.000Z</time>
      </trkpt>
      <trkpt lat="46.67094" lon="5.56528">
        <ele>265</ele>
        <time>2000-01-01T00:42:13.000Z</time>
      </trkpt>
      <trkpt lat="46.67086" lon="5.56541">
        <ele>266</ele>
        <time>2000-01-01T00:42:23.000Z</time>
      </trkpt>
      <trkpt lat="46.67081" lon="5.56551">
        <ele>265.9</ele>
        <time>2000-01-01T00:42:33.000Z</time>
      </trkpt>
      <trkpt lat="46.67077" lon="5.56557">
        <ele>266</ele>
        <time>2000-01-01T00:42:43.000Z</time>
      </trkpt>
      <trkpt lat="46.67071" lon="5.56568">
        <ele>266</ele>
        <time>2000-01-01T00:42:53.000Z</time>
      </trkpt>
      <trkpt lat="46.67067" lon="5.56578">
        <ele>266</ele>
        <time>2000-01-01T00:43:03.000Z</time>
      </trkpt>
      <trkpt lat="46.6706" lon="5.56592">
        <ele>265</ele>
        <time>2000-01-01T00:43:13.000Z</time>
      </trkpt>
      <trkpt lat="46.67051" lon="5.56619">
        <ele>265</ele>
        <time>2000-01-01T00:43:23.000Z</time>
      </trkpt>
      <trkpt lat="46.67049" lon="5.56642">
        <ele>266.2</ele>
        <time>2000-01-01T00:43:33.000Z</time>
      </trkpt>
      <trkpt lat="46.67045" lon="5.56654">
        <ele>265</ele>
        <time>2000-01-01T00:43:43.000Z</time>
      </trkpt>
      <trkpt lat="46.67041" lon="5.5666">
        <ele>266.5</ele>
        <time>2000-01-01T00:43:53.000Z</time>
      </trkpt>
      <trkpt lat="46.67031" lon="5.56679">
        <ele>264</ele>
        <time>2000-01-01T00:44:03.000Z</time>
      </trkpt>
      <trkpt lat="46.67021" lon="5.56692">
        <ele>267.3</ele>
        <time>2000-01-01T00:44:13.000Z</time>
      </trkpt>
      <trkpt lat="46.67018" lon="5.56699">
        <ele>264</ele>
        <time>2000-01-01T00:44:23.000Z</time>
      </trkpt>
      <trkpt lat="46.67016" lon="5.56708">
        <ele>267.2</ele>
        <time>2000-01-01T00:44:33.000Z</time>
      </trkpt>
      <trkpt lat="46.67018" lon="5.56723">
        <ele>267</ele>
        <time>2000-01-01T00:44:43.000Z</time>
      </trkpt>
      <trkpt lat="46.6702" lon="5.56731">
        <ele>267</ele>
        <time>2000-01-01T00:44:53.000Z</time>
      </trkpt>
      <trkpt lat="46.67035" lon="5.56766">
        <ele>275</ele>
        <time>2000-01-01T00:45:03.000Z</time>
      </trkpt>
      <trkpt lat="46.67036" lon="5.56777">
        <ele>267.7</ele>
        <time>2000-01-01T00:45:13.000Z</time>
      </trkpt>
      <trkpt lat="46.67029" lon="5.56788">
        <ele>267.6</ele>
        <time>2000-01-01T00:45:23.000Z</time>
      </trkpt>
      <trkpt lat="46.67018" lon="5.56801">
        <ele>279</ele>
        <time>2000-01-01T00:45:33.000Z</time>
      </trkpt>
      <trkpt lat="46.67013" lon="5.56808">
        <ele>268.1</ele>
        <time>2000-01-01T00:45:43.000Z</time>
      </trkpt>
      <trkpt lat="46.67006" lon="5.56812">
        <ele>268.7</ele>
        <time>2000-01-01T00:45:53.000Z</time>
      </trkpt>
      <trkpt lat="46.66998" lon="5.56806">
        <ele>279</ele>
        <time>2000-01-01T00:46:03.000Z</time>
      </trkpt>
      <trkpt lat="46.66993" lon="5.56793">
        <ele>268.7</ele>
        <time>2000-01-01T00:46:13.000Z</time>
      </trkpt>
      <trkpt lat="46.66989" lon="5.56776">
        <ele>277</ele>
        <time>2000-01-01T00:46:23.000Z</time>
      </trkpt>
      <trkpt lat="46.66985" lon="5.56767">
        <ele>268.3</ele>
        <time>2000-01-01T00:46:33.000Z</time>
      </trkpt>
      <trkpt lat="46.6698" lon="5.56752">
        <ele>273</ele>
        <time>2000-01-01T00:46:43.000Z</time>
      </trkpt>
      <trkpt lat="46.66967" lon="5.56737">
        <ele>268.2</ele>
        <time>2000-01-01T00:46:53.000Z</time>
      </trkpt>
      <trkpt lat="46.66958" lon="5.56736">
        <ele>269</ele>
        <time>2000-01-01T00:47:03.000Z</time>
      </trkpt>
      <trkpt lat="46.66952" lon="5.56738">
        <ele>268.7</ele>
        <time>2000-01-01T00:47:13.000Z</time>
      </trkpt>
      <trkpt lat="46.66943" lon="5.56738">
        <ele>269.1</ele>
        <time>2000-01-01T00:47:23.000Z</time>
      </trkpt>
      <trkpt lat="46.66937" lon="5.5674">
        <ele>269</ele>
        <time>2000-01-01T00:47:33.000Z</time>
      </trkpt>
      <trkpt lat="46.66929" lon="5.56741">
        <ele>269.8</ele>
        <time>2000-01-01T00:47:43.000Z</time>
      </trkpt>
      <trkpt lat="46.66921" lon="5.5674">
        <ele>270.1</ele>
        <time>2000-01-01T00:47:53.000Z</time>
      </trkpt>
      <trkpt lat="46.66906" lon="5.5674">
        <ele>269</ele>
        <time>2000-01-01T00:48:03.000Z</time>
      </trkpt>
      <trkpt lat="46.669" lon="5.56738">
        <ele>271.3</ele>
        <time>2000-01-01T00:48:13.000Z</time>
      </trkpt>
      <trkpt lat="46.66894" lon="5.56725">
        <ele>270.8</ele>
        <time>2000-01-01T00:48:23.000Z</time>
      </trkpt>
      <trkpt lat="46.66888" lon="5.56715">
        <ele>269</ele>
        <time>2000-01-01T00:48:33.000Z</time>
      </trkpt>
      <trkpt lat="46.66879" lon="5.56705">
        <ele>270.7</ele>
        <time>2000-01-01T00:48:43.000Z</time>
      </trkpt>
      <trkpt lat="46.66872" lon="5.56702">
        <ele>271</ele>
        <time>2000-01-01T00:48:53.000Z</time>
      </trkpt>
      <trkpt lat="46.66855" lon="5.56702">
        <ele>272.4</ele>
        <time>2000-01-01T00:49:03.000Z</time>
      </trkpt>
      <trkpt lat="46.66844" lon="5.56712">
        <ele>272</ele>
        <time>2000-01-01T00:49:13.000Z</time>
      </trkpt>
      <trkpt lat="46.66827" lon="5.56716">
        <ele>272.8</ele>
        <time>2000-01-01T00:49:23.000Z</time>
      </trkpt>
      <trkpt lat="46.66809" lon="5.56715">
        <ele>276</ele>
        <time>2000-01-01T00:49:33.000Z</time>
      </trkpt>
      <trkpt lat="46.66795" lon="5.56718">
        <ele>272.4</ele>
        <time>2000-01-01T00:49:43.000Z</time>
      </trkpt>
      <trkpt lat="46.66786" lon="5.56718">
        <ele>276</ele>
        <time>2000-01-01T00:49:53.000Z</time>
      </trkpt>
      <trkpt lat="46.66778" lon="5.56719">
        <ele>273</ele>
        <time>2000-01-01T00:50:03.000Z</time>
      </trkpt>
      <trkpt lat="46.66769" lon="5.56717">
        <ele>273</ele>
        <time>2000-01-01T00:50:13.000Z</time>
      </trkpt>
      <trkpt lat="46.66759" lon="5.56719">
        <ele>277</ele>
        <time>2000-01-01T00:50:23.000Z</time>
      </trkpt>
      <trkpt lat="46.66753" lon="5.56718">
        <ele>273</ele>
        <time>2000-01-01T00:50:33.000Z</time>
      </trkpt>
      <trkpt lat="46.66748" lon="5.56709">
        <ele>273.4</ele>
        <time>2000-01-01T00:50:43.000Z</time>
      </trkpt>
      <trkpt lat="46.66743" lon="5.56691">
        <ele>279</ele>
        <time>2000-01-01T00:50:53.000Z</time>
      </trkpt>
      <trkpt lat="46.6674" lon="5.56684">
        <ele>274.4</ele>
        <time>2000-01-01T00:51:03.000Z</time>
      </trkpt>
      <trkpt lat="46.66738" lon="5.56675">
        <ele>274.3</ele>
        <time>2000-01-01T00:51:13.000Z</time>
      </trkpt>
      <trkpt lat="46.66729" lon="5.5667">
        <ele>282</ele>
        <time>2000-01-01T00:51:23.000Z</time>
      </trkpt>
      <trkpt lat="46.66721" lon="5.56668">
        <ele>275.3</ele>
        <time>2000-01-01T00:51:33.000Z</time>
      </trkpt>
      <trkpt lat="46.66712" lon="5.56663">
        <ele>276.6</ele>
        <time>2000-01-01T00:51:43.000Z</time>
      </trkpt>
      <trkpt lat="46.66709" lon="5.56656">
        <ele>280</ele>
        <time>2000-01-01T00:51:53.000Z</time>
      </trkpt>
      <trkpt lat="46.66703" lon="5.56639">
        <ele>278.8</ele>
        <time>2000-01-01T00:52:03.000Z</time>
      </trkpt>
      <trkpt lat="46.66705" lon="5.56627">
        <ele>278</ele>
        <time>2000-01-01T00:52:13.000Z</time>
      </trkpt>
      <trkpt lat="46.66704" lon="5.56613">
        <ele>277.4</ele>
        <time>2000-01-01T00:52:23.000Z</time>
      </trkpt>
      <trkpt lat="46.66693" lon="5.56603">
        <ele>278</ele>
        <time>2000-01-01T00:52:33.000Z</time>
      </trkpt>
      <trkpt lat="46.66687" lon="5.566">
        <ele>278.2</ele>
        <time>2000-01-01T00:52:43.000Z</time>
      </trkpt>
      <trkpt lat="46.6668" lon="5.566">
        <ele>278.7</ele>
        <time>2000-01-01T00:52:53.000Z</time>
      </trkpt>
      <trkpt lat="46.66674" lon="5.56602">
        <ele>278</ele>
        <time>2000-01-01T00:53:03.000Z</time>
      </trkpt>
      <trkpt lat="46.66638" lon="5.56594">
        <ele>276</ele>
        <time>2000-01-01T00:53:13.000Z</time>
      </trkpt>
      <trkpt lat="46.66629" lon="5.56588">
        <ele>280.7</ele>
        <time>2000-01-01T00:53:23.000Z</time>
      </trkpt>
      <trkpt lat="46.66623" lon="5.56579">
        <ele>274</ele>
        <time>2000-01-01T00:53:33.000Z</time>
      </trkpt>
      <trkpt lat="46.66615" lon="5.56573">
        <ele>282.2</ele>
        <time>2000-01-01T00:53:43.000Z</time>
      </trkpt>
      <trkpt lat="46.66602" lon="5.56568">
        <ele>274</ele>
        <time>2000-01-01T00:53:53.000Z</time>
      </trkpt>
      <trkpt lat="46.66597" lon="5.56563">
        <ele>283.5</ele>
        <time>2000-01-01T00:54:03.000Z</time>
      </trkpt>
      <trkpt lat="46.66587" lon="5.56535">
        <ele>281</ele>
        <time>2000-01-01T00:54:13.000Z</time>
      </trkpt>
      <trkpt lat="46.66582" lon="5.56531">
        <ele>284.3</ele>
        <time>2000-01-01T00:54:23.000Z</time>
      </trkpt>
      <trkpt lat="46.66576" lon="5.56529">
        <ele>285.1</ele>
        <time>2000-01-01T00:54:33.000Z</time>
      </trkpt>
      <trkpt lat="46.66569" lon="5.56531">
        <ele>285</ele>
        <time>2000-01-01T00:54:43.000Z</time>
      </trkpt>
      <trkpt lat="46.66561" lon="5.56539">
        <ele>286.6</ele>
        <time>2000-01-01T00:54:53.000Z</time>
      </trkpt>
      <trkpt lat="46.66556" lon="5.56543">
        <ele>286.9</ele>
        <time>2000-01-01T00:55:03.000Z</time>
      </trkpt>
      <trkpt lat="46.66549" lon="5.56552">
        <ele>288</ele>
        <time>2000-01-01T00:55:13.000Z</time>
      </trkpt>
      <trkpt lat="46.66545" lon="5.56558">
        <ele>287.8</ele>
        <time>2000-01-01T00:55:23.000Z</time>
      </trkpt>
      <trkpt lat="46.66542" lon="5.56565">
        <ele>288.1</ele>
        <time>2000-01-01T00:55:33.000Z</time>
      </trkpt>
      <trkpt lat="46.66537" lon="5.56578">
        <ele>290</ele>
        <time>2000-01-01T00:55:43.000Z</time>
      </trkpt>
      <trkpt lat="46.66533" lon="5.56591">
        <ele>288.2</ele>
        <time>2000-01-01T00:55:53.000Z</time>
      </trkpt>
      <trkpt lat="46.6653" lon="5.56602">
        <ele>288.1</ele>
        <time>2000-01-01T00:56:03.000Z</time>
      </trkpt>
      <trkpt lat="46.66525" lon="5.56645">
        <ele>290</ele>
        <time>2000-01-01T00:56:13.000Z</time>
      </trkpt>
      <trkpt lat="46.66509" lon="5.56697">
        <ele>291</ele>
        <time>2000-01-01T00:56:23.000Z</time>
      </trkpt>
      <trkpt lat="46.66503" lon="5.56708">
        <ele>291.5</ele>
        <time>2000-01-01T00:56:33.000Z</time>
      </trkpt>
      <trkpt lat="46.66499" lon="5.5672">
        <ele>292</ele>
        <time>2000-01-01T00:56:43.000Z</time>
      </trkpt>
      <trkpt lat="46.66496" lon="5.56732">
        <ele>292.5</ele>
        <time>2000-01-01T00:56:53.000Z</time>
      </trkpt>
      <trkpt lat="46.66493" lon="5.56741">
        <ele>292.8</ele>
        <time>2000-01-01T00:57:03.000Z</time>
      </trkpt>
      <trkpt lat="46.66485" lon="5.56772">
        <ele>295</ele>
        <time>2000-01-01T00:57:13.000Z</time>
      </trkpt>
      <trkpt lat="46.66482" lon="5.5678">
        <ele>294.5</ele>
        <time>2000-01-01T00:57:23.000Z</time>
      </trkpt>
      <trkpt lat="46.66479" lon="5.56802">
        <ele>298</ele>
        <time>2000-01-01T00:57:33.000Z</time>
      </trkpt>
      <trkpt lat="46.66475" lon="5.56812">
        <ele>296.4</ele>
        <time>2000-01-01T00:57:43.000Z</time>
      </trkpt>
      <trkpt lat="46.66474" lon="5.5682">
        <ele>296.6</ele>
        <time>2000-01-01T00:57:53.000Z</time>
      </trkpt>
      <trkpt lat="46.66476" lon="5.56833">
        <ele>299</ele>
        <time>2000-01-01T00:58:03.000Z</time>
      </trkpt>
      <trkpt lat="46.66476" lon="5.56871">
        <ele>301</ele>
        <time>2000-01-01T00:58:13.000Z</time>
      </trkpt>
      <trkpt lat="46.66477" lon="5.56883">
        <ele>298.8</ele>
        <time>2000-01-01T00:58:23.000Z</time>
      </trkpt>
      <trkpt lat="46.66476" lon="5.56893">
        <ele>299.6</ele>
        <time>2000-01-01T00:58:33.000Z</time>
      </trkpt>
      <trkpt lat="46.66472" lon="5.56901">
        <ele>301</ele>
        <time>2000-01-01T00:58:43.000Z</time>
      </trkpt>
      <trkpt lat="46.6646" lon="5.56906">
        <ele>301.4</ele>
        <time>2000-01-01T00:58:53.000Z</time>
      </trkpt>
      <trkpt lat="46.66451" lon="5.56907">
        <ele>302</ele>
        <time>2000-01-01T00:59:03.000Z</time>
      </trkpt>
      <trkpt lat="46.66428" lon="5.56907">
        <ele>305</ele>
        <time>2000-01-01T00:59:13.000Z</time>
      </trkpt>
      <trkpt lat="46.66421" lon="5.56905">
        <ele>302</ele>
        <time>2000-01-01T00:59:23.000Z</time>
      </trkpt>
      <trkpt lat="46.66397" lon="5.56884">
        <ele>310</ele>
        <time>2000-01-01T00:59:33.000Z</time>
      </trkpt>
      <trkpt lat="46.66379" lon="5.5685">
        <ele>311</ele>
        <time>2000-01-01T00:59:43.000Z</time>
      </trkpt>
      <trkpt lat="46.66372" lon="5.56845">
        <ele>307.9</ele>
        <time>2000-01-01T00:59:53.000Z</time>
      </trkpt>
      <trkpt lat="46.66365" lon="5.56843">
        <ele>309.2</ele>
        <time>2000-01-01T01:00:03.000Z</time>
      </trkpt>
      <trkpt lat="46.66358" lon="5.56845">
        <ele>311</ele>
        <time>2000-01-01T01:00:13.000Z</time>
      </trkpt>
      <trkpt lat="46.66346" lon="5.5685">
        <ele>313.2</ele>
        <time>2000-01-01T01:00:23.000Z</time>
      </trkpt>
      <trkpt lat="46.66336" lon="5.56849">
        <ele>314</ele>
        <time>2000-01-01T01:00:33.000Z</time>
      </trkpt>
      <trkpt lat="46.66327" lon="5.56847">
        <ele>315.9</ele>
        <time>2000-01-01T01:00:43.000Z</time>
      </trkpt>
      <trkpt lat="46.66308" lon="5.56839">
        <ele>317</ele>
        <time>2000-01-01T01:00:53.000Z</time>
      </trkpt>
      <trkpt lat="46.66299" lon="5.56832">
        <ele>319.2</ele>
        <time>2000-01-01T01:01:03.000Z</time>
      </trkpt>
      <trkpt lat="46.66282" lon="5.56816">
        <ele>325</ele>
        <time>2000-01-01T01:01:13.000Z</time>
      </trkpt>
      <trkpt lat="46.66274" lon="5.56807">
        <ele>322.9</ele>
        <time>2000-01-01T01:01:23.000Z</time>
      </trkpt>
      <trkpt lat="46.66264" lon="5.56801">
        <ele>335</ele>
        <time>2000-01-01T01:01:33.000Z</time>
      </trkpt>
      <trkpt lat="46.66255" lon="5.56794">
        <ele>326.6</ele>
        <time>2000-01-01T01:01:43.000Z</time>
      </trkpt>
      <trkpt lat="46.66235" lon="5.56785">
        <ele>339</ele>
        <time>2000-01-01T01:01:53.000Z</time>
      </trkpt>
      <trkpt lat="46.66228" lon="5.56777">
        <ele>332.5</ele>
        <time>2000-01-01T01:02:03.000Z</time>
      </trkpt>
      <trkpt lat="46.66222" lon="5.56752">
        <ele>343</ele>
        <time>2000-01-01T01:02:13.000Z</time>
      </trkpt>
      <trkpt lat="46.6622" lon="5.56737">
        <ele>334.5</ele>
        <time>2000-01-01T01:02:23.000Z</time>
      </trkpt>
      <trkpt lat="46.66221" lon="5.56715">
        <ele>346</ele>
        <time>2000-01-01T01:02:33.000Z</time>
      </trkpt>
      <trkpt lat="46.66224" lon="5.56698">
        <ele>337.9</ele>
        <time>2000-01-01T01:02:43.000Z</time>
      </trkpt>
      <trkpt lat="46.66222" lon="5.56686">
        <ele>347</ele>
        <time>2000-01-01T01:02:53.000Z</time>
      </trkpt>
      <trkpt lat="46.66222" lon="5.56678">
        <ele>342</ele>
        <time>2000-01-01T01:03:03.000Z</time>
      </trkpt>
      <trkpt lat="46.66216" lon="5.5666">
        <ele>350</ele>
        <time>2000-01-01T01:03:13.000Z</time>
      </trkpt>
      <trkpt lat="46.66211" lon="5.5665">
        <ele>348.1</ele>
        <time>2000-01-01T01:03:23.000Z</time>
      </trkpt>
      <trkpt lat="46.66203" lon="5.56645">
        <ele>350.1</ele>
        <time>2000-01-01T01:03:33.000Z</time>
      </trkpt>
      <trkpt lat="46.66196" lon="5.56642">
        <ele>355</ele>
        <time>2000-01-01T01:03:43.000Z</time>
      </trkpt>
      <trkpt lat="46.66177" lon="5.56637">
        <ele>363</ele>
        <time>2000-01-01T01:03:53.000Z</time>
      </trkpt>
      <trkpt lat="46.66168" lon="5.56637">
        <ele>358.9</ele>
        <time>2000-01-01T01:04:03.000Z</time>
      </trkpt>
      <trkpt lat="46.66158" lon="5.56639">
        <ele>370</ele>
        <time>2000-01-01T01:04:13.000Z</time>
      </trkpt>
      <trkpt lat="46.66139" lon="5.5664">
        <ele>370</ele>
        <time>2000-01-01T01:04:23.000Z</time>
      </trkpt>
      <trkpt lat="46.6612" lon="5.56631">
        <ele>382</ele>
        <time>2000-01-01T01:04:33.000Z</time>
      </trkpt>
      <trkpt lat="46.6611" lon="5.56624">
        <ele>373.4</ele>
        <time>2000-01-01T01:04:43.000Z</time>
      </trkpt>
      <trkpt lat="46.66102" lon="5.56616">
        <ele>382</ele>
        <time>2000-01-01T01:04:53.000Z</time>
      </trkpt>
      <trkpt lat="46.66098" lon="5.56606">
        <ele>378.1</ele>
        <time>2000-01-01T01:05:03.000Z</time>
      </trkpt>
      <trkpt lat="46.66098" lon="5.56585">
        <ele>382</ele>
        <time>2000-01-01T01:05:13.000Z</time>
      </trkpt>
      <trkpt lat="46.66103" lon="5.5657">
        <ele>379.4</ele>
        <time>2000-01-01T01:05:23.000Z</time>
      </trkpt>
      <trkpt lat="46.66106" lon="5.56554">
        <ele>383</ele>
        <time>2000-01-01T01:05:33.000Z</time>
      </trkpt>
      <trkpt lat="46.66108" lon="5.56546">
        <ele>379.7</ele>
        <time>2000-01-01T01:05:43.000Z</time>
      </trkpt>
      <trkpt lat="46.66108" lon="5.56537">
        <ele>380.4</ele>
        <time>2000-01-01T01:05:53.000Z</time>
      </trkpt>
      <trkpt lat="46.66113" lon="5.56518">
        <ele>386</ele>
        <time>2000-01-01T01:06:03.000Z</time>
      </trkpt>
      <trkpt lat="46.66104" lon="5.56516">
        <ele>384</ele>
        <time>2000-01-01T01:06:13.000Z</time>
      </trkpt>
      <trkpt lat="46.66095" lon="5.56517">
        <ele>386.9</ele>
        <time>2000-01-01T01:06:23.000Z</time>
      </trkpt>
      <trkpt lat="46.66089" lon="5.56519">
        <ele>390</ele>
        <time>2000-01-01T01:06:33.000Z</time>
      </trkpt>
      <trkpt lat="46.66084" lon="5.56522">
        <ele>390.2</ele>
        <time>2000-01-01T01:06:43.000Z</time>
      </trkpt>
      <trkpt lat="46.66075" lon="5.56535">
        <ele>392.9</ele>
        <time>2000-01-01T01:06:53.000Z</time>
      </trkpt>
      <trkpt lat="46.66071" lon="5.56542">
        <ele>394</ele>
        <time>2000-01-01T01:07:03.000Z</time>
      </trkpt>
      <trkpt lat="46.66067" lon="5.56553">
        <ele>393.3</ele>
        <time>2000-01-01T01:07:13.000Z</time>
      </trkpt>
      <trkpt lat="46.66055" lon="5.5658">
        <ele>396</ele>
        <time>2000-01-01T01:07:23.000Z</time>
      </trkpt>
      <trkpt lat="46.66053" lon="5.56589">
        <ele>394</ele>
        <time>2000-01-01T01:07:33.000Z</time>
      </trkpt>
      <trkpt lat="46.6605" lon="5.56599">
        <ele>393.3</ele>
        <time>2000-01-01T01:07:43.000Z</time>
      </trkpt>
      <trkpt lat="46.66041" lon="5.56613">
        <ele>398</ele>
        <time>2000-01-01T01:07:53.000Z</time>
      </trkpt>
      <trkpt lat="46.66037" lon="5.56624">
        <ele>393.9</ele>
        <time>2000-01-01T01:08:03.000Z</time>
      </trkpt>
      <trkpt lat="46.66035" lon="5.56633">
        <ele>394</ele>
        <time>2000-01-01T01:08:13.000Z</time>
      </trkpt>
      <trkpt lat="46.66032" lon="5.56643">
        <ele>401</ele>
        <time>2000-01-01T01:08:23.000Z</time>
      </trkpt>
      <trkpt lat="46.66013" lon="5.5667">
        <ele>408</ele>
        <time>2000-01-01T01:08:33.000Z</time>
      </trkpt>
      <trkpt lat="46.6601" lon="5.56677">
        <ele>400.4</ele>
        <time>2000-01-01T01:08:43.000Z</time>
      </trkpt>
      <trkpt lat="46.66008" lon="5.56685">
        <ele>401.5</ele>
        <time>2000-01-01T01:08:53.000Z</time>
      </trkpt>
      <trkpt lat="46.6601" lon="5.56696">
        <ele>410</ele>
        <time>2000-01-01T01:09:03.000Z</time>
      </trkpt>
      <trkpt lat="46.6601" lon="5.56708">
        <ele>402.7</ele>
        <time>2000-01-01T01:09:13.000Z</time>
      </trkpt>
      <trkpt lat="46.66008" lon="5.56722">
        <ele>405.7</ele>
        <time>2000-01-01T01:09:23.000Z</time>
      </trkpt>
      <trkpt lat="46.66003" lon="5.56742">
        <ele>410</ele>
        <time>2000-01-01T01:09:33.000Z</time>
      </trkpt>
      <trkpt lat="46.65992" lon="5.56767">
        <ele>410</ele>
        <time>2000-01-01T01:09:43.000Z</time>
      </trkpt>
      <trkpt lat="46.65983" lon="5.56785">
        <ele>413.6</ele>
        <time>2000-01-01T01:09:53.000Z</time>
      </trkpt>
      <trkpt lat="46.65982" lon="5.56793">
        <ele>414</ele>
        <time>2000-01-01T01:10:03.000Z</time>
      </trkpt>
      <trkpt lat="46.65975" lon="5.56799">
        <ele>416</ele>
        <time>2000-01-01T01:10:13.000Z</time>
      </trkpt>
      <trkpt lat="46.65978" lon="5.56814">
        <ele>414</ele>
        <time>2000-01-01T01:10:23.000Z</time>
      </trkpt>
      <trkpt lat="46.65982" lon="5.56826">
        <ele>414.2</ele>
        <time>2000-01-01T01:10:33.000Z</time>
      </trkpt>
      <trkpt lat="46.65985" lon="5.56833">
        <ele>413.8</ele>
        <time>2000-01-01T01:10:43.000Z</time>
      </trkpt>
      <trkpt lat="46.65989" lon="5.5684">
        <ele>414</ele>
        <time>2000-01-01T01:10:53.000Z</time>
      </trkpt>
      <trkpt lat="46.65997" lon="5.56852">
        <ele>414.5</ele>
        <time>2000-01-01T01:11:03.000Z</time>
      </trkpt>
      <trkpt lat="46.65999" lon="5.5686">
        <ele>415.9</ele>
        <time>2000-01-01T01:11:13.000Z</time>
      </trkpt>
      <trkpt lat="46.65999" lon="5.56868">
        <ele>412</ele>
        <time>2000-01-01T01:11:23.000Z</time>
      </trkpt>
      <trkpt lat="46.65997" lon="5.56878">
        <ele>418.7</ele>
        <time>2000-01-01T01:11:33.000Z</time>
      </trkpt>
      <trkpt lat="46.65997" lon="5.56891">
        <ele>420.3</ele>
        <time>2000-01-01T01:11:43.000Z</time>
      </trkpt>
      <trkpt lat="46.65995" lon="5.56908">
        <ele>412</ele>
        <time>2000-01-01T01:11:53.000Z</time>
      </trkpt>
      <trkpt lat="46.65988" lon="5.56914">
        <ele>421.4</ele>
        <time>2000-01-01T01:12:03.000Z</time>
      </trkpt>
      <trkpt lat="46.65982" lon="5.56913">
        <ele>421.6</ele>
        <time>2000-01-01T01:12:13.000Z</time>
      </trkpt>
      <trkpt lat="46.65971" lon="5.56925">
        <ele>417</ele>
        <time>2000-01-01T01:12:23.000Z</time>
      </trkpt>
      <trkpt lat="46.65964" lon="5.56927">
        <ele>422</ele>
        <time>2000-01-01T01:12:33.000Z</time>
      </trkpt>
      <trkpt lat="46.65958" lon="5.56921">
        <ele>422.4</ele>
        <time>2000-01-01T01:12:43.000Z</time>
      </trkpt>
      <trkpt lat="46.65945" lon="5.56899">
        <ele>422</ele>
        <time>2000-01-01T01:12:53.000Z</time>
      </trkpt>
      <trkpt lat="46.65936" lon="5.56886">
        <ele>423.2</ele>
        <time>2000-01-01T01:13:03.000Z</time>
      </trkpt>
      <trkpt lat="46.65931" lon="5.56883">
        <ele>423.4</ele>
        <time>2000-01-01T01:13:13.000Z</time>
      </trkpt>
      <trkpt lat="46.65921" lon="5.56882">
        <ele>426</ele>
        <time>2000-01-01T01:13:23.000Z</time>
      </trkpt>
      <trkpt lat="46.65914" lon="5.56885">
        <ele>424.1</ele>
        <time>2000-01-01T01:13:33.000Z</time>
      </trkpt>
      <trkpt lat="46.65905" lon="5.56896">
        <ele>426</ele>
        <time>2000-01-01T01:13:43.000Z</time>
      </trkpt>
      <trkpt lat="46.65905" lon="5.56907">
        <ele>424.4</ele>
        <time>2000-01-01T01:13:53.000Z</time>
      </trkpt>
      <trkpt lat="46.65908" lon="5.56914">
        <ele>424.3</ele>
        <time>2000-01-01T01:14:03.000Z</time>
      </trkpt>
      <trkpt lat="46.65922" lon="5.5694">
        <ele>428</ele>
        <time>2000-01-01T01:14:13.000Z</time>
      </trkpt>
      <trkpt lat="46.65926" lon="5.56949">
        <ele>424.3</ele>
        <time>2000-01-01T01:14:23.000Z</time>
      </trkpt>
      <trkpt lat="46.65933" lon="5.56972">
        <ele>428</ele>
        <time>2000-01-01T01:14:33.000Z</time>
      </trkpt>
      <trkpt lat="46.6593" lon="5.56983">
        <ele>424.4</ele>
        <time>2000-01-01T01:14:43.000Z</time>
      </trkpt>
      <trkpt lat="46.65929" lon="5.56991">
        <ele>424.8</ele>
        <time>2000-01-01T01:14:53.000Z</time>
      </trkpt>
      <trkpt lat="46.65932" lon="5.57003">
        <ele>429</ele>
        <time>2000-01-01T01:15:03.000Z</time>
      </trkpt>
      <trkpt lat="46.65931" lon="5.57015">
        <ele>424.1</ele>
        <time>2000-01-01T01:15:13.000Z</time>
      </trkpt>
      <trkpt lat="46.65922" lon="5.57015">
        <ele>425</ele>
        <time>2000-01-01T01:15:23.000Z</time>
      </trkpt>
      <trkpt lat="46.65914" lon="5.57008">
        <ele>429</ele>
        <time>2000-01-01T01:15:33.000Z</time>
      </trkpt>
      <trkpt lat="46.65909" lon="5.57">
        <ele>426.3</ele>
        <time>2000-01-01T01:15:43.000Z</time>
      </trkpt>
      <trkpt lat="46.65897" lon="5.57001">
        <ele>430</ele>
        <time>2000-01-01T01:15:53.000Z</time>
      </trkpt>
      <trkpt lat="46.65892" lon="5.57006">
        <ele>426.7</ele>
        <time>2000-01-01T01:16:03.000Z</time>
      </trkpt>
      <trkpt lat="46.6589" lon="5.57022">
        <ele>426.2</ele>
        <time>2000-01-01T01:16:13.000Z</time>
      </trkpt>
      <trkpt lat="46.65888" lon="5.57031">
        <ele>429</ele>
        <time>2000-01-01T01:16:23.000Z</time>
      </trkpt>
      <trkpt lat="46.65884" lon="5.5704">
        <ele>424.9</ele>
        <time>2000-01-01T01:16:33.000Z</time>
      </trkpt>
      <trkpt lat="46.6588" lon="5.57052">
        <ele>424</ele>
        <time>2000-01-01T01:16:43.000Z</time>
      </trkpt>
      <trkpt lat="46.65871" lon="5.5706">
        <ele>428</ele>
        <time>2000-01-01T01:16:53.000Z</time>
      </trkpt>
      <trkpt lat="46.65853" lon="5.5706">
        <ele>424.6</ele>
        <time>2000-01-01T01:17:03.000Z</time>
      </trkpt>
      <trkpt lat="46.65841" lon="5.57066">
        <ele>426</ele>
        <time>2000-01-01T01:17:13.000Z</time>
      </trkpt>
      <trkpt lat="46.65833" lon="5.57067">
        <ele>424.8</ele>
        <time>2000-01-01T01:17:23.000Z</time>
      </trkpt>
      <trkpt lat="46.65805" lon="5.57079">
        <ele>415</ele>
        <time>2000-01-01T01:17:33.000Z</time>
      </trkpt>
      <trkpt lat="46.658" lon="5.57082">
        <ele>426.5</ele>
        <time>2000-01-01T01:17:43.000Z</time>
      </trkpt>
      <trkpt lat="46.65792" lon="5.57084">
        <ele>426.9</ele>
        <time>2000-01-01T01:17:53.000Z</time>
      </trkpt>
      <trkpt lat="46.65765" lon="5.57096">
        <ele>415</ele>
        <time>2000-01-01T01:18:03.000Z</time>
      </trkpt>
      <trkpt lat="46.65753" lon="5.57104">
        <ele>427.9</ele>
        <time>2000-01-01T01:18:13.000Z</time>
      </trkpt>
      <trkpt lat="46.65738" lon="5.5711">
        <ele>415</ele>
        <time>2000-01-01T01:18:23.000Z</time>
      </trkpt>
      <trkpt lat="46.65722" lon="5.57118">
        <ele>429</ele>
        <time>2000-01-01T01:18:33.000Z</time>
      </trkpt>
      <trkpt lat="46.65706" lon="5.5712">
        <ele>416</ele>
        <time>2000-01-01T01:18:43.000Z</time>
      </trkpt>
      <trkpt lat="46.65686" lon="5.57117">
        <ele>417</ele>
        <time>2000-01-01T01:18:53.000Z</time>
      </trkpt>
      <trkpt lat="46.6568" lon="5.57118">
        <ele>426.2</ele>
        <time>2000-01-01T01:19:03.000Z</time>
      </trkpt>
      <trkpt lat="46.65676" lon="5.57128">
        <ele>426.5</ele>
        <time>2000-01-01T01:19:13.000Z</time>
      </trkpt>
      <trkpt lat="46.65675" lon="5.57137">
        <ele>417</ele>
        <time>2000-01-01T01:19:23.000Z</time>
      </trkpt>
      <trkpt lat="46.65679" lon="5.57151">
        <ele>426.4</ele>
        <time>2000-01-01T01:19:33.000Z</time>
      </trkpt>
      <trkpt lat="46.65683" lon="5.5716">
        <ele>425.7</ele>
        <time>2000-01-01T01:19:43.000Z</time>
      </trkpt>
      <trkpt lat="46.65683" lon="5.57168">
        <ele>417</ele>
        <time>2000-01-01T01:19:53.000Z</time>
      </trkpt>
      <trkpt lat="46.65681" lon="5.57183">
        <ele>424.5</ele>
        <time>2000-01-01T01:20:03.000Z</time>
      </trkpt>
      <trkpt lat="46.65681" lon="5.57211">
        <ele>418</ele>
        <time>2000-01-01T01:20:13.000Z</time>
      </trkpt>
      <trkpt lat="46.65679" lon="5.57229">
        <ele>421.8</ele>
        <time>2000-01-01T01:20:23.000Z</time>
      </trkpt>
      <trkpt lat="46.65679" lon="5.5724">
        <ele>418</ele>
        <time>2000-01-01T01:20:33.000Z</time>
      </trkpt>
      <trkpt lat="46.65676" lon="5.57263">
        <ele>423.4</ele>
        <time>2000-01-01T01:20:43.000Z</time>
      </trkpt>
      <trkpt lat="46.65672" lon="5.57278">
        <ele>416</ele>
        <time>2000-01-01T01:20:53.000Z</time>
      </trkpt>
      <trkpt lat="46.65667" lon="5.57286">
        <ele>426.3</ele>
        <time>2000-01-01T01:21:03.000Z</time>
      </trkpt>
      <trkpt lat="46.6566" lon="5.57292">
        <ele>426.5</ele>
        <time>2000-01-01T01:21:13.000Z</time>
      </trkpt>
      <trkpt lat="46.65649" lon="5.57299">
        <ele>416</ele>
        <time>2000-01-01T01:21:23.000Z</time>
      </trkpt>
      <trkpt lat="46.65638" lon="5.57305">
        <ele>429</ele>
        <time>2000-01-01T01:21:33.000Z</time>
      </trkpt>
      <trkpt lat="46.65644" lon="5.57323">
        <ele>419</ele>
        <time>2000-01-01T01:21:43.000Z</time>
      </trkpt>
      <trkpt lat="46.65652" lon="5.57328">
        <ele>428.3</ele>
        <time>2000-01-01T01:21:53.000Z</time>
      </trkpt>
      <trkpt lat="46.6566" lon="5.57331">
        <ele>427.1</ele>
        <time>2000-01-01T01:22:03.000Z</time>
      </trkpt>
      <trkpt lat="46.65668" lon="5.57335">
        <ele>422</ele>
        <time>2000-01-01T01:22:13.000Z</time>
      </trkpt>
      <trkpt lat="46.65682" lon="5.57339">
        <ele>423.1</ele>
        <time>2000-01-01T01:22:23.000Z</time>
      </trkpt>
      <trkpt lat="46.65699" lon="5.57348">
        <ele>422</ele>
        <time>2000-01-01T01:22:33.000Z</time>
      </trkpt>
      <trkpt lat="46.65716" lon="5.57367">
        <ele>422</ele>
        <time>2000-01-01T01:22:43.000Z</time>
      </trkpt>
      <trkpt lat="46.65722" lon="5.5738">
        <ele>418.4</ele>
        <time>2000-01-01T01:22:53.000Z</time>
      </trkpt>
      <trkpt lat="46.65722" lon="5.57393">
        <ele>424</ele>
        <time>2000-01-01T01:23:03.000Z</time>
      </trkpt>
      <trkpt lat="46.65719" lon="5.57414">
        <ele>419.2</ele>
        <time>2000-01-01T01:23:13.000Z</time>
      </trkpt>
      <trkpt lat="46.65719" lon="5.5743">
        <ele>425</ele>
        <time>2000-01-01T01:23:23.000Z</time>
      </trkpt>
      <trkpt lat="46.65721" lon="5.57465">
        <ele>426</ele>
        <time>2000-01-01T01:23:33.000Z</time>
      </trkpt>
      <trkpt lat="46.65724" lon="5.57478">
        <ele>415.3</ele>
        <time>2000-01-01T01:23:43.000Z</time>
      </trkpt>
      <trkpt lat="46.65725" lon="5.57495">
        <ele>426</ele>
        <time>2000-01-01T01:23:53.000Z</time>
      </trkpt>
      <trkpt lat="46.65721" lon="5.57528">
        <ele>425</ele>
        <time>2000-01-01T01:24:03.000Z</time>
      </trkpt>
      <trkpt lat="46.65722" lon="5.57544">
        <ele>412.9</ele>
        <time>2000-01-01T01:24:13.000Z</time>
      </trkpt>
      <trkpt lat="46.65722" lon="5.57571">
        <ele>425</ele>
        <time>2000-01-01T01:24:23.000Z</time>
      </trkpt>
      <trkpt lat="46.65723" lon="5.57587">
        <ele>409.6</ele>
        <time>2000-01-01T01:24:33.000Z</time>
      </trkpt>
      <trkpt lat="46.65721" lon="5.57604">
        <ele>423</ele>
        <time>2000-01-01T01:24:43.000Z</time>
      </trkpt>
      <trkpt lat="46.65721" lon="5.57613">
        <ele>409.2</ele>
        <time>2000-01-01T01:24:53.000Z</time>
      </trkpt>
      <trkpt lat="46.65716" lon="5.57627">
        <ele>409.5</ele>
        <time>2000-01-01T01:25:03.000Z</time>
      </trkpt>
      <trkpt lat="46.65712" lon="5.57663">
        <ele>420</ele>
        <time>2000-01-01T01:25:13.000Z</time>
      </trkpt>
      <trkpt lat="46.65706" lon="5.57682">
        <ele>405.7</ele>
        <time>2000-01-01T01:25:23.000Z</time>
      </trkpt>
      <trkpt lat="46.65697" lon="5.57698">
        <ele>418</ele>
        <time>2000-01-01T01:25:33.000Z</time>
      </trkpt>
      <trkpt lat="46.65692" lon="5.57709">
        <ele>405.7</ele>
        <time>2000-01-01T01:25:43.000Z</time>
      </trkpt>
      <trkpt lat="46.65679" lon="5.57746">
        <ele>418</ele>
        <time>2000-01-01T01:25:53.000Z</time>
      </trkpt>
      <trkpt lat="46.65674" lon="5.57762">
        <ele>403.8</ele>
        <time>2000-01-01T01:26:03.000Z</time>
      </trkpt>
      <trkpt lat="46.65672" lon="5.57789">
        <ele>415</ele>
        <time>2000-01-01T01:26:13.000Z</time>
      </trkpt>
      <trkpt lat="46.65672" lon="5.57809">
        <ele>401.8</ele>
        <time>2000-01-01T01:26:23.000Z</time>
      </trkpt>
      <trkpt lat="46.65668" lon="5.57831">
        <ele>414</ele>
        <time>2000-01-01T01:26:33.000Z</time>
      </trkpt>
      <trkpt lat="46.65662" lon="5.57845">
        <ele>405</ele>
        <time>2000-01-01T01:26:43.000Z</time>
      </trkpt>
      <trkpt lat="46.6565" lon="5.57887">
        <ele>413</ele>
        <time>2000-01-01T01:26:53.000Z</time>
      </trkpt>
      <trkpt lat="46.65644" lon="5.57899">
        <ele>408.2</ele>
        <time>2000-01-01T01:27:03.000Z</time>
      </trkpt>
      <trkpt lat="46.65632" lon="5.57932">
        <ele>413</ele>
        <time>2000-01-01T01:27:13.000Z</time>
      </trkpt>
      <trkpt lat="46.65627" lon="5.57938">
        <ele>405.3</ele>
        <time>2000-01-01T01:27:23.000Z</time>
      </trkpt>
      <trkpt lat="46.65623" lon="5.57946">
        <ele>404.6</ele>
        <time>2000-01-01T01:27:33.000Z</time>
      </trkpt>
      <trkpt lat="46.65621" lon="5.57974">
        <ele>412</ele>
        <time>2000-01-01T01:27:43.000Z</time>
      </trkpt>
      <trkpt lat="46.65622" lon="5.57982">
        <ele>399.3</ele>
        <time>2000-01-01T01:27:53.000Z</time>
      </trkpt>
      <trkpt lat="46.6562" lon="5.57997">
        <ele>397.7</ele>
        <time>2000-01-01T01:28:03.000Z</time>
      </trkpt>
      <trkpt lat="46.65617" lon="5.58013">
        <ele>412</ele>
        <time>2000-01-01T01:28:13.000Z</time>
      </trkpt>
      <trkpt lat="46.65613" lon="5.58026">
        <ele>397</ele>
        <time>2000-01-01T01:28:23.000Z</time>
      </trkpt>
      <trkpt lat="46.65611" lon="5.58037">
        <ele>396.4</ele>
        <time>2000-01-01T01:28:33.000Z</time>
      </trkpt>
      <trkpt lat="46.65597" lon="5.58059">
        <ele>413</ele>
        <time>2000-01-01T01:28:43.000Z</time>
      </trkpt>
      <trkpt lat="46.65594" lon="5.58068">
        <ele>396.1</ele>
        <time>2000-01-01T01:28:53.000Z</time>
      </trkpt>
      <trkpt lat="46.6559" lon="5.58074">
        <ele>396.4</ele>
        <time>2000-01-01T01:29:03.000Z</time>
      </trkpt>
      <trkpt lat="46.65586" lon="5.58083">
        <ele>409</ele>
        <time>2000-01-01T01:29:13.000Z</time>
      </trkpt>
      <trkpt lat="46.65587" lon="5.58099">
        <ele>394.1</ele>
        <time>2000-01-01T01:29:23.000Z</time>
      </trkpt>
      <trkpt lat="46.65591" lon="5.5811">
        <ele>406</ele>
        <time>2000-01-01T01:29:33.000Z</time>
      </trkpt>
      <trkpt lat="46.65595" lon="5.58118">
        <ele>390.5</ele>
        <time>2000-01-01T01:29:43.000Z</time>
      </trkpt>
      <trkpt lat="46.65602" lon="5.58128">
        <ele>388.2</ele>
        <time>2000-01-01T01:29:53.000Z</time>
      </trkpt>
      <trkpt lat="46.65606" lon="5.58136">
        <ele>388</ele>
        <time>2000-01-01T01:30:03.000Z</time>
      </trkpt>
      <trkpt lat="46.65606" lon="5.58148">
        <ele>386.1</ele>
        <time>2000-01-01T01:30:13.000Z</time>
      </trkpt>
      <trkpt lat="46.65608" lon="5.58156">
        <ele>384.8</ele>
        <time>2000-01-01T01:30:23.000Z</time>
      </trkpt>
      <trkpt lat="46.6561" lon="5.58194">
        <ele>380</ele>
        <time>2000-01-01T01:30:33.000Z</time>
      </trkpt>
      <trkpt lat="46.65613" lon="5.58207">
        <ele>378.9</ele>
        <time>2000-01-01T01:30:43.000Z</time>
      </trkpt>
      <trkpt lat="46.65615" lon="5.5822">
        <ele>377</ele>
        <time>2000-01-01T01:30:53.000Z</time>
      </trkpt>
      <trkpt lat="46.65618" lon="5.58227">
        <ele>375.6</ele>
        <time>2000-01-01T01:31:03.000Z</time>
      </trkpt>
      <trkpt lat="46.65621" lon="5.5824">
        <ele>374.4</ele>
        <time>2000-01-01T01:31:13.000Z</time>
      </trkpt>
      <trkpt lat="46.65623" lon="5.58255">
        <ele>375</ele>
        <time>2000-01-01T01:31:23.000Z</time>
      </trkpt>
      <trkpt lat="46.65621" lon="5.5827">
        <ele>371.3</ele>
        <time>2000-01-01T01:31:33.000Z</time>
      </trkpt>
      <trkpt lat="46.65618" lon="5.5828">
        <ele>370.3</ele>
        <time>2000-01-01T01:31:43.000Z</time>
      </trkpt>
      <trkpt lat="46.65614" lon="5.58288">
        <ele>372</ele>
        <time>2000-01-01T01:31:53.000Z</time>
      </trkpt>
      <trkpt lat="46.6561" lon="5.58294">
        <ele>368.6</ele>
        <time>2000-01-01T01:32:03.000Z</time>
      </trkpt>
      <trkpt lat="46.65601" lon="5.58305">
        <ele>367.2</ele>
        <time>2000-01-01T01:32:13.000Z</time>
      </trkpt>
      <trkpt lat="46.65593" lon="5.58319">
        <ele>371</ele>
        <time>2000-01-01T01:32:23.000Z</time>
      </trkpt>
      <trkpt lat="46.65583" lon="5.58339">
        <ele>364.7</ele>
        <time>2000-01-01T01:32:33.000Z</time>
      </trkpt>
      <trkpt lat="46.6556" lon="5.58376">
        <ele>368</ele>
        <time>2000-01-01T01:32:43.000Z</time>
      </trkpt>
      <trkpt lat="46.65553" lon="5.58394">
        <ele>365.6</ele>
        <time>2000-01-01T01:32:53.000Z</time>
      </trkpt>
      <trkpt lat="46.65548" lon="5.58403">
        <ele>366</ele>
        <time>2000-01-01T01:33:03.000Z</time>
      </trkpt>
      <trkpt lat="46.65525" lon="5.58439">
        <ele>366</ele>
        <time>2000-01-01T01:33:13.000Z</time>
      </trkpt>
      <trkpt lat="46.65522" lon="5.58455">
        <ele>363.2</ele>
        <time>2000-01-01T01:33:23.000Z</time>
      </trkpt>
      <trkpt lat="46.65528" lon="5.58489">
        <ele>357</ele>
        <time>2000-01-01T01:33:33.000Z</time>
      </trkpt>
      <trkpt lat="46.65531" lon="5.585">
        <ele>361.3</ele>
        <time>2000-01-01T01:33:43.000Z</time>
      </trkpt>
      <trkpt lat="46.65531" lon="5.58514">
        <ele>360.4</ele>
        <time>2000-01-01T01:33:53.000Z</time>
      </trkpt>
      <trkpt lat="46.65529" lon="5.58526">
        <ele>357</ele>
        <time>2000-01-01T01:34:03.000Z</time>
      </trkpt>
      <trkpt lat="46.6553" lon="5.58535">
        <ele>359.2</ele>
        <time>2000-01-01T01:34:13.000Z</time>
      </trkpt>
      <trkpt lat="46.65533" lon="5.58542">
        <ele>358.2</ele>
        <time>2000-01-01T01:34:23.000Z</time>
      </trkpt>
      <trkpt lat="46.65534" lon="5.5855">
        <ele>357.5</ele>
        <time>2000-01-01T01:34:33.000Z</time>
      </trkpt>
      <trkpt lat="46.65537" lon="5.58558">
        <ele>354</ele>
        <time>2000-01-01T01:34:43.000Z</time>
      </trkpt>
      <trkpt lat="46.65542" lon="5.58568">
        <ele>355.5</ele>
        <time>2000-01-01T01:34:53.000Z</time>
      </trkpt>
      <trkpt lat="46.65546" lon="5.58578">
        <ele>354.6</ele>
        <time>2000-01-01T01:35:03.000Z</time>
      </trkpt>
      <trkpt lat="46.65548" lon="5.58586">
        <ele>352</ele>
        <time>2000-01-01T01:35:13.000Z</time>
      </trkpt>
      <trkpt lat="46.65552" lon="5.58598">
        <ele>353</ele>
        <time>2000-01-01T01:35:23.000Z</time>
      </trkpt>
      <trkpt lat="46.65557" lon="5.58607">
        <ele>351.9</ele>
        <time>2000-01-01T01:35:33.000Z</time>
      </trkpt>
      <trkpt lat="46.6556" lon="5.58617">
        <ele>350</ele>
        <time>2000-01-01T01:35:43.000Z</time>
      </trkpt>
      <trkpt lat="46.65564" lon="5.58636">
        <ele>348.4</ele>
        <time>2000-01-01T01:35:53.000Z</time>
      </trkpt>
      <trkpt lat="46.65567" lon="5.58645">
        <ele>346</ele>
        <time>2000-01-01T01:36:03.000Z</time>
      </trkpt>
      <trkpt lat="46.65569" lon="5.58661">
        <ele>345.5</ele>
        <time>2000-01-01T01:36:13.000Z</time>
      </trkpt>
      <trkpt lat="46.65578" lon="5.58684">
        <ele>337</ele>
        <time>2000-01-01T01:36:23.000Z</time>
      </trkpt>
      <trkpt lat="46.65581" lon="5.587">
        <ele>337.9</ele>
        <time>2000-01-01T01:36:33.000Z</time>
      </trkpt>
      <trkpt lat="46.65583" lon="5.58715">
        <ele>330</ele>
        <time>2000-01-01T01:36:43.000Z</time>
      </trkpt>
      <trkpt lat="46.65587" lon="5.58729">
        <ele>333.5</ele>
        <time>2000-01-01T01:36:53.000Z</time>
      </trkpt>
      <trkpt lat="46.65587" lon="5.58755">
        <ele>330</ele>
        <time>2000-01-01T01:37:03.000Z</time>
      </trkpt>
      <trkpt lat="46.65589" lon="5.58771">
        <ele>327.2</ele>
        <time>2000-01-01T01:37:13.000Z</time>
      </trkpt>
      <trkpt lat="46.65592" lon="5.58778">
        <ele>325.8</ele>
        <time>2000-01-01T01:37:23.000Z</time>
      </trkpt>
      <trkpt lat="46.65598" lon="5.58781">
        <ele>330</ele>
        <time>2000-01-01T01:37:33.000Z</time>
      </trkpt>
      <trkpt lat="46.6561" lon="5.5878">
        <ele>323.2</ele>
        <time>2000-01-01T01:37:43.000Z</time>
      </trkpt>
      <trkpt lat="46.65617" lon="5.58777">
        <ele>322</ele>
        <time>2000-01-01T01:37:53.000Z</time>
      </trkpt>
      <trkpt lat="46.65625" lon="5.58775">
        <ele>321.9</ele>
        <time>2000-01-01T01:38:03.000Z</time>
      </trkpt>
      <trkpt lat="46.65643" lon="5.58773">
        <ele>320</ele>
        <time>2000-01-01T01:38:13.000Z</time>
      </trkpt>
      <trkpt lat="46.6565" lon="5.58773">
        <ele>319.6</ele>
        <time>2000-01-01T01:38:23.000Z</time>
      </trkpt>
      <trkpt lat="46.65654" lon="5.58767">
        <ele>319.7</ele>
        <time>2000-01-01T01:38:33.000Z</time>
      </trkpt>
      <trkpt lat="46.65662" lon="5.58778">
        <ele>314</ele>
        <time>2000-01-01T01:38:43.000Z</time>
      </trkpt>
      <trkpt lat="46.65671" lon="5.58787">
        <ele>317.3</ele>
        <time>2000-01-01T01:38:53.000Z</time>
      </trkpt>
      <trkpt lat="46.65676" lon="5.5879">
        <ele>316.7</ele>
        <time>2000-01-01T01:39:03.000Z</time>
      </trkpt>
      <trkpt lat="46.65682" lon="5.58798">
        <ele>314</ele>
        <time>2000-01-01T01:39:13.000Z</time>
      </trkpt>
      <trkpt lat="46.65689" lon="5.5881">
        <ele>315.4</ele>
        <time>2000-01-01T01:39:23.000Z</time>
      </trkpt>
      <trkpt lat="46.65698" lon="5.58816">
        <ele>312</ele>
        <time>2000-01-01T01:39:33.000Z</time>
      </trkpt>
      <trkpt lat="46.65706" lon="5.5882">
        <ele>314.2</ele>
        <time>2000-01-01T01:39:43.000Z</time>
      </trkpt>
      <trkpt lat="46.65717" lon="5.58825">
        <ele>311</ele>
        <time>2000-01-01T01:39:53.000Z</time>
      </trkpt>
      <trkpt lat="46.65723" lon="5.58826">
        <ele>313</ele>
        <time>2000-01-01T01:40:03.000Z</time>
      </trkpt>
      <trkpt lat="46.65729" lon="5.5883">
        <ele>312.7</ele>
        <time>2000-01-01T01:40:13.000Z</time>
      </trkpt>
      <trkpt lat="46.65739" lon="5.58837">
        <ele>311</ele>
        <time>2000-01-01T01:40:23.000Z</time>
      </trkpt>
      <trkpt lat="46.65744" lon="5.58842">
        <ele>312.2</ele>
        <time>2000-01-01T01:40:33.000Z</time>
      </trkpt>
      <trkpt lat="46.65749" lon="5.5885">
        <ele>312</ele>
        <time>2000-01-01T01:40:43.000Z</time>
      </trkpt>
      <trkpt lat="46.65745" lon="5.58865">
        <ele>308</ele>
        <time>2000-01-01T01:40:53.000Z</time>
      </trkpt>
      <trkpt lat="46.65739" lon="5.58879">
        <ele>312</ele>
        <time>2000-01-01T01:41:03.000Z</time>
      </trkpt>
      <trkpt lat="46.65736" lon="5.58888">
        <ele>312</ele>
        <time>2000-01-01T01:41:13.000Z</time>
      </trkpt>
      <trkpt lat="46.65733" lon="5.58901">
        <ele>307</ele>
        <time>2000-01-01T01:41:23.000Z</time>
      </trkpt>
      <trkpt lat="46.65729" lon="5.58914">
        <ele>311.6</ele>
        <time>2000-01-01T01:41:33.000Z</time>
      </trkpt>
      <trkpt lat="46.65723" lon="5.58929">
        <ele>308</ele>
        <time>2000-01-01T01:41:43.000Z</time>
      </trkpt>
      <trkpt lat="46.65698" lon="5.58968">
        <ele>309</ele>
        <time>2000-01-01T01:41:53.000Z</time>
      </trkpt>
      <trkpt lat="46.65694" lon="5.58976">
        <ele>313.9</ele>
        <time>2000-01-01T01:42:03.000Z</time>
      </trkpt>
      <trkpt lat="46.65687" lon="5.58986">
        <ele>313.9</ele>
        <time>2000-01-01T01:42:13.000Z</time>
      </trkpt>
      <trkpt lat="46.65679" lon="5.58999">
        <ele>313</ele>
        <time>2000-01-01T01:42:23.000Z</time>
      </trkpt>
      <trkpt lat="46.6567" lon="5.59017">
        <ele>314.1</ele>
        <time>2000-01-01T01:42:33.000Z</time>
      </trkpt>
      <trkpt lat="46.6566" lon="5.59041">
        <ele>312</ele>
        <time>2000-01-01T01:42:43.000Z</time>
      </trkpt>
      <trkpt lat="46.65659" lon="5.5905">
        <ele>314.2</ele>
        <time>2000-01-01T01:42:53.000Z</time>
      </trkpt>
      <trkpt lat="46.65662" lon="5.59061">
        <ele>313.4</ele>
        <time>2000-01-01T01:43:03.000Z</time>
      </trkpt>
      <trkpt lat="46.65668" lon="5.5907">
        <ele>312</ele>
        <time>2000-01-01T01:43:13.000Z</time>
      </trkpt>
      <trkpt lat="46.65671" lon="5.59077">
        <ele>311.9</ele>
        <time>2000-01-01T01:43:23.000Z</time>
      </trkpt>
      <trkpt lat="46.65672" lon="5.59086">
        <ele>311.5</ele>
        <time>2000-01-01T01:43:33.000Z</time>
      </trkpt>
      <trkpt lat="46.65668" lon="5.59139">
        <ele>306</ele>
        <time>2000-01-01T01:43:43.000Z</time>
      </trkpt>
      <trkpt lat="46.65663" lon="5.59187">
        <ele>306</ele>
        <time>2000-01-01T01:43:53.000Z</time>
      </trkpt>
      <trkpt lat="46.6566" lon="5.5923">
        <ele>306</ele>
        <time>2000-01-01T01:44:03.000Z</time>
      </trkpt>
      <trkpt lat="46.65656" lon="5.59263">
        <ele>306</ele>
        <time>2000-01-01T01:44:13.000Z</time>
      </trkpt>
      <trkpt lat="46.65654" lon="5.59271">
        <ele>309.6</ele>
        <time>2000-01-01T01:44:23.000Z</time>
      </trkpt>
      <trkpt lat="46.65651" lon="5.59299">
        <ele>306</ele>
        <time>2000-01-01T01:44:33.000Z</time>
      </trkpt>
      <trkpt lat="46.65646" lon="5.59316">
        <ele>309.5</ele>
        <time>2000-01-01T01:44:43.000Z</time>
      </trkpt>
      <trkpt lat="46.65644" lon="5.59327">
        <ele>306</ele>
        <time>2000-01-01T01:44:53.000Z</time>
      </trkpt>
      <trkpt lat="46.65641" lon="5.59337">
        <ele>309.7</ele>
        <time>2000-01-01T01:45:03.000Z</time>
      </trkpt>
      <trkpt lat="46.65629" lon="5.59365">
        <ele>307</ele>
        <time>2000-01-01T01:45:13.000Z</time>
      </trkpt>
      <trkpt lat="46.65621" lon="5.5938">
        <ele>310.5</ele>
        <time>2000-01-01T01:45:23.000Z</time>
      </trkpt>
      <trkpt lat="46.65615" lon="5.59388">
        <ele>309</ele>
        <time>2000-01-01T01:45:33.000Z</time>
      </trkpt>
      <trkpt lat="46.65609" lon="5.59402">
        <ele>310.8</ele>
        <time>2000-01-01T01:45:43.000Z</time>
      </trkpt>
      <trkpt lat="46.65605" lon="5.59408">
        <ele>311</ele>
        <time>2000-01-01T01:45:53.000Z</time>
      </trkpt>
      <trkpt lat="46.65594" lon="5.59423">
        <ele>311</ele>
        <time>2000-01-01T01:46:03.000Z</time>
      </trkpt>
      <trkpt lat="46.65583" lon="5.59434">
        <ele>311.8</ele>
        <time>2000-01-01T01:46:13.000Z</time>
      </trkpt>
      <trkpt lat="46.65579" lon="5.5944">
        <ele>311</ele>
        <time>2000-01-01T01:46:23.000Z</time>
      </trkpt>
      <trkpt lat="46.65571" lon="5.59448">
        <ele>312.6</ele>
        <time>2000-01-01T01:46:33.000Z</time>
      </trkpt>
      <trkpt lat="46.65567" lon="5.59455">
        <ele>312.7</ele>
        <time>2000-01-01T01:46:43.000Z</time>
      </trkpt>
      <trkpt lat="46.65546" lon="5.59482">
        <ele>311</ele>
        <time>2000-01-01T01:46:53.000Z</time>
      </trkpt>
      <trkpt lat="46.65542" lon="5.5949">
        <ele>313.8</ele>
        <time>2000-01-01T01:47:03.000Z</time>
      </trkpt>
      <trkpt lat="46.65536" lon="5.59498">
        <ele>313.8</ele>
        <time>2000-01-01T01:47:13.000Z</time>
      </trkpt>
      <trkpt lat="46.65518" lon="5.59525">
        <ele>310</ele>
        <time>2000-01-01T01:47:23.000Z</time>
      </trkpt>
      <trkpt lat="46.65509" lon="5.59536">
        <ele>313.4</ele>
        <time>2000-01-01T01:47:33.000Z</time>
      </trkpt>
      <trkpt lat="46.65504" lon="5.5954">
        <ele>313.7</ele>
        <time>2000-01-01T01:47:43.000Z</time>
      </trkpt>
      <trkpt lat="46.65493" lon="5.59557">
        <ele>310</ele>
        <time>2000-01-01T01:47:53.000Z</time>
      </trkpt>
      <trkpt lat="46.65489" lon="5.59566">
        <ele>313.5</ele>
        <time>2000-01-01T01:48:03.000Z</time>
      </trkpt>
      <trkpt lat="46.65485" lon="5.59587">
        <ele>310</ele>
        <time>2000-01-01T01:48:13.000Z</time>
      </trkpt>
      <trkpt lat="46.65483" lon="5.59595">
        <ele>311.6</ele>
        <time>2000-01-01T01:48:23.000Z</time>
      </trkpt>
      <trkpt lat="46.65477" lon="5.59604">
        <ele>311.2</ele>
        <time>2000-01-01T01:48:33.000Z</time>
      </trkpt>
      <trkpt lat="46.65445" lon="5.59632">
        <ele>311</ele>
        <time>2000-01-01T01:48:43.000Z</time>
      </trkpt>
      <trkpt lat="46.65436" lon="5.59645">
        <ele>311.8</ele>
        <time>2000-01-01T01:48:53.000Z</time>
      </trkpt>
      <trkpt lat="46.65428" lon="5.59653">
        <ele>311</ele>
        <time>2000-01-01T01:49:03.000Z</time>
      </trkpt>
      <trkpt lat="46.65417" lon="5.59676">
        <ele>311</ele>
        <time>2000-01-01T01:49:13.000Z</time>
      </trkpt>
      <trkpt lat="46.6541" lon="5.597">
        <ele>311</ele>
        <time>2000-01-01T01:49:23.000Z</time>
      </trkpt>
      <trkpt lat="46.65403" lon="5.5972">
        <ele>310</ele>
        <time>2000-01-01T01:49:33.000Z</time>
      </trkpt>
      <trkpt lat="46.65399" lon="5.59737">
        <ele>311.8</ele>
        <time>2000-01-01T01:49:43.000Z</time>
      </trkpt>
      <trkpt lat="46.65403" lon="5.59757">
        <ele>310</ele>
        <time>2000-01-01T01:49:53.000Z</time>
      </trkpt>
      <trkpt lat="46.65411" lon="5.5978">
        <ele>312.3</ele>
        <time>2000-01-01T01:50:03.000Z</time>
      </trkpt>
      <trkpt lat="46.65413" lon="5.5979">
        <ele>310</ele>
        <time>2000-01-01T01:50:13.000Z</time>
      </trkpt>
      <trkpt lat="46.65408" lon="5.59805">
        <ele>313</ele>
        <time>2000-01-01T01:50:23.000Z</time>
      </trkpt>
      <trkpt lat="46.65396" lon="5.59823">
        <ele>310</ele>
        <time>2000-01-01T01:50:33.000Z</time>
      </trkpt>
      <trkpt lat="46.65383" lon="5.59839">
        <ele>314</ele>
        <time>2000-01-01T01:50:43.000Z</time>
      </trkpt>
      <trkpt lat="46.65366" lon="5.59848">
        <ele>313</ele>
        <time>2000-01-01T01:50:53.000Z</time>
      </trkpt>
      <trkpt lat="46.65354" lon="5.5985">
        <ele>314</ele>
        <time>2000-01-01T01:51:03.000Z</time>
      </trkpt>
      <trkpt lat="46.65343" lon="5.59861">
        <ele>323</ele>
        <time>2000-01-01T01:51:13.000Z</time>
      </trkpt>
      <trkpt lat="46.65324" lon="5.59878">
        <ele>323</ele>
        <time>2000-01-01T01:51:23.000Z</time>
      </trkpt>
      <trkpt lat="46.6531" lon="5.59891">
        <ele>315</ele>
        <time>2000-01-01T01:51:33.000Z</time>
      </trkpt>
      <trkpt lat="46.65281" lon="5.59912">
        <ele>315</ele>
        <time>2000-01-01T01:51:43.000Z</time>
      </trkpt>
      <trkpt lat="46.6529" lon="5.59927">
        <ele>315.7</ele>
        <time>2000-01-01T01:51:53.000Z</time>
      </trkpt>
      <trkpt lat="46.65274" lon="5.59942">
        <ele>310</ele>
        <time>2000-01-01T01:52:03.000Z</time>
      </trkpt>
      <trkpt lat="46.65266" lon="5.59958">
        <ele>316.3</ele>
        <time>2000-01-01T01:52:13.000Z</time>
      </trkpt>
      <trkpt lat="46.65272" lon="5.59972">
        <ele>309</ele>
        <time>2000-01-01T01:52:23.000Z</time>
      </trkpt>
      <trkpt lat="46.65266" lon="5.59987">
        <ele>317.1</ele>
        <time>2000-01-01T01:52:33.000Z</time>
      </trkpt>
      <trkpt lat="46.65258" lon="5.60006">
        <ele>309</ele>
        <time>2000-01-01T01:52:43.000Z</time>
      </trkpt>
      <trkpt lat="46.65255" lon="5.60023">
        <ele>318.2</ele>
        <time>2000-01-01T01:52:53.000Z</time>
      </trkpt>
      <trkpt lat="46.65258" lon="5.60031">
        <ele>318.9</ele>
        <time>2000-01-01T01:53:03.000Z</time>
      </trkpt>
      <trkpt lat="46.65285" lon="5.6001">
        <ele>309</ele>
        <time>2000-01-01T01:53:13.000Z</time>
      </trkpt>
      <trkpt lat="46.653" lon="5.59992">
        <ele>312</ele>
        <time>2000-01-01T01:53:23.000Z</time>
      </trkpt>
      <trkpt lat="46.65311" lon="5.60031">
        <ele>315</ele>
        <time>2000-01-01T01:53:33.000Z</time>
      </trkpt>
      <trkpt lat="46.65317" lon="5.60039">
        <ele>321.1</ele>
        <time>2000-01-01T01:53:43.000Z</time>
      </trkpt>
      <trkpt lat="46.65334" lon="5.60073">
        <ele>320</ele>
        <time>2000-01-01T01:53:53.000Z</time>
      </trkpt>
      <trkpt lat="46.6535" lon="5.60108">
        <ele>320</ele>
        <time>2000-01-01T01:54:03.000Z</time>
      </trkpt>
      <trkpt lat="46.65362" lon="5.60137">
        <ele>320</ele>
        <time>2000-01-01T01:54:13.000Z</time>
      </trkpt>
      <trkpt lat="46.65376" lon="5.60168">
        <ele>323</ele>
        <time>2000-01-01T01:54:23.000Z</time>
      </trkpt>
      <trkpt lat="46.65394" lon="5.60211">
        <ele>324</ele>
        <time>2000-01-01T01:54:33.000Z</time>
      </trkpt>
      <trkpt lat="46.65414" lon="5.60232">
        <ele>324</ele>
        <time>2000-01-01T01:54:43.000Z</time>
      </trkpt>
      <trkpt lat="46.65438" lon="5.60257">
        <ele>327</ele>
        <time>2000-01-01T01:54:53.000Z</time>
      </trkpt>
      <trkpt lat="46.6547" lon="5.60292">
        <ele>332</ele>
        <time>2000-01-01T01:55:03.000Z</time>
      </trkpt>
      <trkpt lat="46.65482" lon="5.60326">
        <ele>332</ele>
        <time>2000-01-01T01:55:13.000Z</time>
      </trkpt>
      <trkpt lat="46.65497" lon="5.60371">
        <ele>332</ele>
        <time>2000-01-01T01:55:23.000Z</time>
      </trkpt>
      <trkpt lat="46.65511" lon="5.60403">
        <ele>335</ele>
        <time>2000-01-01T01:55:33.000Z</time>
      </trkpt>
      <trkpt lat="46.6553" lon="5.60446">
        <ele>338</ele>
        <time>2000-01-01T01:55:43.000Z</time>
      </trkpt>
      <trkpt lat="46.65543" lon="5.60475">
        <ele>336</ele>
        <time>2000-01-01T01:55:53.000Z</time>
      </trkpt>
      <trkpt lat="46.65556" lon="5.60504">
        <ele>337</ele>
        <time>2000-01-01T01:56:03.000Z</time>
      </trkpt>
      <trkpt lat="46.65571" lon="5.60515">
        <ele>336.8</ele>
        <time>2000-01-01T01:56:13.000Z</time>
      </trkpt>
      <trkpt lat="46.65591" lon="5.6054">
        <ele>338</ele>
        <time>2000-01-01T01:56:23.000Z</time>
      </trkpt>
      <trkpt lat="46.65599" lon="5.60576">
        <ele>344</ele>
        <time>2000-01-01T01:56:33.000Z</time>
      </trkpt>
      <trkpt lat="46.6561" lon="5.60619">
        <ele>344</ele>
        <time>2000-01-01T01:56:43.000Z</time>
      </trkpt>
      <trkpt lat="46.65619" lon="5.60645">
        <ele>343</ele>
        <time>2000-01-01T01:56:53.000Z</time>
      </trkpt>
      <trkpt lat="46.65651" lon="5.60601">
        <ele>344</ele>
        <time>2000-01-01T01:57:03.000Z</time>
      </trkpt>
      <trkpt lat="46.65656" lon="5.60609">
        <ele>340.2</ele>
        <time>2000-01-01T01:57:13.000Z</time>
      </trkpt>
      <trkpt lat="46.65692" lon="5.60569">
        <ele>346</ele>
        <time>2000-01-01T01:57:23.000Z</time>
      </trkpt>
      <trkpt lat="46.65699" lon="5.60538">
        <ele>346</ele>
        <time>2000-01-01T01:57:33.000Z</time>
      </trkpt>
      <trkpt lat="46.65691" lon="5.60508">
        <ele>344</ele>
        <time>2000-01-01T01:57:43.000Z</time>
      </trkpt>
      <trkpt lat="46.65664" lon="5.60463">
        <ele>342</ele>
        <time>2000-01-01T01:57:53.000Z</time>
      </trkpt>
      <trkpt lat="46.65648" lon="5.60425">
        <ele>342</ele>
        <time>2000-01-01T01:58:03.000Z</time>
      </trkpt>
      <trkpt lat="46.65636" lon="5.60397">
        <ele>342</ele>
        <time>2000-01-01T01:58:13.000Z</time>
      </trkpt>
      <trkpt lat="46.65623" lon="5.60367">
        <ele>340</ele>
        <time>2000-01-01T01:58:23.000Z</time>
      </trkpt>
      <trkpt lat="46.6562" lon="5.60332">
        <ele>340</ele>
        <time>2000-01-01T01:58:33.000Z</time>
      </trkpt>
      <trkpt lat="46.65616" lon="5.6029">
        <ele>341</ele>
        <time>2000-01-01T01:58:43.000Z</time>
      </trkpt>
      <trkpt lat="46.65614" lon="5.60254">
        <ele>341</ele>
        <time>2000-01-01T01:58:53.000Z</time>
      </trkpt>
      <trkpt lat="46.65611" lon="5.60211">
        <ele>339</ele>
        <time>2000-01-01T01:59:03.000Z</time>
      </trkpt>
      <trkpt lat="46.65584" lon="5.60203">
        <ele>333</ele>
        <time>2000-01-01T01:59:13.000Z</time>
      </trkpt>
      <trkpt lat="46.65589" lon="5.60168">
        <ele>333</ele>
        <time>2000-01-01T01:59:23.000Z</time>
      </trkpt>
      <trkpt lat="46.65594" lon="5.60129">
        <ele>333</ele>
        <time>2000-01-01T01:59:33.000Z</time>
      </trkpt>
      <trkpt lat="46.65615" lon="5.60127">
        <ele>334</ele>
        <time>2000-01-01T01:59:43.000Z</time>
      </trkpt>
      <trkpt lat="46.65621" lon="5.60124">
        <ele>338.2</ele>
        <time>2000-01-01T01:59:53.000Z</time>
      </trkpt>
      <trkpt lat="46.65631" lon="5.60111">
        <ele>342</ele>
        <time>2000-01-01T02:00:03.000Z</time>
      </trkpt>
      <trkpt lat="46.6564" lon="5.60093">
        <ele>341.2</ele>
        <time>2000-01-01T02:00:13.000Z</time>
      </trkpt>
      <trkpt lat="46.65664" lon="5.60107">
        <ele>343</ele>
        <time>2000-01-01T02:00:23.000Z</time>
      </trkpt>
      <trkpt lat="46.65678" lon="5.60101">
        <ele>351</ele>
        <time>2000-01-01T02:00:33.000Z</time>
      </trkpt>
      <trkpt lat="46.65686" lon="5.60085">
        <ele>342</ele>
        <time>2000-01-01T02:00:43.000Z</time>
      </trkpt>
      <trkpt lat="46.65689" lon="5.6007">
        <ele>354.8</ele>
        <time>2000-01-01T02:00:53.000Z</time>
      </trkpt>
      <trkpt lat="46.65688" lon="5.60062">
        <ele>353.9</ele>
        <time>2000-01-01T02:01:03.000Z</time>
      </trkpt>
      <trkpt lat="46.6569" lon="5.60054">
        <ele>342</ele>
        <time>2000-01-01T02:01:13.000Z</time>
      </trkpt>
      <trkpt lat="46.65699" lon="5.60035">
        <ele>355.5</ele>
        <time>2000-01-01T02:01:23.000Z</time>
      </trkpt>
      <trkpt lat="46.65704" lon="5.60031">
        <ele>350</ele>
        <time>2000-01-01T02:01:33.000Z</time>
      </trkpt>
      <trkpt lat="46.65706" lon="5.60041">
        <ele>358.8</ele>
        <time>2000-01-01T02:01:43.000Z</time>
      </trkpt>
      <trkpt lat="46.65703" lon="5.60048">
        <ele>358.5</ele>
        <time>2000-01-01T02:01:53.000Z</time>
      </trkpt>
      <trkpt lat="46.65702" lon="5.60056">
        <ele>359</ele>
        <time>2000-01-01T02:02:03.000Z</time>
      </trkpt>
      <trkpt lat="46.65703" lon="5.6007">
        <ele>352</ele>
        <time>2000-01-01T02:02:13.000Z</time>
      </trkpt>
      <trkpt lat="46.65705" lon="5.60081">
        <ele>362</ele>
        <time>2000-01-01T02:02:23.000Z</time>
      </trkpt>
      <trkpt lat="46.65706" lon="5.60092">
        <ele>362.4</ele>
        <time>2000-01-01T02:02:33.000Z</time>
      </trkpt>
      <trkpt lat="46.6571" lon="5.6011">
        <ele>355</ele>
        <time>2000-01-01T02:02:43.000Z</time>
      </trkpt>
      <trkpt lat="46.6571" lon="5.60122">
        <ele>363.9</ele>
        <time>2000-01-01T02:02:53.000Z</time>
      </trkpt>
      <trkpt lat="46.65715" lon="5.60134">
        <ele>366.1</ele>
        <time>2000-01-01T02:03:03.000Z</time>
      </trkpt>
      <trkpt lat="46.65721" lon="5.60136">
        <ele>357</ele>
        <time>2000-01-01T02:03:13.000Z</time>
      </trkpt>
      <trkpt lat="46.65724" lon="5.60126">
        <ele>369.6</ele>
        <time>2000-01-01T02:03:23.000Z</time>
      </trkpt>
      <trkpt lat="46.6573" lon="5.60119">
        <ele>371.8</ele>
        <time>2000-01-01T02:03:33.000Z</time>
      </trkpt>
      <trkpt lat="46.65734" lon="5.60113">
        <ele>360</ele>
        <time>2000-01-01T02:03:43.000Z</time>
      </trkpt>
      <trkpt lat="46.65739" lon="5.60118">
        <ele>375</ele>
        <time>2000-01-01T02:03:53.000Z</time>
      </trkpt>
      <trkpt lat="46.65739" lon="5.60126">
        <ele>375</ele>
        <time>2000-01-01T02:04:03.000Z</time>
      </trkpt>
      <trkpt lat="46.65742" lon="5.60134">
        <ele>376.1</ele>
        <time>2000-01-01T02:04:13.000Z</time>
      </trkpt>
      <trkpt lat="46.65748" lon="5.60137">
        <ele>367</ele>
        <time>2000-01-01T02:04:23.000Z</time>
      </trkpt>
      <trkpt lat="46.65755" lon="5.6013">
        <ele>381</ele>
        <time>2000-01-01T02:04:33.000Z</time>
      </trkpt>
      <trkpt lat="46.6576" lon="5.60123">
        <ele>382.7</ele>
        <time>2000-01-01T02:04:43.000Z</time>
      </trkpt>
      <trkpt lat="46.65765" lon="5.60109">
        <ele>375</ele>
        <time>2000-01-01T02:04:53.000Z</time>
      </trkpt>
      <trkpt lat="46.6578" lon="5.60085">
        <ele>386</ele>
        <time>2000-01-01T02:05:03.000Z</time>
      </trkpt>
      <trkpt lat="46.65786" lon="5.60093">
        <ele>389.7</ele>
        <time>2000-01-01T02:05:13.000Z</time>
      </trkpt>
      <trkpt lat="46.658" lon="5.60088">
        <ele>386</ele>
        <time>2000-01-01T02:05:23.000Z</time>
      </trkpt>
      <trkpt lat="46.65806" lon="5.60083">
        <ele>395.1</ele>
        <time>2000-01-01T02:05:33.000Z</time>
      </trkpt>
      <trkpt lat="46.65811" lon="5.60088">
        <ele>397.5</ele>
        <time>2000-01-01T02:05:43.000Z</time>
      </trkpt>
      <trkpt lat="46.65806" lon="5.60095">
        <ele>391</ele>
        <time>2000-01-01T02:05:53.000Z</time>
      </trkpt>
      <trkpt lat="46.65804" lon="5.60105">
        <ele>398.3</ele>
        <time>2000-01-01T02:06:03.000Z</time>
      </trkpt>
      <trkpt lat="46.65805" lon="5.60113">
        <ele>400</ele>
        <time>2000-01-01T02:06:13.000Z</time>
      </trkpt>
      <trkpt lat="46.65812" lon="5.60111">
        <ele>396</ele>
        <time>2000-01-01T02:06:23.000Z</time>
      </trkpt>
      <trkpt lat="46.65818" lon="5.60116">
        <ele>402.6</ele>
        <time>2000-01-01T02:06:33.000Z</time>
      </trkpt>
      <trkpt lat="46.65813" lon="5.60119">
        <ele>402.2</ele>
        <time>2000-01-01T02:06:43.000Z</time>
      </trkpt>
      <trkpt lat="46.65809" lon="5.60125">
        <ele>402.4</ele>
        <time>2000-01-01T02:06:53.000Z</time>
      </trkpt>
      <trkpt lat="46.65818" lon="5.60129">
        <ele>396</ele>
        <time>2000-01-01T02:07:03.000Z</time>
      </trkpt>
      <trkpt lat="46.65821" lon="5.60137">
        <ele>404.4</ele>
        <time>2000-01-01T02:07:13.000Z</time>
      </trkpt>
      <trkpt lat="46.65827" lon="5.6015">
        <ele>405.2</ele>
        <time>2000-01-01T02:07:23.000Z</time>
      </trkpt>
      <trkpt lat="46.65829" lon="5.6016">
        <ele>408</ele>
        <time>2000-01-01T02:07:33.000Z</time>
      </trkpt>
      <trkpt lat="46.65831" lon="5.60177">
        <ele>406.3</ele>
        <time>2000-01-01T02:07:43.000Z</time>
      </trkpt>
      <trkpt lat="46.6583" lon="5.60193">
        <ele>413</ele>
        <time>2000-01-01T02:07:53.000Z</time>
      </trkpt>
      <trkpt lat="46.65827" lon="5.60203">
        <ele>406.8</ele>
        <time>2000-01-01T02:08:03.000Z</time>
      </trkpt>
      <trkpt lat="46.65824" lon="5.60226">
        <ele>413</ele>
        <time>2000-01-01T02:08:13.000Z</time>
      </trkpt>
      <trkpt lat="46.65826" lon="5.60234">
        <ele>407.3</ele>
        <time>2000-01-01T02:08:23.000Z</time>
      </trkpt>
      <trkpt lat="46.65833" lon="5.60242">
        <ele>408.7</ele>
        <time>2000-01-01T02:08:33.000Z</time>
      </trkpt>
      <trkpt lat="46.65841" lon="5.60255">
        <ele>414</ele>
        <time>2000-01-01T02:08:43.000Z</time>
      </trkpt>
      <trkpt lat="46.65843" lon="5.60263">
        <ele>413.4</ele>
        <time>2000-01-01T02:08:53.000Z</time>
      </trkpt>
      <trkpt lat="46.65847" lon="5.60272">
        <ele>415.1</ele>
        <time>2000-01-01T02:09:03.000Z</time>
      </trkpt>
      <trkpt lat="46.65852" lon="5.60251">
        <ele>424</ele>
        <time>2000-01-01T02:09:13.000Z</time>
      </trkpt>
      <trkpt lat="46.65856" lon="5.60239">
        <ele>420.7</ele>
        <time>2000-01-01T02:09:23.000Z</time>
      </trkpt>
      <trkpt lat="46.65868" lon="5.60218">
        <ele>424</ele>
        <time>2000-01-01T02:09:33.000Z</time>
      </trkpt>
      <trkpt lat="46.65875" lon="5.6021">
        <ele>426</ele>
        <time>2000-01-01T02:09:43.000Z</time>
      </trkpt>
      <trkpt lat="46.65884" lon="5.60203">
        <ele>426</ele>
        <time>2000-01-01T02:09:53.000Z</time>
      </trkpt>
      <trkpt lat="46.65891" lon="5.60195">
        <ele>428.8</ele>
        <time>2000-01-01T02:10:03.000Z</time>
      </trkpt>
      <trkpt lat="46.65899" lon="5.60185">
        <ele>429</ele>
        <time>2000-01-01T02:10:13.000Z</time>
      </trkpt>
      <trkpt lat="46.65904" lon="5.60174">
        <ele>433.8</ele>
        <time>2000-01-01T02:10:23.000Z</time>
      </trkpt>
      <trkpt lat="46.65912" lon="5.60165">
        <ele>434</ele>
        <time>2000-01-01T02:10:33.000Z</time>
      </trkpt>
      <trkpt lat="46.6592" lon="5.60158">
        <ele>439.6</ele>
        <time>2000-01-01T02:10:43.000Z</time>
      </trkpt>
      <trkpt lat="46.6593" lon="5.60156">
        <ele>439</ele>
        <time>2000-01-01T02:10:53.000Z</time>
      </trkpt>
      <trkpt lat="46.65936" lon="5.60157">
        <ele>446.7</ele>
        <time>2000-01-01T02:11:03.000Z</time>
      </trkpt>
      <trkpt lat="46.6594" lon="5.60163">
        <ele>450.4</ele>
        <time>2000-01-01T02:11:13.000Z</time>
      </trkpt>
      <trkpt lat="46.65938" lon="5.60176">
        <ele>442</ele>
        <time>2000-01-01T02:11:23.000Z</time>
      </trkpt>
      <trkpt lat="46.65939" lon="5.60184">
        <ele>453.9</ele>
        <time>2000-01-01T02:11:33.000Z</time>
      </trkpt>
      <trkpt lat="46.65945" lon="5.60186">
        <ele>458.7</ele>
        <time>2000-01-01T02:11:43.000Z</time>
      </trkpt>
      <trkpt lat="46.65948" lon="5.60177">
        <ele>457</ele>
        <time>2000-01-01T02:11:53.000Z</time>
      </trkpt>
      <trkpt lat="46.65952" lon="5.6017">
        <ele>460.8</ele>
        <time>2000-01-01T02:12:03.000Z</time>
      </trkpt>
      <trkpt lat="46.65967" lon="5.60156">
        <ele>465</ele>
        <time>2000-01-01T02:12:13.000Z</time>
      </trkpt>
      <trkpt lat="46.65976" lon="5.6015">
        <ele>469</ele>
        <time>2000-01-01T02:12:23.000Z</time>
      </trkpt>
      <trkpt lat="46.65986" lon="5.6014">
        <ele>465</ele>
        <time>2000-01-01T02:12:33.000Z</time>
      </trkpt>
      <trkpt lat="46.66006" lon="5.6014">
        <ele>479</ele>
        <time>2000-01-01T02:12:43.000Z</time>
      </trkpt>
      <trkpt lat="46.66017" lon="5.60139">
        <ele>488.5</ele>
        <time>2000-01-01T02:12:53.000Z</time>
      </trkpt>
      <trkpt lat="46.66008" lon="5.60147">
        <ele>479</ele>
        <time>2000-01-01T02:13:03.000Z</time>
      </trkpt>
      <trkpt lat="46.66001" lon="5.60158">
        <ele>491.6</ele>
        <time>2000-01-01T02:13:13.000Z</time>
      </trkpt>
      <trkpt lat="46.65996" lon="5.60162">
        <ele>490.9</ele>
        <time>2000-01-01T02:13:23.000Z</time>
      </trkpt>
      <trkpt lat="46.65984" lon="5.60182">
        <ele>489</ele>
        <time>2000-01-01T02:13:33.000Z</time>
      </trkpt>
      <trkpt lat="46.65984" lon="5.60191">
        <ele>493.3</ele>
        <time>2000-01-01T02:13:43.000Z</time>
      </trkpt>
      <trkpt lat="46.65989" lon="5.60199">
        <ele>498.1</ele>
        <time>2000-01-01T02:13:53.000Z</time>
      </trkpt>
      <trkpt lat="46.65991" lon="5.60208">
        <ele>499</ele>
        <time>2000-01-01T02:14:03.000Z</time>
      </trkpt>
      <trkpt lat="46.65994" lon="5.60215">
        <ele>502.4</ele>
        <time>2000-01-01T02:14:13.000Z</time>
      </trkpt>
      <trkpt lat="46.65989" lon="5.6021">
        <ele>498.1</ele>
        <time>2000-01-01T02:14:23.000Z</time>
      </trkpt>
      <trkpt lat="46.65992" lon="5.60198">
        <ele>499</ele>
        <time>2000-01-01T02:14:33.000Z</time>
      </trkpt>
      <trkpt lat="46.65992" lon="5.60187">
        <ele>497.8</ele>
        <time>2000-01-01T02:14:43.000Z</time>
      </trkpt>
      <trkpt lat="46.65995" lon="5.60178">
        <ele>497</ele>
        <time>2000-01-01T02:14:53.000Z</time>
      </trkpt>
      <trkpt lat="46.66016" lon="5.60162">
        <ele>491</ele>
        <time>2000-01-01T02:15:03.000Z</time>
      </trkpt>
      <trkpt lat="46.66029" lon="5.60148">
        <ele>500.9</ele>
        <time>2000-01-01T02:15:13.000Z</time>
      </trkpt>
      <trkpt lat="46.66036" lon="5.60144">
        <ele>500</ele>
        <time>2000-01-01T02:15:23.000Z</time>
      </trkpt>
      <trkpt lat="46.66048" lon="5.60139">
        <ele>506.7</ele>
        <time>2000-01-01T02:15:33.000Z</time>
      </trkpt>
      <trkpt lat="46.66056" lon="5.60133">
        <ele>510</ele>
        <time>2000-01-01T02:15:43.000Z</time>
      </trkpt>
      <trkpt lat="46.66064" lon="5.60133">
        <ele>510.7</ele>
        <time>2000-01-01T02:15:53.000Z</time>
      </trkpt>
      <trkpt lat="46.66072" lon="5.60136">
        <ele>514.5</ele>
        <time>2000-01-01T02:16:03.000Z</time>
      </trkpt>
      <trkpt lat="46.66077" lon="5.60144">
        <ele>515</ele>
        <time>2000-01-01T02:16:13.000Z</time>
      </trkpt>
      <trkpt lat="46.66084" lon="5.60145">
        <ele>521.6</ele>
        <time>2000-01-01T02:16:23.000Z</time>
      </trkpt>
      <trkpt lat="46.66089" lon="5.60142">
        <ele>521.8</ele>
        <time>2000-01-01T02:16:33.000Z</time>
      </trkpt>
      <trkpt lat="46.66104" lon="5.60136">
        <ele>515</ele>
        <time>2000-01-01T02:16:43.000Z</time>
      </trkpt>
      <trkpt lat="46.6613" lon="5.60133">
        <ele>515</ele>
        <time>2000-01-01T02:16:53.000Z</time>
      </trkpt>
      <trkpt lat="46.66158" lon="5.60137">
        <ele>522</ele>
        <time>2000-01-01T02:17:03.000Z</time>
      </trkpt>
      <trkpt lat="46.66166" lon="5.60141">
        <ele>530.5</ele>
        <time>2000-01-01T02:17:13.000Z</time>
      </trkpt>
      <trkpt lat="46.66171" lon="5.60147">
        <ele>532.1</ele>
        <time>2000-01-01T02:17:23.000Z</time>
      </trkpt>
      <trkpt lat="46.66174" lon="5.60157">
        <ele>527</ele>
        <time>2000-01-01T02:17:33.000Z</time>
      </trkpt>
      <trkpt lat="46.66176" lon="5.60166">
        <ele>536.5</ele>
        <time>2000-01-01T02:17:43.000Z</time>
      </trkpt>
      <trkpt lat="46.66182" lon="5.60179">
        <ele>538.2</ele>
        <time>2000-01-01T02:17:53.000Z</time>
      </trkpt>
      <trkpt lat="46.66188" lon="5.60186">
        <ele>538</ele>
        <time>2000-01-01T02:18:03.000Z</time>
      </trkpt>
      <trkpt lat="46.66201" lon="5.60199">
        <ele>541.2</ele>
        <time>2000-01-01T02:18:13.000Z</time>
      </trkpt>
      <trkpt lat="46.66211" lon="5.60207">
        <ele>551</ele>
        <time>2000-01-01T02:18:23.000Z</time>
      </trkpt>
      <trkpt lat="46.66224" lon="5.60223">
        <ele>544.4</ele>
        <time>2000-01-01T02:18:33.000Z</time>
      </trkpt>
      <trkpt lat="46.66231" lon="5.60233">
        <ele>553</ele>
        <time>2000-01-01T02:18:43.000Z</time>
      </trkpt>
      <trkpt lat="46.66235" lon="5.60242">
        <ele>547.1</ele>
        <time>2000-01-01T02:18:53.000Z</time>
      </trkpt>
      <trkpt lat="46.66243" lon="5.60248">
        <ele>548.2</ele>
        <time>2000-01-01T02:19:03.000Z</time>
      </trkpt>
      <trkpt lat="46.6625" lon="5.60251">
        <ele>553</ele>
        <time>2000-01-01T02:19:13.000Z</time>
      </trkpt>
      <trkpt lat="46.6626" lon="5.60257">
        <ele>548.4</ele>
        <time>2000-01-01T02:19:23.000Z</time>
      </trkpt>
      <trkpt lat="46.66268" lon="5.60265">
        <ele>553</ele>
        <time>2000-01-01T02:19:33.000Z</time>
      </trkpt>
      <trkpt lat="46.66276" lon="5.60276">
        <ele>548</ele>
        <time>2000-01-01T02:19:43.000Z</time>
      </trkpt>
      <trkpt lat="46.66285" lon="5.60296">
        <ele>550</ele>
        <time>2000-01-01T02:19:53.000Z</time>
      </trkpt>
      <trkpt lat="46.6629" lon="5.60305">
        <ele>548.4</ele>
        <time>2000-01-01T02:20:03.000Z</time>
      </trkpt>
      <trkpt lat="46.66326" lon="5.60361">
        <ele>551</ele>
        <time>2000-01-01T02:20:13.000Z</time>
      </trkpt>
      <trkpt lat="46.66331" lon="5.60366">
        <ele>549.8</ele>
        <time>2000-01-01T02:20:23.000Z</time>
      </trkpt>
      <trkpt lat="46.66343" lon="5.60387">
        <ele>547</ele>
        <time>2000-01-01T02:20:33.000Z</time>
      </trkpt>
      <trkpt lat="46.66359" lon="5.60417">
        <ele>550</ele>
        <time>2000-01-01T02:20:43.000Z</time>
      </trkpt>
      <trkpt lat="46.6637" lon="5.60446">
        <ele>553</ele>
        <time>2000-01-01T02:20:53.000Z</time>
      </trkpt>
      <trkpt lat="46.66388" lon="5.60483">
        <ele>554</ele>
        <time>2000-01-01T02:21:03.000Z</time>
      </trkpt>
      <trkpt lat="46.66404" lon="5.6051">
        <ele>559</ele>
        <time>2000-01-01T02:21:13.000Z</time>
      </trkpt>
      <trkpt lat="46.66416" lon="5.60527">
        <ele>551</ele>
        <time>2000-01-01T02:21:23.000Z</time>
      </trkpt>
      <trkpt lat="46.66421" lon="5.60536">
        <ele>559</ele>
        <time>2000-01-01T02:21:33.000Z</time>
      </trkpt>
      <trkpt lat="46.66429" lon="5.60547">
        <ele>550.4</ele>
        <time>2000-01-01T02:21:43.000Z</time>
      </trkpt>
      <trkpt lat="46.66434" lon="5.60557">
        <ele>558</ele>
        <time>2000-01-01T02:21:53.000Z</time>
      </trkpt>
      <trkpt lat="46.66441" lon="5.60567">
        <ele>550.6</ele>
        <time>2000-01-01T02:22:03.000Z</time>
      </trkpt>
      <trkpt lat="46.66449" lon="5.60581">
        <ele>558</ele>
        <time>2000-01-01T02:22:13.000Z</time>
      </trkpt>
      <trkpt lat="46.6646" lon="5.60598">
        <ele>550.8</ele>
        <time>2000-01-01T02:22:23.000Z</time>
      </trkpt>
      <trkpt lat="46.66466" lon="5.60612">
        <ele>558</ele>
        <time>2000-01-01T02:22:33.000Z</time>
      </trkpt>
      <trkpt lat="46.66474" lon="5.6062">
        <ele>551</ele>
        <time>2000-01-01T02:22:43.000Z</time>
      </trkpt>
      <trkpt lat="46.66483" lon="5.60616">
        <ele>558</ele>
        <time>2000-01-01T02:22:53.000Z</time>
      </trkpt>
      <trkpt lat="46.66493" lon="5.60609">
        <ele>551.8</ele>
        <time>2000-01-01T02:23:03.000Z</time>
      </trkpt>
      <trkpt lat="46.665" lon="5.60605">
        <ele>561</ele>
        <time>2000-01-01T02:23:13.000Z</time>
      </trkpt>
      <trkpt lat="46.66506" lon="5.60599">
        <ele>551.7</ele>
        <time>2000-01-01T02:23:23.000Z</time>
      </trkpt>
      <trkpt lat="46.66512" lon="5.60595">
        <ele>551.4</ele>
        <time>2000-01-01T02:23:33.000Z</time>
      </trkpt>
      <trkpt lat="46.66517" lon="5.60589">
        <ele>564</ele>
        <time>2000-01-01T02:23:43.000Z</time>
      </trkpt>
      <trkpt lat="46.66522" lon="5.60585">
        <ele>551.2</ele>
        <time>2000-01-01T02:23:53.000Z</time>
      </trkpt>
      <trkpt lat="46.66542" lon="5.60572">
        <ele>564</ele>
        <time>2000-01-01T02:24:03.000Z</time>
      </trkpt>
      <trkpt lat="46.66552" lon="5.60563">
        <ele>548.2</ele>
        <time>2000-01-01T02:24:13.000Z</time>
      </trkpt>
      <trkpt lat="46.66558" lon="5.60556">
        <ele>564</ele>
        <time>2000-01-01T02:24:23.000Z</time>
      </trkpt>
      <trkpt lat="46.66564" lon="5.60552">
        <ele>547.5</ele>
        <time>2000-01-01T02:24:33.000Z</time>
      </trkpt>
      <trkpt lat="46.66571" lon="5.60543">
        <ele>547.3</ele>
        <time>2000-01-01T02:24:43.000Z</time>
      </trkpt>
      <trkpt lat="46.66583" lon="5.60533">
        <ele>564</ele>
        <time>2000-01-01T02:24:53.000Z</time>
      </trkpt>
      <trkpt lat="46.66595" lon="5.60521">
        <ele>545.5</ele>
        <time>2000-01-01T02:25:03.000Z</time>
      </trkpt>
      <trkpt lat="46.66615" lon="5.60505">
        <ele>564</ele>
        <time>2000-01-01T02:25:13.000Z</time>
      </trkpt>
      <trkpt lat="46.66627" lon="5.60492">
        <ele>544.4</ele>
        <time>2000-01-01T02:25:23.000Z</time>
      </trkpt>
      <trkpt lat="46.66635" lon="5.6048">
        <ele>566</ele>
        <time>2000-01-01T02:25:33.000Z</time>
      </trkpt>
      <trkpt lat="46.66646" lon="5.6047">
        <ele>545.1</ele>
        <time>2000-01-01T02:25:43.000Z</time>
      </trkpt>
      <trkpt lat="46.66685" lon="5.60441">
        <ele>567</ele>
        <time>2000-01-01T02:25:53.000Z</time>
      </trkpt>
      <trkpt lat="46.66689" lon="5.6046">
        <ele>545.4</ele>
        <time>2000-01-01T02:26:03.000Z</time>
      </trkpt>
      <trkpt lat="46.66693" lon="5.60469">
        <ele>566</ele>
        <time>2000-01-01T02:26:13.000Z</time>
      </trkpt>
      <trkpt lat="46.66696" lon="5.60478">
        <ele>544.8</ele>
        <time>2000-01-01T02:26:23.000Z</time>
      </trkpt>
      <trkpt lat="46.66701" lon="5.60489">
        <ele>544.5</ele>
        <time>2000-01-01T02:26:33.000Z</time>
      </trkpt>
      <trkpt lat="46.66704" lon="5.60498">
        <ele>566</ele>
        <time>2000-01-01T02:26:43.000Z</time>
      </trkpt>
      <trkpt lat="46.66713" lon="5.60518">
        <ele>544.2</ele>
        <time>2000-01-01T02:26:53.000Z</time>
      </trkpt>
      <trkpt lat="46.6672" lon="5.60532">
        <ele>563</ele>
        <time>2000-01-01T02:27:03.000Z</time>
      </trkpt>
      <trkpt lat="46.6673" lon="5.60556">
        <ele>563</ele>
        <time>2000-01-01T02:27:13.000Z</time>
      </trkpt>
      <trkpt lat="46.66737" lon="5.60575">
        <ele>544</ele>
        <time>2000-01-01T02:27:23.000Z</time>
      </trkpt>
      <trkpt lat="46.66741" lon="5.60588">
        <ele>558</ele>
        <time>2000-01-01T02:27:33.000Z</time>
      </trkpt>
      <trkpt lat="46.66751" lon="5.60614">
        <ele>558</ele>
        <time>2000-01-01T02:27:43.000Z</time>
      </trkpt>
      <trkpt lat="46.66761" lon="5.60629">
        <ele>544.6</ele>
        <time>2000-01-01T02:27:53.000Z</time>
      </trkpt>
      <trkpt lat="46.66768" lon="5.6065">
        <ele>558</ele>
        <time>2000-01-01T02:28:03.000Z</time>
      </trkpt>
      <trkpt lat="46.66774" lon="5.60664">
        <ele>545.9</ele>
        <time>2000-01-01T02:28:13.000Z</time>
      </trkpt>
      <trkpt lat="46.66779" lon="5.60675">
        <ele>562</ele>
        <time>2000-01-01T02:28:23.000Z</time>
      </trkpt>
      <trkpt lat="46.66799" lon="5.60712">
        <ele>563</ele>
        <time>2000-01-01T02:28:33.000Z</time>
      </trkpt>
      <trkpt lat="46.66803" lon="5.60725">
        <ele>548.9</ele>
        <time>2000-01-01T02:28:43.000Z</time>
      </trkpt>
      <trkpt lat="46.66815" lon="5.60749">
        <ele>563</ele>
        <time>2000-01-01T02:28:53.000Z</time>
      </trkpt>
      <trkpt lat="46.66822" lon="5.6076">
        <ele>549.4</ele>
        <time>2000-01-01T02:29:03.000Z</time>
      </trkpt>
      <trkpt lat="46.66832" lon="5.60786">
        <ele>567</ele>
        <time>2000-01-01T02:29:13.000Z</time>
      </trkpt>
      <trkpt lat="46.66838" lon="5.608">
        <ele>549.2</ele>
        <time>2000-01-01T02:29:23.000Z</time>
      </trkpt>
      <trkpt lat="46.66844" lon="5.60811">
        <ele>567</ele>
        <time>2000-01-01T02:29:33.000Z</time>
      </trkpt>
      <trkpt lat="46.66847" lon="5.60818">
        <ele>548.1</ele>
        <time>2000-01-01T02:29:43.000Z</time>
      </trkpt>
      <trkpt lat="46.66857" lon="5.60833">
        <ele>566</ele>
        <time>2000-01-01T02:29:53.000Z</time>
      </trkpt>
      <trkpt lat="46.66861" lon="5.60844">
        <ele>545.8</ele>
        <time>2000-01-01T02:30:03.000Z</time>
      </trkpt>
      <trkpt lat="46.66869" lon="5.60863">
        <ele>565</ele>
        <time>2000-01-01T02:30:13.000Z</time>
      </trkpt>
      <trkpt lat="46.66879" lon="5.60891">
        <ele>562</ele>
        <time>2000-01-01T02:30:23.000Z</time>
      </trkpt>
      <trkpt lat="46.66894" lon="5.60927">
        <ele>560</ele>
        <time>2000-01-01T02:30:33.000Z</time>
      </trkpt>
      <trkpt lat="46.66901" lon="5.6095">
        <ele>543</ele>
        <time>2000-01-01T02:30:43.000Z</time>
      </trkpt>
      <trkpt lat="46.6691" lon="5.60969">
        <ele>558</ele>
        <time>2000-01-01T02:30:53.000Z</time>
      </trkpt>
      <trkpt lat="46.66916" lon="5.60984">
        <ele>544.4</ele>
        <time>2000-01-01T02:31:03.000Z</time>
      </trkpt>
      <trkpt lat="46.66918" lon="5.60992">
        <ele>544.8</ele>
        <time>2000-01-01T02:31:13.000Z</time>
      </trkpt>
      <trkpt lat="46.66921" lon="5.60999">
        <ele>556</ele>
        <time>2000-01-01T02:31:23.000Z</time>
      </trkpt>
      <trkpt lat="46.66924" lon="5.61009">
        <ele>545.6</ele>
        <time>2000-01-01T02:31:33.000Z</time>
      </trkpt>
      <trkpt lat="46.6693" lon="5.61023">
        <ele>554</ele>
        <time>2000-01-01T02:31:43.000Z</time>
      </trkpt>
      <trkpt lat="46.66931" lon="5.61031">
        <ele>546.5</ele>
        <time>2000-01-01T02:31:53.000Z</time>
      </trkpt>
      <trkpt lat="46.6694" lon="5.61054">
        <ele>552</ele>
        <time>2000-01-01T02:32:03.000Z</time>
      </trkpt>
      <trkpt lat="46.66955" lon="5.61082">
        <ele>547</ele>
        <time>2000-01-01T02:32:13.000Z</time>
      </trkpt>
      <trkpt lat="46.66971" lon="5.61114">
        <ele>546</ele>
        <time>2000-01-01T02:32:23.000Z</time>
      </trkpt>
      <trkpt lat="46.66976" lon="5.61122">
        <ele>549.1</ele>
        <time>2000-01-01T02:32:33.000Z</time>
      </trkpt>
      <trkpt lat="46.66984" lon="5.61142">
        <ele>547</ele>
        <time>2000-01-01T02:32:43.000Z</time>
      </trkpt>
      <trkpt lat="46.66988" lon="5.61156">
        <ele>550.2</ele>
        <time>2000-01-01T02:32:53.000Z</time>
      </trkpt>
      <trkpt lat="46.66996" lon="5.61173">
        <ele>549</ele>
        <time>2000-01-01T02:33:03.000Z</time>
      </trkpt>
      <trkpt lat="46.66997" lon="5.61181">
        <ele>550.9</ele>
        <time>2000-01-01T02:33:13.000Z</time>
      </trkpt>
      <trkpt lat="46.67002" lon="5.61194">
        <ele>551.1</ele>
        <time>2000-01-01T02:33:23.000Z</time>
      </trkpt>
      <trkpt lat="46.67008" lon="5.61205">
        <ele>550</ele>
        <time>2000-01-01T02:33:33.000Z</time>
      </trkpt>
      <trkpt lat="46.67018" lon="5.61229">
        <ele>550</ele>
        <time>2000-01-01T02:33:43.000Z</time>
      </trkpt>
      <trkpt lat="46.67024" lon="5.6124">
        <ele>553.4</ele>
        <time>2000-01-01T02:33:53.000Z</time>
      </trkpt>
      <trkpt lat="46.67041" lon="5.61276">
        <ele>561</ele>
        <time>2000-01-01T02:34:03.000Z</time>
      </trkpt>
      <trkpt lat="46.6705" lon="5.61305">
        <ele>561</ele>
        <time>2000-01-01T02:34:13.000Z</time>
      </trkpt>
      <trkpt lat="46.67073" lon="5.6136">
        <ele>564</ele>
        <time>2000-01-01T02:34:23.000Z</time>
      </trkpt>
      <trkpt lat="46.67079" lon="5.61369">
        <ele>554.3</ele>
        <time>2000-01-01T02:34:33.000Z</time>
      </trkpt>
      <trkpt lat="46.67085" lon="5.61382">
        <ele>568</ele>
        <time>2000-01-01T02:34:43.000Z</time>
      </trkpt>
      <trkpt lat="46.67096" lon="5.614">
        <ele>552</ele>
        <time>2000-01-01T02:34:53.000Z</time>
      </trkpt>
      <trkpt lat="46.67102" lon="5.61418">
        <ele>566</ele>
        <time>2000-01-01T02:35:03.000Z</time>
      </trkpt>
      <trkpt lat="46.67106" lon="5.61432">
        <ele>548.5</ele>
        <time>2000-01-01T02:35:13.000Z</time>
      </trkpt>
      <trkpt lat="46.67108" lon="5.61443">
        <ele>547.3</ele>
        <time>2000-01-01T02:35:23.000Z</time>
      </trkpt>
      <trkpt lat="46.67112" lon="5.61452">
        <ele>565</ele>
        <time>2000-01-01T02:35:33.000Z</time>
      </trkpt>
      <trkpt lat="46.67115" lon="5.61465">
        <ele>542.9</ele>
        <time>2000-01-01T02:35:43.000Z</time>
      </trkpt>
      <trkpt lat="46.67117" lon="5.61481">
        <ele>560</ele>
        <time>2000-01-01T02:35:53.000Z</time>
      </trkpt>
      <trkpt lat="46.67122" lon="5.61492">
        <ele>538.9</ele>
        <time>2000-01-01T02:36:03.000Z</time>
      </trkpt>
      <trkpt lat="46.67128" lon="5.61515">
        <ele>553</ele>
        <time>2000-01-01T02:36:13.000Z</time>
      </trkpt>
      <trkpt lat="46.67131" lon="5.61529">
        <ele>535.6</ele>
        <time>2000-01-01T02:36:23.000Z</time>
      </trkpt>
      <trkpt lat="46.6714" lon="5.61535">
        <ele>552</ele>
        <time>2000-01-01T02:36:33.000Z</time>
      </trkpt>
      <trkpt lat="46.67168" lon="5.61545">
        <ele>552</ele>
        <time>2000-01-01T02:36:43.000Z</time>
      </trkpt>
      <trkpt lat="46.67178" lon="5.6155">
        <ele>534.5</ele>
        <time>2000-01-01T02:36:53.000Z</time>
      </trkpt>
      <trkpt lat="46.67187" lon="5.61549">
        <ele>552</ele>
        <time>2000-01-01T02:37:03.000Z</time>
      </trkpt>
      <trkpt lat="46.67197" lon="5.61552">
        <ele>536.1</ele>
        <time>2000-01-01T02:37:13.000Z</time>
      </trkpt>
      <trkpt lat="46.67208" lon="5.61552">
        <ele>551</ele>
        <time>2000-01-01T02:37:23.000Z</time>
      </trkpt>
      <trkpt lat="46.67219" lon="5.61549">
        <ele>536.4</ele>
        <time>2000-01-01T02:37:33.000Z</time>
      </trkpt>
      <trkpt lat="46.6723" lon="5.61549">
        <ele>553</ele>
        <time>2000-01-01T02:37:43.000Z</time>
      </trkpt>
      <trkpt lat="46.67241" lon="5.6155">
        <ele>536.8</ele>
        <time>2000-01-01T02:37:53.000Z</time>
      </trkpt>
      <trkpt lat="46.67279" lon="5.61559">
        <ele>552</ele>
        <time>2000-01-01T02:38:03.000Z</time>
      </trkpt>
      <trkpt lat="46.67293" lon="5.61559">
        <ele>536.6</ele>
        <time>2000-01-01T02:38:13.000Z</time>
      </trkpt>
      <trkpt lat="46.67308" lon="5.61561">
        <ele>552</ele>
        <time>2000-01-01T02:38:23.000Z</time>
      </trkpt>
      <trkpt lat="46.67334" lon="5.61566">
        <ele>549</ele>
        <time>2000-01-01T02:38:33.000Z</time>
      </trkpt>
      <trkpt lat="46.6734" lon="5.61566">
        <ele>534.8</ele>
        <time>2000-01-01T02:38:43.000Z</time>
      </trkpt>
      <trkpt lat="46.67346" lon="5.61565">
        <ele>534.8</ele>
        <time>2000-01-01T02:38:53.000Z</time>
      </trkpt>
      <trkpt lat="46.67367" lon="5.61567">
        <ele>546</ele>
        <time>2000-01-01T02:39:03.000Z</time>
      </trkpt>
      <trkpt lat="46.67365" lon="5.61575">
        <ele>534.9</ele>
        <time>2000-01-01T02:39:13.000Z</time>
      </trkpt>
      <trkpt lat="46.67357" lon="5.61599">
        <ele>546</ele>
        <time>2000-01-01T02:39:23.000Z</time>
      </trkpt>
      <trkpt lat="46.67356" lon="5.61609">
        <ele>534.3</ele>
        <time>2000-01-01T02:39:33.000Z</time>
      </trkpt>
      <trkpt lat="46.6735" lon="5.61634">
        <ele>546</ele>
        <time>2000-01-01T02:39:43.000Z</time>
      </trkpt>
      <trkpt lat="46.67348" lon="5.61656">
        <ele>535.6</ele>
        <time>2000-01-01T02:39:53.000Z</time>
      </trkpt>
      <trkpt lat="46.67351" lon="5.61674">
        <ele>548</ele>
        <time>2000-01-01T02:40:03.000Z</time>
      </trkpt>
      <trkpt lat="46.67352" lon="5.61687">
        <ele>539.4</ele>
        <time>2000-01-01T02:40:13.000Z</time>
      </trkpt>
      <trkpt lat="46.67356" lon="5.61701">
        <ele>550</ele>
        <time>2000-01-01T02:40:23.000Z</time>
      </trkpt>
      <trkpt lat="46.67365" lon="5.61728">
        <ele>550</ele>
        <time>2000-01-01T02:40:33.000Z</time>
      </trkpt>
      <trkpt lat="46.6737" lon="5.6174">
        <ele>546.4</ele>
        <time>2000-01-01T02:40:43.000Z</time>
      </trkpt>
      <trkpt lat="46.67374" lon="5.61756">
        <ele>544</ele>
        <time>2000-01-01T02:40:53.000Z</time>
      </trkpt>
      <trkpt lat="46.67377" lon="5.61788">
        <ele>544</ele>
        <time>2000-01-01T02:41:03.000Z</time>
      </trkpt>
      <trkpt lat="46.67377" lon="5.61799">
        <ele>548.6</ele>
        <time>2000-01-01T02:41:13.000Z</time>
      </trkpt>
      <trkpt lat="46.67379" lon="5.61807">
        <ele>548.5</ele>
        <time>2000-01-01T02:41:23.000Z</time>
      </trkpt>
      <trkpt lat="46.67383" lon="5.61816">
        <ele>554</ele>
        <time>2000-01-01T02:41:33.000Z</time>
      </trkpt>
      <trkpt lat="46.67388" lon="5.61825">
        <ele>546.9</ele>
        <time>2000-01-01T02:41:43.000Z</time>
      </trkpt>
      <trkpt lat="46.67402" lon="5.61844">
        <ele>554</ele>
        <time>2000-01-01T02:41:53.000Z</time>
      </trkpt>
      <trkpt lat="46.67409" lon="5.61858">
        <ele>542.8</ele>
        <time>2000-01-01T02:42:03.000Z</time>
      </trkpt>
      <trkpt lat="46.67414" lon="5.6187">
        <ele>553</ele>
        <time>2000-01-01T02:42:13.000Z</time>
      </trkpt>
      <trkpt lat="46.67419" lon="5.61884">
        <ele>541.7</ele>
        <time>2000-01-01T02:42:23.000Z</time>
      </trkpt>
      <trkpt lat="46.67425" lon="5.61897">
        <ele>552</ele>
        <time>2000-01-01T02:42:33.000Z</time>
      </trkpt>
      <trkpt lat="46.6744" lon="5.61937">
        <ele>555</ele>
        <time>2000-01-01T02:42:43.000Z</time>
      </trkpt>
      <trkpt lat="46.67455" lon="5.61979">
        <ele>558</ele>
        <time>2000-01-01T02:42:53.000Z</time>
      </trkpt>
      <trkpt lat="46.67459" lon="5.61996">
        <ele>536</ele>
        <time>2000-01-01T02:43:03.000Z</time>
      </trkpt>
      <trkpt lat="46.67464" lon="5.62008">
        <ele>558</ele>
        <time>2000-01-01T02:43:13.000Z</time>
      </trkpt>
      <trkpt lat="46.6747" lon="5.6202">
        <ele>533.7</ele>
        <time>2000-01-01T02:43:23.000Z</time>
      </trkpt>
      <trkpt lat="46.67477" lon="5.62032">
        <ele>558</ele>
        <time>2000-01-01T02:43:33.000Z</time>
      </trkpt>
      <trkpt lat="46.67485" lon="5.62039">
        <ele>532.9</ele>
        <time>2000-01-01T02:43:43.000Z</time>
      </trkpt>
      <trkpt lat="46.67503" lon="5.62052">
        <ele>552</ele>
        <time>2000-01-01T02:43:53.000Z</time>
      </trkpt>
      <trkpt lat="46.6751" lon="5.6206">
        <ele>534.1</ele>
        <time>2000-01-01T02:44:03.000Z</time>
      </trkpt>
      <trkpt lat="46.67519" lon="5.62065">
        <ele>552</ele>
        <time>2000-01-01T02:44:13.000Z</time>
      </trkpt>
      <trkpt lat="46.67534" lon="5.62081">
        <ele>543</ele>
        <time>2000-01-01T02:44:23.000Z</time>
      </trkpt>
      <trkpt lat="46.67542" lon="5.62092">
        <ele>537.2</ele>
        <time>2000-01-01T02:44:33.000Z</time>
      </trkpt>
      <trkpt lat="46.67548" lon="5.62104">
        <ele>547</ele>
        <time>2000-01-01T02:44:43.000Z</time>
      </trkpt>
      <trkpt lat="46.67555" lon="5.6211">
        <ele>537</ele>
        <time>2000-01-01T02:44:53.000Z</time>
      </trkpt>
      <trkpt lat="46.67572" lon="5.62127">
        <ele>546</ele>
        <time>2000-01-01T02:45:03.000Z</time>
      </trkpt>
      <trkpt lat="46.67589" lon="5.62146">
        <ele>546</ele>
        <time>2000-01-01T02:45:13.000Z</time>
      </trkpt>
      <trkpt lat="46.67596" lon="5.62155">
        <ele>536.7</ele>
        <time>2000-01-01T02:45:23.000Z</time>
      </trkpt>
      <trkpt lat="46.67606" lon="5.62165">
        <ele>547</ele>
        <time>2000-01-01T02:45:33.000Z</time>
      </trkpt>
      <trkpt lat="46.67615" lon="5.62178">
        <ele>535.9</ele>
        <time>2000-01-01T02:45:43.000Z</time>
      </trkpt>
      <trkpt lat="46.67633" lon="5.62196">
        <ele>549</ele>
        <time>2000-01-01T02:45:53.000Z</time>
      </trkpt>
      <trkpt lat="46.67638" lon="5.62202">
        <ele>533.8</ele>
        <time>2000-01-01T02:46:03.000Z</time>
      </trkpt>
      <trkpt lat="46.67648" lon="5.62216">
        <ele>548</ele>
        <time>2000-01-01T02:46:13.000Z</time>
      </trkpt>
      <trkpt lat="46.6766" lon="5.6223">
        <ele>533.5</ele>
        <time>2000-01-01T02:46:23.000Z</time>
      </trkpt>
      <trkpt lat="46.67665" lon="5.62237">
        <ele>548</ele>
        <time>2000-01-01T02:46:33.000Z</time>
      </trkpt>
      <trkpt lat="46.67683" lon="5.62253">
        <ele>546</ele>
        <time>2000-01-01T02:46:43.000Z</time>
      </trkpt>
      <trkpt lat="46.67688" lon="5.62256">
        <ele>532.2</ele>
        <time>2000-01-01T02:46:53.000Z</time>
      </trkpt>
      <trkpt lat="46.67697" lon="5.62257">
        <ele>532.1</ele>
        <time>2000-01-01T02:47:03.000Z</time>
      </trkpt>
      <trkpt lat="46.67725" lon="5.62257">
        <ele>543</ele>
        <time>2000-01-01T02:47:13.000Z</time>
      </trkpt>
      <trkpt lat="46.67731" lon="5.62258">
        <ele>533.3</ele>
        <time>2000-01-01T02:47:23.000Z</time>
      </trkpt>
      <trkpt lat="46.6774" lon="5.62262">
        <ele>533.6</ele>
        <time>2000-01-01T02:47:33.000Z</time>
      </trkpt>
      <trkpt lat="46.67746" lon="5.62266">
        <ele>544</ele>
        <time>2000-01-01T02:47:43.000Z</time>
      </trkpt>
      <trkpt lat="46.67756" lon="5.62276">
        <ele>534.2</ele>
        <time>2000-01-01T02:47:53.000Z</time>
      </trkpt>
      <trkpt lat="46.67766" lon="5.62288">
        <ele>545</ele>
        <time>2000-01-01T02:48:03.000Z</time>
      </trkpt>
      <trkpt lat="46.67791" lon="5.62313">
        <ele>549</ele>
        <time>2000-01-01T02:48:13.000Z</time>
      </trkpt>
      <trkpt lat="46.67796" lon="5.62317">
        <ele>536.5</ele>
        <time>2000-01-01T02:48:23.000Z</time>
      </trkpt>
      <trkpt lat="46.67821" lon="5.62342">
        <ele>547</ele>
        <time>2000-01-01T02:48:33.000Z</time>
      </trkpt>
      <trkpt lat="46.67829" lon="5.62348">
        <ele>537.8</ele>
        <time>2000-01-01T02:48:43.000Z</time>
      </trkpt>
      <trkpt lat="46.67834" lon="5.62355">
        <ele>538</ele>
        <time>2000-01-01T02:48:53.000Z</time>
      </trkpt>
      <trkpt lat="46.67845" lon="5.62364">
        <ele>545</ele>
        <time>2000-01-01T02:49:03.000Z</time>
      </trkpt>
      <trkpt lat="46.67854" lon="5.62375">
        <ele>538.7</ele>
        <time>2000-01-01T02:49:13.000Z</time>
      </trkpt>
      <trkpt lat="46.67863" lon="5.62388">
        <ele>539</ele>
        <time>2000-01-01T02:49:23.000Z</time>
      </trkpt>
      <trkpt lat="46.67867" lon="5.62394">
        <ele>538.8</ele>
        <time>2000-01-01T02:49:33.000Z</time>
      </trkpt>
      <trkpt lat="46.67873" lon="5.62405">
        <ele>538.4</ele>
        <time>2000-01-01T02:49:43.000Z</time>
      </trkpt>
      <trkpt lat="46.67892" lon="5.62429">
        <ele>538</ele>
        <time>2000-01-01T02:49:53.000Z</time>
      </trkpt>
      <trkpt lat="46.67897" lon="5.62432">
        <ele>537.7</ele>
        <time>2000-01-01T02:50:03.000Z</time>
      </trkpt>
      <trkpt lat="46.67905" lon="5.62434">
        <ele>538</ele>
        <time>2000-01-01T02:50:13.000Z</time>
      </trkpt>
      <trkpt lat="46.67914" lon="5.62435">
        <ele>538</ele>
        <time>2000-01-01T02:50:23.000Z</time>
      </trkpt>
      <trkpt lat="46.67925" lon="5.62432">
        <ele>538.6</ele>
        <time>2000-01-01T02:50:33.000Z</time>
      </trkpt>
      <trkpt lat="46.67939" lon="5.62435">
        <ele>538</ele>
        <time>2000-01-01T02:50:43.000Z</time>
      </trkpt>
      <trkpt lat="46.67947" lon="5.62435">
        <ele>539.1</ele>
        <time>2000-01-01T02:50:53.000Z</time>
      </trkpt>
      <trkpt lat="46.67954" lon="5.62436">
        <ele>539.3</ele>
        <time>2000-01-01T02:51:03.000Z</time>
      </trkpt>
      <trkpt lat="46.67961" lon="5.62444">
        <ele>539</ele>
        <time>2000-01-01T02:51:13.000Z</time>
      </trkpt>
      <trkpt lat="46.67966" lon="5.62447">
        <ele>539.8</ele>
        <time>2000-01-01T02:51:23.000Z</time>
      </trkpt>
      <trkpt lat="46.67988" lon="5.62454">
        <ele>539</ele>
        <time>2000-01-01T02:51:33.000Z</time>
      </trkpt>
      <trkpt lat="46.6801" lon="5.62463">
        <ele>540</ele>
        <time>2000-01-01T02:51:43.000Z</time>
      </trkpt>
      <trkpt lat="46.68019" lon="5.62465">
        <ele>541</ele>
        <time>2000-01-01T02:51:53.000Z</time>
      </trkpt>
      <trkpt lat="46.68026" lon="5.62469">
        <ele>541</ele>
        <time>2000-01-01T02:52:03.000Z</time>
      </trkpt>
      <trkpt lat="46.68043" lon="5.62476">
        <ele>542</ele>
        <time>2000-01-01T02:52:13.000Z</time>
      </trkpt>
      <trkpt lat="46.68048" lon="5.6248">
        <ele>540.3</ele>
        <time>2000-01-01T02:52:23.000Z</time>
      </trkpt>
      <trkpt lat="46.68067" lon="5.625">
        <ele>542</ele>
        <time>2000-01-01T02:52:33.000Z</time>
      </trkpt>
      <trkpt lat="46.68077" lon="5.62508">
        <ele>538.2</ele>
        <time>2000-01-01T02:52:43.000Z</time>
      </trkpt>
      <trkpt lat="46.68098" lon="5.6252">
        <ele>548</ele>
        <time>2000-01-01T02:52:53.000Z</time>
      </trkpt>
      <trkpt lat="46.68113" lon="5.62525">
        <ele>537.1</ele>
        <time>2000-01-01T02:53:03.000Z</time>
      </trkpt>
      <trkpt lat="46.68118" lon="5.62528">
        <ele>549</ele>
        <time>2000-01-01T02:53:13.000Z</time>
      </trkpt>
      <trkpt lat="46.68131" lon="5.62534">
        <ele>536.9</ele>
        <time>2000-01-01T02:53:23.000Z</time>
      </trkpt>
      <trkpt lat="46.68139" lon="5.6254">
        <ele>552</ele>
        <time>2000-01-01T02:53:33.000Z</time>
      </trkpt>
      <trkpt lat="46.68145" lon="5.62548">
        <ele>537.2</ele>
        <time>2000-01-01T02:53:43.000Z</time>
      </trkpt>
      <trkpt lat="46.6815" lon="5.62558">
        <ele>537.3</ele>
        <time>2000-01-01T02:53:53.000Z</time>
      </trkpt>
      <trkpt lat="46.6817" lon="5.6259">
        <ele>552</ele>
        <time>2000-01-01T02:54:03.000Z</time>
      </trkpt>
      <trkpt lat="46.68177" lon="5.62596">
        <ele>538.4</ele>
        <time>2000-01-01T02:54:13.000Z</time>
      </trkpt>
      <trkpt lat="46.68182" lon="5.62599">
        <ele>538.6</ele>
        <time>2000-01-01T02:54:23.000Z</time>
      </trkpt>
      <trkpt lat="46.6819" lon="5.62607">
        <ele>553</ele>
        <time>2000-01-01T02:54:33.000Z</time>
      </trkpt>
      <trkpt lat="46.68203" lon="5.62617">
        <ele>539.8</ele>
        <time>2000-01-01T02:54:43.000Z</time>
      </trkpt>
      <trkpt lat="46.68208" lon="5.6262">
        <ele>555</ele>
        <time>2000-01-01T02:54:53.000Z</time>
      </trkpt>
      <trkpt lat="46.68219" lon="5.62624">
        <ele>540.8</ele>
        <time>2000-01-01T02:55:03.000Z</time>
      </trkpt>
      <trkpt lat="46.68228" lon="5.62629">
        <ele>550</ele>
        <time>2000-01-01T02:55:13.000Z</time>
      </trkpt>
      <trkpt lat="46.68238" lon="5.62633">
        <ele>541.6</ele>
        <time>2000-01-01T02:55:23.000Z</time>
      </trkpt>
      <trkpt lat="46.68293" lon="5.62666">
        <ele>548</ele>
        <time>2000-01-01T02:55:33.000Z</time>
      </trkpt>
      <trkpt lat="46.68298" lon="5.6267">
        <ele>543.1</ele>
        <time>2000-01-01T02:55:43.000Z</time>
      </trkpt>
      <trkpt lat="46.68313" lon="5.62679">
        <ele>547</ele>
        <time>2000-01-01T02:55:53.000Z</time>
      </trkpt>
      <trkpt lat="46.68321" lon="5.62682">
        <ele>543.8</ele>
        <time>2000-01-01T02:56:03.000Z</time>
      </trkpt>
      <trkpt lat="46.68328" lon="5.62687">
        <ele>543.9</ele>
        <time>2000-01-01T02:56:13.000Z</time>
      </trkpt>
      <trkpt lat="46.68348" lon="5.62693">
        <ele>546</ele>
        <time>2000-01-01T02:56:23.000Z</time>
      </trkpt>
      <trkpt lat="46.68358" lon="5.62694">
        <ele>544</ele>
        <time>2000-01-01T02:56:33.000Z</time>
      </trkpt>
      <trkpt lat="46.68368" lon="5.62697">
        <ele>545</ele>
        <time>2000-01-01T02:56:43.000Z</time>
      </trkpt>
      <trkpt lat="46.68382" lon="5.62699">
        <ele>544.2</ele>
        <time>2000-01-01T02:56:53.000Z</time>
      </trkpt>
      <trkpt lat="46.68403" lon="5.627">
        <ele>541</ele>
        <time>2000-01-01T02:57:03.000Z</time>
      </trkpt>
      <trkpt lat="46.68416" lon="5.62697">
        <ele>544.9</ele>
        <time>2000-01-01T02:57:13.000Z</time>
      </trkpt>
      <trkpt lat="46.68434" lon="5.62694">
        <ele>544</ele>
        <time>2000-01-01T02:57:23.000Z</time>
      </trkpt>
      <trkpt lat="46.68442" lon="5.62691">
        <ele>544.1</ele>
        <time>2000-01-01T02:57:33.000Z</time>
      </trkpt>
      <trkpt lat="46.68452" lon="5.62691">
        <ele>544.3</ele>
        <time>2000-01-01T02:57:43.000Z</time>
      </trkpt>
      <trkpt lat="46.68463" lon="5.62688">
        <ele>544</ele>
        <time>2000-01-01T02:57:53.000Z</time>
      </trkpt>
      <trkpt lat="46.68469" lon="5.62688">
        <ele>544.9</ele>
        <time>2000-01-01T02:58:03.000Z</time>
      </trkpt>
      <trkpt lat="46.68493" lon="5.62684">
        <ele>544</ele>
        <time>2000-01-01T02:58:13.000Z</time>
      </trkpt>
      <trkpt lat="46.68499" lon="5.62684">
        <ele>545.4</ele>
        <time>2000-01-01T02:58:23.000Z</time>
      </trkpt>
      <trkpt lat="46.68514" lon="5.62687">
        <ele>544</ele>
        <time>2000-01-01T02:58:33.000Z</time>
      </trkpt>
      <trkpt lat="46.6852" lon="5.62691">
        <ele>545.8</ele>
        <time>2000-01-01T02:58:43.000Z</time>
      </trkpt>
      <trkpt lat="46.68532" lon="5.62694">
        <ele>547</ele>
        <time>2000-01-01T02:58:53.000Z</time>
      </trkpt>
      <trkpt lat="46.68538" lon="5.62693">
        <ele>546.1</ele>
        <time>2000-01-01T02:59:03.000Z</time>
      </trkpt>
      <trkpt lat="46.68551" lon="5.62699">
        <ele>547</ele>
        <time>2000-01-01T02:59:13.000Z</time>
      </trkpt>
      <trkpt lat="46.68558" lon="5.62707">
        <ele>546.1</ele>
        <time>2000-01-01T02:59:23.000Z</time>
      </trkpt>
      <trkpt lat="46.68559" lon="5.62716">
        <ele>546.2</ele>
        <time>2000-01-01T02:59:33.000Z</time>
      </trkpt>
      <trkpt lat="46.68556" lon="5.62737">
        <ele>546</ele>
        <time>2000-01-01T02:59:43.000Z</time>
      </trkpt>
      <trkpt lat="46.68554" lon="5.62745">
        <ele>544.3</ele>
        <time>2000-01-01T02:59:53.000Z</time>
      </trkpt>
      <trkpt lat="46.68552" lon="5.62757">
        <ele>543.7</ele>
        <time>2000-01-01T03:00:03.000Z</time>
      </trkpt>
      <trkpt lat="46.6855" lon="5.62765">
        <ele>545</ele>
        <time>2000-01-01T03:00:13.000Z</time>
      </trkpt>
      <trkpt lat="46.68545" lon="5.62791">
        <ele>544</ele>
        <time>2000-01-01T03:00:23.000Z</time>
      </trkpt>
      <trkpt lat="46.68539" lon="5.6283">
        <ele>544</ele>
        <time>2000-01-01T03:00:33.000Z</time>
      </trkpt>
      <trkpt lat="46.68539" lon="5.62841">
        <ele>542.8</ele>
        <time>2000-01-01T03:00:43.000Z</time>
      </trkpt>
      <trkpt lat="46.68545" lon="5.62849">
        <ele>542.8</ele>
        <time>2000-01-01T03:00:53.000Z</time>
      </trkpt>
      <trkpt lat="46.68554" lon="5.62859">
        <ele>547</ele>
        <time>2000-01-01T03:01:03.000Z</time>
      </trkpt>
      <trkpt lat="46.68575" lon="5.62877">
        <ele>547</ele>
        <time>2000-01-01T03:01:13.000Z</time>
      </trkpt>
      <trkpt lat="46.68588" lon="5.62892">
        <ele>544.1</ele>
        <time>2000-01-01T03:01:23.000Z</time>
      </trkpt>
      <trkpt lat="46.68604" lon="5.62927">
        <ele>547</ele>
        <time>2000-01-01T03:01:33.000Z</time>
      </trkpt>
      <trkpt lat="46.68611" lon="5.62949">
        <ele>542.8</ele>
        <time>2000-01-01T03:01:43.000Z</time>
      </trkpt>
      <trkpt lat="46.68622" lon="5.62981">
        <ele>545</ele>
        <time>2000-01-01T03:01:53.000Z</time>
      </trkpt>
      <trkpt lat="46.68626" lon="5.62991">
        <ele>540.8</ele>
        <time>2000-01-01T03:02:03.000Z</time>
      </trkpt>
      <trkpt lat="46.68633" lon="5.6302">
        <ele>545</ele>
        <time>2000-01-01T03:02:13.000Z</time>
      </trkpt>
      <trkpt lat="46.68638" lon="5.63031">
        <ele>539.7</ele>
        <time>2000-01-01T03:02:23.000Z</time>
      </trkpt>
      <trkpt lat="46.68648" lon="5.63046">
        <ele>545</ele>
        <time>2000-01-01T03:02:33.000Z</time>
      </trkpt>
      <trkpt lat="46.68659" lon="5.63061">
        <ele>539.1</ele>
        <time>2000-01-01T03:02:43.000Z</time>
      </trkpt>
      <trkpt lat="46.68681" lon="5.63089">
        <ele>538</ele>
        <time>2000-01-01T03:02:53.000Z</time>
      </trkpt>
      <trkpt lat="46.68715" lon="5.63118">
        <ele>535</ele>
        <time>2000-01-01T03:03:03.000Z</time>
      </trkpt>
      <trkpt lat="46.68723" lon="5.63122">
        <ele>535.6</ele>
        <time>2000-01-01T03:03:13.000Z</time>
      </trkpt>
      <trkpt lat="46.68742" lon="5.63123">
        <ele>533</ele>
        <time>2000-01-01T03:03:23.000Z</time>
      </trkpt>
      <trkpt lat="46.68748" lon="5.63125">
        <ele>533.6</ele>
        <time>2000-01-01T03:03:33.000Z</time>
      </trkpt>
      <trkpt lat="46.68764" lon="5.63125">
        <ele>533</ele>
        <time>2000-01-01T03:03:43.000Z</time>
      </trkpt>
      <trkpt lat="46.68771" lon="5.63126">
        <ele>531.9</ele>
        <time>2000-01-01T03:03:53.000Z</time>
      </trkpt>
      <trkpt lat="46.68797" lon="5.63132">
        <ele>532</ele>
        <time>2000-01-01T03:04:03.000Z</time>
      </trkpt>
      <trkpt lat="46.68802" lon="5.63135">
        <ele>530.4</ele>
        <time>2000-01-01T03:04:13.000Z</time>
      </trkpt>
      <trkpt lat="46.68812" lon="5.63138">
        <ele>530.3</ele>
        <time>2000-01-01T03:04:23.000Z</time>
      </trkpt>
      <trkpt lat="46.68826" lon="5.63141">
        <ele>531</ele>
        <time>2000-01-01T03:04:33.000Z</time>
      </trkpt>
      <trkpt lat="46.68834" lon="5.63146">
        <ele>530.3</ele>
        <time>2000-01-01T03:04:43.000Z</time>
      </trkpt>
      <trkpt lat="46.68844" lon="5.63151">
        <ele>531</ele>
        <time>2000-01-01T03:04:53.000Z</time>
      </trkpt>
      <trkpt lat="46.68852" lon="5.63157">
        <ele>530.2</ele>
        <time>2000-01-01T03:05:03.000Z</time>
      </trkpt>
      <trkpt lat="46.68856" lon="5.63164">
        <ele>529.8</ele>
        <time>2000-01-01T03:05:13.000Z</time>
      </trkpt>
      <trkpt lat="46.68852" lon="5.63185">
        <ele>532</ele>
        <time>2000-01-01T03:05:23.000Z</time>
      </trkpt>
      <trkpt lat="46.68849" lon="5.63193">
        <ele>526.8</ele>
        <time>2000-01-01T03:05:33.000Z</time>
      </trkpt>
      <trkpt lat="46.68839" lon="5.63199">
        <ele>525.3</ele>
        <time>2000-01-01T03:05:43.000Z</time>
      </trkpt>
      <trkpt lat="46.68822" lon="5.63214">
        <ele>528</ele>
        <time>2000-01-01T03:05:53.000Z</time>
      </trkpt>
      <trkpt lat="46.68813" lon="5.63223">
        <ele>520.8</ele>
        <time>2000-01-01T03:06:03.000Z</time>
      </trkpt>
      <trkpt lat="46.68793" lon="5.63239">
        <ele>525</ele>
        <time>2000-01-01T03:06:13.000Z</time>
      </trkpt>
      <trkpt lat="46.68786" lon="5.6324">
        <ele>520.6</ele>
        <time>2000-01-01T03:06:23.000Z</time>
      </trkpt>
      <trkpt lat="46.6878" lon="5.63236">
        <ele>521.4</ele>
        <time>2000-01-01T03:06:33.000Z</time>
      </trkpt>
      <trkpt lat="46.68774" lon="5.63233">
        <ele>525</ele>
        <time>2000-01-01T03:06:43.000Z</time>
      </trkpt>
      <trkpt lat="46.68767" lon="5.63236">
        <ele>523.1</ele>
        <time>2000-01-01T03:06:53.000Z</time>
      </trkpt>
      <trkpt lat="46.68765" lon="5.63247">
        <ele>522.2</ele>
        <time>2000-01-01T03:07:03.000Z</time>
      </trkpt>
      <trkpt lat="46.68752" lon="5.63279">
        <ele>524</ele>
        <time>2000-01-01T03:07:13.000Z</time>
      </trkpt>
      <trkpt lat="46.68748" lon="5.63293">
        <ele>519.6</ele>
        <time>2000-01-01T03:07:23.000Z</time>
      </trkpt>
      <trkpt lat="46.68744" lon="5.63302">
        <ele>519</ele>
        <time>2000-01-01T03:07:33.000Z</time>
      </trkpt>
      <trkpt lat="46.68742" lon="5.63316">
        <ele>524</ele>
        <time>2000-01-01T03:07:43.000Z</time>
      </trkpt>
      <trkpt lat="46.68742" lon="5.63324">
        <ele>517.1</ele>
        <time>2000-01-01T03:07:53.000Z</time>
      </trkpt>
      <trkpt lat="46.6874" lon="5.63334">
        <ele>516.4</ele>
        <time>2000-01-01T03:08:03.000Z</time>
      </trkpt>
      <trkpt lat="46.68742" lon="5.63348">
        <ele>525</ele>
        <time>2000-01-01T03:08:13.000Z</time>
      </trkpt>
      <trkpt lat="46.68746" lon="5.63363">
        <ele>515.4</ele>
        <time>2000-01-01T03:08:23.000Z</time>
      </trkpt>
      <trkpt lat="46.6875" lon="5.63375">
        <ele>526</ele>
        <time>2000-01-01T03:08:33.000Z</time>
      </trkpt>
      <trkpt lat="46.68752" lon="5.63384">
        <ele>514.9</ele>
        <time>2000-01-01T03:08:43.000Z</time>
      </trkpt>
      <trkpt lat="46.68754" lon="5.63387">
        <ele>514.9</ele>
        <time>2000-01-01T03:08:53.000Z</time>
      </trkpt>
      <trkpt lat="46.68757" lon="5.63396">
        <ele>514.5</ele>
        <time>2000-01-01T03:09:03.000Z</time>
      </trkpt>
      <trkpt lat="46.68757" lon="5.63404">
        <ele>527</ele>
        <time>2000-01-01T03:09:13.000Z</time>
      </trkpt>
      <trkpt lat="46.68758" lon="5.63419">
        <ele>513.6</ele>
        <time>2000-01-01T03:09:23.000Z</time>
      </trkpt>
      <trkpt lat="46.68767" lon="5.63433">
        <ele>527</ele>
        <time>2000-01-01T03:09:33.000Z</time>
      </trkpt>
      <trkpt lat="46.6878" lon="5.63456">
        <ele>527</ele>
        <time>2000-01-01T03:09:43.000Z</time>
      </trkpt>
      <trkpt lat="46.688" lon="5.63465">
        <ele>527</ele>
        <time>2000-01-01T03:09:53.000Z</time>
      </trkpt>
      <trkpt lat="46.68809" lon="5.6347">
        <ele>512.1</ele>
        <time>2000-01-01T03:10:03.000Z</time>
      </trkpt>
      <trkpt lat="46.68819" lon="5.63474">
        <ele>527</ele>
        <time>2000-01-01T03:10:13.000Z</time>
      </trkpt>
      <trkpt lat="46.68829" lon="5.6347">
        <ele>512.8</ele>
        <time>2000-01-01T03:10:23.000Z</time>
      </trkpt>
      <trkpt lat="46.68849" lon="5.63469">
        <ele>524</ele>
        <time>2000-01-01T03:10:33.000Z</time>
      </trkpt>
      <trkpt lat="46.68855" lon="5.63478">
        <ele>513.6</ele>
        <time>2000-01-01T03:10:43.000Z</time>
      </trkpt>
      <trkpt lat="46.68877" lon="5.63492">
        <ele>520</ele>
        <time>2000-01-01T03:10:53.000Z</time>
      </trkpt>
      <trkpt lat="46.68884" lon="5.63503">
        <ele>513</ele>
        <time>2000-01-01T03:11:03.000Z</time>
      </trkpt>
      <trkpt lat="46.68895" lon="5.63523">
        <ele>516</ele>
        <time>2000-01-01T03:11:13.000Z</time>
      </trkpt>
      <trkpt lat="46.68897" lon="5.63535">
        <ele>512.6</ele>
        <time>2000-01-01T03:11:23.000Z</time>
      </trkpt>
      <trkpt lat="46.68893" lon="5.6355">
        <ele>516</ele>
        <time>2000-01-01T03:11:33.000Z</time>
      </trkpt>
      <trkpt lat="46.6889" lon="5.63573">
        <ele>509.8</ele>
        <time>2000-01-01T03:11:43.000Z</time>
      </trkpt>
      <trkpt lat="46.6889" lon="5.63582">
        <ele>516</ele>
        <time>2000-01-01T03:11:53.000Z</time>
      </trkpt>
      <trkpt lat="46.68889" lon="5.63592">
        <ele>508.7</ele>
        <time>2000-01-01T03:12:03.000Z</time>
      </trkpt>
      <trkpt lat="46.68889" lon="5.63603">
        <ele>508.3</ele>
        <time>2000-01-01T03:12:13.000Z</time>
      </trkpt>
      <trkpt lat="46.68886" lon="5.63616">
        <ele>512</ele>
        <time>2000-01-01T03:12:23.000Z</time>
      </trkpt>
      <trkpt lat="46.68885" lon="5.63628">
        <ele>507.9</ele>
        <time>2000-01-01T03:12:33.000Z</time>
      </trkpt>
      <trkpt lat="46.6888" lon="5.63654">
        <ele>508</ele>
        <time>2000-01-01T03:12:43.000Z</time>
      </trkpt>
      <trkpt lat="46.68871" lon="5.63691">
        <ele>499</ele>
        <time>2000-01-01T03:12:53.000Z</time>
      </trkpt>
      <trkpt lat="46.68869" lon="5.63703">
        <ele>502.4</ele>
        <time>2000-01-01T03:13:03.000Z</time>
      </trkpt>
      <trkpt lat="46.68865" lon="5.6371">
        <ele>501.5</ele>
        <time>2000-01-01T03:13:13.000Z</time>
      </trkpt>
      <trkpt lat="46.6886" lon="5.63715">
        <ele>497</ele>
        <time>2000-01-01T03:13:23.000Z</time>
      </trkpt>
      <trkpt lat="46.68846" lon="5.63725">
        <ele>500.9</ele>
        <time>2000-01-01T03:13:33.000Z</time>
      </trkpt>
      <trkpt lat="46.68826" lon="5.63736">
        <ele>496</ele>
        <time>2000-01-01T03:13:43.000Z</time>
      </trkpt>
      <trkpt lat="46.68821" lon="5.63741">
        <ele>501.6</ele>
        <time>2000-01-01T03:13:53.000Z</time>
      </trkpt>
      <trkpt lat="46.68811" lon="5.63757">
        <ele>496</ele>
        <time>2000-01-01T03:14:03.000Z</time>
      </trkpt>
      <trkpt lat="46.68808" lon="5.63765">
        <ele>502.4</ele>
        <time>2000-01-01T03:14:13.000Z</time>
      </trkpt>
      <trkpt lat="46.68806" lon="5.63773">
        <ele>504.4</ele>
        <time>2000-01-01T03:14:23.000Z</time>
      </trkpt>
      <trkpt lat="46.68805" lon="5.63787">
        <ele>496</ele>
        <time>2000-01-01T03:14:33.000Z</time>
      </trkpt>
      <trkpt lat="46.68805" lon="5.63801">
        <ele>505.8</ele>
        <time>2000-01-01T03:14:43.000Z</time>
      </trkpt>
      <trkpt lat="46.68809" lon="5.63829">
        <ele>496</ele>
        <time>2000-01-01T03:14:53.000Z</time>
      </trkpt>
      <trkpt lat="46.68808" lon="5.63837">
        <ele>501.5</ele>
        <time>2000-01-01T03:15:03.000Z</time>
      </trkpt>
      <trkpt lat="46.68807" lon="5.63858">
        <ele>499</ele>
        <time>2000-01-01T03:15:13.000Z</time>
      </trkpt>
      <trkpt lat="46.6881" lon="5.63872">
        <ele>496.9</ele>
        <time>2000-01-01T03:15:23.000Z</time>
      </trkpt>
      <trkpt lat="46.68807" lon="5.63887">
        <ele>503</ele>
        <time>2000-01-01T03:15:33.000Z</time>
      </trkpt>
      <trkpt lat="46.68808" lon="5.63895">
        <ele>501.3</ele>
        <time>2000-01-01T03:15:43.000Z</time>
      </trkpt>
      <trkpt lat="46.68807" lon="5.63903">
        <ele>503.3</ele>
        <time>2000-01-01T03:15:53.000Z</time>
      </trkpt>
      <trkpt lat="46.688" lon="5.63916">
        <ele>510</ele>
        <time>2000-01-01T03:16:03.000Z</time>
      </trkpt>
      <trkpt lat="46.68792" lon="5.63937">
        <ele>502</ele>
        <time>2000-01-01T03:16:13.000Z</time>
      </trkpt>
      <trkpt lat="46.6879" lon="5.63945">
        <ele>511</ele>
        <time>2000-01-01T03:16:23.000Z</time>
      </trkpt>
      <trkpt lat="46.68788" lon="5.63958">
        <ele>503.4</ele>
        <time>2000-01-01T03:16:33.000Z</time>
      </trkpt>
      <trkpt lat="46.68789" lon="5.63967">
        <ele>504.2</ele>
        <time>2000-01-01T03:16:43.000Z</time>
      </trkpt>
      <trkpt lat="46.68791" lon="5.63975">
        <ele>511</ele>
        <time>2000-01-01T03:16:53.000Z</time>
      </trkpt>
      <trkpt lat="46.68796" lon="5.63979">
        <ele>504.4</ele>
        <time>2000-01-01T03:17:03.000Z</time>
      </trkpt>
      <trkpt lat="46.68812" lon="5.63984">
        <ele>510</ele>
        <time>2000-01-01T03:17:13.000Z</time>
      </trkpt>
      <trkpt lat="46.68818" lon="5.63984">
        <ele>499.1</ele>
        <time>2000-01-01T03:17:23.000Z</time>
      </trkpt>
      <trkpt lat="46.68825" lon="5.63987">
        <ele>497.8</ele>
        <time>2000-01-01T03:17:33.000Z</time>
      </trkpt>
      <trkpt lat="46.6883" lon="5.63996">
        <ele>507</ele>
        <time>2000-01-01T03:17:43.000Z</time>
      </trkpt>
      <trkpt lat="46.68834" lon="5.64008">
        <ele>501.6</ele>
        <time>2000-01-01T03:17:53.000Z</time>
      </trkpt>
      <trkpt lat="46.68837" lon="5.64022">
        <ele>505</ele>
        <time>2000-01-01T03:18:03.000Z</time>
      </trkpt>
      <trkpt lat="46.68838" lon="5.64037">
        <ele>496.7</ele>
        <time>2000-01-01T03:18:13.000Z</time>
      </trkpt>
      <trkpt lat="46.6884" lon="5.64045">
        <ele>495.6</ele>
        <time>2000-01-01T03:18:23.000Z</time>
      </trkpt>
      <trkpt lat="46.68846" lon="5.64046">
        <ele>505</ele>
        <time>2000-01-01T03:18:33.000Z</time>
      </trkpt>
      <trkpt lat="46.68851" lon="5.64037">
        <ele>482.1</ele>
        <time>2000-01-01T03:18:43.000Z</time>
      </trkpt>
      <trkpt lat="46.68856" lon="5.64033">
        <ele>474.4</ele>
        <time>2000-01-01T03:18:53.000Z</time>
      </trkpt>
      <trkpt lat="46.68859" lon="5.64048">
        <ele>501</ele>
        <time>2000-01-01T03:19:03.000Z</time>
      </trkpt>
      <trkpt lat="46.68862" lon="5.64034">
        <ele>468.6</ele>
        <time>2000-01-01T03:19:13.000Z</time>
      </trkpt>
      <trkpt lat="46.68865" lon="5.64027">
        <ele>462.6</ele>
        <time>2000-01-01T03:19:23.000Z</time>
      </trkpt>
      <trkpt lat="46.68872" lon="5.64018">
        <ele>493</ele>
        <time>2000-01-01T03:19:33.000Z</time>
      </trkpt>
      <trkpt lat="46.68877" lon="5.64004">
        <ele>446.4</ele>
        <time>2000-01-01T03:19:43.000Z</time>
      </trkpt>
      <trkpt lat="46.68876" lon="5.63995">
        <ele>443.2</ele>
        <time>2000-01-01T03:19:53.000Z</time>
      </trkpt>
      <trkpt lat="46.68873" lon="5.63982">
        <ele>482</ele>
        <time>2000-01-01T03:20:03.000Z</time>
      </trkpt>
      <trkpt lat="46.6886" lon="5.63943">
        <ele>482</ele>
        <time>2000-01-01T03:20:13.000Z</time>
      </trkpt>
      <trkpt lat="46.68857" lon="5.63922">
        <ele>432.5</ele>
        <time>2000-01-01T03:20:23.000Z</time>
      </trkpt>
      <trkpt lat="46.68854" lon="5.63909">
        <ele>484</ele>
        <time>2000-01-01T03:20:33.000Z</time>
      </trkpt>
      <trkpt lat="46.68845" lon="5.63896">
        <ele>435.7</ele>
        <time>2000-01-01T03:20:43.000Z</time>
      </trkpt>
      <trkpt lat="46.68836" lon="5.63887">
        <ele>484</ele>
        <time>2000-01-01T03:20:53.000Z</time>
      </trkpt>
      <trkpt lat="46.68838" lon="5.63857">
        <ele>483</ele>
        <time>2000-01-01T03:21:03.000Z</time>
      </trkpt>
      <trkpt lat="46.68844" lon="5.63828">
        <ele>482</ele>
        <time>2000-01-01T03:21:13.000Z</time>
      </trkpt>
      <trkpt lat="46.6886" lon="5.63804">
        <ele>468</ele>
        <time>2000-01-01T03:21:23.000Z</time>
      </trkpt>
      <trkpt lat="46.68899" lon="5.63775">
        <ele>459</ele>
        <time>2000-01-01T03:21:33.000Z</time>
      </trkpt>
      <trkpt lat="46.68917" lon="5.63765">
        <ele>458</ele>
        <time>2000-01-01T03:21:43.000Z</time>
      </trkpt>
      <trkpt lat="46.68927" lon="5.63752">
        <ele>411</ele>
        <time>2000-01-01T03:21:53.000Z</time>
      </trkpt>
      <trkpt lat="46.68939" lon="5.63742">
        <ele>458</ele>
        <time>2000-01-01T03:22:03.000Z</time>
      </trkpt>
      <trkpt lat="46.68949" lon="5.6375">
        <ele>404.3</ele>
        <time>2000-01-01T03:22:13.000Z</time>
      </trkpt>
      <trkpt lat="46.68969" lon="5.63752">
        <ele>437</ele>
        <time>2000-01-01T03:22:23.000Z</time>
      </trkpt>
      <trkpt lat="46.6896" lon="5.6378">
        <ele>438</ele>
        <time>2000-01-01T03:22:33.000Z</time>
      </trkpt>
      <trkpt lat="46.68948" lon="5.63791">
        <ele>400.9</ele>
        <time>2000-01-01T03:22:43.000Z</time>
      </trkpt>
      <trkpt lat="46.68938" lon="5.63806">
        <ele>434</ele>
        <time>2000-01-01T03:22:53.000Z</time>
      </trkpt>
      <trkpt lat="46.68931" lon="5.63823">
        <ele>393.8</ele>
        <time>2000-01-01T03:23:03.000Z</time>
      </trkpt>
      <trkpt lat="46.68926" lon="5.6385">
        <ele>433</ele>
        <time>2000-01-01T03:23:13.000Z</time>
      </trkpt>
      <trkpt lat="46.68927" lon="5.63877">
        <ele>432</ele>
        <time>2000-01-01T03:23:23.000Z</time>
      </trkpt>
      <trkpt lat="46.68934" lon="5.63889">
        <ele>384.1</ele>
        <time>2000-01-01T03:23:33.000Z</time>
      </trkpt>
      <trkpt lat="46.68942" lon="5.6391">
        <ele>416</ele>
        <time>2000-01-01T03:23:43.000Z</time>
      </trkpt>
      <trkpt lat="46.68946" lon="5.63912">
        <ele>382</ele>
        <time>2000-01-01T03:23:53.000Z</time>
      </trkpt>
      <trkpt lat="46.68959" lon="5.63935">
        <ele>406</ele>
        <time>2000-01-01T03:24:03.000Z</time>
      </trkpt>
      <trkpt lat="46.68955" lon="5.63961">
        <ele>389.2</ele>
        <time>2000-01-01T03:24:13.000Z</time>
      </trkpt>
      <trkpt lat="46.68959" lon="5.63949">
        <ele>407</ele>
        <time>2000-01-01T03:24:23.000Z</time>
      </trkpt>
      <trkpt lat="46.68969" lon="5.63938">
        <ele>380.6</ele>
        <time>2000-01-01T03:24:33.000Z</time>
      </trkpt>
      <trkpt lat="46.68975" lon="5.63926">
        <ele>401</ele>
        <time>2000-01-01T03:24:43.000Z</time>
      </trkpt>
      <trkpt lat="46.68989" lon="5.63918">
        <ele>378.8</ele>
        <time>2000-01-01T03:24:53.000Z</time>
      </trkpt>
      <trkpt lat="46.68999" lon="5.63911">
        <ele>401</ele>
        <time>2000-01-01T03:25:03.000Z</time>
      </trkpt>
      <trkpt lat="46.69007" lon="5.63895">
        <ele>377.6</ele>
        <time>2000-01-01T03:25:13.000Z</time>
      </trkpt>
      <trkpt lat="46.69021" lon="5.63905">
        <ele>402</ele>
        <time>2000-01-01T03:25:23.000Z</time>
      </trkpt>
      <trkpt lat="46.69049" lon="5.639">
        <ele>402</ele>
        <time>2000-01-01T03:25:33.000Z</time>
      </trkpt>
      <trkpt lat="46.6906" lon="5.639">
        <ele>374.2</ele>
        <time>2000-01-01T03:25:43.000Z</time>
      </trkpt>
      <trkpt lat="46.69071" lon="5.63903">
        <ele>397</ele>
        <time>2000-01-01T03:25:53.000Z</time>
      </trkpt>
      <trkpt lat="46.69082" lon="5.63894">
        <ele>373.2</ele>
        <time>2000-01-01T03:26:03.000Z</time>
      </trkpt>
      <trkpt lat="46.69092" lon="5.63873">
        <ele>399</ele>
        <time>2000-01-01T03:26:13.000Z</time>
      </trkpt>
      <trkpt lat="46.69126" lon="5.63844">
        <ele>397</ele>
        <time>2000-01-01T03:26:23.000Z</time>
      </trkpt>
      <trkpt lat="46.69143" lon="5.63844">
        <ele>369.6</ele>
        <time>2000-01-01T03:26:33.000Z</time>
      </trkpt>
      <trkpt lat="46.69158" lon="5.63849">
        <ele>395</ele>
        <time>2000-01-01T03:26:43.000Z</time>
      </trkpt>
      <trkpt lat="46.69176" lon="5.63863">
        <ele>395</ele>
        <time>2000-01-01T03:26:53.000Z</time>
      </trkpt>
      <trkpt lat="46.69186" lon="5.63866">
        <ele>363.1</ele>
        <time>2000-01-01T03:27:03.000Z</time>
      </trkpt>
      <trkpt lat="46.69195" lon="5.63872">
        <ele>395</ele>
        <time>2000-01-01T03:27:13.000Z</time>
      </trkpt>
      <trkpt lat="46.69201" lon="5.63885">
        <ele>357.3</ele>
        <time>2000-01-01T03:27:23.000Z</time>
      </trkpt>
      <trkpt lat="46.69204" lon="5.63898">
        <ele>387</ele>
        <time>2000-01-01T03:27:33.000Z</time>
      </trkpt>
      <trkpt lat="46.69213" lon="5.63904">
        <ele>353.6</ele>
        <time>2000-01-01T03:27:43.000Z</time>
      </trkpt>
      <trkpt lat="46.69221" lon="5.63908">
        <ele>352.5</ele>
        <time>2000-01-01T03:27:53.000Z</time>
      </trkpt>
      <trkpt lat="46.6923" lon="5.63917">
        <ele>384</ele>
        <time>2000-01-01T03:28:03.000Z</time>
      </trkpt>
      <trkpt lat="46.69247" lon="5.6393">
        <ele>382</ele>
        <time>2000-01-01T03:28:13.000Z</time>
      </trkpt>
      <trkpt lat="46.69259" lon="5.63931">
        <ele>346.4</ele>
        <time>2000-01-01T03:28:23.000Z</time>
      </trkpt>
      <trkpt lat="46.69268" lon="5.6393">
        <ele>382</ele>
        <time>2000-01-01T03:28:33.000Z</time>
      </trkpt>
      <trkpt lat="46.69278" lon="5.63935">
        <ele>345</ele>
        <time>2000-01-01T03:28:43.000Z</time>
      </trkpt>
      <trkpt lat="46.69287" lon="5.63944">
        <ele>369</ele>
        <time>2000-01-01T03:28:53.000Z</time>
      </trkpt>
      <trkpt lat="46.69297" lon="5.63949">
        <ele>340.3</ele>
        <time>2000-01-01T03:29:03.000Z</time>
      </trkpt>
      <trkpt lat="46.69307" lon="5.63951">
        <ele>367</ele>
        <time>2000-01-01T03:29:13.000Z</time>
      </trkpt>
      <trkpt lat="46.69311" lon="5.63948">
        <ele>339.8</ele>
        <time>2000-01-01T03:29:23.000Z</time>
      </trkpt>
      <trkpt lat="46.6932" lon="5.63943">
        <ele>341.1</ele>
        <time>2000-01-01T03:29:33.000Z</time>
      </trkpt>
      <trkpt lat="46.69342" lon="5.6395">
        <ele>367</ele>
        <time>2000-01-01T03:29:43.000Z</time>
      </trkpt>
      <trkpt lat="46.69349" lon="5.63946">
        <ele>341.1</ele>
        <time>2000-01-01T03:29:53.000Z</time>
      </trkpt>
      <trkpt lat="46.69364" lon="5.63951">
        <ele>364</ele>
        <time>2000-01-01T03:30:03.000Z</time>
      </trkpt>
      <trkpt lat="46.69382" lon="5.63953">
        <ele>339.5</ele>
        <time>2000-01-01T03:30:13.000Z</time>
      </trkpt>
      <trkpt lat="46.69395" lon="5.6396">
        <ele>362</ele>
        <time>2000-01-01T03:30:23.000Z</time>
      </trkpt>
      <trkpt lat="46.69401" lon="5.63962">
        <ele>337</ele>
        <time>2000-01-01T03:30:33.000Z</time>
      </trkpt>
      <trkpt lat="46.69413" lon="5.63978">
        <ele>360</ele>
        <time>2000-01-01T03:30:43.000Z</time>
      </trkpt>
      <trkpt lat="46.69416" lon="5.63989">
        <ele>330.1</ele>
        <time>2000-01-01T03:30:53.000Z</time>
      </trkpt>
      <trkpt lat="46.69424" lon="5.64001">
        <ele>359</ele>
        <time>2000-01-01T03:31:03.000Z</time>
      </trkpt>
      <trkpt lat="46.69424" lon="5.6401">
        <ele>328.9</ele>
        <time>2000-01-01T03:31:13.000Z</time>
      </trkpt>
      <trkpt lat="46.69425" lon="5.64021">
        <ele>328.4</ele>
        <time>2000-01-01T03:31:23.000Z</time>
      </trkpt>
      <trkpt lat="46.69432" lon="5.6403">
        <ele>359</ele>
        <time>2000-01-01T03:31:33.000Z</time>
      </trkpt>
      <trkpt lat="46.69443" lon="5.64036">
        <ele>327.5</ele>
        <time>2000-01-01T03:31:43.000Z</time>
      </trkpt>
      <trkpt lat="46.69449" lon="5.64045">
        <ele>358</ele>
        <time>2000-01-01T03:31:53.000Z</time>
      </trkpt>
      <trkpt lat="46.69463" lon="5.64059">
        <ele>326.1</ele>
        <time>2000-01-01T03:32:03.000Z</time>
      </trkpt>
      <trkpt lat="46.69469" lon="5.64063">
        <ele>350</ele>
        <time>2000-01-01T03:32:13.000Z</time>
      </trkpt>
      <trkpt lat="46.69474" lon="5.64075">
        <ele>325.3</ele>
        <time>2000-01-01T03:32:23.000Z</time>
      </trkpt>
      <trkpt lat="46.69482" lon="5.64082">
        <ele>348</ele>
        <time>2000-01-01T03:32:33.000Z</time>
      </trkpt>
      <trkpt lat="46.69505" lon="5.64086">
        <ele>346</ele>
        <time>2000-01-01T03:32:43.000Z</time>
      </trkpt>
      <trkpt lat="46.69522" lon="5.64106">
        <ele>345</ele>
        <time>2000-01-01T03:32:53.000Z</time>
      </trkpt>
      <trkpt lat="46.69534" lon="5.64104">
        <ele>325</ele>
        <time>2000-01-01T03:33:03.000Z</time>
      </trkpt>
      <trkpt lat="46.69543" lon="5.64108">
        <ele>345</ele>
        <time>2000-01-01T03:33:13.000Z</time>
      </trkpt>
      <trkpt lat="46.69548" lon="5.64123">
        <ele>323.3</ele>
        <time>2000-01-01T03:33:23.000Z</time>
      </trkpt>
      <trkpt lat="46.69555" lon="5.64134">
        <ele>344</ele>
        <time>2000-01-01T03:33:33.000Z</time>
      </trkpt>
      <trkpt lat="46.69565" lon="5.64135">
        <ele>322.9</ele>
        <time>2000-01-01T03:33:43.000Z</time>
      </trkpt>
      <trkpt lat="46.69584" lon="5.64147">
        <ele>344</ele>
        <time>2000-01-01T03:33:53.000Z</time>
      </trkpt>
      <trkpt lat="46.69605" lon="5.64151">
        <ele>342</ele>
        <time>2000-01-01T03:34:03.000Z</time>
      </trkpt>
      <trkpt lat="46.69622" lon="5.64163">
        <ele>340</ele>
        <time>2000-01-01T03:34:13.000Z</time>
      </trkpt>
      <trkpt lat="46.69631" lon="5.64168">
        <ele>321</ele>
        <time>2000-01-01T03:34:23.000Z</time>
      </trkpt>
      <trkpt lat="46.69651" lon="5.64168">
        <ele>340</ele>
        <time>2000-01-01T03:34:33.000Z</time>
      </trkpt>
      <trkpt lat="46.69662" lon="5.64171">
        <ele>321.5</ele>
        <time>2000-01-01T03:34:43.000Z</time>
      </trkpt>
      <trkpt lat="46.69681" lon="5.64168">
        <ele>343</ele>
        <time>2000-01-01T03:34:53.000Z</time>
      </trkpt>
      <trkpt lat="46.69712" lon="5.64175">
        <ele>345</ele>
        <time>2000-01-01T03:35:03.000Z</time>
      </trkpt>
      <trkpt lat="46.69722" lon="5.64174">
        <ele>323.4</ele>
        <time>2000-01-01T03:35:13.000Z</time>
      </trkpt>
      <trkpt lat="46.69734" lon="5.64176">
        <ele>345</ele>
        <time>2000-01-01T03:35:23.000Z</time>
      </trkpt>
      <trkpt lat="46.69743" lon="5.64183">
        <ele>321.8</ele>
        <time>2000-01-01T03:35:33.000Z</time>
      </trkpt>
      <trkpt lat="46.69764" lon="5.64182">
        <ele>345</ele>
        <time>2000-01-01T03:35:43.000Z</time>
      </trkpt>
      <trkpt lat="46.69774" lon="5.64183">
        <ele>320.7</ele>
        <time>2000-01-01T03:35:53.000Z</time>
      </trkpt>
      <trkpt lat="46.69783" lon="5.64178">
        <ele>343</ele>
        <time>2000-01-01T03:36:03.000Z</time>
      </trkpt>
      <trkpt lat="46.69793" lon="5.64175">
        <ele>321.4</ele>
        <time>2000-01-01T03:36:13.000Z</time>
      </trkpt>
      <trkpt lat="46.69803" lon="5.64173">
        <ele>342</ele>
        <time>2000-01-01T03:36:23.000Z</time>
      </trkpt>
      <trkpt lat="46.69813" lon="5.64173">
        <ele>320.7</ele>
        <time>2000-01-01T03:36:33.000Z</time>
      </trkpt>
      <trkpt lat="46.69822" lon="5.64175">
        <ele>338</ele>
        <time>2000-01-01T03:36:43.000Z</time>
      </trkpt>
      <trkpt lat="46.69833" lon="5.64176">
        <ele>319.3</ele>
        <time>2000-01-01T03:36:53.000Z</time>
      </trkpt>
      <trkpt lat="46.69843" lon="5.64172">
        <ele>338</ele>
        <time>2000-01-01T03:37:03.000Z</time>
      </trkpt>
      <trkpt lat="46.69854" lon="5.6417">
        <ele>319.1</ele>
        <time>2000-01-01T03:37:13.000Z</time>
      </trkpt>
      <trkpt lat="46.69864" lon="5.64166">
        <ele>347</ele>
        <time>2000-01-01T03:37:23.000Z</time>
      </trkpt>
      <trkpt lat="46.69873" lon="5.64168">
        <ele>319</ele>
        <time>2000-01-01T03:37:33.000Z</time>
      </trkpt>
      <trkpt lat="46.69894" lon="5.64171">
        <ele>344</ele>
        <time>2000-01-01T03:37:43.000Z</time>
      </trkpt>
      <trkpt lat="46.69904" lon="5.6417">
        <ele>319.8</ele>
        <time>2000-01-01T03:37:53.000Z</time>
      </trkpt>
      <trkpt lat="46.69913" lon="5.64173">
        <ele>341</ele>
        <time>2000-01-01T03:38:03.000Z</time>
      </trkpt>
      <trkpt lat="46.69924" lon="5.64172">
        <ele>320.9</ele>
        <time>2000-01-01T03:38:13.000Z</time>
      </trkpt>
      <trkpt lat="46.69933" lon="5.64173">
        <ele>341</ele>
        <time>2000-01-01T03:38:23.000Z</time>
      </trkpt>
      <trkpt lat="46.69943" lon="5.64177">
        <ele>321.3</ele>
        <time>2000-01-01T03:38:33.000Z</time>
      </trkpt>
      <trkpt lat="46.6996" lon="5.64189">
        <ele>338</ele>
        <time>2000-01-01T03:38:43.000Z</time>
      </trkpt>
      <trkpt lat="46.6997" lon="5.64193">
        <ele>321.1</ele>
        <time>2000-01-01T03:38:53.000Z</time>
      </trkpt>
      <trkpt lat="46.6998" lon="5.642">
        <ele>336</ele>
        <time>2000-01-01T03:39:03.000Z</time>
      </trkpt>
      <trkpt lat="46.69988" lon="5.64207">
        <ele>319.5</ele>
        <time>2000-01-01T03:39:13.000Z</time>
      </trkpt>
      <trkpt lat="46.69997" lon="5.64212">
        <ele>336</ele>
        <time>2000-01-01T03:39:23.000Z</time>
      </trkpt>
      <trkpt lat="46.70007" lon="5.64215">
        <ele>319.1</ele>
        <time>2000-01-01T03:39:33.000Z</time>
      </trkpt>
      <trkpt lat="46.70018" lon="5.64221">
        <ele>336</ele>
        <time>2000-01-01T03:39:43.000Z</time>
      </trkpt>
      <trkpt lat="46.70036" lon="5.64228">
        <ele>344</ele>
        <time>2000-01-01T03:39:53.000Z</time>
      </trkpt>
      <trkpt lat="46.70044" lon="5.64234">
        <ele>318.7</ele>
        <time>2000-01-01T03:40:03.000Z</time>
      </trkpt>
      <trkpt lat="46.70054" lon="5.64238">
        <ele>343</ele>
        <time>2000-01-01T03:40:13.000Z</time>
      </trkpt>
      <trkpt lat="46.70063" lon="5.64243">
        <ele>318.9</ele>
        <time>2000-01-01T03:40:23.000Z</time>
      </trkpt>
      <trkpt lat="46.70072" lon="5.6425">
        <ele>342</ele>
        <time>2000-01-01T03:40:33.000Z</time>
      </trkpt>
      <trkpt lat="46.7008" lon="5.64261">
        <ele>318.1</ele>
        <time>2000-01-01T03:40:43.000Z</time>
      </trkpt>
      <trkpt lat="46.70089" lon="5.64266">
        <ele>342</ele>
        <time>2000-01-01T03:40:53.000Z</time>
      </trkpt>
      <trkpt lat="46.70097" lon="5.64273">
        <ele>318.7</ele>
        <time>2000-01-01T03:41:03.000Z</time>
      </trkpt>
      <trkpt lat="46.70108" lon="5.64281">
        <ele>338</ele>
        <time>2000-01-01T03:41:13.000Z</time>
      </trkpt>
      <trkpt lat="46.70116" lon="5.64293">
        <ele>318.5</ele>
        <time>2000-01-01T03:41:23.000Z</time>
      </trkpt>
      <trkpt lat="46.70125" lon="5.64301">
        <ele>334</ele>
        <time>2000-01-01T03:41:33.000Z</time>
      </trkpt>
      <trkpt lat="46.70135" lon="5.64312">
        <ele>318.6</ele>
        <time>2000-01-01T03:41:43.000Z</time>
      </trkpt>
      <trkpt lat="46.70144" lon="5.64319">
        <ele>330</ele>
        <time>2000-01-01T03:41:53.000Z</time>
      </trkpt>
      <trkpt lat="46.7016" lon="5.64339">
        <ele>329</ele>
        <time>2000-01-01T03:42:03.000Z</time>
      </trkpt>
      <trkpt lat="46.70168" lon="5.64348">
        <ele>318.1</ele>
        <time>2000-01-01T03:42:13.000Z</time>
      </trkpt>
      <trkpt lat="46.70186" lon="5.64363">
        <ele>329</ele>
        <time>2000-01-01T03:42:23.000Z</time>
      </trkpt>
      <trkpt lat="46.70204" lon="5.64355">
        <ele>335</ele>
        <time>2000-01-01T03:42:33.000Z</time>
      </trkpt>
      <trkpt lat="46.70234" lon="5.64361">
        <ele>342</ele>
        <time>2000-01-01T03:42:43.000Z</time>
      </trkpt>
      <trkpt lat="46.70244" lon="5.64361">
        <ele>333.3</ele>
        <time>2000-01-01T03:42:53.000Z</time>
      </trkpt>
      <trkpt lat="46.70264" lon="5.64366">
        <ele>346</ele>
        <time>2000-01-01T03:43:03.000Z</time>
      </trkpt>
      <trkpt lat="46.70277" lon="5.64374">
        <ele>336.2</ele>
        <time>2000-01-01T03:43:13.000Z</time>
      </trkpt>
      <trkpt lat="46.70286" lon="5.64374">
        <ele>358</ele>
        <time>2000-01-01T03:43:23.000Z</time>
      </trkpt>
      <trkpt lat="46.70301" lon="5.64377">
        <ele>341</ele>
        <time>2000-01-01T03:43:33.000Z</time>
      </trkpt>
      <trkpt lat="46.70324" lon="5.64389">
        <ele>372</ele>
        <time>2000-01-01T03:43:43.000Z</time>
      </trkpt>
      <trkpt lat="46.70342" lon="5.64406">
        <ele>372</ele>
        <time>2000-01-01T03:43:53.000Z</time>
      </trkpt>
      <trkpt lat="46.70345" lon="5.64421">
        <ele>339.2</ele>
        <time>2000-01-01T03:44:03.000Z</time>
      </trkpt>
      <trkpt lat="46.70345" lon="5.64435">
        <ele>355</ele>
        <time>2000-01-01T03:44:13.000Z</time>
      </trkpt>
      <trkpt lat="46.70348" lon="5.64442">
        <ele>337.4</ele>
        <time>2000-01-01T03:44:23.000Z</time>
      </trkpt>
      <trkpt lat="46.70353" lon="5.64451">
        <ele>336.4</ele>
        <time>2000-01-01T03:44:33.000Z</time>
      </trkpt>
      <trkpt lat="46.70367" lon="5.64463">
        <ele>351</ele>
        <time>2019-07-29T10:29:25.000Z</time>
      </trkpt>
      <trkpt lat="46.7038" lon="5.64477">
        <ele>334.7</ele>
        <time>2019-07-29T10:29:35.000Z</time>
      </trkpt>
      <trkpt lat="46.70389" lon="5.64488">
        <ele>351</ele>
        <time>2019-07-29T10:29:27.000Z</time>
      </trkpt>
      <trkpt lat="46.70393" lon="5.64494">
        <ele>331.5</ele>
        <time>2019-07-29T10:29:37.000Z</time>
      </trkpt>
      <trkpt lat="46.70403" lon="5.64505">
        <ele>329.1</ele>
        <time>2019-07-29T10:29:47.000Z</time>
      </trkpt>
      <trkpt lat="46.70411" lon="5.64519">
        <ele>339</ele>
        <time>2019-07-29T10:29:30.000Z</time>
      </trkpt>
      <trkpt lat="46.70417" lon="5.64527">
        <ele>323.3</ele>
        <time>2019-07-29T10:29:40.000Z</time>
      </trkpt>
      <trkpt lat="46.70421" lon="5.64535">
        <ele>321.7</ele>
        <time>2019-07-29T10:29:50.000Z</time>
      </trkpt>
      <trkpt lat="46.70425" lon="5.64546">
        <ele>327</ele>
        <time>2019-07-29T10:29:33.000Z</time>
      </trkpt>
      <trkpt lat="46.70429" lon="5.64555">
        <ele>316.9</ele>
        <time>2019-07-29T10:29:43.000Z</time>
      </trkpt>
      <trkpt lat="46.70431" lon="5.64564">
        <ele>315.8</ele>
        <time>2019-07-29T10:29:53.000Z</time>
      </trkpt>
      <trkpt lat="46.7042" lon="5.64577">
        <ele>325</ele>
        <time>2019-07-29T10:29:36.000Z</time>
      </trkpt>
      <trkpt lat="46.70399" lon="5.64592">
        <ele>326</ele>
        <time>2019-07-29T10:29:37.000Z</time>
      </trkpt>
      <trkpt lat="46.704" lon="5.64603">
        <ele>314.6</ele>
        <time>2019-07-29T10:29:47.000Z</time>
      </trkpt>
      <trkpt lat="46.70411" lon="5.64616">
        <ele>325</ele>
        <time>2019-07-29T10:29:39.000Z</time>
      </trkpt>
      <trkpt lat="46.7044" lon="5.64637">
        <ele>325</ele>
        <time>2019-07-29T10:29:40.000Z</time>
      </trkpt>
      <trkpt lat="46.70469" lon="5.64648">
        <ele>324</ele>
        <time>2019-07-29T10:29:41.000Z</time>
      </trkpt>
      <trkpt lat="46.70494" lon="5.64661">
        <ele>324</ele>
        <time>2019-07-29T10:29:42.000Z</time>
      </trkpt>
      <trkpt lat="46.70502" lon="5.64664">
        <ele>312.7</ele>
        <time>2019-07-29T10:29:52.000Z</time>
      </trkpt>
      <trkpt lat="46.70515" lon="5.64674">
        <ele>324</ele>
        <time>2019-07-29T10:29:44.000Z</time>
      </trkpt>
      <trkpt lat="46.70521" lon="5.64674">
        <ele>310.8</ele>
        <time>2019-07-29T10:29:54.000Z</time>
      </trkpt>
      <trkpt lat="46.7053" lon="5.64672">
        <ele>309.5</ele>
        <time>2019-07-29T10:30:04.000Z</time>
      </trkpt>
      <trkpt lat="46.7054" lon="5.64672">
        <ele>318</ele>
        <time>2019-07-29T10:29:47.000Z</time>
      </trkpt>
      <trkpt lat="46.70554" lon="5.64666">
        <ele>310.1</ele>
        <time>2019-07-29T10:29:57.000Z</time>
      </trkpt>
      <trkpt lat="46.70565" lon="5.64663">
        <ele>319</ele>
        <time>2019-07-29T10:29:49.000Z</time>
      </trkpt>
      <trkpt lat="46.70571" lon="5.6466">
        <ele>311</ele>
        <time>2019-07-29T10:29:59.000Z</time>
      </trkpt>
      <trkpt lat="46.7058" lon="5.64657">
        <ele>311.2</ele>
        <time>2019-07-29T10:30:09.000Z</time>
      </trkpt>
      <trkpt lat="46.70586" lon="5.64657">
        <ele>319</ele>
        <time>2019-07-29T10:29:52.000Z</time>
      </trkpt>
      <trkpt lat="46.70604" lon="5.64654">
        <ele>309.2</ele>
        <time>2019-07-29T10:30:02.000Z</time>
      </trkpt>
      <trkpt lat="46.70618" lon="5.64654">
        <ele>316</ele>
        <time>2019-07-29T10:29:54.000Z</time>
      </trkpt>
      <trkpt lat="46.70631" lon="5.64656">
        <ele>307.8</ele>
        <time>2019-07-29T10:30:04.000Z</time>
      </trkpt>
      <trkpt lat="46.7064" lon="5.64659">
        <ele>313</ele>
        <time>2019-07-29T10:29:56.000Z</time>
      </trkpt>
      <trkpt lat="46.70642" lon="5.64668">
        <ele>305.9</ele>
        <time>2019-07-29T10:30:06.000Z</time>
      </trkpt>
      <trkpt lat="46.7064" lon="5.6468">
        <ele>304.1</ele>
        <time>2019-07-29T10:30:16.000Z</time>
      </trkpt>
      <trkpt lat="46.70636" lon="5.64699">
        <ele>312</ele>
        <time>2019-07-29T10:29:59.000Z</time>
      </trkpt>
      <trkpt lat="46.70637" lon="5.64707">
        <ele>304.7</ele>
        <time>2019-07-29T10:30:09.000Z</time>
      </trkpt>
      <trkpt lat="46.70636" lon="5.64716">
        <ele>306.3</ele>
        <time>2019-07-29T10:30:19.000Z</time>
      </trkpt>
      <trkpt lat="46.70629" lon="5.64729">
        <ele>307</ele>
        <time>2019-07-29T10:30:02.000Z</time>
      </trkpt>
      <trkpt lat="46.70635" lon="5.64741">
        <ele>310.5</ele>
        <time>2019-07-29T10:30:12.000Z</time>
      </trkpt>
      <trkpt lat="46.70643" lon="5.64748">
        <ele>307</ele>
        <time>2019-07-29T10:30:04.000Z</time>
      </trkpt>
      <trkpt lat="46.70647" lon="5.64757">
        <ele>311.3</ele>
        <time>2019-07-29T10:30:14.000Z</time>
      </trkpt>
      <trkpt lat="46.70659" lon="5.6478">
        <ele>307</ele>
        <time>2019-07-29T10:30:06.000Z</time>
      </trkpt>
      <trkpt lat="46.7067" lon="5.64783">
        <ele>310.4</ele>
        <time>2019-07-29T10:30:16.000Z</time>
      </trkpt>
      <trkpt lat="46.70681" lon="5.64784">
        <ele>307</ele>
        <time>2019-07-29T10:30:08.000Z</time>
      </trkpt>
      <trkpt lat="46.70693" lon="5.64789">
        <ele>309.1</ele>
        <time>2019-07-29T10:30:18.000Z</time>
      </trkpt>
      <trkpt lat="46.70699" lon="5.64794">
        <ele>310</ele>
        <time>2019-07-29T10:30:10.000Z</time>
        <extensions>
          <visugpx:TrkExtension xmlns:visugpx="https://www.visugpx.com/editgpx/">
            <visugpx:node>1</visugpx:node>
            </visugpx:TrkExtension>
        </extensions>
      </trkpt>
      <trkpt lat="46.707" lon="5.64795">
        <ele>308.6</ele>
      </trkpt>
      <trkpt lat="46.7071" lon="5.64813">
        <ele>307.4</ele>
      </trkpt>
      <trkpt lat="46.70714" lon="5.64823">
        <ele>307.4</ele>
      </trkpt>
      <trkpt lat="46.70716" lon="5.64831">
        <ele>307.7</ele>
      </trkpt>
      <trkpt lat="46.70716" lon="5.64836">
        <ele>307.9</ele>
      </trkpt>
      <trkpt lat="46.70713" lon="5.64851">
        <ele>308.5</ele>
      </trkpt>
      <trkpt lat="46.70712" lon="5.64858">
        <ele>308.8</ele>
      </trkpt>
      <trkpt lat="46.70713" lon="5.64865">
        <ele>309.5</ele>
      </trkpt>
      <trkpt lat="46.70716" lon="5.64874">
        <ele>311</ele>
      </trkpt>
      <trkpt lat="46.70719" lon="5.6488">
        <ele>312.2</ele>
      </trkpt>
      <trkpt lat="46.70725" lon="5.64885">
        <ele>313.8</ele>
      </trkpt>
      <trkpt lat="46.70732" lon="5.6489">
        <ele>315.2</ele>
      </trkpt>
      <trkpt lat="46.70738" lon="5.64894">
        <ele>316.3</ele>
      </trkpt>
      <trkpt lat="46.70744" lon="5.64895">
        <ele>317.1</ele>
      </trkpt>
      <trkpt lat="46.70754" lon="5.64907">
        <ele>319.1</ele>
      </trkpt>
      <trkpt lat="46.70763" lon="5.64912">
        <ele>320.3</ele>
      </trkpt>
      <trkpt lat="46.70775" lon="5.64918">
        <ele>322.1</ele>
        <extensions>
          <visugpx:TrkExtension xmlns:visugpx="https://www.visugpx.com/editgpx/">
            <visugpx:node>2</visugpx:node>
            </visugpx:TrkExtension>
        </extensions>
      </trkpt>
      <trkpt lat="46.70821" lon="5.64797">
        <ele>314.8</ele>
      </trkpt>
      <trkpt lat="46.70801" lon="5.64756">
        <ele>307.7</ele>
        <extensions>
          <visugpx:TrkExtension xmlns:visugpx="https://www.visugpx.com/editgpx/">
            <visugpx:node>4</visugpx:node>
            </visugpx:TrkExtension>
        </extensions>
      </trkpt>
      <trkpt lat="46.70798" lon="5.64761">
        <ele>308.1</ele>
      </trkpt>
      <trkpt lat="46.70792" lon="5.64759">
        <ele>307.2</ele>
      </trkpt>
      <trkpt lat="46.70786" lon="5.64754">
        <ele>306</ele>
      </trkpt>
      <trkpt lat="46.70783" lon="5.6475">
        <ele>305.4</ele>
      </trkpt>
      <trkpt lat="46.70781" lon="5.64744">
        <ele>304.8</ele>
      </trkpt>
      <trkpt lat="46.7078" lon="5.64737">
        <ele>304.3</ele>
      </trkpt>
      <trkpt lat="46.7078" lon="5.64727">
        <ele>303.6</ele>
      </trkpt>
      <trkpt lat="46.70781" lon="5.64714">
        <ele>302.6</ele>
      </trkpt>
      <trkpt lat="46.70782" lon="5.64705">
        <ele>301.9</ele>
      </trkpt>
      <trkpt lat="46.70782" lon="5.647">
        <ele>301.4</ele>
      </trkpt>
      <trkpt lat="46.70779" lon="5.64687">
        <ele>300.7</ele>
      </trkpt>
      <trkpt lat="46.70777" lon="5.64678">
        <ele>301.2</ele>
      </trkpt>
      <trkpt lat="46.70775" lon="5.64664">
        <ele>302</ele>
      </trkpt>
      <trkpt lat="46.70772" lon="5.64648">
        <ele>302.3</ele>
      </trkpt>
      <trkpt lat="46.70769" lon="5.64633">
        <ele>303.5</ele>
      </trkpt>
      <trkpt lat="46.70767" lon="5.64626">
        <ele>304.8</ele>
      </trkpt>
      <trkpt lat="46.70755" lon="5.64631">
        <ele>305</ele>
      </trkpt>
      <trkpt lat="46.70748" lon="5.64636">
        <ele>304.8</ele>
      </trkpt>
      <trkpt lat="46.70731" lon="5.64646">
        <ele>306</ele>
      </trkpt>
      <trkpt lat="46.70719" lon="5.64653">
        <ele>306.7</ele>
      </trkpt>
      <trkpt lat="46.70707" lon="5.64657">
        <ele>306.9</ele>
      </trkpt>
      <trkpt lat="46.70687" lon="5.64662">
        <ele>307.4</ele>
      </trkpt>
      <trkpt lat="46.70668" lon="5.64664">
        <ele>307.3</ele>
      </trkpt>
      <trkpt lat="46.70665" lon="5.64664">
        <ele>307.2</ele>
        <extensions>
          <visugpx:TrkExtension xmlns:visugpx="https://www.visugpx.com/editgpx/">
            <visugpx:node>5</visugpx:node>
            </visugpx:TrkExtension>
        </extensions>
      </trkpt>
      <trkpt lat="46.70661" lon="5.64664">
        <ele>307.1</ele>
      </trkpt>
      <trkpt lat="46.70656" lon="5.64662">
        <ele>307.2</ele>
      </trkpt>
      <trkpt lat="46.70652" lon="5.64661">
        <ele>307.2</ele>
      </trkpt>
      <trkpt lat="46.70643" lon="5.64658">
        <ele>307.3</ele>
      </trkpt>
      <trkpt lat="46.70632" lon="5.64654">
        <ele>308</ele>
      </trkpt>
      <trkpt lat="46.7062" lon="5.64651">
        <ele>308.5</ele>
      </trkpt>
      <trkpt lat="46.70611" lon="5.6465">
        <ele>308.6</ele>
      </trkpt>
      <trkpt lat="46.706" lon="5.64652">
        <ele>309.8</ele>
      </trkpt>
      <trkpt lat="46.70595" lon="5.64653">
        <ele>310.2</ele>
      </trkpt>
      <trkpt lat="46.70592" lon="5.64647">
        <ele>311.1</ele>
      </trkpt>
      <trkpt lat="46.70591" lon="5.64639">
        <ele>311.9</ele>
      </trkpt>
      <trkpt lat="46.70592" lon="5.64635">
        <ele>312.9</ele>
        <extensions>
          <visugpx:TrkExtension xmlns:visugpx="https://www.visugpx.com/editgpx/">
            <visugpx:node>6</visugpx:node>
            </visugpx:TrkExtension>
        </extensions>
      </trkpt>
      <trkpt lat="46.70592" lon="5.6463">
        <ele>314.4</ele>
      </trkpt>
      <trkpt lat="46.70593" lon="5.64622">
        <ele>316.7</ele>
      </trkpt>
      <trkpt lat="46.70596" lon="5.64618">
        <ele>317.5</ele>
      </trkpt>
      <trkpt lat="46.70599" lon="5.64616">
        <ele>317.8</ele>
      </trkpt>
      <trkpt lat="46.70602" lon="5.64615">
        <ele>317.8</ele>
      </trkpt>
      <trkpt lat="46.70604" lon="5.64613">
        <ele>318.2</ele>
      </trkpt>
      <trkpt lat="46.70605" lon="5.64608">
        <ele>319.4</ele>
      </trkpt>
      <trkpt lat="46.70613" lon="5.64602">
        <ele>320.6</ele>
      </trkpt>
      <trkpt lat="46.70617" lon="5.64597">
        <ele>322.1</ele>
      </trkpt>
      <trkpt lat="46.70619" lon="5.64593">
        <ele>323.2</ele>
      </trkpt>
      <trkpt lat="46.70628" lon="5.64589">
        <ele>324.4</ele>
      </trkpt>
      <trkpt lat="46.70637" lon="5.64582">
        <ele>326.5</ele>
      </trkpt>
      <trkpt lat="46.70643" lon="5.6458">
        <ele>327.6</ele>
      </trkpt>
      <trkpt lat="46.70649" lon="5.64578">
        <ele>328.6</ele>
      </trkpt>
      <trkpt lat="46.70659" lon="5.64576">
        <ele>329.8</ele>
      </trkpt>
      <trkpt lat="46.70664" lon="5.64575">
        <ele>330.3</ele>
      </trkpt>
      <trkpt lat="46.70667" lon="5.64574">
        <ele>330.7</ele>
      </trkpt>
      <trkpt lat="46.70669" lon="5.6457">
        <ele>331.8</ele>
      </trkpt>
      <trkpt lat="46.70669" lon="5.64564">
        <ele>333.5</ele>
      </trkpt>
      <trkpt lat="46.70667" lon="5.64558">
        <ele>335.3</ele>
      </trkpt>
      <trkpt lat="46.70664" lon="5.64555">
        <ele>336.2</ele>
      </trkpt>
      <trkpt lat="46.70661" lon="5.64552">
        <ele>336.9</ele>
      </trkpt>
      <trkpt lat="46.70653" lon="5.64541">
        <ele>339.4</ele>
      </trkpt>
      <trkpt lat="46.70649" lon="5.64536">
        <ele>340.6</ele>
      </trkpt>
      <trkpt lat="46.70643" lon="5.64525">
        <ele>343.1</ele>
      </trkpt>
      <trkpt lat="46.70637" lon="5.6452">
        <ele>344.1</ele>
      </trkpt>
      <trkpt lat="46.70634" lon="5.64514">
        <ele>345</ele>
      </trkpt>
      <trkpt lat="46.70632" lon="5.64506">
        <ele>346</ele>
      </trkpt>
      <trkpt lat="46.70629" lon="5.64498">
        <ele>347.2</ele>
      </trkpt>
      <trkpt lat="46.70629" lon="5.64492">
        <ele>349</ele>
      </trkpt>
      <trkpt lat="46.70632" lon="5.64489">
        <ele>350.1</ele>
      </trkpt>
      <trkpt lat="46.70633" lon="5.64485">
        <ele>351.4</ele>
      </trkpt>
      <trkpt lat="46.70632" lon="5.64478">
        <ele>353.5</ele>
      </trkpt>
      <trkpt lat="46.7063" lon="5.64473">
        <ele>354.8</ele>
      </trkpt>
      <trkpt lat="46.70626" lon="5.64466">
        <ele>357</ele>
      </trkpt>
      <trkpt lat="46.70621" lon="5.64462">
        <ele>357.9</ele>
      </trkpt>
      <trkpt lat="46.70618" lon="5.64455">
        <ele>360.1</ele>
      </trkpt>
      <trkpt lat="46.70617" lon="5.64448">
        <ele>362.5</ele>
      </trkpt>
      <trkpt lat="46.70615" lon="5.64443">
        <ele>364.3</ele>
      </trkpt>
      <trkpt lat="46.70615" lon="5.64439">
        <ele>366.2</ele>
      </trkpt>
      <trkpt lat="46.70618" lon="5.64439">
        <ele>366.6</ele>
      </trkpt>
      <trkpt lat="46.70622" lon="5.6444">
        <ele>366.6</ele>
      </trkpt>
      <trkpt lat="46.70627" lon="5.64439">
        <ele>367.7</ele>
      </trkpt>
      <trkpt lat="46.70633" lon="5.64436">
        <ele>369.7</ele>
      </trkpt>
      <trkpt lat="46.70638" lon="5.64432">
        <ele>371.8</ele>
      </trkpt>
      <trkpt lat="46.70644" lon="5.64429">
        <ele>372.8</ele>
      </trkpt>
      <trkpt lat="46.70649" lon="5.64429">
        <ele>372.4</ele>
      </trkpt>
      <trkpt lat="46.70658" lon="5.64427">
        <ele>372.7</ele>
      </trkpt>
      <trkpt lat="46.70661" lon="5.64423">
        <ele>374.3</ele>
      </trkpt>
      <trkpt lat="46.70666" lon="5.64418">
        <ele>376.4</ele>
      </trkpt>
      <trkpt lat="46.70672" lon="5.64407">
        <ele>380.4</ele>
      </trkpt>
      <trkpt lat="46.70674" lon="5.64398">
        <ele>383.8</ele>
      </trkpt>
      <trkpt lat="46.70676" lon="5.64391">
        <ele>386.9</ele>
      </trkpt>
      <trkpt lat="46.7068" lon="5.64384">
        <ele>393.8</ele>
      </trkpt>
      <trkpt lat="46.70682" lon="5.64382">
        <ele>396.7</ele>
      </trkpt>
      <trkpt lat="46.70684" lon="5.64378">
        <ele>401.7</ele>
      </trkpt>
      <trkpt lat="46.70686" lon="5.64375">
        <ele>406</ele>
      </trkpt>
      <trkpt lat="46.70688" lon="5.64378">
        <ele>404.1</ele>
      </trkpt>
      <trkpt lat="46.70693" lon="5.64386">
        <ele>397.8</ele>
      </trkpt>
      <trkpt lat="46.70697" lon="5.6439">
        <ele>395.4</ele>
      </trkpt>
      <trkpt lat="46.70706" lon="5.64394">
        <ele>396.7</ele>
      </trkpt>
      <trkpt lat="46.70713" lon="5.64394">
        <ele>399.5</ele>
      </trkpt>
      <trkpt lat="46.7072" lon="5.64392">
        <ele>403.4</ele>
      </trkpt>
      <trkpt lat="46.70724" lon="5.6439">
        <ele>405.6</ele>
      </trkpt>
      <trkpt lat="46.70735" lon="5.64388">
        <ele>408.1</ele>
      </trkpt>
      <trkpt lat="46.70739" lon="5.64385">
        <ele>410.9</ele>
      </trkpt>
      <trkpt lat="46.70745" lon="5.64383">
        <ele>413.4</ele>
      </trkpt>
      <trkpt lat="46.70748" lon="5.64379">
        <ele>417.2</ele>
      </trkpt>
      <trkpt lat="46.70749" lon="5.64375">
        <ele>420.8</ele>
      </trkpt>
      <trkpt lat="46.70747" lon="5.6437">
        <ele>424.6</ele>
      </trkpt>
      <trkpt lat="46.70745" lon="5.64367">
        <ele>426.7</ele>
      </trkpt>
      <trkpt lat="46.70741" lon="5.64363">
        <ele>428.9</ele>
      </trkpt>
      <trkpt lat="46.70738" lon="5.64358">
        <ele>432.1</ele>
      </trkpt>
      <trkpt lat="46.70736" lon="5.64352">
        <ele>436.7</ele>
      </trkpt>
      <trkpt lat="46.70733" lon="5.64348">
        <ele>439.5</ele>
      </trkpt>
      <trkpt lat="46.7073" lon="5.64347">
        <ele>439.7</ele>
      </trkpt>
      <trkpt lat="46.70728" lon="5.64348">
        <ele>438.4</ele>
      </trkpt>
      <trkpt lat="46.70722" lon="5.64353">
        <ele>432.6</ele>
      </trkpt>
      <trkpt lat="46.70716" lon="5.64353">
        <ele>433.1</ele>
      </trkpt>
      <trkpt lat="46.70712" lon="5.64353">
        <ele>433.4</ele>
      </trkpt>
      <trkpt lat="46.70707" lon="5.64349">
        <ele>437.3</ele>
      </trkpt>
      <trkpt lat="46.70701" lon="5.64343">
        <ele>442.7</ele>
      </trkpt>
      <trkpt lat="46.70694" lon="5.6434">
        <ele>445.5</ele>
      </trkpt>
      <trkpt lat="46.70687" lon="5.6434">
        <ele>445.1</ele>
      </trkpt>
      <trkpt lat="46.70681" lon="5.64338">
        <ele>447.5</ele>
      </trkpt>
      <trkpt lat="46.70674" lon="5.64338">
        <ele>447.7</ele>
      </trkpt>
      <trkpt lat="46.70668" lon="5.64337">
        <ele>449.8</ele>
      </trkpt>
      <trkpt lat="46.70661" lon="5.64339">
        <ele>445.3</ele>
      </trkpt>
      <trkpt lat="46.70657" lon="5.6434">
        <ele>442.8</ele>
      </trkpt>
      <trkpt lat="46.70654" lon="5.64338">
        <ele>446.6</ele>
      </trkpt>
      <trkpt lat="46.70653" lon="5.64335">
        <ele>452.9</ele>
      </trkpt>
      <trkpt lat="46.70652" lon="5.64331">
        <ele>458.3</ele>
      </trkpt>
      <trkpt lat="46.70654" lon="5.64331">
        <ele>458.3</ele>
      </trkpt>
      <trkpt lat="46.70655" lon="5.64332">
        <ele>457.6</ele>
      </trkpt>
      <trkpt lat="46.70657" lon="5.64331">
        <ele>458.3</ele>
      </trkpt>
      <trkpt lat="46.7066" lon="5.64325">
        <ele>462.5</ele>
      </trkpt>
      <trkpt lat="46.70662" lon="5.6432">
        <ele>465.7</ele>
      </trkpt>
      <trkpt lat="46.70668" lon="5.64314">
        <ele>468.6</ele>
      </trkpt>
      <trkpt lat="46.70674" lon="5.64308">
        <ele>471.6</ele>
      </trkpt>
      <trkpt lat="46.70683" lon="5.64303">
        <ele>473.4</ele>
      </trkpt>
      <trkpt lat="46.70686" lon="5.64302">
        <ele>473.6</ele>
      </trkpt>
      <trkpt lat="46.70686" lon="5.643">
        <ele>474.5</ele>
      </trkpt>
      <trkpt lat="46.70686" lon="5.64296">
        <ele>476.4</ele>
      </trkpt>
      <trkpt lat="46.70686" lon="5.64293">
        <ele>477.8</ele>
      </trkpt>
      <trkpt lat="46.70683" lon="5.64293">
        <ele>478</ele>
      </trkpt>
      <trkpt lat="46.70679" lon="5.64295">
        <ele>477.4</ele>
      </trkpt>
      <trkpt lat="46.70676" lon="5.64296">
        <ele>477.1</ele>
      </trkpt>
      <trkpt lat="46.70675" lon="5.64295">
        <ele>477.6</ele>
      </trkpt>
      <trkpt lat="46.70674" lon="5.64293">
        <ele>478.5</ele>
      </trkpt>
      <trkpt lat="46.70675" lon="5.64289">
        <ele>480.2</ele>
      </trkpt>
      <trkpt lat="46.70681" lon="5.64288">
        <ele>480.4</ele>
        <extensions>
          <visugpx:TrkExtension xmlns:visugpx="https://www.visugpx.com/editgpx/">
            <visugpx:node>7</visugpx:node>
            </visugpx:TrkExtension>
        </extensions>
      </trkpt>
      <trkpt lat="46.70683" lon="5.64288">
        <ele>480.3</ele>
      </trkpt>
      <trkpt lat="46.70692" lon="5.64289">
        <ele>479.5</ele>
      </trkpt>
      <trkpt lat="46.70704" lon="5.64288">
        <ele>480.1</ele>
      </trkpt>
      <trkpt lat="46.70714" lon="5.64289">
        <ele>479.9</ele>
      </trkpt>
      <trkpt lat="46.70729" lon="5.64291">
        <ele>479.8</ele>
      </trkpt>
      <trkpt lat="46.70737" lon="5.64293">
        <ele>479.5</ele>
      </trkpt>
      <trkpt lat="46.70743" lon="5.64294">
        <ele>479.6</ele>
      </trkpt>
      <trkpt lat="46.70752" lon="5.643">
        <ele>478.6</ele>
      </trkpt>
      <trkpt lat="46.70756" lon="5.64299">
        <ele>480.2</ele>
      </trkpt>
      <trkpt lat="46.7076" lon="5.64299">
        <ele>481.5</ele>
      </trkpt>
      <trkpt lat="46.70764" lon="5.64302">
        <ele>482.2</ele>
      </trkpt>
      <trkpt lat="46.70769" lon="5.6431">
        <ele>480</ele>
      </trkpt>
      <trkpt lat="46.70776" lon="5.64317">
        <ele>477.2</ele>
      </trkpt>
      <trkpt lat="46.7078" lon="5.64315">
        <ele>479.7</ele>
      </trkpt>
      <trkpt lat="46.70784" lon="5.64312">
        <ele>482.3</ele>
      </trkpt>
      <trkpt lat="46.70789" lon="5.64313">
        <ele>481.9</ele>
      </trkpt>
      <trkpt lat="46.70799" lon="5.6432">
        <ele>477.9</ele>
      </trkpt>
      <trkpt lat="46.70816" lon="5.64325">
        <ele>477.9</ele>
      </trkpt>
      <trkpt lat="46.70831" lon="5.64327">
        <ele>480.7</ele>
      </trkpt>
      <trkpt lat="46.70846" lon="5.64334">
        <ele>480.2</ele>
      </trkpt>
      <trkpt lat="46.7086" lon="5.64339">
        <ele>475.6</ele>
      </trkpt>
      <trkpt lat="46.70878" lon="5.64338">
        <ele>478.8</ele>
      </trkpt>
      <trkpt lat="46.70889" lon="5.64336">
        <ele>483.3</ele>
      </trkpt>
      <trkpt lat="46.70897" lon="5.6433">
        <ele>481.1</ele>
      </trkpt>
      <trkpt lat="46.70911" lon="5.64322">
        <ele>476.4</ele>
      </trkpt>
      <trkpt lat="46.70922" lon="5.64314">
        <ele>468.2</ele>
      </trkpt>
      <trkpt lat="46.70928" lon="5.64307">
        <ele>459.6</ele>
      </trkpt>
      <trkpt lat="46.70934" lon="5.64298">
        <ele>458.1</ele>
      </trkpt>
      <trkpt lat="46.70941" lon="5.64288">
        <ele>469.1</ele>
      </trkpt>
      <trkpt lat="46.7095" lon="5.6427">
        <ele>476.3</ele>
      </trkpt>
      <trkpt lat="46.70954" lon="5.64262">
        <ele>464.5</ele>
      </trkpt>
      <trkpt lat="46.70957" lon="5.64251">
        <ele>457.8</ele>
      </trkpt>
      <trkpt lat="46.7096" lon="5.64242">
        <ele>453.5</ele>
      </trkpt>
      <trkpt lat="46.7096" lon="5.64234">
        <ele>458.2</ele>
      </trkpt>
      <trkpt lat="46.70959" lon="5.64226">
        <ele>465.1</ele>
      </trkpt>
      <trkpt lat="46.70954" lon="5.64223">
        <ele>477.1</ele>
      </trkpt>
      <trkpt lat="46.70947" lon="5.6422">
        <ele>492.2</ele>
      </trkpt>
      <trkpt lat="46.7094" lon="5.64219">
        <ele>497.1</ele>
      </trkpt>
      <trkpt lat="46.70927" lon="5.64219">
        <ele>497.1</ele>
      </trkpt>
      <trkpt lat="46.70911" lon="5.64218">
        <ele>497</ele>
      </trkpt>
      <trkpt lat="46.70905" lon="5.64214">
        <ele>497</ele>
      </trkpt>
      <trkpt lat="46.70902" lon="5.64208">
        <ele>497.3</ele>
      </trkpt>
      <trkpt lat="46.70899" lon="5.64195">
        <ele>498</ele>
      </trkpt>
      <trkpt lat="46.70897" lon="5.64189">
        <ele>498.3</ele>
      </trkpt>
      <trkpt lat="46.70892" lon="5.64185">
        <ele>498.6</ele>
      </trkpt>
      <trkpt lat="46.70888" lon="5.64177">
        <ele>499.2</ele>
      </trkpt>
      <trkpt lat="46.70887" lon="5.64165">
        <ele>500</ele>
      </trkpt>
      <trkpt lat="46.7089" lon="5.64152">
        <ele>500.5</ele>
      </trkpt>
      <trkpt lat="46.70896" lon="5.64142">
        <ele>500.9</ele>
      </trkpt>
      <trkpt lat="46.70902" lon="5.64137">
        <ele>501.2</ele>
      </trkpt>
      <trkpt lat="46.70909" lon="5.64124">
        <ele>502.6</ele>
      </trkpt>
      <trkpt lat="46.70913" lon="5.64112">
        <ele>503.9</ele>
      </trkpt>
      <trkpt lat="46.70913" lon="5.64098">
        <ele>504.5</ele>
      </trkpt>
      <trkpt lat="46.70913" lon="5.64087">
        <ele>504.9</ele>
      </trkpt>
      <trkpt lat="46.70912" lon="5.64076">
        <ele>505.2</ele>
      </trkpt>
      <trkpt lat="46.7091" lon="5.64065">
        <ele>505.5</ele>
      </trkpt>
      <trkpt lat="46.7091" lon="5.64054">
        <ele>505.8</ele>
      </trkpt>
      <trkpt lat="46.70909" lon="5.64043">
        <ele>505.7</ele>
      </trkpt>
      <trkpt lat="46.70908" lon="5.64028">
        <ele>505.7</ele>
      </trkpt>
      <trkpt lat="46.70909" lon="5.64009">
        <ele>506.2</ele>
      </trkpt>
      <trkpt lat="46.70908" lon="5.64">
        <ele>506.4</ele>
      </trkpt>
      <trkpt lat="46.70905" lon="5.63993">
        <ele>506</ele>
      </trkpt>
      <trkpt lat="46.70903" lon="5.63979">
        <ele>505.6</ele>
      </trkpt>
      <trkpt lat="46.70902" lon="5.63964">
        <ele>505.2</ele>
      </trkpt>
      <trkpt lat="46.70904" lon="5.6395">
        <ele>504.7</ele>
      </trkpt>
      <trkpt lat="46.70904" lon="5.63925">
        <ele>502</ele>
      </trkpt>
      <trkpt lat="46.70903" lon="5.63909">
        <ele>500.4</ele>
      </trkpt>
      <trkpt lat="46.70904" lon="5.63894">
        <ele>499.1</ele>
      </trkpt>
      <trkpt lat="46.70904" lon="5.63885">
        <ele>498.7</ele>
      </trkpt>
      <trkpt lat="46.70905" lon="5.63871">
        <ele>498.2</ele>
      </trkpt>
      <trkpt lat="46.70906" lon="5.63857">
        <ele>498.3</ele>
      </trkpt>
      <trkpt lat="46.70907" lon="5.63846">
        <ele>499.3</ele>
      </trkpt>
      <trkpt lat="46.70906" lon="5.63837">
        <ele>500.4</ele>
      </trkpt>
      <trkpt lat="46.70904" lon="5.63826">
        <ele>501.5</ele>
      </trkpt>
      <trkpt lat="46.70907" lon="5.63825">
        <ele>501.4</ele>
        <extensions>
          <visugpx:TrkExtension xmlns:visugpx="https://www.visugpx.com/editgpx/">
            <visugpx:node>8</visugpx:node>
            </visugpx:TrkExtension>
        </extensions>
      </trkpt>
      <trkpt lat="46.70904" lon="5.63826">
        <ele>501.5</ele>
      </trkpt>
      <trkpt lat="46.70902" lon="5.63825">
        <ele>501.6</ele>
      </trkpt>
      <trkpt lat="46.70895" lon="5.6382">
        <ele>502.3</ele>
      </trkpt>
      <trkpt lat="46.70886" lon="5.63814">
        <ele>502.5</ele>
      </trkpt>
      <trkpt lat="46.70877" lon="5.63806">
        <ele>502.1</ele>
      </trkpt>
      <trkpt lat="46.7086" lon="5.63788">
        <ele>502.2</ele>
      </trkpt>
      <trkpt lat="46.70852" lon="5.63777">
        <ele>502.7</ele>
      </trkpt>
      <trkpt lat="46.70846" lon="5.63769">
        <ele>502.5</ele>
      </trkpt>
      <trkpt lat="46.70837" lon="5.63753">
        <ele>502.8</ele>
      </trkpt>
      <trkpt lat="46.7083" lon="5.6374">
        <ele>501.9</ele>
      </trkpt>
      <trkpt lat="46.70764" lon="5.63711">
        <ele>501.6</ele>
      </trkpt>
      <trkpt lat="46.70738" lon="5.63704">
        <ele>501.9</ele>
      </trkpt>
      <trkpt lat="46.70705" lon="5.63698">
        <ele>501.2</ele>
      </trkpt>
      <trkpt lat="46.70688" lon="5.63694">
        <ele>501</ele>
      </trkpt>
      <trkpt lat="46.70657" lon="5.63685">
        <ele>501.1</ele>
      </trkpt>
      <trkpt lat="46.70644" lon="5.63678">
        <ele>501.5</ele>
      </trkpt>
      <trkpt lat="46.70629" lon="5.6367">
        <ele>501.9</ele>
      </trkpt>
      <trkpt lat="46.70616" lon="5.63663">
        <ele>502</ele>
      </trkpt>
      <trkpt lat="46.70598" lon="5.63653">
        <ele>502.7</ele>
      </trkpt>
      <trkpt lat="46.70586" lon="5.63646">
        <ele>503.1</ele>
      </trkpt>
      <trkpt lat="46.70575" lon="5.63639">
        <ele>503.3</ele>
      </trkpt>
      <trkpt lat="46.70565" lon="5.63636">
        <ele>503.4</ele>
      </trkpt>
      <trkpt lat="46.70552" lon="5.6363">
        <ele>503.5</ele>
      </trkpt>
      <trkpt lat="46.70536" lon="5.63628">
        <ele>503.9</ele>
      </trkpt>
      <trkpt lat="46.70526" lon="5.63626">
        <ele>504.1</ele>
      </trkpt>
      <trkpt lat="46.70511" lon="5.63622">
        <ele>504.2</ele>
      </trkpt>
      <trkpt lat="46.70497" lon="5.63617">
        <ele>504.3</ele>
      </trkpt>
      <trkpt lat="46.70482" lon="5.63609">
        <ele>504.5</ele>
      </trkpt>
      <trkpt lat="46.70463" lon="5.63601">
        <ele>504.7</ele>
      </trkpt>
      <trkpt lat="46.70446" lon="5.63593">
        <ele>505.3</ele>
      </trkpt>
      <trkpt lat="46.70433" lon="5.63586">
        <ele>505.9</ele>
      </trkpt>
      <trkpt lat="46.70415" lon="5.63576">
        <ele>506.5</ele>
      </trkpt>
      <trkpt lat="46.70398" lon="5.63564">
        <ele>506.1</ele>
      </trkpt>
      <trkpt lat="46.70384" lon="5.63555">
        <ele>506.1</ele>
      </trkpt>
      <trkpt lat="46.70367" lon="5.63546">
        <ele>506</ele>
      </trkpt>
      <trkpt lat="46.70353" lon="5.63542">
        <ele>506.3</ele>
      </trkpt>
      <trkpt lat="46.70338" lon="5.63538">
        <ele>506.6</ele>
      </trkpt>
      <trkpt lat="46.70319" lon="5.63534">
        <ele>507</ele>
      </trkpt>
      <trkpt lat="46.70301" lon="5.6353">
        <ele>507.3</ele>
      </trkpt>
      <trkpt lat="46.70281" lon="5.63528">
        <ele>507.9</ele>
      </trkpt>
      <trkpt lat="46.70269" lon="5.63528">
        <ele>508.3</ele>
      </trkpt>
      <trkpt lat="46.70242" lon="5.6353">
        <ele>509</ele>
        <extensions>
          <visugpx:TrkExtension xmlns:visugpx="https://www.visugpx.com/editgpx/">
            <visugpx:node>9</visugpx:node>
            </visugpx:TrkExtension>
        </extensions>
      </trkpt>
      <trkpt lat="46.70232" lon="5.63531">
        <ele>508.9</ele>
      </trkpt>
      <trkpt lat="46.70221" lon="5.63534">
        <ele>508.7</ele>
      </trkpt>
      <trkpt lat="46.70211" lon="5.63539">
        <ele>508.2</ele>
      </trkpt>
      <trkpt lat="46.70201" lon="5.63549">
        <ele>507.5</ele>
      </trkpt>
      <trkpt lat="46.70193" lon="5.63556">
        <ele>506.9</ele>
      </trkpt>
      <trkpt lat="46.70184" lon="5.63569">
        <ele>506.3</ele>
      </trkpt>
      <trkpt lat="46.70178" lon="5.63585">
        <ele>505.9</ele>
      </trkpt>
      <trkpt lat="46.70172" lon="5.63602">
        <ele>505.3</ele>
      </trkpt>
      <trkpt lat="46.7017" lon="5.63605">
        <ele>505.2</ele>
        <extensions>
          <visugpx:TrkExtension xmlns:visugpx="https://www.visugpx.com/editgpx/">
            <visugpx:node>10</visugpx:node>
            </visugpx:TrkExtension>
        </extensions>
      </trkpt>
      <trkpt lat="46.70103" lon="5.63483">
        <ele>507.3</ele>
        <extensions>
          <visugpx:TrkExtension xmlns:visugpx="https://www.visugpx.com/editgpx/">
            <visugpx:node>11</visugpx:node>
            </visugpx:TrkExtension>
        </extensions>
      </trkpt>
      <trkpt lat="46.70121" lon="5.63462">
        <ele>505.5</ele>
      </trkpt>
      <trkpt lat="46.70158" lon="5.63444">
        <ele>502.2</ele>
      </trkpt>
      <trkpt lat="46.70222" lon="5.63435">
        <ele>492.6</ele>
      </trkpt>
      <trkpt lat="46.70282" lon="5.63439">
        <ele>484.1</ele>
      </trkpt>
      <trkpt lat="46.70369" lon="5.63442">
        <ele>472.5</ele>
      </trkpt>
      <trkpt lat="46.70461" lon="5.63438">
        <ele>454.6</ele>
      </trkpt>
      <trkpt lat="46.70546" lon="5.63465">
        <ele>446.4</ele>
      </trkpt>
      <trkpt lat="46.70612" lon="5.63467">
        <ele>435.2</ele>
      </trkpt>
      <trkpt lat="46.70684" lon="5.63475">
        <ele>428.9</ele>
      </trkpt>
      <trkpt lat="46.70762" lon="5.63479">
        <ele>418.3</ele>
      </trkpt>
      <trkpt lat="46.70851" lon="5.6348">
        <ele>404.9</ele>
      </trkpt>
      <trkpt lat="46.70922" lon="5.63489">
        <ele>394</ele>
      </trkpt>
      <trkpt lat="46.70961" lon="5.63496">
        <ele>388</ele>
      </trkpt>
      <trkpt lat="46.70962" lon="5.63484">
        <ele>383.7</ele>
      </trkpt>
      <trkpt lat="46.70951" lon="5.63471">
        <ele>381.8</ele>
      </trkpt>
      <trkpt lat="46.70927" lon="5.63449">
        <ele>377.1</ele>
      </trkpt>
      <trkpt lat="46.70926" lon="5.63442">
        <ele>374.6</ele>
      </trkpt>
      <trkpt lat="46.70944" lon="5.63428">
        <ele>367.3</ele>
      </trkpt>
      <trkpt lat="46.70988" lon="5.63418">
        <ele>354.4</ele>
      </trkpt>
      <trkpt lat="46.7101" lon="5.63423">
        <ele>349.8</ele>
      </trkpt>
      <trkpt lat="46.71017" lon="5.63435">
        <ele>349.3</ele>
      </trkpt>
      <trkpt lat="46.71019" lon="5.63445">
        <ele>349.5</ele>
      </trkpt>
      <trkpt lat="46.71021" lon="5.63457">
        <ele>348</ele>
      </trkpt>
      <trkpt lat="46.71023" lon="5.63472">
        <ele>345.9</ele>
      </trkpt>
      <trkpt lat="46.71029" lon="5.63491">
        <ele>344.6</ele>
      </trkpt>
      <trkpt lat="46.71035" lon="5.63501">
        <ele>343.3</ele>
      </trkpt>
      <trkpt lat="46.71041" lon="5.63507">
        <ele>342.2</ele>
      </trkpt>
      <trkpt lat="46.71047" lon="5.63514">
        <ele>341.1</ele>
      </trkpt>
      <trkpt lat="46.7105" lon="5.63518">
        <ele>340.6</ele>
      </trkpt>
      <trkpt lat="46.7105" lon="5.63524">
        <ele>341.7</ele>
      </trkpt>
      <trkpt lat="46.7105" lon="5.63526">
        <ele>342.1</ele>
      </trkpt>
      <trkpt lat="46.71055" lon="5.63531">
        <ele>342.3</ele>
      </trkpt>
      <trkpt lat="46.71065" lon="5.63538">
        <ele>342.4</ele>
      </trkpt>
      <trkpt lat="46.71076" lon="5.63545">
        <ele>341.2</ele>
      </trkpt>
      <trkpt lat="46.71088" lon="5.63549">
        <ele>337.8</ele>
      </trkpt>
      <trkpt lat="46.711" lon="5.63555">
        <ele>335.6</ele>
      </trkpt>
      <trkpt lat="46.71104" lon="5.63557">
        <ele>334.6</ele>
        <extensions>
          <visugpx:TrkExtension xmlns:visugpx="https://www.visugpx.com/editgpx/">
            <visugpx:node>12</visugpx:node>
            </visugpx:TrkExtension>
        </extensions>
      </trkpt>
      <trkpt lat="46.71116" lon="5.63565">
        <ele>330.9</ele>
      </trkpt>
      <trkpt lat="46.71127" lon="5.63575">
        <ele>326.8</ele>
      </trkpt>
      <trkpt lat="46.71131" lon="5.63585">
        <ele>326.6</ele>
      </trkpt>
      <trkpt lat="46.71134" lon="5.63594">
        <ele>325.2</ele>
      </trkpt>
      <trkpt lat="46.71136" lon="5.63612">
        <ele>325.1</ele>
      </trkpt>
      <trkpt lat="46.71137" lon="5.63636">
        <ele>323.5</ele>
      </trkpt>
      <trkpt lat="46.71136" lon="5.63658">
        <ele>320.7</ele>
      </trkpt>
      <trkpt lat="46.71133" lon="5.63675">
        <ele>320</ele>
      </trkpt>
      <trkpt lat="46.71129" lon="5.63698">
        <ele>318.9</ele>
      </trkpt>
      <trkpt lat="46.71126" lon="5.63718">
        <ele>317.6</ele>
      </trkpt>
      <trkpt lat="46.71125" lon="5.63734">
        <ele>316</ele>
      </trkpt>
      <trkpt lat="46.71125" lon="5.63758">
        <ele>313</ele>
      </trkpt>
      <trkpt lat="46.71122" lon="5.6379">
        <ele>311</ele>
      </trkpt>
      <trkpt lat="46.71122" lon="5.63821">
        <ele>307.9</ele>
      </trkpt>
      <trkpt lat="46.7112" lon="5.63844">
        <ele>308.2</ele>
      </trkpt>
      <trkpt lat="46.71118" lon="5.63859">
        <ele>308.9</ele>
      </trkpt>
      <trkpt lat="46.71118" lon="5.63866">
        <ele>308.6</ele>
      </trkpt>
      <trkpt lat="46.7112" lon="5.63881">
        <ele>306.8</ele>
      </trkpt>
      <trkpt lat="46.71121" lon="5.63889">
        <ele>305.9</ele>
      </trkpt>
      <trkpt lat="46.71121" lon="5.63899">
        <ele>305.6</ele>
      </trkpt>
      <trkpt lat="46.7112" lon="5.63936">
        <ele>304.6</ele>
      </trkpt>
      <trkpt lat="46.7112" lon="5.63995">
        <ele>302.8</ele>
      </trkpt>
      <trkpt lat="46.71122" lon="5.64051">
        <ele>302.7</ele>
      </trkpt>
      <trkpt lat="46.71125" lon="5.64091">
        <ele>303</ele>
      </trkpt>
      <trkpt lat="46.71132" lon="5.64121">
        <ele>299.5</ele>
      </trkpt>
      <trkpt lat="46.71129" lon="5.64143">
        <ele>299.7</ele>
      </trkpt>
      <trkpt lat="46.71123" lon="5.64169">
        <ele>300.1</ele>
      </trkpt>
      <trkpt lat="46.71119" lon="5.6419">
        <ele>300.2</ele>
      </trkpt>
      <trkpt lat="46.71116" lon="5.64215">
        <ele>300.3</ele>
      </trkpt>
      <trkpt lat="46.71113" lon="5.64242">
        <ele>299.3</ele>
      </trkpt>
      <trkpt lat="46.71108" lon="5.64269">
        <ele>300.7</ele>
      </trkpt>
      <trkpt lat="46.71102" lon="5.64291">
        <ele>302.5</ele>
      </trkpt>
      <trkpt lat="46.71094" lon="5.64313">
        <ele>303.3</ele>
      </trkpt>
      <trkpt lat="46.71083" lon="5.64335">
        <ele>303</ele>
      </trkpt>
      <trkpt lat="46.71069" lon="5.64359">
        <ele>304.6</ele>
      </trkpt>
      <trkpt lat="46.7105" lon="5.6439">
        <ele>306.7</ele>
      </trkpt>
      <trkpt lat="46.71038" lon="5.64409">
        <ele>307.7</ele>
      </trkpt>
      <trkpt lat="46.71029" lon="5.64424">
        <ele>306.2</ele>
      </trkpt>
      <trkpt lat="46.71022" lon="5.64434">
        <ele>306.3</ele>
      </trkpt>
      <trkpt lat="46.71014" lon="5.64443">
        <ele>306</ele>
      </trkpt>
      <trkpt lat="46.71005" lon="5.64451">
        <ele>306.1</ele>
      </trkpt>
      <trkpt lat="46.71004" lon="5.64455">
        <ele>305.2</ele>
      </trkpt>
      <trkpt lat="46.71002" lon="5.64461">
        <ele>303.9</ele>
      </trkpt>
      <trkpt lat="46.70998" lon="5.64468">
        <ele>302.7</ele>
        <extensions>
          <visugpx:TrkExtension xmlns:visugpx="https://www.visugpx.com/editgpx/">
            <visugpx:node>13</visugpx:node>
            </visugpx:TrkExtension>
        </extensions>
      </trkpt>
      <trkpt lat="46.70995" lon="5.64472">
        <ele>302.2</ele>
      </trkpt>
      <trkpt lat="46.70989" lon="5.64482">
        <ele>301.8</ele>
      </trkpt>
      <trkpt lat="46.70983" lon="5.64489">
        <ele>301.2</ele>
      </trkpt>
      <trkpt lat="46.70979" lon="5.64494">
        <ele>300.4</ele>
      </trkpt>
      <trkpt lat="46.70978" lon="5.64495">
        <ele>300.2</ele>
      </trkpt>
      <trkpt lat="46.70979" lon="5.64499">
        <ele>299.2</ele>
      </trkpt>
      <trkpt lat="46.70982" lon="5.64508">
        <ele>299.3</ele>
      </trkpt>
      <trkpt lat="46.70983" lon="5.64518">
        <ele>299.8</ele>
      </trkpt>
      <trkpt lat="46.70981" lon="5.64524">
        <ele>299.8</ele>
      </trkpt>
      <trkpt lat="46.7098" lon="5.64531">
        <ele>300.1</ele>
      </trkpt>
      <trkpt lat="46.70981" lon="5.64539">
        <ele>300.9</ele>
      </trkpt>
      <trkpt lat="46.70982" lon="5.6455">
        <ele>301.9</ele>
      </trkpt>
      <trkpt lat="46.70982" lon="5.64557">
        <ele>302.7</ele>
      </trkpt>
      <trkpt lat="46.70989" lon="5.64567">
        <ele>305.5</ele>
      </trkpt>
      <trkpt lat="46.70997" lon="5.64574">
        <ele>307.9</ele>
      </trkpt>
      <trkpt lat="46.71002" lon="5.64575">
        <ele>308.9</ele>
      </trkpt>
      <trkpt lat="46.71008" lon="5.64576">
        <ele>310.1</ele>
      </trkpt>
      <trkpt lat="46.71017" lon="5.64575">
        <ele>311.6</ele>
      </trkpt>
      <trkpt lat="46.71012" lon="5.64583">
        <ele>312.1</ele>
      </trkpt>
      <trkpt lat="46.71007" lon="5.64595">
        <ele>312.3</ele>
      </trkpt>
      <trkpt lat="46.71005" lon="5.64604">
        <ele>312.7</ele>
        <extensions>
          <visugpx:TrkExtension xmlns:visugpx="https://www.visugpx.com/editgpx/">
            <visugpx:node>14</visugpx:node>
            </visugpx:TrkExtension>
        </extensions>
      </trkpt>
      <trkpt lat="46.71004" lon="5.64609">
        <ele>312.8</ele>
      </trkpt>
      <trkpt lat="46.7101" lon="5.64608">
        <ele>314.2</ele>
      </trkpt>
      <trkpt lat="46.71017" lon="5.64609">
        <ele>316</ele>
      </trkpt>
      <trkpt lat="46.71022" lon="5.64608">
        <ele>317.1</ele>
      </trkpt>
      <trkpt lat="46.71028" lon="5.64604">
        <ele>318</ele>
      </trkpt>
      <trkpt lat="46.71033" lon="5.64601">
        <ele>318.6</ele>
      </trkpt>
      <trkpt lat="46.7104" lon="5.64602">
        <ele>320</ele>
      </trkpt>
      <trkpt lat="46.71044" lon="5.64601">
        <ele>320.7</ele>
      </trkpt>
      <trkpt lat="46.71049" lon="5.64599">
        <ele>321.4</ele>
      </trkpt>
      <trkpt lat="46.71044" lon="5.6461">
        <ele>321.8</ele>
      </trkpt>
      <trkpt lat="46.71037" lon="5.64622">
        <ele>322.1</ele>
      </trkpt>
      <trkpt lat="46.71034" lon="5.64629">
        <ele>322.6</ele>
      </trkpt>
      <trkpt lat="46.71031" lon="5.64641">
        <ele>323.7</ele>
      </trkpt>
      <trkpt lat="46.71029" lon="5.64652">
        <ele>324.6</ele>
      </trkpt>
      <trkpt lat="46.71028" lon="5.6466">
        <ele>325.3</ele>
      </trkpt>
      <trkpt lat="46.71028" lon="5.64669">
        <ele>326</ele>
      </trkpt>
      <trkpt lat="46.71029" lon="5.64677">
        <ele>326.3</ele>
      </trkpt>
      <trkpt lat="46.71032" lon="5.64688">
        <ele>327</ele>
      </trkpt>
      <trkpt lat="46.71034" lon="5.64695">
        <ele>327.6</ele>
      </trkpt>
      <trkpt lat="46.71037" lon="5.64704">
        <ele>329.8</ele>
      </trkpt>
      <trkpt lat="46.71043" lon="5.64719">
        <ele>334.4</ele>
      </trkpt>
      <trkpt lat="46.71043" lon="5.6472">
        <ele>334.6</ele>
      </trkpt>
      <trkpt lat="46.71041" lon="5.64729">
        <ele>335.8</ele>
      </trkpt>
      <trkpt lat="46.7104" lon="5.64738">
        <ele>337.5</ele>
      </trkpt>
      <trkpt lat="46.71038" lon="5.64746">
        <ele>338.5</ele>
      </trkpt>
      <trkpt lat="46.71036" lon="5.64753">
        <ele>339.5</ele>
      </trkpt>
      <trkpt lat="46.71034" lon="5.64757">
        <ele>339.9</ele>
      </trkpt>
      <trkpt lat="46.7103" lon="5.64766">
        <ele>341.1</ele>
      </trkpt>
      <trkpt lat="46.71026" lon="5.64773">
        <ele>342</ele>
      </trkpt>
      <trkpt lat="46.71022" lon="5.6478">
        <ele>343.3</ele>
      </trkpt>
      <trkpt lat="46.71016" lon="5.64788">
        <ele>344.3</ele>
      </trkpt>
      <trkpt lat="46.71011" lon="5.64795">
        <ele>345.4</ele>
      </trkpt>
      <trkpt lat="46.71006" lon="5.648">
        <ele>345.7</ele>
      </trkpt>
      <trkpt lat="46.71002" lon="5.64802">
        <ele>345.4</ele>
      </trkpt>
      <trkpt lat="46.70994" lon="5.64808">
        <ele>346.5</ele>
      </trkpt>
      <trkpt lat="46.70985" lon="5.64811">
        <ele>347</ele>
      </trkpt>
      <trkpt lat="46.70983" lon="5.64813">
        <ele>347.5</ele>
        <extensions>
          <visugpx:TrkExtension xmlns:visugpx="https://www.visugpx.com/editgpx/">
            <visugpx:node>15</visugpx:node>
            </visugpx:TrkExtension>
        </extensions>
      </trkpt>
      <trkpt lat="46.7098" lon="5.64815">
        <ele>347.9</ele>
      </trkpt>
      <trkpt lat="46.70975" lon="5.64821">
        <ele>349.1</ele>
      </trkpt>
      <trkpt lat="46.70985" lon="5.6482">
        <ele>349.6</ele>
      </trkpt>
      <trkpt lat="46.71004" lon="5.64817">
        <ele>350.8</ele>
      </trkpt>
      <trkpt lat="46.71017" lon="5.64813">
        <ele>352.9</ele>
        <extensions>
          <visugpx:TrkExtension xmlns:visugpx="https://www.visugpx.com/editgpx/">
            <visugpx:node>16</visugpx:node>
            </visugpx:TrkExtension>
        </extensions>
      </trkpt>
      <trkpt lat="46.71019" lon="5.64813">
        <ele>353.4</ele>
      </trkpt>
      <trkpt lat="46.71031" lon="5.64805">
        <ele>354.2</ele>
      </trkpt>
      <trkpt lat="46.71044" lon="5.64792">
        <ele>355.3</ele>
      </trkpt>
      <trkpt lat="46.71054" lon="5.64781">
        <ele>355.5</ele>
      </trkpt>
      <trkpt lat="46.71069" lon="5.64765">
        <ele>356.9</ele>
      </trkpt>
      <trkpt lat="46.71093" lon="5.64737">
        <ele>359.1</ele>
      </trkpt>
      <trkpt lat="46.71122" lon="5.64704">
        <ele>363.9</ele>
      </trkpt>
      <trkpt lat="46.71147" lon="5.64675">
        <ele>366.5</ele>
      </trkpt>
      <trkpt lat="46.71155" lon="5.64664">
        <ele>367.4</ele>
      </trkpt>
      <trkpt lat="46.71168" lon="5.64644">
        <ele>369.1</ele>
      </trkpt>
      <trkpt lat="46.71186" lon="5.64612">
        <ele>371.9</ele>
      </trkpt>
      <trkpt lat="46.71197" lon="5.64587">
        <ele>373.8</ele>
      </trkpt>
      <trkpt lat="46.71201" lon="5.64575">
        <ele>373.7</ele>
      </trkpt>
      <trkpt lat="46.71205" lon="5.64558">
        <ele>372.6</ele>
      </trkpt>
      <trkpt lat="46.7121" lon="5.64547">
        <ele>373.6</ele>
      </trkpt>
      <trkpt lat="46.71215" lon="5.64546">
        <ele>375.6</ele>
      </trkpt>
      <trkpt lat="46.71216" lon="5.64546">
        <ele>376</ele>
        <extensions>
          <visugpx:TrkExtension xmlns:visugpx="https://www.visugpx.com/editgpx/">
            <visugpx:node>17</visugpx:node>
            </visugpx:TrkExtension>
        </extensions>
      </trkpt>
      <trkpt lat="46.71215" lon="5.64546">
        <ele>375.6</ele>
      </trkpt>
      <trkpt lat="46.71218" lon="5.6453">
        <ele>376.1</ele>
      </trkpt>
      <trkpt lat="46.71219" lon="5.64515">
        <ele>375.7</ele>
      </trkpt>
      <trkpt lat="46.71221" lon="5.64488">
        <ele>380.2</ele>
      </trkpt>
      <trkpt lat="46.71223" lon="5.64475">
        <ele>388.4</ele>
      </trkpt>
      <trkpt lat="46.71224" lon="5.64463">
        <ele>386.6</ele>
      </trkpt>
      <trkpt lat="46.71228" lon="5.64446">
        <ele>387.9</ele>
      </trkpt>
      <trkpt lat="46.7123" lon="5.64436">
        <ele>385.4</ele>
      </trkpt>
      <trkpt lat="46.71243" lon="5.64397">
        <ele>369.6</ele>
      </trkpt>
      <trkpt lat="46.71244" lon="5.64394">
        <ele>368.7</ele>
        <extensions>
          <visugpx:TrkExtension xmlns:visugpx="https://www.visugpx.com/editgpx/">
            <visugpx:node>18</visugpx:node>
            </visugpx:TrkExtension>
        </extensions>
      </trkpt>
      <trkpt lat="46.71249" lon="5.64375">
        <ele>366.8</ele>
      </trkpt>
      <trkpt lat="46.71258" lon="5.6434">
        <ele>365.8</ele>
      </trkpt>
      <trkpt lat="46.71263" lon="5.64321">
        <ele>364.9</ele>
      </trkpt>
      <trkpt lat="46.71267" lon="5.64299">
        <ele>363.5</ele>
      </trkpt>
      <trkpt lat="46.71269" lon="5.64282">
        <ele>362.7</ele>
      </trkpt>
      <trkpt lat="46.71271" lon="5.64246">
        <ele>360</ele>
      </trkpt>
      <trkpt lat="46.71272" lon="5.6422">
        <ele>357.9</ele>
      </trkpt>
      <trkpt lat="46.71273" lon="5.642">
        <ele>355.5</ele>
      </trkpt>
      <trkpt lat="46.71274" lon="5.6418">
        <ele>353.6</ele>
      </trkpt>
      <trkpt lat="46.71276" lon="5.64152">
        <ele>351.5</ele>
      </trkpt>
      <trkpt lat="46.71278" lon="5.64124">
        <ele>349</ele>
      </trkpt>
      <trkpt lat="46.7128" lon="5.64091">
        <ele>345.2</ele>
      </trkpt>
      <trkpt lat="46.71282" lon="5.64062">
        <ele>343.1</ele>
      </trkpt>
      <trkpt lat="46.71284" lon="5.64043">
        <ele>341.8</ele>
      </trkpt>
      <trkpt lat="46.71288" lon="5.64021">
        <ele>340.5</ele>
      </trkpt>
      <trkpt lat="46.7129" lon="5.64004">
        <ele>338.1</ele>
      </trkpt>
      <trkpt lat="46.71294" lon="5.63983">
        <ele>337.2</ele>
      </trkpt>
      <trkpt lat="46.71298" lon="5.6396">
        <ele>335.4</ele>
      </trkpt>
      <trkpt lat="46.71303" lon="5.63934">
        <ele>333.3</ele>
      </trkpt>
      <trkpt lat="46.71311" lon="5.63897">
        <ele>331.6</ele>
      </trkpt>
      <trkpt lat="46.71314" lon="5.63877">
        <ele>330.2</ele>
      </trkpt>
      <trkpt lat="46.71316" lon="5.63858">
        <ele>328.9</ele>
      </trkpt>
      <trkpt lat="46.71318" lon="5.63839">
        <ele>327.8</ele>
      </trkpt>
      <trkpt lat="46.71322" lon="5.63817">
        <ele>327.4</ele>
      </trkpt>
      <trkpt lat="46.71328" lon="5.63791">
        <ele>326.9</ele>
      </trkpt>
      <trkpt lat="46.71332" lon="5.63769">
        <ele>325.4</ele>
      </trkpt>
      <trkpt lat="46.71334" lon="5.63753">
        <ele>324.7</ele>
      </trkpt>
      <trkpt lat="46.71334" lon="5.63738">
        <ele>323.5</ele>
      </trkpt>
      <trkpt lat="46.71332" lon="5.63721">
        <ele>321.2</ele>
      </trkpt>
      <trkpt lat="46.71331" lon="5.63709">
        <ele>319.8</ele>
        <extensions>
          <visugpx:TrkExtension xmlns:visugpx="https://www.visugpx.com/editgpx/">
            <visugpx:node>19</visugpx:node>
            </visugpx:TrkExtension>
        </extensions>
      </trkpt>
      <trkpt lat="46.71329" lon="5.63707">
        <ele>318.6</ele>
      </trkpt>
      <trkpt lat="46.71337" lon="5.63688">
        <ele>320.3</ele>
      </trkpt>
      <trkpt lat="46.71346" lon="5.63673">
        <ele>320.6</ele>
      </trkpt>
      <trkpt lat="46.71356" lon="5.63662">
        <ele>321.1</ele>
      </trkpt>
      <trkpt lat="46.71376" lon="5.63643">
        <ele>323</ele>
      </trkpt>
      <trkpt lat="46.71389" lon="5.63633">
        <ele>322.7</ele>
      </trkpt>
      <trkpt lat="46.71404" lon="5.6362">
        <ele>322.1</ele>
      </trkpt>
      <trkpt lat="46.71414" lon="5.63611">
        <ele>322.1</ele>
      </trkpt>
      <trkpt lat="46.71425" lon="5.63597">
        <ele>320.8</ele>
      </trkpt>
      <trkpt lat="46.71436" lon="5.6358">
        <ele>319.4</ele>
      </trkpt>
      <trkpt lat="46.71446" lon="5.63565">
        <ele>318.6</ele>
      </trkpt>
      <trkpt lat="46.71456" lon="5.63554">
        <ele>317.4</ele>
      </trkpt>
      <trkpt lat="46.71464" lon="5.63545">
        <ele>317.2</ele>
      </trkpt>
      <trkpt lat="46.71475" lon="5.63536">
        <ele>317.5</ele>
      </trkpt>
      <trkpt lat="46.71478" lon="5.63533">
        <ele>317.5</ele>
        <extensions>
          <visugpx:TrkExtension xmlns:visugpx="https://www.visugpx.com/editgpx/">
            <visugpx:node>20</visugpx:node>
            </visugpx:TrkExtension>
        </extensions>
      </trkpt>
      <trkpt lat="46.71486" lon="5.63526">
        <ele>317.4</ele>
      </trkpt>
      <trkpt lat="46.71464" lon="5.63535">
        <ele>315.6</ele>
      </trkpt>
      <trkpt lat="46.71442" lon="5.63543">
        <ele>312.9</ele>
      </trkpt>
      <trkpt lat="46.71428" lon="5.63547">
        <ele>309.1</ele>
      </trkpt>
      <trkpt lat="46.71411" lon="5.63553">
        <ele>305.3</ele>
      </trkpt>
      <trkpt lat="46.71395" lon="5.63558">
        <ele>302.7</ele>
      </trkpt>
      <trkpt lat="46.7138" lon="5.63562">
        <ele>300.1</ele>
      </trkpt>
      <trkpt lat="46.71367" lon="5.63566">
        <ele>298.1</ele>
      </trkpt>
      <trkpt lat="46.71356" lon="5.63572">
        <ele>297.3</ele>
      </trkpt>
      <trkpt lat="46.71345" lon="5.63573">
        <ele>296.1</ele>
      </trkpt>
      <trkpt lat="46.71332" lon="5.63572">
        <ele>294.5</ele>
      </trkpt>
      <trkpt lat="46.71321" lon="5.63572">
        <ele>293.4</ele>
      </trkpt>
      <trkpt lat="46.71315" lon="5.63571">
        <ele>292.9</ele>
      </trkpt>
      <trkpt lat="46.71298" lon="5.63606">
        <ele>292.5</ele>
      </trkpt>
      <trkpt lat="46.71273" lon="5.63595">
        <ele>291.5</ele>
      </trkpt>
      <trkpt lat="46.71255" lon="5.63588">
        <ele>291.9</ele>
      </trkpt>
      <trkpt lat="46.71249" lon="5.63585">
        <ele>292</ele>
      </trkpt>
      <trkpt lat="46.71237" lon="5.6358">
        <ele>291.5</ele>
      </trkpt>
      <trkpt lat="46.71236" lon="5.6358">
        <ele>291.5</ele>
        <extensions>
          <visugpx:TrkExtension xmlns:visugpx="https://www.visugpx.com/editgpx/">
            <visugpx:node>21</visugpx:node>
            </visugpx:TrkExtension>
        </extensions>
      </trkpt>
      <trkpt lat="46.71235" lon="5.63575">
        <ele>291.5</ele>
        <time>2019-07-29T11:04:24.000Z</time>
      </trkpt>
      <trkpt lat="46.71233" lon="5.63561">
        <ele>298</ele>
        <time>2019-07-29T11:03:59.000Z</time>
      </trkpt>
      <trkpt lat="46.71236" lon="5.63545">
        <ele>291.5</ele>
        <time>2019-07-29T11:04:09.000Z</time>
      </trkpt>
      <trkpt lat="46.71236" lon="5.63538">
        <ele>291.5</ele>
        <time>2019-07-29T11:04:19.000Z</time>
      </trkpt>
      <trkpt lat="46.71237" lon="5.63527">
        <ele>295</ele>
        <time>2019-07-29T11:04:13.000Z</time>
      </trkpt>
      <trkpt lat="46.71238" lon="5.63526">
        <ele>291.4</ele>
        <time>2019-07-29T11:04:23.000Z</time>
      </trkpt>
      <trkpt lat="46.71238" lon="5.63521">
        <ele>291.4</ele>
        <time>2019-07-29T11:04:33.000Z</time>
      </trkpt>
      <trkpt lat="46.7124" lon="5.63513">
        <ele>291.4</ele>
        <time>2019-07-29T11:04:43.000Z</time>
      </trkpt>
      <trkpt lat="46.71244" lon="5.63488">
        <ele>292</ele>
        <time>2019-07-29T11:04:30.000Z</time>
      </trkpt>
      <trkpt lat="46.71244" lon="5.63482">
        <ele>291.2</ele>
        <time>2019-07-29T11:04:40.000Z</time>
      </trkpt>
      <trkpt lat="46.71245" lon="5.63473">
        <ele>291.2</ele>
        <time>2019-07-29T11:04:50.000Z</time>
      </trkpt>
      <trkpt lat="46.71244" lon="5.63472">
        <ele>291.2</ele>
        <time>2019-07-29T11:05:00.000Z</time>
      </trkpt>
      <trkpt lat="46.71244" lon="5.63466">
        <ele>291.3</ele>
        <time>2019-07-29T11:05:10.000Z</time>
      </trkpt>
      <trkpt lat="46.71243" lon="5.63457">
        <ele>291</ele>
        <time>2019-07-29T11:04:45.000Z</time>
      </trkpt>
      <trkpt lat="46.71242" lon="5.63456">
        <ele>291.5</ele>
        <time>2019-07-29T11:04:55.000Z</time>
      </trkpt>
      <trkpt lat="46.71242" lon="5.63454">
        <ele>291.5</ele>
        <time>2019-07-29T11:05:05.000Z</time>
      </trkpt>
      <trkpt lat="46.71241" lon="5.63453">
        <ele>291.5</ele>
        <time>2019-07-29T11:05:15.000Z</time>
      </trkpt>
      <trkpt lat="46.71239" lon="5.63445">
        <ele>291.8</ele>
        <time>2019-07-29T11:05:25.000Z</time>
      </trkpt>
      <trkpt lat="46.71235" lon="5.63434">
        <ele>292.1</ele>
        <time>2019-07-29T11:05:35.000Z</time>
      </trkpt>
      <trkpt lat="46.71229" lon="5.63425">
        <ele>290</ele>
        <time>2019-07-29T11:05:02.000Z</time>
      </trkpt>
      <trkpt lat="46.71223" lon="5.63412">
        <ele>292.8</ele>
        <time>2019-07-29T11:05:12.000Z</time>
      </trkpt>
      <trkpt lat="46.71223" lon="5.6341">
        <ele>292.7</ele>
        <time>2019-07-29T11:05:22.000Z</time>
      </trkpt>
      <trkpt lat="46.71221" lon="5.63407">
        <ele>292.9</ele>
        <time>2019-07-29T11:05:32.000Z</time>
      </trkpt>
      <trkpt lat="46.71221" lon="5.63406">
        <ele>292.8</ele>
        <time>2019-07-29T11:05:42.000Z</time>
      </trkpt>
      <trkpt lat="46.71213" lon="5.63389">
        <ele>291</ele>
        <time>2019-07-29T11:05:22.000Z</time>
      </trkpt>
      <trkpt lat="46.7121" lon="5.63376">
        <ele>293.3</ele>
        <time>2019-07-29T11:05:32.000Z</time>
      </trkpt>
      <trkpt lat="46.71207" lon="5.63366">
        <ele>293</ele>
        <time>2019-07-29T11:05:42.000Z</time>
      </trkpt>
      <trkpt lat="46.71206" lon="5.63355">
        <ele>290</ele>
        <time>2019-07-29T11:05:38.000Z</time>
      </trkpt>
      <trkpt lat="46.71204" lon="5.63344">
        <ele>292.8</ele>
        <time>2019-07-29T11:05:48.000Z</time>
      </trkpt>
      <trkpt lat="46.71204" lon="5.63322">
        <ele>290</ele>
        <time>2019-07-29T11:05:53.000Z</time>
      </trkpt>
      <trkpt lat="46.71206" lon="5.63303">
        <ele>292.6</ele>
        <time>2019-07-29T11:06:03.000Z</time>
      </trkpt>
      <trkpt lat="46.71208" lon="5.63292">
        <ele>293</ele>
        <time>2019-07-29T11:06:07.000Z</time>
      </trkpt>
      <trkpt lat="46.71208" lon="5.63273">
        <ele>292.5</ele>
        <time>2019-07-29T11:06:17.000Z</time>
      </trkpt>
      <trkpt lat="46.71206" lon="5.6326">
        <ele>294</ele>
        <time>2019-07-29T11:06:22.000Z</time>
      </trkpt>
      <trkpt lat="46.71205" lon="5.63249">
        <ele>292.6</ele>
        <time>2019-07-29T11:06:32.000Z</time>
      </trkpt>
      <trkpt lat="46.71201" lon="5.63227">
        <ele>296</ele>
        <time>2019-07-29T11:06:38.000Z</time>
      </trkpt>
      <trkpt lat="46.71198" lon="5.63218">
        <ele>293.8</ele>
        <time>2019-07-29T11:06:48.000Z</time>
      </trkpt>
      <trkpt lat="46.71194" lon="5.63212">
        <ele>294</ele>
        <time>2019-07-29T11:06:58.000Z</time>
      </trkpt>
      <trkpt lat="46.71181" lon="5.63199">
        <ele>306</ele>
        <time>2019-07-29T11:06:57.000Z</time>
      </trkpt>
      <trkpt lat="46.71173" lon="5.63193">
        <ele>295.7</ele>
        <time>2019-07-29T11:07:07.000Z</time>
      </trkpt>
      <trkpt lat="46.71169" lon="5.63189">
        <ele>296.3</ele>
        <time>2019-07-29T11:07:17.000Z</time>
      </trkpt>
      <trkpt lat="46.71168" lon="5.63189">
        <ele>296.3</ele>
        <time>2019-07-29T11:07:27.000Z</time>
      </trkpt>
      <trkpt lat="46.71166" lon="5.63187">
        <ele>296.5</ele>
        <time>2019-07-29T11:07:37.000Z</time>
      </trkpt>
      <trkpt lat="46.71165" lon="5.63187">
        <ele>296.5</ele>
        <time>2019-07-29T11:07:47.000Z</time>
      </trkpt>
      <trkpt lat="46.71153" lon="5.63177">
        <ele>307</ele>
        <time>2019-07-29T11:07:19.000Z</time>
      </trkpt>
      <trkpt lat="46.71151" lon="5.63165">
        <ele>298.2</ele>
        <time>2019-07-29T11:07:29.000Z</time>
      </trkpt>
      <trkpt lat="46.71155" lon="5.63152">
        <ele>300.1</ele>
        <time>2019-07-29T11:07:39.000Z</time>
      </trkpt>
      <trkpt lat="46.71161" lon="5.6314">
        <ele>309</ele>
        <time>2019-07-29T11:08:21.000Z</time>
      </trkpt>
      <trkpt lat="46.71162" lon="5.6314">
        <ele>301.8</ele>
        <time>2019-07-29T11:08:31.000Z</time>
      </trkpt>
      <trkpt lat="46.71162" lon="5.63138">
        <ele>302.2</ele>
        <time>2019-07-29T11:08:41.000Z</time>
      </trkpt>
      <trkpt lat="46.71163" lon="5.63137">
        <ele>302.4</ele>
        <time>2019-07-29T11:08:51.000Z</time>
      </trkpt>
      <trkpt lat="46.71163" lon="5.63136">
        <ele>302.7</ele>
        <time>2019-07-29T11:09:01.000Z</time>
      </trkpt>
      <trkpt lat="46.71164" lon="5.63136">
        <ele>302.7</ele>
        <time>2019-07-29T11:09:11.000Z</time>
      </trkpt>
      <trkpt lat="46.71164" lon="5.63135">
        <ele>302.9</ele>
        <time>2019-07-29T11:09:21.000Z</time>
      </trkpt>
      <trkpt lat="46.71167" lon="5.63129">
        <ele>304.5</ele>
        <time>2019-07-29T11:09:31.000Z</time>
      </trkpt>
      <trkpt lat="46.71174" lon="5.63117">
        <ele>317</ele>
        <time>2019-07-29T11:08:50.000Z</time>
      </trkpt>
      <trkpt lat="46.71175" lon="5.63114">
        <ele>309.2</ele>
        <time>2019-07-29T11:09:00.000Z</time>
      </trkpt>
      <trkpt lat="46.71176" lon="5.63114">
        <ele>309.3</ele>
        <time>2019-07-29T11:09:10.000Z</time>
      </trkpt>
      <trkpt lat="46.71177" lon="5.63111">
        <ele>310.1</ele>
        <time>2019-07-29T11:09:20.000Z</time>
      </trkpt>
      <trkpt lat="46.71189" lon="5.63095">
        <ele>321</ele>
        <time>2019-07-29T11:09:27.000Z</time>
      </trkpt>
      <trkpt lat="46.71199" lon="5.63091">
        <ele>318.9</ele>
        <time>2019-07-29T11:09:37.000Z</time>
      </trkpt>
      <trkpt lat="46.71209" lon="5.63091">
        <ele>323</ele>
        <time>2019-07-29T11:09:51.000Z</time>
      </trkpt>
      <trkpt lat="46.7121" lon="5.63077">
        <ele>323.8</ele>
        <time>2019-07-29T11:10:01.000Z</time>
      </trkpt>
      <trkpt lat="46.71202" lon="5.63068">
        <ele>330</ele>
        <time>2019-07-29T11:10:36.000Z</time>
      </trkpt>
      <trkpt lat="46.71194" lon="5.63062">
        <ele>327</ele>
        <time>2019-07-29T11:10:46.000Z</time>
      </trkpt>
      <trkpt lat="46.7119" lon="5.63049">
        <ele>330</ele>
        <time>2019-07-29T11:10:59.000Z</time>
      </trkpt>
      <trkpt lat="46.71196" lon="5.63037">
        <ele>335.1</ele>
        <time>2019-07-29T11:11:09.000Z</time>
      </trkpt>
      <trkpt lat="46.71197" lon="5.63036">
        <ele>335.4</ele>
        <time>2019-07-29T11:11:19.000Z</time>
      </trkpt>
      <trkpt lat="46.71197" lon="5.63035">
        <ele>335.8</ele>
        <time>2019-07-29T11:11:29.000Z</time>
      </trkpt>
      <trkpt lat="46.71198" lon="5.63035">
        <ele>335.8</ele>
        <time>2019-07-29T11:11:39.000Z</time>
      </trkpt>
      <trkpt lat="46.71198" lon="5.63034">
        <ele>336.1</ele>
        <time>2019-07-29T11:11:49.000Z</time>
      </trkpt>
      <trkpt lat="46.71204" lon="5.63027">
        <ele>334</ele>
        <time>2019-07-29T11:11:27.000Z</time>
      </trkpt>
      <trkpt lat="46.7121" lon="5.63015">
        <ele>340.5</ele>
        <time>2019-07-29T11:11:37.000Z</time>
      </trkpt>
      <trkpt lat="46.71211" lon="5.63014">
        <ele>340.7</ele>
        <time>2019-07-29T11:11:47.000Z</time>
      </trkpt>
      <trkpt lat="46.71211" lon="5.6301">
        <ele>341.3</ele>
        <time>2019-07-29T11:11:57.000Z</time>
      </trkpt>
      <trkpt lat="46.71212" lon="5.6301">
        <ele>341.3</ele>
        <time>2019-07-29T11:12:07.000Z</time>
      </trkpt>
      <trkpt lat="46.71212" lon="5.63008">
        <ele>341.6</ele>
        <time>2019-07-29T11:12:17.000Z</time>
      </trkpt>
      <trkpt lat="46.71214" lon="5.63001">
        <ele>335</ele>
        <time>2019-07-29T11:11:50.000Z</time>
      </trkpt>
      <trkpt lat="46.71213" lon="5.62978">
        <ele>345.6</ele>
        <time>2019-07-29T11:12:00.000Z</time>
      </trkpt>
      <trkpt lat="46.71212" lon="5.62971">
        <ele>345</ele>
        <time>2019-07-29T11:12:12.000Z</time>
      </trkpt>
      <trkpt lat="46.71213" lon="5.62955">
        <ele>348.8</ele>
        <time>2019-07-29T11:12:22.000Z</time>
      </trkpt>
      <trkpt lat="46.71213" lon="5.62937">
        <ele>359</ele>
        <time>2019-07-29T11:12:38.000Z</time>
      </trkpt>
      <trkpt lat="46.71212" lon="5.62936">
        <ele>351.3</ele>
        <time>2019-07-29T11:12:48.000Z</time>
      </trkpt>
      <trkpt lat="46.71212" lon="5.62925">
        <ele>352.5</ele>
        <time>2019-07-29T11:12:58.000Z</time>
      </trkpt>
      <trkpt lat="46.71211" lon="5.6291">
        <ele>362</ele>
        <time>2019-07-29T11:12:56.000Z</time>
      </trkpt>
      <trkpt lat="46.71211" lon="5.62903">
        <ele>354.9</ele>
        <time>2019-07-29T11:13:06.000Z</time>
      </trkpt>
      <trkpt lat="46.71212" lon="5.62895">
        <ele>355.7</ele>
        <time>2019-07-29T11:13:16.000Z</time>
      </trkpt>
      <trkpt lat="46.71212" lon="5.62889">
        <ele>356.4</ele>
        <time>2019-07-29T11:13:26.000Z</time>
      </trkpt>
      <trkpt lat="46.71213" lon="5.62889">
        <ele>356.3</ele>
        <time>2019-07-29T11:13:36.000Z</time>
      </trkpt>
      <trkpt lat="46.71213" lon="5.6288">
        <ele>364</ele>
        <time>2019-07-29T11:13:23.000Z</time>
      </trkpt>
      <trkpt lat="46.71216" lon="5.62866">
        <ele>359.3</ele>
        <time>2019-07-29T11:13:33.000Z</time>
      </trkpt>
      <trkpt lat="46.71221" lon="5.62853">
        <ele>364</ele>
        <time>2019-07-29T11:13:42.000Z</time>
      </trkpt>
      <trkpt lat="46.71228" lon="5.62841">
        <ele>363.6</ele>
        <time>2019-07-29T11:13:52.000Z</time>
      </trkpt>
      <trkpt lat="46.71228" lon="5.6284">
        <ele>363.8</ele>
        <time>2019-07-29T11:14:02.000Z</time>
      </trkpt>
      <trkpt lat="46.71229" lon="5.6284">
        <ele>363.7</ele>
        <time>2019-07-29T11:14:12.000Z</time>
      </trkpt>
      <trkpt lat="46.71229" lon="5.62838">
        <ele>364.1</ele>
        <time>2019-07-29T11:14:22.000Z</time>
      </trkpt>
      <trkpt lat="46.7123" lon="5.62838">
        <ele>364</ele>
        <time>2019-07-29T11:14:32.000Z</time>
      </trkpt>
      <trkpt lat="46.7123" lon="5.62837">
        <ele>364.2</ele>
        <time>2019-07-29T11:14:42.000Z</time>
      </trkpt>
      <trkpt lat="46.71231" lon="5.62836">
        <ele>364.2</ele>
        <time>2019-07-29T11:14:52.000Z</time>
      </trkpt>
      <trkpt lat="46.71231" lon="5.62835">
        <ele>364.4</ele>
        <time>2019-07-29T11:15:02.000Z</time>
      </trkpt>
      <trkpt lat="46.71234" lon="5.62829">
        <ele>367</ele>
        <time>2019-07-29T11:14:13.000Z</time>
      </trkpt>
      <trkpt lat="46.71234" lon="5.62827">
        <ele>365.3</ele>
        <time>2019-07-29T11:14:23.000Z</time>
      </trkpt>
      <trkpt lat="46.71235" lon="5.62827">
        <ele>365.2</ele>
        <time>2019-07-29T11:14:33.000Z</time>
      </trkpt>
      <trkpt lat="46.71235" lon="5.62822">
        <ele>366</ele>
        <time>2019-07-29T11:14:43.000Z</time>
      </trkpt>
      <trkpt lat="46.7124" lon="5.62803">
        <ele>373</ele>
        <time>2019-07-29T11:14:32.000Z</time>
      </trkpt>
      <trkpt lat="46.7124" lon="5.62777">
        <ele>373.5</ele>
        <time>2019-07-29T11:14:42.000Z</time>
      </trkpt>
      <trkpt lat="46.7123" lon="5.62758">
        <ele>380</ele>
        <time>2019-07-29T11:15:16.000Z</time>
      </trkpt>
      <trkpt lat="46.71226" lon="5.62753">
        <ele>378.4</ele>
        <time>2019-07-29T11:15:26.000Z</time>
      </trkpt>
      <trkpt lat="46.7122" lon="5.62754">
        <ele>378.2</ele>
        <time>2019-07-29T11:15:36.000Z</time>
      </trkpt>
      <trkpt lat="46.71213" lon="5.62741">
        <ele>380</ele>
        <time>2019-07-29T11:15:43.000Z</time>
      </trkpt>
      <trkpt lat="46.71213" lon="5.62739">
        <ele>381.4</ele>
        <time>2019-07-29T11:15:53.000Z</time>
      </trkpt>
      <trkpt lat="46.71212" lon="5.62738">
        <ele>381.7</ele>
        <time>2019-07-29T11:16:03.000Z</time>
      </trkpt>
      <trkpt lat="46.71212" lon="5.62736">
        <ele>382.2</ele>
        <time>2019-07-29T11:16:13.000Z</time>
      </trkpt>
      <trkpt lat="46.7121" lon="5.62727">
        <ele>384.4</ele>
        <time>2019-07-29T11:16:23.000Z</time>
      </trkpt>
      <trkpt lat="46.71209" lon="5.62726">
        <ele>384.6</ele>
        <time>2019-07-29T11:16:33.000Z</time>
      </trkpt>
      <trkpt lat="46.71209" lon="5.62722">
        <ele>385.5</ele>
        <time>2019-07-29T11:16:43.000Z</time>
      </trkpt>
      <trkpt lat="46.71208" lon="5.62721">
        <ele>385.6</ele>
        <time>2019-07-29T11:16:53.000Z</time>
      </trkpt>
      <trkpt lat="46.71207" lon="5.62713">
        <ele>382</ele>
        <time>2019-07-29T11:16:00.000Z</time>
      </trkpt>
      <trkpt lat="46.71208" lon="5.62698">
        <ele>386.8</ele>
        <time>2019-07-29T11:16:10.000Z</time>
      </trkpt>
      <trkpt lat="46.71212" lon="5.62684">
        <ele>383</ele>
        <time>2019-07-29T11:16:15.000Z</time>
      </trkpt>
      <trkpt lat="46.71213" lon="5.62683">
        <ele>388.2</ele>
        <time>2019-07-29T11:16:25.000Z</time>
      </trkpt>
      <trkpt lat="46.71213" lon="5.62681">
        <ele>388.5</ele>
        <time>2019-07-29T11:16:35.000Z</time>
      </trkpt>
      <trkpt lat="46.71214" lon="5.6268">
        <ele>388.6</ele>
        <time>2019-07-29T11:16:45.000Z</time>
      </trkpt>
      <trkpt lat="46.71214" lon="5.62678">
        <ele>388.8</ele>
        <time>2019-07-29T11:16:55.000Z</time>
      </trkpt>
      <trkpt lat="46.71219" lon="5.6266">
        <ele>387</ele>
        <time>2019-07-29T11:16:32.000Z</time>
      </trkpt>
      <trkpt lat="46.71223" lon="5.6263">
        <ele>394</ele>
        <time>2019-07-29T11:16:55.000Z</time>
      </trkpt>
      <trkpt lat="46.71224" lon="5.62629">
        <ele>394.7</ele>
        <time>2019-07-29T11:17:05.000Z</time>
      </trkpt>
      <trkpt lat="46.71224" lon="5.62617">
        <ele>396.8</ele>
        <time>2019-07-29T11:17:15.000Z</time>
      </trkpt>
      <trkpt lat="46.71227" lon="5.62602">
        <ele>394</ele>
        <time>2019-07-29T11:17:16.000Z</time>
      </trkpt>
      <trkpt lat="46.71227" lon="5.62596">
        <ele>399.8</ele>
        <time>2019-07-29T11:17:26.000Z</time>
      </trkpt>
      <trkpt lat="46.71228" lon="5.62595">
        <ele>399.9</ele>
        <time>2019-07-29T11:17:36.000Z</time>
      </trkpt>
      <trkpt lat="46.71228" lon="5.62587">
        <ele>401.1</ele>
        <time>2019-07-29T11:17:46.000Z</time>
      </trkpt>
      <trkpt lat="46.71229" lon="5.62572">
        <ele>401</ele>
        <time>2019-07-29T11:17:41.000Z</time>
      </trkpt>
      <trkpt lat="46.71229" lon="5.62555">
        <ele>406.9</ele>
        <time>2019-07-29T11:17:51.000Z</time>
      </trkpt>
      <trkpt lat="46.71228" lon="5.62554">
        <ele>407.1</ele>
        <time>2019-07-29T11:18:01.000Z</time>
      </trkpt>
      <trkpt lat="46.71228" lon="5.62551">
        <ele>407.6</ele>
        <time>2019-07-29T11:18:11.000Z</time>
      </trkpt>
      <trkpt lat="46.71226" lon="5.62543">
        <ele>406</ele>
        <time>2019-07-29T11:18:06.000Z</time>
      </trkpt>
      <trkpt lat="46.71229" lon="5.62529">
        <ele>411.8</ele>
        <time>2019-07-29T11:18:16.000Z</time>
      </trkpt>
      <trkpt lat="46.71233" lon="5.62515">
        <ele>409</ele>
        <time>2019-07-29T11:18:30.000Z</time>
      </trkpt>
      <trkpt lat="46.71233" lon="5.6251">
        <ele>415</ele>
        <time>2019-07-29T11:18:40.000Z</time>
      </trkpt>
      <trkpt lat="46.71234" lon="5.62509">
        <ele>415.1</ele>
        <time>2019-07-29T11:18:50.000Z</time>
      </trkpt>
      <trkpt lat="46.71235" lon="5.62498">
        <ele>416.8</ele>
        <time>2019-07-29T11:19:00.000Z</time>
      </trkpt>
      <trkpt lat="46.71236" lon="5.62497">
        <ele>416.9</ele>
        <time>2019-07-29T11:19:10.000Z</time>
      </trkpt>
      <trkpt lat="46.71236" lon="5.62492">
        <ele>417.7</ele>
        <time>2019-07-29T11:19:20.000Z</time>
      </trkpt>
      <trkpt lat="46.71237" lon="5.62492">
        <ele>417.6</ele>
        <time>2019-07-29T11:19:30.000Z</time>
      </trkpt>
      <trkpt lat="46.71238" lon="5.62484">
        <ele>413</ele>
        <time>2019-07-29T11:18:53.000Z</time>
      </trkpt>
      <trkpt lat="46.71244" lon="5.62455">
        <ele>424</ele>
        <time>2019-07-29T11:19:20.000Z</time>
      </trkpt>
      <trkpt lat="46.71245" lon="5.62455">
        <ele>423.2</ele>
        <time>2019-07-29T11:19:30.000Z</time>
      </trkpt>
      <trkpt lat="46.71245" lon="5.62453">
        <ele>423.5</ele>
        <time>2019-07-29T11:19:40.000Z</time>
      </trkpt>
      <trkpt lat="46.71246" lon="5.62453">
        <ele>423.5</ele>
        <time>2019-07-29T11:19:50.000Z</time>
      </trkpt>
      <trkpt lat="46.71246" lon="5.62451">
        <ele>423.9</ele>
        <time>2019-07-29T11:20:00.000Z</time>
      </trkpt>
      <trkpt lat="46.71247" lon="5.62451">
        <ele>423.8</ele>
        <time>2019-07-29T11:20:10.000Z</time>
      </trkpt>
      <trkpt lat="46.7125" lon="5.62442">
        <ele>425.5</ele>
        <time>2019-07-29T11:20:20.000Z</time>
      </trkpt>
      <trkpt lat="46.71251" lon="5.62442">
        <ele>425.4</ele>
        <time>2019-07-29T11:20:30.000Z</time>
      </trkpt>
      <trkpt lat="46.71251" lon="5.6244">
        <ele>425.8</ele>
        <time>2019-07-29T11:20:40.000Z</time>
      </trkpt>
      <trkpt lat="46.71252" lon="5.62439">
        <ele>425.9</ele>
        <time>2019-07-29T11:20:50.000Z</time>
      </trkpt>
      <trkpt lat="46.71252" lon="5.62437">
        <ele>426.3</ele>
        <time>2019-07-29T11:21:00.000Z</time>
      </trkpt>
      <trkpt lat="46.71253" lon="5.62436">
        <ele>430</ele>
        <time>2019-07-29T11:19:41.000Z</time>
      </trkpt>
      <trkpt lat="46.71255" lon="5.62428">
        <ele>427.6</ele>
        <time>2019-07-29T11:19:51.000Z</time>
      </trkpt>
      <trkpt lat="46.71256" lon="5.62427">
        <ele>427.6</ele>
        <time>2019-07-29T11:20:01.000Z</time>
      </trkpt>
      <trkpt lat="46.71256" lon="5.62426">
        <ele>427.8</ele>
        <time>2019-07-29T11:20:11.000Z</time>
      </trkpt>
      <trkpt lat="46.71257" lon="5.62425">
        <ele>427.8</ele>
        <time>2019-07-29T11:20:21.000Z</time>
      </trkpt>
      <trkpt lat="46.71257" lon="5.62424">
        <ele>428</ele>
        <time>2019-07-29T11:20:31.000Z</time>
      </trkpt>
      <trkpt lat="46.71258" lon="5.62423">
        <ele>428</ele>
        <time>2019-07-29T11:20:41.000Z</time>
      </trkpt>
      <trkpt lat="46.71261" lon="5.62416">
        <ele>428.8</ele>
        <time>2019-07-29T11:20:51.000Z</time>
      </trkpt>
      <trkpt lat="46.71267" lon="5.62405">
        <ele>435</ele>
        <time>2019-07-29T11:20:05.000Z</time>
      </trkpt>
      <trkpt lat="46.71272" lon="5.62391">
        <ele>433.8</ele>
        <time>2019-07-29T11:20:15.000Z</time>
      </trkpt>
      <trkpt lat="46.71273" lon="5.6239">
        <ele>434</ele>
        <time>2019-07-29T11:20:25.000Z</time>
      </trkpt>
      <trkpt lat="46.71273" lon="5.62389">
        <ele>434.3</ele>
        <time>2019-07-29T11:20:35.000Z</time>
      </trkpt>
      <trkpt lat="46.71274" lon="5.62388">
        <ele>434.5</ele>
        <time>2019-07-29T11:20:45.000Z</time>
      </trkpt>
      <trkpt lat="46.71274" lon="5.62387">
        <ele>434.7</ele>
        <time>2019-07-29T11:20:55.000Z</time>
      </trkpt>
      <trkpt lat="46.71275" lon="5.62386">
        <ele>434.9</ele>
        <time>2019-07-29T11:21:05.000Z</time>
      </trkpt>
      <trkpt lat="46.71275" lon="5.62385">
        <ele>435.1</ele>
        <time>2019-07-29T11:21:15.000Z</time>
      </trkpt>
      <trkpt lat="46.71278" lon="5.62379">
        <ele>441</ele>
        <time>2019-07-29T11:20:32.000Z</time>
      </trkpt>
      <trkpt lat="46.71282" lon="5.62348">
        <ele>444</ele>
        <time>2019-07-29T11:21:03.000Z</time>
      </trkpt>
      <trkpt lat="46.71284" lon="5.62345">
        <ele>443.8</ele>
        <time>2019-07-29T11:21:13.000Z</time>
      </trkpt>
      <trkpt lat="46.71284" lon="5.62344">
        <ele>444</ele>
        <time>2019-07-29T11:21:23.000Z</time>
      </trkpt>
      <trkpt lat="46.71293" lon="5.62325">
        <ele>444</ele>
        <time>2019-07-29T11:21:22.000Z</time>
      </trkpt>
      <trkpt lat="46.71293" lon="5.62324">
        <ele>448.5</ele>
        <time>2019-07-29T11:21:32.000Z</time>
      </trkpt>
      <trkpt lat="46.71294" lon="5.62324">
        <ele>448.4</ele>
        <time>2019-07-29T11:21:42.000Z</time>
      </trkpt>
      <trkpt lat="46.71294" lon="5.62322">
        <ele>449.1</ele>
        <time>2019-07-29T11:21:52.000Z</time>
      </trkpt>
      <trkpt lat="46.71295" lon="5.62322">
        <ele>448.9</ele>
        <time>2019-07-29T11:22:02.000Z</time>
      </trkpt>
      <trkpt lat="46.71295" lon="5.6232">
        <ele>449.6</ele>
        <time>2019-07-29T11:22:12.000Z</time>
      </trkpt>
      <trkpt lat="46.71296" lon="5.62319">
        <ele>449.9</ele>
        <time>2019-07-29T11:22:22.000Z</time>
      </trkpt>
      <trkpt lat="46.71299" lon="5.6231">
        <ele>452.8</ele>
        <time>2019-07-29T11:22:32.000Z</time>
      </trkpt>
      <trkpt lat="46.713" lon="5.6231">
        <ele>452.7</ele>
        <time>2019-07-29T11:22:42.000Z</time>
      </trkpt>
      <trkpt lat="46.713" lon="5.62308">
        <ele>453.5</ele>
        <time>2019-07-29T11:22:52.000Z</time>
      </trkpt>
      <trkpt lat="46.71301" lon="5.62308">
        <ele>453.4</ele>
        <time>2019-07-29T11:23:02.000Z</time>
      </trkpt>
      <trkpt lat="46.71301" lon="5.62307">
        <ele>453.8</ele>
        <time>2019-07-29T11:23:12.000Z</time>
      </trkpt>
      <trkpt lat="46.71306" lon="5.623">
        <ele>457</ele>
        <time>2019-07-29T11:21:51.000Z</time>
      </trkpt>
      <trkpt lat="46.71312" lon="5.62288">
        <ele>458.8</ele>
        <time>2019-07-29T11:22:01.000Z</time>
      </trkpt>
      <trkpt lat="46.71313" lon="5.62288">
        <ele>458.6</ele>
        <time>2019-07-29T11:22:11.000Z</time>
      </trkpt>
      <trkpt lat="46.71314" lon="5.62285">
        <ele>459.4</ele>
        <time>2019-07-29T11:22:21.000Z</time>
      </trkpt>
      <trkpt lat="46.71315" lon="5.62285">
        <ele>459.3</ele>
        <time>2019-07-29T11:22:31.000Z</time>
      </trkpt>
      <trkpt lat="46.71315" lon="5.62284">
        <ele>459.6</ele>
        <time>2019-07-29T11:22:41.000Z</time>
      </trkpt>
      <trkpt lat="46.71316" lon="5.62284">
        <ele>459.5</ele>
        <time>2019-07-29T11:22:51.000Z</time>
      </trkpt>
      <trkpt lat="46.71327" lon="5.62267">
        <ele>461</ele>
        <time>2019-07-29T11:22:24.000Z</time>
      </trkpt>
      <trkpt lat="46.71328" lon="5.62267">
        <ele>462.1</ele>
        <time>2019-07-29T11:22:34.000Z</time>
      </trkpt>
      <trkpt lat="46.71328" lon="5.62266">
        <ele>462.3</ele>
        <time>2019-07-29T11:22:44.000Z</time>
      </trkpt>
      <trkpt lat="46.71329" lon="5.62266">
        <ele>462.2</ele>
        <time>2019-07-29T11:22:54.000Z</time>
      </trkpt>
      <trkpt lat="46.71329" lon="5.62265">
        <ele>462.4</ele>
        <time>2019-07-29T11:23:04.000Z</time>
      </trkpt>
      <trkpt lat="46.71331" lon="5.62263">
        <ele>462.5</ele>
        <time>2019-07-29T11:23:14.000Z</time>
      </trkpt>
      <trkpt lat="46.71334" lon="5.62258">
        <ele>463.2</ele>
        <time>2019-07-29T11:23:24.000Z</time>
      </trkpt>
      <trkpt lat="46.71342" lon="5.62247">
        <ele>461</ele>
        <time>2019-07-29T11:22:40.000Z</time>
      </trkpt>
      <trkpt lat="46.71349" lon="5.62241">
        <ele>463.6</ele>
        <time>2019-07-29T11:22:50.000Z</time>
      </trkpt>
      <trkpt lat="46.71349" lon="5.62239">
        <ele>463.9</ele>
        <time>2019-07-29T11:23:00.000Z</time>
      </trkpt>
      <trkpt lat="46.7135" lon="5.62238">
        <ele>463.9</ele>
        <time>2019-07-29T11:23:10.000Z</time>
      </trkpt>
      <trkpt lat="46.7135" lon="5.62236">
        <ele>464.2</ele>
        <time>2019-07-29T11:23:20.000Z</time>
      </trkpt>
      <trkpt lat="46.71351" lon="5.62235">
        <ele>464.2</ele>
        <time>2019-07-29T11:23:30.000Z</time>
      </trkpt>
      <trkpt lat="46.71353" lon="5.62228">
        <ele>464.9</ele>
        <time>2019-07-29T11:23:40.000Z</time>
      </trkpt>
      <trkpt lat="46.7136" lon="5.62218">
        <ele>462</ele>
        <time>2019-07-29T11:23:50.000Z</time>
      </trkpt>
      <trkpt lat="46.71366" lon="5.62206">
        <ele>465</ele>
        <time>2019-07-29T11:24:00.000Z</time>
      </trkpt>
      <trkpt lat="46.71373" lon="5.62194">
        <ele>468</ele>
        <time>2019-07-29T11:24:10.000Z</time>
      </trkpt>
      <trkpt lat="46.71373" lon="5.62193">
        <ele>465.2</ele>
        <time>2019-07-29T11:24:20.000Z</time>
      </trkpt>
      <trkpt lat="46.71375" lon="5.6219">
        <ele>465</ele>
        <time>2019-07-29T11:24:30.000Z</time>
      </trkpt>
      <trkpt lat="46.71375" lon="5.62189">
        <ele>465.1</ele>
        <time>2019-07-29T11:24:40.000Z</time>
      </trkpt>
      <trkpt lat="46.71376" lon="5.62189">
        <ele>464.9</ele>
        <time>2019-07-29T11:24:50.000Z</time>
      </trkpt>
      <trkpt lat="46.71379" lon="5.62183">
        <ele>464.8</ele>
        <time>2019-07-29T11:25:00.000Z</time>
      </trkpt>
      <trkpt lat="46.71386" lon="5.62173">
        <ele>471</ele>
        <time>2019-07-29T11:25:10.000Z</time>
      </trkpt>
      <trkpt lat="46.71393" lon="5.6216">
        <ele>466.2</ele>
        <time>2019-07-29T11:25:20.000Z</time>
      </trkpt>
      <trkpt lat="46.71393" lon="5.62159">
        <ele>466.4</ele>
        <time>2019-07-29T11:25:30.000Z</time>
      </trkpt>
      <trkpt lat="46.71394" lon="5.62159">
        <ele>466.4</ele>
        <time>2019-07-29T11:25:40.000Z</time>
      </trkpt>
      <trkpt lat="46.71395" lon="5.62158">
        <ele>466.5</ele>
        <time>2019-07-29T11:25:50.000Z</time>
      </trkpt>
      <trkpt lat="46.71395" lon="5.62157">
        <ele>466.7</ele>
        <time>2019-07-29T11:26:00.000Z</time>
      </trkpt>
      <trkpt lat="46.714" lon="5.6215">
        <ele>475</ele>
        <time>2019-07-29T11:26:10.000Z</time>
      </trkpt>
      <trkpt lat="46.71399" lon="5.6215">
        <ele>467.8</ele>
        <time>2019-07-29T11:26:20.000Z</time>
      </trkpt>
      <trkpt lat="46.71399" lon="5.62151">
        <ele>467.6</ele>
        <time>2019-07-29T11:26:30.000Z</time>
      </trkpt>
      <trkpt lat="46.71378" lon="5.62153">
        <ele>474</ele>
        <time>2019-07-29T11:24:31.000Z</time>
      </trkpt>
      <trkpt lat="46.71375" lon="5.62155">
        <ele>470.9</ele>
        <time>2019-07-29T11:24:41.000Z</time>
      </trkpt>
      <trkpt lat="46.7137" lon="5.62156">
        <ele>471.7</ele>
        <time>2019-07-29T11:24:51.000Z</time>
      </trkpt>
      <trkpt lat="46.71364" lon="5.62168">
        <ele>474</ele>
        <time>2019-07-29T11:24:49.000Z</time>
      </trkpt>
      <trkpt lat="46.71356" lon="5.62175">
        <ele>471.2</ele>
        <time>2019-07-29T11:24:59.000Z</time>
      </trkpt>
      <trkpt lat="46.71334" lon="5.62183">
        <ele>482</ele>
        <time>2019-07-29T11:25:11.000Z</time>
      </trkpt>
      <trkpt lat="46.71334" lon="5.62184">
        <ele>477.1</ele>
        <time>2019-07-29T11:25:21.000Z</time>
      </trkpt>
      <trkpt lat="46.71332" lon="5.62184">
        <ele>477.4</ele>
        <time>2019-07-29T11:25:31.000Z</time>
      </trkpt>
      <trkpt lat="46.71331" lon="5.62185">
        <ele>477.3</ele>
        <time>2019-07-29T11:25:41.000Z</time>
      </trkpt>
      <trkpt lat="46.71317" lon="5.6219">
        <ele>477.8</ele>
        <time>2019-07-29T11:25:51.000Z</time>
      </trkpt>
      <trkpt lat="46.71307" lon="5.62193">
        <ele>485</ele>
        <time>2019-07-29T11:25:33.000Z</time>
      </trkpt>
      <trkpt lat="46.71299" lon="5.62194">
        <ele>478.8</ele>
        <time>2019-07-29T11:25:43.000Z</time>
      </trkpt>
      <trkpt lat="46.71288" lon="5.62197">
        <ele>488</ele>
        <time>2019-07-29T11:25:48.000Z</time>
      </trkpt>
      <trkpt lat="46.71287" lon="5.62198">
        <ele>479.3</ele>
        <time>2019-07-29T11:25:58.000Z</time>
      </trkpt>
      <trkpt lat="46.71285" lon="5.62198">
        <ele>479.5</ele>
        <time>2019-07-29T11:26:08.000Z</time>
      </trkpt>
      <trkpt lat="46.71284" lon="5.62199">
        <ele>479.4</ele>
        <time>2019-07-29T11:26:18.000Z</time>
      </trkpt>
      <trkpt lat="46.71278" lon="5.622">
        <ele>479.8</ele>
        <time>2019-07-29T11:26:28.000Z</time>
      </trkpt>
      <trkpt lat="46.71277" lon="5.62201">
        <ele>479.7</ele>
        <time>2019-07-29T11:26:38.000Z</time>
      </trkpt>
      <trkpt lat="46.71273" lon="5.62201">
        <ele>480</ele>
        <time>2019-07-29T11:26:48.000Z</time>
      </trkpt>
      <trkpt lat="46.71267" lon="5.62203">
        <ele>496</ele>
        <time>2019-07-29T11:26:02.000Z</time>
      </trkpt>
      <trkpt lat="46.71258" lon="5.62196">
        <ele>482.7</ele>
        <time>2019-07-29T11:26:12.000Z</time>
      </trkpt>
      <trkpt lat="46.71258" lon="5.62173">
        <ele>502</ele>
        <time>2019-07-29T11:26:58.000Z</time>
      </trkpt>
      <trkpt lat="46.71259" lon="5.62166">
        <ele>491.6</ele>
        <time>2019-07-29T11:27:08.000Z</time>
      </trkpt>
      <trkpt lat="46.71263" lon="5.62152">
        <ele>495.7</ele>
        <time>2019-07-29T11:27:18.000Z</time>
      </trkpt>
      <trkpt lat="46.71264" lon="5.62138">
        <ele>502</ele>
        <time>2019-07-29T11:27:30.000Z</time>
      </trkpt>
      <trkpt lat="46.71269" lon="5.62124">
        <ele>497.9</ele>
        <time>2019-07-29T11:27:40.000Z</time>
      </trkpt>
      <trkpt lat="46.7127" lon="5.62123">
        <ele>497.7</ele>
        <time>2019-07-29T11:27:50.000Z</time>
      </trkpt>
      <trkpt lat="46.7127" lon="5.62121">
        <ele>497.5</ele>
        <time>2019-07-29T11:28:00.000Z</time>
      </trkpt>
      <trkpt lat="46.71271" lon="5.6212">
        <ele>497.3</ele>
        <time>2019-07-29T11:28:10.000Z</time>
      </trkpt>
      <trkpt lat="46.71271" lon="5.62119">
        <ele>497.2</ele>
        <time>2019-07-29T11:28:20.000Z</time>
      </trkpt>
      <trkpt lat="46.71272" lon="5.62118">
        <ele>497</ele>
        <time>2019-07-29T11:28:30.000Z</time>
      </trkpt>
      <trkpt lat="46.71275" lon="5.62111">
        <ele>494</ele>
        <time>2019-07-29T11:27:47.000Z</time>
      </trkpt>
      <trkpt lat="46.71279" lon="5.62096">
        <ele>493.8</ele>
        <time>2019-07-29T11:27:57.000Z</time>
      </trkpt>
      <trkpt lat="46.7128" lon="5.62095">
        <ele>493.6</ele>
        <time>2019-07-29T11:28:07.000Z</time>
      </trkpt>
      <trkpt lat="46.7128" lon="5.62094">
        <ele>493.4</ele>
        <time>2019-07-29T11:28:17.000Z</time>
      </trkpt>
      <trkpt lat="46.71281" lon="5.62094">
        <ele>493.3</ele>
        <time>2019-07-29T11:28:27.000Z</time>
      </trkpt>
      <trkpt lat="46.71282" lon="5.62093">
        <ele>493.1</ele>
        <time>2019-07-29T11:28:37.000Z</time>
      </trkpt>
      <trkpt lat="46.71282" lon="5.62092">
        <ele>493</ele>
        <time>2019-07-29T11:28:47.000Z</time>
      </trkpt>
      <trkpt lat="46.71287" lon="5.62087">
        <ele>493</ele>
        <time>2019-07-29T11:28:00.000Z</time>
      </trkpt>
      <trkpt lat="46.71303" lon="5.62087">
        <ele>490.8</ele>
        <time>2019-07-29T11:28:10.000Z</time>
      </trkpt>
      <trkpt lat="46.71311" lon="5.62088">
        <ele>492</ele>
        <time>2019-07-29T11:28:15.000Z</time>
      </trkpt>
      <trkpt lat="46.71312" lon="5.62089">
        <ele>490.7</ele>
        <time>2019-07-29T11:28:25.000Z</time>
      </trkpt>
      <trkpt lat="46.71323" lon="5.6209">
        <ele>490.4</ele>
        <time>2019-07-29T11:28:35.000Z</time>
      </trkpt>
      <trkpt lat="46.71324" lon="5.62091">
        <ele>490.5</ele>
        <time>2019-07-29T11:28:45.000Z</time>
      </trkpt>
      <trkpt lat="46.71336" lon="5.62092">
        <ele>490</ele>
        <time>2019-07-29T11:28:33.000Z</time>
      </trkpt>
      <trkpt lat="46.71363" lon="5.62096">
        <ele>490</ele>
        <time>2019-07-29T11:28:49.000Z</time>
      </trkpt>
      <trkpt lat="46.7137" lon="5.6209">
        <ele>488.9</ele>
        <time>2019-07-29T11:28:59.000Z</time>
      </trkpt>
      <trkpt lat="46.71372" lon="5.62081">
        <ele>489.3</ele>
        <time>2019-07-29T11:29:09.000Z</time>
      </trkpt>
      <trkpt lat="46.71372" lon="5.62066">
        <ele>490</ele>
        <time>2019-07-29T11:29:07.000Z</time>
      </trkpt>
      <trkpt lat="46.71371" lon="5.62062">
        <ele>488.6</ele>
        <time>2019-07-29T11:29:17.000Z</time>
      </trkpt>
      <trkpt lat="46.71372" lon="5.62047">
        <ele>488.1</ele>
        <time>2019-07-29T11:29:27.000Z</time>
      </trkpt>
      <trkpt lat="46.71372" lon="5.62032">
        <ele>496</ele>
        <time>2019-07-29T11:29:23.000Z</time>
      </trkpt>
      <trkpt lat="46.71371" lon="5.62027">
        <ele>487.3</ele>
        <time>2019-07-29T11:29:33.000Z</time>
      </trkpt>
      <trkpt lat="46.71371" lon="5.62012">
        <ele>487</ele>
        <time>2019-07-29T11:29:43.000Z</time>
      </trkpt>
      <trkpt lat="46.71369" lon="5.62003">
        <ele>492</ele>
        <time>2019-07-29T11:29:37.000Z</time>
      </trkpt>
      <trkpt lat="46.71366" lon="5.61995">
        <ele>486.4</ele>
        <time>2019-07-29T11:29:47.000Z</time>
      </trkpt>
      <trkpt lat="46.71363" lon="5.61991">
        <ele>486.1</ele>
        <time>2019-07-29T11:29:57.000Z</time>
      </trkpt>
      <trkpt lat="46.71358" lon="5.61986">
        <ele>485.8</ele>
        <time>2019-07-29T11:30:07.000Z</time>
      </trkpt>
      <trkpt lat="46.71348" lon="5.61978">
        <ele>489</ele>
        <time>2019-07-29T11:29:55.000Z</time>
      </trkpt>
      <trkpt lat="46.71341" lon="5.61969">
        <ele>484.4</ele>
        <time>2019-07-29T11:30:05.000Z</time>
      </trkpt>
      <trkpt lat="46.7133" lon="5.6196">
        <ele>481</ele>
        <time>2019-07-29T11:30:09.000Z</time>
      </trkpt>
      <trkpt lat="46.71324" lon="5.61952">
        <ele>482.6</ele>
        <time>2019-07-29T11:30:19.000Z</time>
      </trkpt>
      <trkpt lat="46.7132" lon="5.61943">
        <ele>481.9</ele>
        <time>2019-07-29T11:30:29.000Z</time>
      </trkpt>
      <trkpt lat="46.71319" lon="5.61943">
        <ele>481.9</ele>
        <time>2019-07-29T11:30:39.000Z</time>
      </trkpt>
      <trkpt lat="46.71319" lon="5.61942">
        <ele>481.8</ele>
        <time>2019-07-29T11:30:49.000Z</time>
      </trkpt>
      <trkpt lat="46.71317" lon="5.6194">
        <ele>477</ele>
        <time>2019-07-29T11:30:23.000Z</time>
      </trkpt>
      <trkpt lat="46.71317" lon="5.61939">
        <ele>481.5</ele>
        <time>2019-07-29T11:30:33.000Z</time>
      </trkpt>
      <trkpt lat="46.71312" lon="5.61933">
        <ele>480.9</ele>
        <time>2019-07-29T11:30:43.000Z</time>
      </trkpt>
      <trkpt lat="46.71306" lon="5.61928">
        <ele>480.4</ele>
        <time>2019-07-29T11:30:53.000Z</time>
      </trkpt>
      <trkpt lat="46.71305" lon="5.61928">
        <ele>480.4</ele>
        <time>2019-07-29T11:31:03.000Z</time>
      </trkpt>
      <trkpt lat="46.71305" lon="5.61927">
        <ele>480.3</ele>
        <time>2019-07-29T11:31:13.000Z</time>
      </trkpt>
      <trkpt lat="46.71304" lon="5.61927">
        <ele>480.3</ele>
        <time>2019-07-29T11:31:23.000Z</time>
      </trkpt>
      <trkpt lat="46.71299" lon="5.61922">
        <ele>476</ele>
        <time>2019-07-29T11:30:36.000Z</time>
      </trkpt>
      <trkpt lat="46.71296" lon="5.6192">
        <ele>479.7</ele>
        <time>2019-07-29T11:30:46.000Z</time>
      </trkpt>
      <trkpt lat="46.71289" lon="5.61918">
        <ele>479.4</ele>
        <time>2019-07-29T11:30:56.000Z</time>
      </trkpt>
      <trkpt lat="46.7128" lon="5.61914">
        <ele>476</ele>
        <time>2019-07-29T11:30:49.000Z</time>
      </trkpt>
      <trkpt lat="46.71269" lon="5.61907">
        <ele>477.5</ele>
        <time>2019-07-29T11:30:59.000Z</time>
      </trkpt>
      <trkpt lat="46.7126" lon="5.61904">
        <ele>475</ele>
        <time>2019-07-29T11:31:03.000Z</time>
      </trkpt>
      <trkpt lat="46.71249" lon="5.61899">
        <ele>476.3</ele>
        <time>2019-07-29T11:31:13.000Z</time>
      </trkpt>
      <trkpt lat="46.71237" lon="5.61897">
        <ele>474</ele>
        <time>2019-07-29T11:31:19.000Z</time>
      </trkpt>
      <trkpt lat="46.71231" lon="5.61895">
        <ele>474.3</ele>
        <time>2019-07-29T11:31:29.000Z</time>
      </trkpt>
      <trkpt lat="46.71225" lon="5.61892">
        <ele>473.5</ele>
        <time>2019-07-29T11:31:39.000Z</time>
      </trkpt>
      <trkpt lat="46.71221" lon="5.61882">
        <ele>474</ele>
        <time>2019-07-29T11:31:32.000Z</time>
      </trkpt>
      <trkpt lat="46.7122" lon="5.61872">
        <ele>471.6</ele>
        <time>2019-07-29T11:31:42.000Z</time>
      </trkpt>
      <trkpt lat="46.71214" lon="5.61838">
        <ele>469</ele>
        <time>2019-07-29T11:31:52.000Z</time>
      </trkpt>
      <trkpt lat="46.71212" lon="5.61829">
        <ele>467.9</ele>
        <time>2019-07-29T11:32:02.000Z</time>
      </trkpt>
      <trkpt lat="46.71212" lon="5.6182">
        <ele>467.2</ele>
        <time>2019-07-29T11:32:12.000Z</time>
      </trkpt>
      <trkpt lat="46.7121" lon="5.61809">
        <ele>474</ele>
        <time>2019-07-29T11:32:05.000Z</time>
      </trkpt>
      <trkpt lat="46.71207" lon="5.61783">
        <ele>466.1</ele>
        <time>2019-07-29T11:32:15.000Z</time>
      </trkpt>
      <trkpt lat="46.71203" lon="5.61769">
        <ele>479</ele>
        <time>2019-07-29T11:32:26.000Z</time>
      </trkpt>
      <trkpt lat="46.712" lon="5.61756">
        <ele>469.1</ele>
        <time>2019-07-29T11:32:36.000Z</time>
      </trkpt>
      <trkpt lat="46.71196" lon="5.61747">
        <ele>471.2</ele>
        <time>2019-07-29T11:32:46.000Z</time>
      </trkpt>
      <trkpt lat="46.71194" lon="5.61741">
        <ele>479</ele>
        <time>2019-07-29T11:32:50.000Z</time>
      </trkpt>
      <trkpt lat="46.71192" lon="5.61732">
        <ele>474.6</ele>
        <time>2019-07-29T11:33:00.000Z</time>
      </trkpt>
      <trkpt lat="46.71191" lon="5.61717">
        <ele>477.6</ele>
        <time>2019-07-29T11:33:10.000Z</time>
      </trkpt>
      <trkpt lat="46.71189" lon="5.61698">
        <ele>487</ele>
        <time>2019-07-29T11:33:25.000Z</time>
      </trkpt>
      <trkpt lat="46.71186" lon="5.61689">
        <ele>483.3</ele>
        <time>2019-07-29T11:33:35.000Z</time>
      </trkpt>
      <trkpt lat="46.71185" lon="5.61683">
        <ele>484.2</ele>
        <time>2019-07-29T11:33:45.000Z</time>
      </trkpt>
      <trkpt lat="46.71194" lon="5.61673">
        <ele>491</ele>
        <time>2019-07-29T11:34:36.000Z</time>
      </trkpt>
      <trkpt lat="46.71193" lon="5.61665">
        <ele>486.4</ele>
        <time>2019-07-29T11:34:46.000Z</time>
      </trkpt>
      <trkpt lat="46.71187" lon="5.61644">
        <ele>492</ele>
        <time>2019-07-29T11:35:29.000Z</time>
      </trkpt>
      <trkpt lat="46.71186" lon="5.61631">
        <ele>493.2</ele>
        <time>2019-07-29T11:35:39.000Z</time>
      </trkpt>
      <trkpt lat="46.71182" lon="5.61609">
        <ele>495</ele>
        <time>2019-07-29T11:35:56.000Z</time>
      </trkpt>
      <trkpt lat="46.71179" lon="5.616">
        <ele>497</ele>
        <time>2019-07-29T11:36:06.000Z</time>
      </trkpt>
      <trkpt lat="46.71179" lon="5.6159">
        <ele>497.3</ele>
        <time>2019-07-29T11:36:16.000Z</time>
      </trkpt>
      <trkpt lat="46.71183" lon="5.6158">
        <ele>498</ele>
        <time>2019-07-29T11:36:13.000Z</time>
      </trkpt>
      <trkpt lat="46.7119" lon="5.61574">
        <ele>496.8</ele>
        <time>2019-07-29T11:36:23.000Z</time>
      </trkpt>
      <trkpt lat="46.71197" lon="5.6157">
        <ele>496.4</ele>
        <time>2019-07-29T11:36:33.000Z</time>
      </trkpt>
      <trkpt lat="46.71216" lon="5.61566">
        <ele>502</ele>
        <time>2019-07-29T11:36:38.000Z</time>
      </trkpt>
      <trkpt lat="46.71225" lon="5.6156">
        <ele>495</ele>
        <time>2019-07-29T11:36:48.000Z</time>
      </trkpt>
      <trkpt lat="46.71234" lon="5.61559">
        <ele>502</ele>
        <time>2019-07-29T11:36:49.000Z</time>
      </trkpt>
      <trkpt lat="46.71261" lon="5.61548">
        <ele>497</ele>
        <time>2019-07-29T11:37:08.000Z</time>
      </trkpt>
      <trkpt lat="46.7127" lon="5.61546">
        <ele>490.3</ele>
        <time>2019-07-29T11:37:18.000Z</time>
      </trkpt>
      <trkpt lat="46.7127" lon="5.61545">
        <ele>490.2</ele>
        <time>2019-07-29T11:37:28.000Z</time>
      </trkpt>
      <trkpt lat="46.71273" lon="5.61544">
        <ele>490</ele>
        <time>2019-07-29T11:37:38.000Z</time>
      </trkpt>
      <trkpt lat="46.71273" lon="5.61543">
        <ele>489.9</ele>
        <time>2019-07-29T11:37:48.000Z</time>
      </trkpt>
      <trkpt lat="46.71274" lon="5.61543">
        <ele>489.8</ele>
        <time>2019-07-29T11:37:58.000Z</time>
      </trkpt>
      <trkpt lat="46.71279" lon="5.6154">
        <ele>488</ele>
        <time>2019-07-29T11:37:22.000Z</time>
      </trkpt>
      <trkpt lat="46.71288" lon="5.61537">
        <ele>489.5</ele>
        <time>2019-07-29T11:37:32.000Z</time>
      </trkpt>
      <trkpt lat="46.71296" lon="5.61532">
        <ele>489.3</ele>
        <time>2019-07-29T11:37:42.000Z</time>
      </trkpt>
      <trkpt lat="46.71303" lon="5.61526">
        <ele>488</ele>
        <time>2019-07-29T11:37:38.000Z</time>
      </trkpt>
      <trkpt lat="46.71312" lon="5.61521">
        <ele>488.6</ele>
        <time>2019-07-29T11:37:48.000Z</time>
      </trkpt>
      <trkpt lat="46.71331" lon="5.61513">
        <ele>494</ele>
        <time>2019-07-29T11:37:57.000Z</time>
      </trkpt>
      <trkpt lat="46.7134" lon="5.61507">
        <ele>489.2</ele>
        <time>2019-07-29T11:38:07.000Z</time>
      </trkpt>
      <trkpt lat="46.71342" lon="5.61507">
        <ele>489.2</ele>
        <time>2019-07-29T11:38:17.000Z</time>
      </trkpt>
      <trkpt lat="46.71342" lon="5.61506">
        <ele>489.2</ele>
        <time>2019-07-29T11:38:27.000Z</time>
      </trkpt>
      <trkpt lat="46.71343" lon="5.61506">
        <ele>489.3</ele>
        <time>2019-07-29T11:38:37.000Z</time>
      </trkpt>
      <trkpt lat="46.7135" lon="5.61502">
        <ele>494</ele>
        <time>2019-07-29T11:38:13.000Z</time>
      </trkpt>
      <trkpt lat="46.71359" lon="5.615">
        <ele>489.9</ele>
        <time>2019-07-29T11:38:23.000Z</time>
      </trkpt>
      <trkpt lat="46.71373" lon="5.61486">
        <ele>497</ele>
        <time>2019-07-29T11:38:45.000Z</time>
      </trkpt>
      <trkpt lat="46.71382" lon="5.6148">
        <ele>490.5</ele>
        <time>2019-07-29T11:38:55.000Z</time>
      </trkpt>
      <trkpt lat="46.7139" lon="5.61473">
        <ele>500</ele>
        <time>2019-07-29T11:38:58.000Z</time>
      </trkpt>
      <trkpt lat="46.71397" lon="5.61464">
        <ele>491.2</ele>
        <time>2019-07-29T11:39:08.000Z</time>
      </trkpt>
      <trkpt lat="46.71401" lon="5.61452">
        <ele>491.9</ele>
        <time>2019-07-29T11:39:18.000Z</time>
      </trkpt>
      <trkpt lat="46.71404" lon="5.61439">
        <ele>506</ele>
        <time>2019-07-29T11:39:28.000Z</time>
      </trkpt>
      <trkpt lat="46.71402" lon="5.61423">
        <ele>494.8</ele>
        <time>2019-07-29T11:39:38.000Z</time>
      </trkpt>
      <trkpt lat="46.71399" lon="5.6141">
        <ele>508</ele>
        <time>2019-07-29T11:39:48.000Z</time>
      </trkpt>
      <trkpt lat="46.714" lon="5.61396">
        <ele>496.9</ele>
        <time>2019-07-29T11:39:58.000Z</time>
      </trkpt>
      <trkpt lat="46.71402" lon="5.61382">
        <ele>508</ele>
        <time>2019-07-29T11:40:08.000Z</time>
      </trkpt>
      <trkpt lat="46.71403" lon="5.61369">
        <ele>498.2</ele>
        <time>2019-07-29T11:40:18.000Z</time>
      </trkpt>
      <trkpt lat="46.71408" lon="5.61354">
        <ele>508</ele>
        <time>2019-07-29T11:40:28.000Z</time>
      </trkpt>
      <trkpt lat="46.7141" lon="5.61352">
        <ele>498.5</ele>
        <time>2019-07-29T11:40:38.000Z</time>
      </trkpt>
      <trkpt lat="46.7141" lon="5.61351">
        <ele>498.5</ele>
        <time>2019-07-29T11:40:48.000Z</time>
      </trkpt>
      <trkpt lat="46.71415" lon="5.61346">
        <ele>498.4</ele>
        <time>2019-07-29T11:40:58.000Z</time>
      </trkpt>
      <trkpt lat="46.71425" lon="5.61343">
        <ele>505</ele>
        <time>2019-07-29T11:41:08.000Z</time>
      </trkpt>
      <trkpt lat="46.71435" lon="5.61339">
        <ele>498.2</ele>
        <time>2019-07-29T11:41:18.000Z</time>
      </trkpt>
      <trkpt lat="46.71436" lon="5.61338">
        <ele>498.2</ele>
        <time>2019-07-29T11:41:28.000Z</time>
      </trkpt>
      <trkpt lat="46.71437" lon="5.61338">
        <ele>498.2</ele>
        <time>2019-07-29T11:41:38.000Z</time>
      </trkpt>
      <trkpt lat="46.71437" lon="5.61337">
        <ele>498.1</ele>
        <time>2019-07-29T11:41:48.000Z</time>
      </trkpt>
      <trkpt lat="46.71438" lon="5.61337">
        <ele>498.1</ele>
        <time>2019-07-29T11:41:58.000Z</time>
      </trkpt>
      <trkpt lat="46.71445" lon="5.61333">
        <ele>503</ele>
        <time>2019-07-29T11:42:08.000Z</time>
      </trkpt>
      <trkpt lat="46.71455" lon="5.6133">
        <ele>498.1</ele>
        <time>2019-07-29T11:42:18.000Z</time>
      </trkpt>
      <trkpt lat="46.71456" lon="5.61329">
        <ele>498.1</ele>
        <time>2019-07-29T11:42:28.000Z</time>
      </trkpt>
      <trkpt lat="46.71465" lon="5.61328">
        <ele>499</ele>
        <time>2019-07-29T11:42:38.000Z</time>
      </trkpt>
      <trkpt lat="46.71478" lon="5.61328">
        <ele>498</ele>
        <time>2019-07-29T11:42:48.000Z</time>
      </trkpt>
      <trkpt lat="46.71479" lon="5.61329">
        <ele>498</ele>
        <time>2019-07-29T11:42:58.000Z</time>
      </trkpt>
      <trkpt lat="46.71488" lon="5.61329">
        <ele>499</ele>
        <time>2019-07-29T11:43:08.000Z</time>
      </trkpt>
      <trkpt lat="46.71489" lon="5.61328">
        <ele>498</ele>
        <time>2019-07-29T11:43:18.000Z</time>
      </trkpt>
      <trkpt lat="46.71498" lon="5.61326">
        <ele>498</ele>
        <time>2019-07-29T11:43:28.000Z</time>
      </trkpt>
      <trkpt lat="46.71507" lon="5.61325">
        <ele>499</ele>
        <time>2019-07-29T11:43:38.000Z</time>
      </trkpt>
      <trkpt lat="46.71517" lon="5.61321">
        <ele>497.7</ele>
        <time>2019-07-29T11:43:48.000Z</time>
      </trkpt>
      <trkpt lat="46.71517" lon="5.6132">
        <ele>497.7</ele>
        <time>2019-07-29T11:43:58.000Z</time>
      </trkpt>
      <trkpt lat="46.71518" lon="5.6132">
        <ele>497.7</ele>
        <time>2019-07-29T11:44:08.000Z</time>
      </trkpt>
      <trkpt lat="46.71518" lon="5.61319">
        <ele>497.7</ele>
        <time>2019-07-29T11:44:18.000Z</time>
      </trkpt>
      <trkpt lat="46.71519" lon="5.61319">
        <ele>497.6</ele>
        <time>2019-07-29T11:44:28.000Z</time>
      </trkpt>
      <trkpt lat="46.71519" lon="5.61317">
        <ele>497.6</ele>
        <time>2019-07-29T11:44:38.000Z</time>
      </trkpt>
      <trkpt lat="46.7152" lon="5.61317">
        <ele>497.6</ele>
        <time>2019-07-29T11:44:48.000Z</time>
      </trkpt>
      <trkpt lat="46.7152" lon="5.61316">
        <ele>497.6</ele>
        <time>2019-07-29T11:44:58.000Z</time>
      </trkpt>
      <trkpt lat="46.71521" lon="5.61316">
        <ele>497.5</ele>
        <time>2019-07-29T11:45:08.000Z</time>
      </trkpt>
      <trkpt lat="46.71521" lon="5.61315">
        <ele>500</ele>
        <time>2019-07-29T11:45:18.000Z</time>
      </trkpt>
      <trkpt lat="46.71526" lon="5.61308">
        <ele>497.1</ele>
        <time>2019-07-29T11:45:28.000Z</time>
      </trkpt>
      <trkpt lat="46.71526" lon="5.61307">
        <ele>497.1</ele>
        <time>2019-07-29T11:45:38.000Z</time>
      </trkpt>
      <trkpt lat="46.71528" lon="5.61304">
        <ele>497</ele>
        <time>2019-07-29T11:45:48.000Z</time>
      </trkpt>
      <trkpt lat="46.71528" lon="5.61303">
        <ele>497</ele>
        <time>2019-07-29T11:45:58.000Z</time>
      </trkpt>
      <trkpt lat="46.71532" lon="5.61296">
        <ele>497.2</ele>
        <time>2019-07-29T11:46:08.000Z</time>
      </trkpt>
      <trkpt lat="46.71533" lon="5.61296">
        <ele>497.2</ele>
        <time>2019-07-29T11:46:18.000Z</time>
      </trkpt>
      <trkpt lat="46.71534" lon="5.61293">
        <ele>506</ele>
        <time>2019-07-29T11:46:28.000Z</time>
      </trkpt>
      <trkpt lat="46.71535" lon="5.61293">
        <ele>497.3</ele>
        <time>2019-07-29T11:46:38.000Z</time>
      </trkpt>
      <trkpt lat="46.71535" lon="5.61292">
        <ele>497.3</ele>
        <time>2019-07-29T11:46:48.000Z</time>
      </trkpt>
      <trkpt lat="46.7154" lon="5.61285">
        <ele>497.4</ele>
        <time>2019-07-29T11:46:58.000Z</time>
      </trkpt>
      <trkpt lat="46.7154" lon="5.61284">
        <ele>497.4</ele>
        <time>2019-07-29T11:47:08.000Z</time>
      </trkpt>
      <trkpt lat="46.71542" lon="5.61282">
        <ele>497.5</ele>
        <time>2019-07-29T11:47:18.000Z</time>
      </trkpt>
      <trkpt lat="46.71542" lon="5.6128">
        <ele>497.5</ele>
        <time>2019-07-29T11:47:28.000Z</time>
      </trkpt>
      <trkpt lat="46.71546" lon="5.61274">
        <ele>506</ele>
        <time>2019-07-29T11:47:38.000Z</time>
      </trkpt>
      <trkpt lat="46.71552" lon="5.61261">
        <ele>497.3</ele>
        <time>2019-07-29T11:47:48.000Z</time>
      </trkpt>
      <trkpt lat="46.71552" lon="5.6126">
        <ele>497.3</ele>
        <time>2019-07-29T11:47:58.000Z</time>
      </trkpt>
      <trkpt lat="46.71553" lon="5.61259">
        <ele>497.3</ele>
        <time>2019-07-29T11:48:08.000Z</time>
      </trkpt>
      <trkpt lat="46.71553" lon="5.61257">
        <ele>497.2</ele>
        <time>2019-07-29T11:48:18.000Z</time>
      </trkpt>
      <trkpt lat="46.71554" lon="5.61256">
        <ele>497.2</ele>
        <time>2019-07-29T11:48:28.000Z</time>
      </trkpt>
      <trkpt lat="46.71554" lon="5.61255">
        <ele>497.2</ele>
        <time>2019-07-29T11:48:38.000Z</time>
      </trkpt>
      <trkpt lat="46.71567" lon="5.61225">
        <ele>511</ele>
        <time>2019-07-29T11:43:50.000Z</time>
      </trkpt>
      <trkpt lat="46.71571" lon="5.61212">
        <ele>497.6</ele>
        <time>2019-07-29T11:44:00.000Z</time>
      </trkpt>
      <trkpt lat="46.71573" lon="5.61198">
        <ele>513</ele>
        <time>2019-07-29T11:44:10.000Z</time>
      </trkpt>
      <trkpt lat="46.71577" lon="5.61182">
        <ele>497.9</ele>
        <time>2019-07-29T11:44:20.000Z</time>
      </trkpt>
      <trkpt lat="46.71578" lon="5.61181">
        <ele>497.9</ele>
        <time>2019-07-29T11:44:30.000Z</time>
      </trkpt>
      <trkpt lat="46.71578" lon="5.61179">
        <ele>497.9</ele>
        <time>2019-07-29T11:44:40.000Z</time>
      </trkpt>
      <trkpt lat="46.71579" lon="5.61178">
        <ele>497.9</ele>
        <time>2019-07-29T11:44:50.000Z</time>
      </trkpt>
      <trkpt lat="46.71579" lon="5.61177">
        <ele>497.9</ele>
        <time>2019-07-29T11:45:00.000Z</time>
      </trkpt>
      <trkpt lat="46.71582" lon="5.6117">
        <ele>514</ele>
        <time>2019-07-29T11:44:24.000Z</time>
      </trkpt>
      <trkpt lat="46.71591" lon="5.6116">
        <ele>498.3</ele>
        <time>2019-07-29T11:44:34.000Z</time>
      </trkpt>
      <trkpt lat="46.71594" lon="5.61157">
        <ele>498.4</ele>
        <time>2019-07-29T11:44:44.000Z</time>
      </trkpt>
      <trkpt lat="46.71595" lon="5.61157">
        <ele>498.4</ele>
        <time>2019-07-29T11:44:54.000Z</time>
      </trkpt>
      <trkpt lat="46.71595" lon="5.61156">
        <ele>498.4</ele>
        <time>2019-07-29T11:45:04.000Z</time>
      </trkpt>
      <trkpt lat="46.716" lon="5.61152">
        <ele>515</ele>
        <time>2019-07-29T11:44:38.000Z</time>
      </trkpt>
      <trkpt lat="46.71602" lon="5.61152">
        <ele>498.7</ele>
        <time>2019-07-29T11:44:48.000Z</time>
      </trkpt>
      <trkpt lat="46.71602" lon="5.61151">
        <ele>498.7</ele>
        <time>2019-07-29T11:44:58.000Z</time>
      </trkpt>
      <trkpt lat="46.71605" lon="5.61151">
        <ele>498.8</ele>
        <time>2019-07-29T11:45:08.000Z</time>
      </trkpt>
      <trkpt lat="46.71605" lon="5.6115">
        <ele>498.8</ele>
        <time>2019-07-29T11:45:18.000Z</time>
      </trkpt>
      <trkpt lat="46.71611" lon="5.61149">
        <ele>499</ele>
        <time>2019-07-29T11:45:28.000Z</time>
      </trkpt>
      <trkpt lat="46.71621" lon="5.61145">
        <ele>512</ele>
        <time>2019-07-29T11:44:54.000Z</time>
      </trkpt>
      <trkpt lat="46.71622" lon="5.61144">
        <ele>499</ele>
        <time>2019-07-29T11:45:04.000Z</time>
      </trkpt>
      <trkpt lat="46.71624" lon="5.61144">
        <ele>499</ele>
        <time>2019-07-29T11:45:14.000Z</time>
      </trkpt>
      <trkpt lat="46.71625" lon="5.61143">
        <ele>499</ele>
        <time>2019-07-29T11:45:24.000Z</time>
      </trkpt>
      <trkpt lat="46.71633" lon="5.61141">
        <ele>499</ele>
        <time>2019-07-29T11:45:34.000Z</time>
      </trkpt>
      <trkpt lat="46.71636" lon="5.61138">
        <ele>499</ele>
        <time>2019-07-29T11:45:44.000Z</time>
      </trkpt>
      <trkpt lat="46.71637" lon="5.61138">
        <ele>499</ele>
        <time>2019-07-29T11:45:54.000Z</time>
      </trkpt>
      <trkpt lat="46.71643" lon="5.61133">
        <ele>510</ele>
        <time>2019-07-29T11:45:09.000Z</time>
      </trkpt>
      <trkpt lat="46.71644" lon="5.61133">
        <ele>498.5</ele>
        <time>2019-07-29T11:45:19.000Z</time>
      </trkpt>
      <trkpt lat="46.71646" lon="5.61131">
        <ele>498.3</ele>
        <time>2019-07-29T11:45:29.000Z</time>
      </trkpt>
      <trkpt lat="46.71647" lon="5.61131">
        <ele>498.2</ele>
        <time>2019-07-29T11:45:39.000Z</time>
      </trkpt>
      <trkpt lat="46.71653" lon="5.61127">
        <ele>497.8</ele>
        <time>2019-07-29T11:45:49.000Z</time>
      </trkpt>
      <trkpt lat="46.71658" lon="5.61127">
        <ele>497.5</ele>
        <time>2019-07-29T11:45:59.000Z</time>
      </trkpt>
      <trkpt lat="46.71664" lon="5.61128">
        <ele>507</ele>
        <time>2019-07-29T11:45:22.000Z</time>
      </trkpt>
      <trkpt lat="46.71669" lon="5.61128">
        <ele>496.8</ele>
        <time>2019-07-29T11:45:32.000Z</time>
      </trkpt>
      <trkpt lat="46.71676" lon="5.6113">
        <ele>496.2</ele>
        <time>2019-07-29T11:45:42.000Z</time>
      </trkpt>
      <trkpt lat="46.71677" lon="5.61131">
        <ele>496.2</ele>
        <time>2019-07-29T11:45:52.000Z</time>
      </trkpt>
      <trkpt lat="46.71679" lon="5.61131">
        <ele>496</ele>
        <time>2019-07-29T11:46:02.000Z</time>
      </trkpt>
      <trkpt lat="46.71685" lon="5.61135">
        <ele>505</ele>
        <time>2019-07-29T11:45:35.000Z</time>
      </trkpt>
      <trkpt lat="46.71695" lon="5.61145">
        <ele>495.2</ele>
        <time>2019-07-29T11:45:45.000Z</time>
      </trkpt>
      <trkpt lat="46.71698" lon="5.61146">
        <ele>494.8</ele>
        <time>2019-07-29T11:45:55.000Z</time>
      </trkpt>
      <trkpt lat="46.71698" lon="5.61147">
        <ele>494.9</ele>
        <time>2019-07-29T11:46:05.000Z</time>
      </trkpt>
      <trkpt lat="46.71703" lon="5.61151">
        <ele>505</ele>
        <time>2019-07-29T11:45:46.000Z</time>
      </trkpt>
      <trkpt lat="46.71714" lon="5.61155">
        <ele>493.1</ele>
        <time>2019-07-29T11:45:56.000Z</time>
      </trkpt>
      <trkpt lat="46.71717" lon="5.61155">
        <ele>492.7</ele>
        <time>2019-07-29T11:46:06.000Z</time>
      </trkpt>
      <trkpt lat="46.71717" lon="5.61156">
        <ele>492.7</ele>
        <time>2019-07-29T11:46:16.000Z</time>
      </trkpt>
      <trkpt lat="46.71725" lon="5.61157">
        <ele>505</ele>
        <time>2019-07-29T11:46:01.000Z</time>
      </trkpt>
      <trkpt lat="46.71725" lon="5.61156">
        <ele>491.6</ele>
        <time>2019-07-29T11:46:11.000Z</time>
      </trkpt>
      <trkpt lat="46.71728" lon="5.61156">
        <ele>491.2</ele>
        <time>2019-07-29T11:46:21.000Z</time>
      </trkpt>
      <trkpt lat="46.71728" lon="5.61155">
        <ele>491.2</ele>
        <time>2019-07-29T11:46:31.000Z</time>
      </trkpt>
      <trkpt lat="46.71735" lon="5.61153">
        <ele>490.2</ele>
        <time>2019-07-29T11:46:41.000Z</time>
      </trkpt>
      <trkpt lat="46.71737" lon="5.61151">
        <ele>489.8</ele>
        <time>2019-07-29T11:46:51.000Z</time>
      </trkpt>
      <trkpt lat="46.71738" lon="5.61151">
        <ele>489.7</ele>
        <time>2019-07-29T11:47:01.000Z</time>
      </trkpt>
      <trkpt lat="46.71745" lon="5.61146">
        <ele>500</ele>
        <time>2019-07-29T11:46:18.000Z</time>
      </trkpt>
      <trkpt lat="46.71748" lon="5.61143">
        <ele>487.6</ele>
        <time>2019-07-29T11:46:28.000Z</time>
      </trkpt>
      <trkpt lat="46.71749" lon="5.61143">
        <ele>487.5</ele>
        <time>2019-07-29T11:46:38.000Z</time>
      </trkpt>
      <trkpt lat="46.71753" lon="5.61139">
        <ele>486.6</ele>
        <time>2019-07-29T11:46:48.000Z</time>
      </trkpt>
      <trkpt lat="46.71769" lon="5.61136">
        <ele>500</ele>
        <time>2019-07-29T11:46:39.000Z</time>
      </trkpt>
      <trkpt lat="46.71784" lon="5.61127">
        <ele>481</ele>
        <time>2019-07-29T11:46:49.000Z</time>
      </trkpt>
      <trkpt lat="46.71787" lon="5.61127">
        <ele>492</ele>
        <time>2019-07-29T11:46:48.000Z</time>
      </trkpt>
      <trkpt lat="46.71795" lon="5.61122">
        <ele>479.4</ele>
        <time>2019-07-29T11:46:58.000Z</time>
      </trkpt>
      <trkpt lat="46.71796" lon="5.61122">
        <ele>479.3</ele>
        <time>2019-07-29T11:47:08.000Z</time>
      </trkpt>
      <trkpt lat="46.71813" lon="5.61105">
        <ele>489</ele>
        <time>2019-07-29T11:47:04.000Z</time>
      </trkpt>
      <trkpt lat="46.71813" lon="5.61104">
        <ele>477</ele>
        <time>2019-07-29T11:47:14.000Z</time>
      </trkpt>
      <trkpt lat="46.71814" lon="5.61104">
        <ele>476.9</ele>
        <time>2019-07-29T11:47:24.000Z</time>
      </trkpt>
      <trkpt lat="46.71814" lon="5.61103">
        <ele>476.8</ele>
        <time>2019-07-29T11:47:34.000Z</time>
      </trkpt>
      <trkpt lat="46.71819" lon="5.61096">
        <ele>475.9</ele>
        <time>2019-07-29T11:47:44.000Z</time>
      </trkpt>
      <trkpt lat="46.71828" lon="5.61088">
        <ele>482</ele>
        <time>2019-07-29T11:47:15.000Z</time>
      </trkpt>
      <trkpt lat="46.71836" lon="5.61084">
        <ele>473.8</ele>
        <time>2019-07-29T11:47:25.000Z</time>
      </trkpt>
      <trkpt lat="46.71844" lon="5.61075">
        <ele>482</ele>
        <time>2019-07-29T11:47:27.000Z</time>
      </trkpt>
      <trkpt lat="46.71845" lon="5.61075">
        <ele>471.8</ele>
        <time>2019-07-29T11:47:37.000Z</time>
      </trkpt>
      <trkpt lat="46.71846" lon="5.61072">
        <ele>471.4</ele>
        <time>2019-07-29T11:47:47.000Z</time>
      </trkpt>
      <trkpt lat="46.71847" lon="5.61072">
        <ele>471.3</ele>
        <time>2019-07-29T11:47:57.000Z</time>
      </trkpt>
      <trkpt lat="46.71847" lon="5.61071">
        <ele>471.2</ele>
        <time>2019-07-29T11:48:07.000Z</time>
      </trkpt>
      <trkpt lat="46.71852" lon="5.61065">
        <ele>470</ele>
        <time>2019-07-29T11:48:17.000Z</time>
      </trkpt>
      <trkpt lat="46.71852" lon="5.61064">
        <ele>469.9</ele>
        <time>2019-07-29T11:48:27.000Z</time>
      </trkpt>
      <trkpt lat="46.71855" lon="5.61063">
        <ele>469.5</ele>
        <time>2019-07-29T11:48:37.000Z</time>
      </trkpt>
      <trkpt lat="46.71855" lon="5.61062">
        <ele>469.4</ele>
        <time>2019-07-29T11:48:47.000Z</time>
      </trkpt>
      <trkpt lat="46.71856" lon="5.61062">
        <ele>469.2</ele>
        <time>2019-07-29T11:48:57.000Z</time>
      </trkpt>
      <trkpt lat="46.71861" lon="5.61059">
        <ele>481</ele>
        <time>2019-07-29T11:47:41.000Z</time>
      </trkpt>
      <trkpt lat="46.71872" lon="5.61055">
        <ele>467.2</ele>
        <time>2019-07-29T11:47:51.000Z</time>
      </trkpt>
      <trkpt lat="46.71881" lon="5.61054">
        <ele>472</ele>
        <time>2019-07-29T11:47:54.000Z</time>
      </trkpt>
      <trkpt lat="46.71892" lon="5.61054">
        <ele>465.8</ele>
        <time>2019-07-29T11:48:04.000Z</time>
      </trkpt>
      <trkpt lat="46.71893" lon="5.61053">
        <ele>465.8</ele>
        <time>2019-07-29T11:48:14.000Z</time>
      </trkpt>
      <trkpt lat="46.71905" lon="5.61053">
        <ele>472</ele>
        <time>2019-07-29T11:48:10.000Z</time>
      </trkpt>
      <trkpt lat="46.71905" lon="5.61052">
        <ele>465.8</ele>
        <time>2019-07-29T11:48:20.000Z</time>
      </trkpt>
      <trkpt lat="46.71912" lon="5.61051">
        <ele>465.8</ele>
        <time>2019-07-29T11:48:30.000Z</time>
      </trkpt>
      <trkpt lat="46.7192" lon="5.61054">
        <ele>465.8</ele>
        <time>2019-07-29T11:48:40.000Z</time>
      </trkpt>
      <trkpt lat="46.71934" lon="5.61041">
        <ele>470</ele>
        <time>2019-07-29T11:49:31.000Z</time>
      </trkpt>
      <trkpt lat="46.71938" lon="5.61034">
        <ele>465.6</ele>
        <time>2019-07-29T11:49:41.000Z</time>
      </trkpt>
      <trkpt lat="46.71943" lon="5.6099">
        <ele>468</ele>
        <time>2019-07-29T11:50:00.000Z</time>
      </trkpt>
      <trkpt lat="46.71947" lon="5.60978">
        <ele>466.1</ele>
        <time>2019-07-29T11:50:10.000Z</time>
      </trkpt>
      <trkpt lat="46.71948" lon="5.60978">
        <ele>466.1</ele>
        <time>2019-07-29T11:50:20.000Z</time>
      </trkpt>
      <trkpt lat="46.71949" lon="5.60975">
        <ele>466.2</ele>
        <time>2019-07-29T11:50:30.000Z</time>
      </trkpt>
      <trkpt lat="46.7195" lon="5.60975">
        <ele>466.2</ele>
        <time>2019-07-29T11:50:40.000Z</time>
      </trkpt>
      <trkpt lat="46.7195" lon="5.60974">
        <ele>466.2</ele>
        <time>2019-07-29T11:50:50.000Z</time>
      </trkpt>
      <trkpt lat="46.71953" lon="5.60968">
        <ele>468</ele>
        <time>2019-07-29T11:50:16.000Z</time>
      </trkpt>
      <trkpt lat="46.71953" lon="5.60967">
        <ele>466.3</ele>
        <time>2019-07-29T11:50:26.000Z</time>
      </trkpt>
      <trkpt lat="46.71952" lon="5.60966">
        <ele>466.2</ele>
        <time>2019-07-29T11:50:36.000Z</time>
      </trkpt>
      <trkpt lat="46.71952" lon="5.60965">
        <ele>466.2</ele>
        <time>2019-07-29T11:50:46.000Z</time>
      </trkpt>
      <trkpt lat="46.71951" lon="5.60965">
        <ele>466.2</ele>
        <time>2019-07-29T11:50:56.000Z</time>
      </trkpt>
      <trkpt lat="46.7195" lon="5.60962">
        <ele>466.1</ele>
        <time>2019-07-29T11:51:06.000Z</time>
      </trkpt>
      <trkpt lat="46.71934" lon="5.60938">
        <ele>473</ele>
        <time>2019-07-29T11:50:34.000Z</time>
      </trkpt>
      <trkpt lat="46.7193" lon="5.6093">
        <ele>465.5</ele>
        <time>2019-07-29T11:50:44.000Z</time>
      </trkpt>
      <trkpt lat="46.7192" lon="5.60915">
        <ele>473</ele>
        <time>2019-07-29T11:50:48.000Z</time>
      </trkpt>
      <trkpt lat="46.71914" lon="5.60892">
        <ele>467.1</ele>
        <time>2019-07-29T11:50:58.000Z</time>
      </trkpt>
      <trkpt lat="46.71912" lon="5.60855">
        <ele>472</ele>
        <time>2019-07-29T11:51:17.000Z</time>
      </trkpt>
      <trkpt lat="46.71915" lon="5.60844">
        <ele>467.8</ele>
        <time>2019-07-29T11:51:27.000Z</time>
      </trkpt>
      <trkpt lat="46.71917" lon="5.60832">
        <ele>468.1</ele>
        <time>2019-07-29T11:51:37.000Z</time>
      </trkpt>
      <trkpt lat="46.71918" lon="5.60822">
        <ele>472</ele>
        <time>2019-07-29T11:51:34.000Z</time>
      </trkpt>
      <trkpt lat="46.71922" lon="5.608">
        <ele>471</ele>
        <time>2019-07-29T11:51:44.000Z</time>
      </trkpt>
      <trkpt lat="46.71924" lon="5.60786">
        <ele>472</ele>
        <time>2019-07-29T11:51:49.000Z</time>
      </trkpt>
      <trkpt lat="46.71927" lon="5.60774">
        <ele>472.2</ele>
        <time>2019-07-29T11:51:59.000Z</time>
      </trkpt>
      <trkpt lat="46.71932" lon="5.60761">
        <ele>473</ele>
        <time>2019-07-29T11:52:03.000Z</time>
      </trkpt>
      <trkpt lat="46.71936" lon="5.60748">
        <ele>473.4</ele>
        <time>2019-07-29T11:52:13.000Z</time>
      </trkpt>
      <trkpt lat="46.71938" lon="5.60734">
        <ele>474</ele>
        <time>2019-07-29T11:52:18.000Z</time>
      </trkpt>
      <trkpt lat="46.71943" lon="5.60719">
        <ele>474.6</ele>
        <time>2019-07-29T11:52:28.000Z</time>
      </trkpt>
      <trkpt lat="46.71944" lon="5.60718">
        <ele>474.5</ele>
        <time>2019-07-29T11:52:38.000Z</time>
      </trkpt>
      <trkpt lat="46.71944" lon="5.60716">
        <ele>474.7</ele>
        <time>2019-07-29T11:52:48.000Z</time>
      </trkpt>
      <trkpt lat="46.71945" lon="5.60715">
        <ele>474.7</ele>
        <time>2019-07-29T11:52:58.000Z</time>
      </trkpt>
      <trkpt lat="46.71947" lon="5.60707">
        <ele>474</ele>
        <time>2019-07-29T11:52:33.000Z</time>
      </trkpt>
      <trkpt lat="46.71951" lon="5.60696">
        <ele>476.1</ele>
        <time>2019-07-29T11:52:43.000Z</time>
      </trkpt>
      <trkpt lat="46.71954" lon="5.60679">
        <ele>474</ele>
        <time>2019-07-29T11:52:53.000Z</time>
      </trkpt>
      <trkpt lat="46.71955" lon="5.60678">
        <ele>475.1</ele>
        <time>2019-07-29T11:53:03.000Z</time>
      </trkpt>
      <trkpt lat="46.71955" lon="5.60675">
        <ele>475</ele>
        <time>2019-07-29T11:53:13.000Z</time>
      </trkpt>
      <trkpt lat="46.71956" lon="5.60674">
        <ele>474.7</ele>
        <time>2019-07-29T11:53:23.000Z</time>
      </trkpt>
      <trkpt lat="46.71958" lon="5.60665">
        <ele>473.4</ele>
        <time>2019-07-29T11:53:33.000Z</time>
      </trkpt>
      <trkpt lat="46.71958" lon="5.60658">
        <ele>472.4</ele>
        <time>2019-07-29T11:53:43.000Z</time>
      </trkpt>
      <trkpt lat="46.71957" lon="5.60647">
        <ele>469</ele>
        <time>2019-07-29T11:53:03.000Z</time>
      </trkpt>
      <trkpt lat="46.71956" lon="5.60646">
        <ele>471.5</ele>
        <time>2019-07-29T11:53:13.000Z</time>
      </trkpt>
      <trkpt lat="46.71956" lon="5.60644">
        <ele>471.3</ele>
        <time>2019-07-29T11:53:23.000Z</time>
      </trkpt>
      <trkpt lat="46.71952" lon="5.60634">
        <ele>471.2</ele>
        <time>2019-07-29T11:53:33.000Z</time>
      </trkpt>
      <trkpt lat="46.7195" lon="5.60631">
        <ele>471.2</ele>
        <time>2019-07-29T11:53:43.000Z</time>
      </trkpt>
      <trkpt lat="46.7195" lon="5.60629">
        <ele>470.7</ele>
        <time>2019-07-29T11:53:53.000Z</time>
      </trkpt>
      <trkpt lat="46.71946" lon="5.60623">
        <ele>471</ele>
        <time>2019-07-29T11:53:11.000Z</time>
      </trkpt>
      <trkpt lat="46.71938" lon="5.60616">
        <ele>470.1</ele>
        <time>2019-07-29T11:53:21.000Z</time>
      </trkpt>
      <trkpt lat="46.71935" lon="5.60615">
        <ele>470.1</ele>
        <time>2019-07-29T11:53:31.000Z</time>
      </trkpt>
      <trkpt lat="46.71926" lon="5.60608">
        <ele>473</ele>
        <time>2019-07-29T11:53:21.000Z</time>
      </trkpt>
      <trkpt lat="46.71915" lon="5.60603">
        <ele>469.6</ele>
        <time>2019-07-29T11:53:31.000Z</time>
      </trkpt>
      <trkpt lat="46.71907" lon="5.60597">
        <ele>477</ele>
        <time>2019-07-29T11:53:30.000Z</time>
      </trkpt>
      <trkpt lat="46.71894" lon="5.60584">
        <ele>468.4</ele>
        <time>2019-07-29T11:53:40.000Z</time>
      </trkpt>
      <trkpt lat="46.71887" lon="5.60579">
        <ele>477</ele>
        <time>2019-07-29T11:53:39.000Z</time>
      </trkpt>
      <trkpt lat="46.7187" lon="5.60564">
        <ele>472</ele>
        <time>2019-07-29T11:53:47.000Z</time>
      </trkpt>
      <trkpt lat="46.71861" lon="5.60554">
        <ele>465.5</ele>
        <time>2019-07-29T11:53:57.000Z</time>
      </trkpt>
      <trkpt lat="46.71859" lon="5.60552">
        <ele>465.2</ele>
        <time>2019-07-29T11:54:07.000Z</time>
      </trkpt>
      <trkpt lat="46.71858" lon="5.60552">
        <ele>465.4</ele>
        <time>2019-07-29T11:54:17.000Z</time>
      </trkpt>
      <trkpt lat="46.71843" lon="5.60537">
        <ele>466</ele>
        <time>2019-07-29T11:54:00.000Z</time>
      </trkpt>
      <trkpt lat="46.71833" lon="5.60532">
        <ele>463.4</ele>
        <time>2019-07-29T11:54:10.000Z</time>
      </trkpt>
      <trkpt lat="46.71831" lon="5.6053">
        <ele>463</ele>
        <time>2019-07-29T11:54:20.000Z</time>
      </trkpt>
      <trkpt lat="46.7183" lon="5.6053">
        <ele>463.2</ele>
        <time>2019-07-29T11:54:30.000Z</time>
      </trkpt>
      <trkpt lat="46.71823" lon="5.60526">
        <ele>466</ele>
        <time>2019-07-29T11:54:09.000Z</time>
      </trkpt>
      <trkpt lat="46.71813" lon="5.60517">
        <ele>461.7</ele>
        <time>2019-07-29T11:54:19.000Z</time>
      </trkpt>
      <trkpt lat="46.71813" lon="5.60516">
        <ele>461.4</ele>
        <time>2019-07-29T11:54:29.000Z</time>
      </trkpt>
      <trkpt lat="46.71812" lon="5.60515">
        <ele>461.3</ele>
        <time>2019-07-29T11:54:39.000Z</time>
      </trkpt>
      <trkpt lat="46.71811" lon="5.60515">
        <ele>461.4</ele>
        <time>2019-07-29T11:54:49.000Z</time>
      </trkpt>
      <trkpt lat="46.71804" lon="5.60509">
        <ele>459</ele>
        <time>2019-07-29T11:54:19.000Z</time>
      </trkpt>
      <trkpt lat="46.71793" lon="5.60498">
        <ele>460.1</ele>
        <time>2019-07-29T11:54:29.000Z</time>
      </trkpt>
      <trkpt lat="46.71791" lon="5.60497">
        <ele>460.2</ele>
        <time>2019-07-29T11:54:39.000Z</time>
      </trkpt>
      <trkpt lat="46.71782" lon="5.60488">
        <ele>452</ele>
        <time>2019-07-29T11:54:30.000Z</time>
      </trkpt>
      <trkpt lat="46.71781" lon="5.60486">
        <ele>458.8</ele>
        <time>2019-07-29T11:54:40.000Z</time>
      </trkpt>
      <trkpt lat="46.71776" lon="5.6048">
        <ele>457.9</ele>
        <time>2019-07-29T11:54:50.000Z</time>
      </trkpt>
      <trkpt lat="46.71775" lon="5.6048">
        <ele>458.1</ele>
        <time>2019-07-29T11:55:00.000Z</time>
      </trkpt>
      <trkpt lat="46.71754" lon="5.6046">
        <ele>441</ele>
        <time>2019-07-29T11:54:43.000Z</time>
      </trkpt>
      <trkpt lat="46.71748" lon="5.60453">
        <ele>455</ele>
        <time>2019-07-29T11:54:53.000Z</time>
      </trkpt>
      <trkpt lat="46.71747" lon="5.60451">
        <ele>454.5</ele>
        <time>2019-07-29T11:55:03.000Z</time>
      </trkpt>
      <trkpt lat="46.71745" lon="5.6045">
        <ele>454.4</ele>
        <time>2019-07-29T11:55:13.000Z</time>
      </trkpt>
      <trkpt lat="46.71741" lon="5.60445">
        <ele>453.2</ele>
        <time>2019-07-29T11:55:23.000Z</time>
      </trkpt>
      <trkpt lat="46.71728" lon="5.60434">
        <ele>442</ele>
        <time>2019-07-29T11:54:55.000Z</time>
      </trkpt>
      <trkpt lat="46.71712" lon="5.60424">
        <ele>448.7</ele>
        <time>2019-07-29T11:55:05.000Z</time>
      </trkpt>
      <trkpt lat="46.7171" lon="5.60422">
        <ele>444</ele>
        <time>2019-07-29T11:55:02.000Z</time>
      </trkpt>
      <trkpt lat="46.71709" lon="5.60422">
        <ele>448.3</ele>
        <time>2019-07-29T11:55:12.000Z</time>
      </trkpt>
      <trkpt lat="46.717" lon="5.60413">
        <ele>446.1</ele>
        <time>2019-07-29T11:55:22.000Z</time>
      </trkpt>
      <trkpt lat="46.71684" lon="5.60399">
        <ele>451</ele>
        <time>2019-07-29T11:55:14.000Z</time>
      </trkpt>
      <trkpt lat="46.71682" lon="5.60399">
        <ele>443.8</ele>
        <time>2019-07-29T11:55:24.000Z</time>
      </trkpt>
      <trkpt lat="46.71679" lon="5.60396">
        <ele>443.1</ele>
        <time>2019-07-29T11:55:34.000Z</time>
      </trkpt>
      <trkpt lat="46.71673" lon="5.60392">
        <ele>442.4</ele>
        <time>2019-07-29T11:55:44.000Z</time>
      </trkpt>
      <trkpt lat="46.71665" lon="5.60383">
        <ele>451</ele>
        <time>2019-07-29T11:55:24.000Z</time>
      </trkpt>
      <trkpt lat="46.71646" lon="5.60366">
        <ele>447</ele>
        <time>2019-07-29T11:55:32.000Z</time>
      </trkpt>
      <trkpt lat="46.71637" lon="5.60359">
        <ele>432.4</ele>
        <time>2019-07-29T11:55:42.000Z</time>
      </trkpt>
      <trkpt lat="46.71616" lon="5.60345">
        <ele>447</ele>
        <time>2019-07-29T11:55:45.000Z</time>
      </trkpt>
      <trkpt lat="46.71609" lon="5.60339">
        <ele>429</ele>
        <time>2019-07-29T11:55:55.000Z</time>
      </trkpt>
      <trkpt lat="46.71607" lon="5.60336">
        <ele>428.2</ele>
        <time>2019-07-29T11:56:05.000Z</time>
      </trkpt>
      <trkpt lat="46.71605" lon="5.60335">
        <ele>428.3</ele>
        <time>2019-07-29T11:56:15.000Z</time>
      </trkpt>
      <trkpt lat="46.71597" lon="5.60327">
        <ele>447</ele>
        <time>2019-07-29T11:55:53.000Z</time>
      </trkpt>
      <trkpt lat="46.71596" lon="5.60325">
        <ele>426</ele>
        <time>2019-07-29T11:56:03.000Z</time>
      </trkpt>
      <trkpt lat="46.71581" lon="5.60312">
        <ele>429</ele>
        <time>2019-07-29T11:55:59.000Z</time>
      </trkpt>
      <trkpt lat="46.71572" lon="5.60301">
        <ele>420.4</ele>
        <time>2019-07-29T11:56:09.000Z</time>
      </trkpt>
      <trkpt lat="46.7157" lon="5.60301">
        <ele>420.9</ele>
        <time>2019-07-29T11:56:19.000Z</time>
      </trkpt>
      <trkpt lat="46.71569" lon="5.603">
        <ele>420.8</ele>
        <time>2019-07-29T11:56:29.000Z</time>
      </trkpt>
      <trkpt lat="46.71568" lon="5.603">
        <ele>421</ele>
        <time>2019-07-29T11:56:39.000Z</time>
      </trkpt>
      <trkpt lat="46.71562" lon="5.60296">
        <ele>431</ele>
        <time>2019-07-29T11:56:09.000Z</time>
      </trkpt>
      <trkpt lat="46.71561" lon="5.60296">
        <ele>421.3</ele>
        <time>2019-07-29T11:56:19.000Z</time>
      </trkpt>
      <trkpt lat="46.71559" lon="5.60294">
        <ele>421.1</ele>
        <time>2019-07-29T11:56:29.000Z</time>
      </trkpt>
      <trkpt lat="46.71558" lon="5.60294">
        <ele>421.3</ele>
        <time>2019-07-29T11:56:39.000Z</time>
      </trkpt>
      <trkpt lat="46.71553" lon="5.60291">
        <ele>421.5</ele>
        <time>2019-07-29T11:56:49.000Z</time>
      </trkpt>
      <trkpt lat="46.71534" lon="5.60273">
        <ele>430</ele>
        <time>2019-07-29T11:56:24.000Z</time>
      </trkpt>
      <trkpt lat="46.71524" lon="5.60261">
        <ele>418.3</ele>
        <time>2019-07-29T11:56:34.000Z</time>
      </trkpt>
      <trkpt lat="46.71523" lon="5.60259">
        <ele>417.8</ele>
        <time>2019-07-29T11:56:44.000Z</time>
      </trkpt>
      <trkpt lat="46.71517" lon="5.60252">
        <ele>430</ele>
        <time>2019-07-29T11:56:32.000Z</time>
      </trkpt>
      <trkpt lat="46.7151" lon="5.60242">
        <ele>415.1</ele>
        <time>2019-07-29T11:56:42.000Z</time>
      </trkpt>
      <trkpt lat="46.71507" lon="5.60239">
        <ele>415</ele>
        <time>2019-07-29T11:56:52.000Z</time>
      </trkpt>
      <trkpt lat="46.71499" lon="5.60227">
        <ele>426</ele>
        <time>2019-07-29T11:56:42.000Z</time>
      </trkpt>
      <trkpt lat="46.71486" lon="5.6021">
        <ele>412.1</ele>
        <time>2019-07-29T11:56:52.000Z</time>
      </trkpt>
      <trkpt lat="46.71474" lon="5.602">
        <ele>419</ele>
        <time>2019-07-29T11:56:53.000Z</time>
      </trkpt>
      <trkpt lat="46.71467" lon="5.60197">
        <ele>411</ele>
        <time>2019-07-29T11:57:03.000Z</time>
      </trkpt>
      <trkpt lat="46.71458" lon="5.60191">
        <ele>412.1</ele>
        <time>2019-07-29T11:57:13.000Z</time>
      </trkpt>
      <trkpt lat="46.71447" lon="5.60179">
        <ele>411</ele>
        <time>2019-07-29T11:57:05.000Z</time>
      </trkpt>
      <trkpt lat="46.71446" lon="5.60177">
        <ele>410.2</ele>
        <time>2019-07-29T11:57:15.000Z</time>
      </trkpt>
      <trkpt lat="46.7144" lon="5.6017">
        <ele>409</ele>
        <time>2019-07-29T11:57:25.000Z</time>
      </trkpt>
      <trkpt lat="46.71439" lon="5.60168">
        <ele>408.5</ele>
        <time>2019-07-29T11:57:35.000Z</time>
      </trkpt>
      <trkpt lat="46.71437" lon="5.60166">
        <ele>408.5</ele>
        <time>2019-07-29T11:57:45.000Z</time>
      </trkpt>
      <trkpt lat="46.71431" lon="5.60157">
        <ele>406</ele>
        <time>2019-07-29T11:57:13.000Z</time>
      </trkpt>
      <trkpt lat="46.71424" lon="5.60148">
        <ele>406.9</ele>
        <time>2019-07-29T11:57:23.000Z</time>
      </trkpt>
      <trkpt lat="46.71413" lon="5.60136">
        <ele>406</ele>
        <time>2019-07-29T11:57:21.000Z</time>
      </trkpt>
      <trkpt lat="46.71412" lon="5.60134">
        <ele>405.1</ele>
        <time>2019-07-29T11:57:31.000Z</time>
      </trkpt>
      <trkpt lat="46.7141" lon="5.60133">
        <ele>405.4</ele>
        <time>2019-07-29T11:57:41.000Z</time>
      </trkpt>
      <trkpt lat="46.71403" lon="5.60126">
        <ele>405</ele>
        <time>2019-07-29T11:57:51.000Z</time>
      </trkpt>
      <trkpt lat="46.714" lon="5.60124">
        <ele>405</ele>
        <time>2019-07-29T11:58:01.000Z</time>
      </trkpt>
      <trkpt lat="46.71392" lon="5.60119">
        <ele>407</ele>
        <time>2019-07-29T11:57:29.000Z</time>
      </trkpt>
      <trkpt lat="46.7139" lon="5.60119">
        <ele>404.9</ele>
        <time>2019-07-29T11:57:39.000Z</time>
      </trkpt>
      <trkpt lat="46.71389" lon="5.60118">
        <ele>404.7</ele>
        <time>2019-07-29T11:57:49.000Z</time>
      </trkpt>
      <trkpt lat="46.71372" lon="5.6011">
        <ele>404</ele>
        <time>2019-07-29T11:57:36.000Z</time>
      </trkpt>
      <trkpt lat="46.71364" lon="5.60103">
        <ele>405.5</ele>
        <time>2019-07-29T11:57:46.000Z</time>
      </trkpt>
      <trkpt lat="46.71358" lon="5.60093">
        <ele>404.2</ele>
        <time>2019-07-29T11:57:56.000Z</time>
      </trkpt>
      <trkpt lat="46.71352" lon="5.60081">
        <ele>402</ele>
        <time>2019-07-29T11:57:48.000Z</time>
      </trkpt>
      <trkpt lat="46.71346" lon="5.60073">
        <ele>400.9</ele>
        <time>2019-07-29T11:57:58.000Z</time>
      </trkpt>
      <trkpt lat="46.71338" lon="5.60064">
        <ele>399.2</ele>
        <time>2019-07-29T11:58:08.000Z</time>
      </trkpt>
      <trkpt lat="46.71333" lon="5.60054">
        <ele>397</ele>
        <time>2019-07-29T11:58:00.000Z</time>
      </trkpt>
      <trkpt lat="46.7132" lon="5.60036">
        <ele>394.3</ele>
        <time>2019-07-29T11:58:10.000Z</time>
      </trkpt>
      <trkpt lat="46.71314" lon="5.60024">
        <ele>393</ele>
        <time>2019-07-29T11:58:12.000Z</time>
      </trkpt>
      <trkpt lat="46.71314" lon="5.6002">
        <ele>391.1</ele>
        <time>2019-07-29T11:58:22.000Z</time>
      </trkpt>
      <trkpt lat="46.71315" lon="5.60018">
        <ele>390.8</ele>
        <time>2019-07-29T11:58:32.000Z</time>
      </trkpt>
      <trkpt lat="46.71316" lon="5.60008">
        <ele>389.3</ele>
        <time>2019-07-29T11:58:42.000Z</time>
      </trkpt>
      <trkpt lat="46.71315" lon="5.60006">
        <ele>388.9</ele>
        <time>2019-07-29T11:58:52.000Z</time>
      </trkpt>
      <trkpt lat="46.71315" lon="5.59993">
        <ele>388</ele>
        <time>2019-07-29T11:58:21.000Z</time>
      </trkpt>
      <trkpt lat="46.71308" lon="5.59981">
        <ele>385.1</ele>
        <time>2019-07-29T11:58:31.000Z</time>
      </trkpt>
      <trkpt lat="46.71305" lon="5.59978">
        <ele>384.9</ele>
        <time>2019-07-29T11:58:41.000Z</time>
      </trkpt>
      <trkpt lat="46.71305" lon="5.59977">
        <ele>384.7</ele>
        <time>2019-07-29T11:58:51.000Z</time>
      </trkpt>
      <trkpt lat="46.71295" lon="5.59967">
        <ele>382</ele>
        <time>2019-07-29T11:58:35.000Z</time>
      </trkpt>
      <trkpt lat="46.71294" lon="5.59965">
        <ele>384.3</ele>
        <time>2019-07-29T11:58:45.000Z</time>
      </trkpt>
      <trkpt lat="46.71288" lon="5.59958">
        <ele>383.7</ele>
        <time>2019-07-29T11:58:55.000Z</time>
      </trkpt>
      <trkpt lat="46.71285" lon="5.59956">
        <ele>383.6</ele>
        <time>2019-07-29T11:59:05.000Z</time>
      </trkpt>
      <trkpt lat="46.71284" lon="5.59954">
        <ele>383.3</ele>
        <time>2019-07-29T11:59:15.000Z</time>
      </trkpt>
      <trkpt lat="46.71278" lon="5.59948">
        <ele>376</ele>
        <time>2019-07-29T11:58:41.000Z</time>
      </trkpt>
      <trkpt lat="46.71275" lon="5.59943">
        <ele>382</ele>
        <time>2019-07-29T11:58:51.000Z</time>
      </trkpt>
      <trkpt lat="46.71266" lon="5.59934">
        <ele>380.7</ele>
        <time>2019-07-29T11:59:01.000Z</time>
      </trkpt>
      <trkpt lat="46.71259" lon="5.59929">
        <ele>373</ele>
        <time>2019-07-29T11:58:50.000Z</time>
      </trkpt>
      <trkpt lat="46.71246" lon="5.59924">
        <ele>377.9</ele>
        <time>2019-07-29T11:59:00.000Z</time>
      </trkpt>
      <trkpt lat="46.71238" lon="5.59919">
        <ele>374</ele>
        <time>2019-07-29T11:58:59.000Z</time>
      </trkpt>
      <trkpt lat="46.7123" lon="5.59905">
        <ele>374.9</ele>
        <time>2019-07-29T11:59:09.000Z</time>
      </trkpt>
      <trkpt lat="46.7123" lon="5.59903">
        <ele>374.7</ele>
        <time>2019-07-29T11:59:19.000Z</time>
      </trkpt>
      <trkpt lat="46.71227" lon="5.59895">
        <ele>371</ele>
        <time>2019-07-29T11:59:06.000Z</time>
      </trkpt>
      <trkpt lat="46.7122" lon="5.5988">
        <ele>372.9</ele>
        <time>2019-07-29T11:59:16.000Z</time>
      </trkpt>
      <trkpt lat="46.7122" lon="5.59879">
        <ele>372.7</ele>
        <time>2019-07-29T11:59:26.000Z</time>
      </trkpt>
      <trkpt lat="46.71212" lon="5.59866">
        <ele>369</ele>
        <time>2019-07-29T11:59:19.000Z</time>
      </trkpt>
      <trkpt lat="46.71211" lon="5.59866">
        <ele>370.9</ele>
        <time>2019-07-29T11:59:29.000Z</time>
      </trkpt>
      <trkpt lat="46.71199" lon="5.59855">
        <ele>368.9</ele>
        <time>2019-07-29T11:59:39.000Z</time>
      </trkpt>
      <trkpt lat="46.71192" lon="5.5985">
        <ele>369</ele>
        <time>2019-07-29T11:59:28.000Z</time>
      </trkpt>
      <trkpt lat="46.71181" lon="5.59845">
        <ele>367.6</ele>
        <time>2019-07-29T11:59:38.000Z</time>
      </trkpt>
      <trkpt lat="46.71179" lon="5.59843">
        <ele>367.3</ele>
        <time>2019-07-29T11:59:48.000Z</time>
      </trkpt>
      <trkpt lat="46.71177" lon="5.59843">
        <ele>367.4</ele>
        <time>2019-07-29T11:59:58.000Z</time>
      </trkpt>
      <trkpt lat="46.71171" lon="5.5984">
        <ele>368</ele>
        <time>2019-07-29T11:59:35.000Z</time>
      </trkpt>
      <trkpt lat="46.7116" lon="5.59836">
        <ele>366.8</ele>
        <time>2019-07-29T11:59:45.000Z</time>
      </trkpt>
      <trkpt lat="46.71159" lon="5.59835">
        <ele>366.6</ele>
        <time>2019-07-29T11:59:55.000Z</time>
      </trkpt>
      <trkpt lat="46.7115" lon="5.59831">
        <ele>368</ele>
        <time>2019-07-29T11:59:44.000Z</time>
      </trkpt>
      <trkpt lat="46.7114" lon="5.5983">
        <ele>366.4</ele>
        <time>2019-07-29T11:59:54.000Z</time>
      </trkpt>
      <trkpt lat="46.71131" lon="5.59826">
        <ele>368</ele>
        <time>2019-07-29T11:59:57.000Z</time>
      </trkpt>
      <trkpt lat="46.71123" lon="5.59826">
        <ele>365.8</ele>
        <time>2019-07-29T12:00:07.000Z</time>
      </trkpt>
      <trkpt lat="46.7111" lon="5.59823">
        <ele>367</ele>
        <time>2019-07-29T12:00:11.000Z</time>
      </trkpt>
      <trkpt lat="46.71103" lon="5.59823">
        <ele>365.7</ele>
        <time>2019-07-29T12:00:21.000Z</time>
      </trkpt>
      <trkpt lat="46.71097" lon="5.59819">
        <ele>365.2</ele>
        <time>2019-07-29T12:00:31.000Z</time>
      </trkpt>
      <trkpt lat="46.7109" lon="5.59816">
        <ele>367</ele>
        <time>2019-07-29T12:00:25.000Z</time>
      </trkpt>
      <trkpt lat="46.7108" lon="5.59808">
        <ele>363.5</ele>
        <time>2019-07-29T12:00:35.000Z</time>
      </trkpt>
      <trkpt lat="46.71077" lon="5.59807">
        <ele>363.5</ele>
        <time>2019-07-29T12:00:45.000Z</time>
      </trkpt>
      <trkpt lat="46.71072" lon="5.59804">
        <ele>367</ele>
        <time>2019-07-29T12:00:38.000Z</time>
      </trkpt>
      <trkpt lat="46.71054" lon="5.5978">
        <ele>359</ele>
        <time>2019-07-29T12:00:52.000Z</time>
      </trkpt>
      <trkpt lat="46.71048" lon="5.59767">
        <ele>358.4</ele>
        <time>2019-07-29T12:01:02.000Z</time>
      </trkpt>
      <trkpt lat="46.71048" lon="5.59764">
        <ele>358.1</ele>
        <time>2019-07-29T12:01:12.000Z</time>
      </trkpt>
      <trkpt lat="46.71047" lon="5.59763">
        <ele>358</ele>
        <time>2019-07-29T12:01:22.000Z</time>
      </trkpt>
      <trkpt lat="46.71047" lon="5.59761">
        <ele>357.8</ele>
        <time>2019-07-29T12:01:32.000Z</time>
      </trkpt>
      <trkpt lat="46.71043" lon="5.59749">
        <ele>356</ele>
        <time>2019-07-29T12:01:03.000Z</time>
      </trkpt>
      <trkpt lat="46.71043" lon="5.59747">
        <ele>356.5</ele>
        <time>2019-07-29T12:01:13.000Z</time>
      </trkpt>
      <trkpt lat="46.71042" lon="5.59746">
        <ele>356.4</ele>
        <time>2019-07-29T12:01:23.000Z</time>
      </trkpt>
      <trkpt lat="46.7104" lon="5.59736">
        <ele>355.2</ele>
        <time>2019-07-29T12:01:33.000Z</time>
      </trkpt>
      <trkpt lat="46.7104" lon="5.59734">
        <ele>355</ele>
        <time>2019-07-29T12:01:43.000Z</time>
      </trkpt>
      <trkpt lat="46.71039" lon="5.59732">
        <ele>354.8</ele>
        <time>2019-07-29T12:01:53.000Z</time>
      </trkpt>
      <trkpt lat="46.71039" lon="5.5973">
        <ele>354.6</ele>
        <time>2019-07-29T12:02:03.000Z</time>
      </trkpt>
      <trkpt lat="46.71037" lon="5.59721">
        <ele>354</ele>
        <time>2019-07-29T12:01:10.000Z</time>
      </trkpt>
      <trkpt lat="46.71037" lon="5.59702">
        <ele>349.9</ele>
        <time>2019-07-29T12:01:20.000Z</time>
      </trkpt>
      <trkpt lat="46.71038" lon="5.597">
        <ele>349.4</ele>
        <time>2019-07-29T12:01:30.000Z</time>
      </trkpt>
      <trkpt lat="46.71039" lon="5.5969">
        <ele>343</ele>
        <time>2019-07-29T12:01:19.000Z</time>
      </trkpt>
      <trkpt lat="46.71046" lon="5.59676">
        <ele>345.5</ele>
        <time>2019-07-29T12:01:29.000Z</time>
      </trkpt>
      <trkpt lat="46.71053" lon="5.59668">
        <ele>342</ele>
        <time>2019-07-29T12:01:27.000Z</time>
      </trkpt>
      <trkpt lat="46.7105" lon="5.59655">
        <ele>342.9</ele>
        <time>2019-07-29T12:01:37.000Z</time>
      </trkpt>
      <trkpt lat="46.71031" lon="5.59653">
        <ele>342</ele>
        <time>2019-07-29T12:01:42.000Z</time>
      </trkpt>
      <trkpt lat="46.7103" lon="5.59654">
        <ele>343.1</ele>
        <time>2019-07-29T12:01:52.000Z</time>
      </trkpt>
      <trkpt lat="46.71028" lon="5.59654">
        <ele>343.2</ele>
        <time>2019-07-29T12:02:02.000Z</time>
      </trkpt>
      <trkpt lat="46.71027" lon="5.59655">
        <ele>343.3</ele>
        <time>2019-07-29T12:02:12.000Z</time>
      </trkpt>
      <trkpt lat="46.71007" lon="5.59662">
        <ele>343</ele>
        <time>2019-07-29T12:01:52.000Z</time>
      </trkpt>
      <trkpt lat="46.7099" lon="5.59671">
        <ele>342.6</ele>
        <time>2019-07-29T12:02:02.000Z</time>
      </trkpt>
      <trkpt lat="46.70988" lon="5.59673">
        <ele>343</ele>
        <time>2019-07-29T12:02:00.000Z</time>
      </trkpt>
      <trkpt lat="46.70987" lon="5.59673">
        <ele>342.6</ele>
        <time>2019-07-29T12:02:10.000Z</time>
      </trkpt>
      <trkpt lat="46.7098" lon="5.59678">
        <ele>342.6</ele>
        <time>2019-07-29T12:02:20.000Z</time>
      </trkpt>
      <trkpt lat="46.70979" lon="5.59679">
        <ele>342.6</ele>
        <time>2019-07-29T12:02:30.000Z</time>
      </trkpt>
      <trkpt lat="46.70978" lon="5.59682">
        <ele>342.9</ele>
        <time>2019-07-29T12:02:40.000Z</time>
      </trkpt>
      <trkpt lat="46.70972" lon="5.59689">
        <ele>343</ele>
        <time>2019-07-29T12:02:08.000Z</time>
      </trkpt>
      <trkpt lat="46.7097" lon="5.5969">
        <ele>343.1</ele>
        <time>2019-07-29T12:02:18.000Z</time>
      </trkpt>
      <trkpt lat="46.70969" lon="5.59692">
        <ele>343.3</ele>
        <time>2019-07-29T12:02:28.000Z</time>
      </trkpt>
      <trkpt lat="46.70967" lon="5.59693">
        <ele>343.2</ele>
        <time>2019-07-29T12:02:38.000Z</time>
      </trkpt>
      <trkpt lat="46.70962" lon="5.59699">
        <ele>343.6</ele>
        <time>2019-07-29T12:02:48.000Z</time>
      </trkpt>
      <trkpt lat="46.7095" lon="5.59707">
        <ele>341</ele>
        <time>2019-07-29T12:02:15.000Z</time>
      </trkpt>
      <trkpt lat="46.70948" lon="5.59709">
        <ele>343.5</ele>
        <time>2019-07-29T12:02:25.000Z</time>
      </trkpt>
      <trkpt lat="46.70937" lon="5.59715">
        <ele>343.1</ele>
        <time>2019-07-29T12:02:35.000Z</time>
      </trkpt>
      <trkpt lat="46.70931" lon="5.59717">
        <ele>340</ele>
        <time>2019-07-29T12:02:23.000Z</time>
      </trkpt>
      <trkpt lat="46.70921" lon="5.59725">
        <ele>343</ele>
        <time>2019-07-29T12:02:33.000Z</time>
      </trkpt>
      <trkpt lat="46.7092" lon="5.59725">
        <ele>342.8</ele>
        <time>2019-07-29T12:02:43.000Z</time>
      </trkpt>
      <trkpt lat="46.7092" lon="5.59726">
        <ele>343</ele>
        <time>2019-07-29T12:02:53.000Z</time>
      </trkpt>
      <trkpt lat="46.70917" lon="5.59727">
        <ele>342.9</ele>
        <time>2019-07-29T12:03:03.000Z</time>
      </trkpt>
      <trkpt lat="46.70911" lon="5.59731">
        <ele>340</ele>
        <time>2019-07-29T12:02:39.000Z</time>
      </trkpt>
      <trkpt lat="46.70911" lon="5.59732">
        <ele>342.7</ele>
        <time>2019-07-29T12:02:49.000Z</time>
      </trkpt>
      <trkpt lat="46.70902" lon="5.59736">
        <ele>341.6</ele>
        <time>2019-07-29T12:02:59.000Z</time>
      </trkpt>
      <trkpt lat="46.70892" lon="5.59746">
        <ele>339</ele>
        <time>2019-07-29T12:02:54.000Z</time>
      </trkpt>
      <trkpt lat="46.70892" lon="5.59747">
        <ele>341.2</ele>
        <time>2019-07-29T12:03:04.000Z</time>
      </trkpt>
      <trkpt lat="46.70891" lon="5.59747">
        <ele>341</ele>
        <time>2019-07-29T12:03:14.000Z</time>
      </trkpt>
      <trkpt lat="46.70891" lon="5.59748">
        <ele>341.2</ele>
        <time>2019-07-29T12:03:24.000Z</time>
      </trkpt>
      <trkpt lat="46.7089" lon="5.59748">
        <ele>340.9</ele>
        <time>2019-07-29T12:03:34.000Z</time>
      </trkpt>
      <trkpt lat="46.70889" lon="5.59749">
        <ele>340.9</ele>
        <time>2019-07-29T12:03:44.000Z</time>
      </trkpt>
      <trkpt lat="46.70884" lon="5.59755">
        <ele>341</ele>
        <time>2019-07-29T12:03:54.000Z</time>
      </trkpt>
      <trkpt lat="46.70883" lon="5.59755">
        <ele>340.9</ele>
        <time>2019-07-29T12:04:04.000Z</time>
      </trkpt>
      <trkpt lat="46.70883" lon="5.59756">
        <ele>341</ele>
        <time>2019-07-29T12:04:14.000Z</time>
      </trkpt>
      <trkpt lat="46.70882" lon="5.59756">
        <ele>340.9</ele>
        <time>2019-07-29T12:04:24.000Z</time>
      </trkpt>
      <trkpt lat="46.70881" lon="5.59757">
        <ele>340.9</ele>
        <time>2019-07-29T12:04:34.000Z</time>
      </trkpt>
      <trkpt lat="46.70881" lon="5.59758">
        <ele>341</ele>
        <time>2019-07-29T12:04:44.000Z</time>
      </trkpt>
      <trkpt lat="46.7088" lon="5.59758">
        <ele>340.9</ele>
        <time>2019-07-29T12:04:54.000Z</time>
      </trkpt>
      <trkpt lat="46.70875" lon="5.59763">
        <ele>339</ele>
        <time>2019-07-29T12:03:08.000Z</time>
      </trkpt>
      <trkpt lat="46.70874" lon="5.59766">
        <ele>341.2</ele>
        <time>2019-07-29T12:03:18.000Z</time>
      </trkpt>
      <trkpt lat="46.70873" lon="5.59766">
        <ele>341</ele>
        <time>2019-07-29T12:03:28.000Z</time>
      </trkpt>
      <trkpt lat="46.70873" lon="5.59767">
        <ele>341.2</ele>
        <time>2019-07-29T12:03:38.000Z</time>
      </trkpt>
      <trkpt lat="46.70866" lon="5.59775">
        <ele>341.3</ele>
        <time>2019-07-29T12:03:48.000Z</time>
      </trkpt>
      <trkpt lat="46.70866" lon="5.59776">
        <ele>341.4</ele>
        <time>2019-07-29T12:03:58.000Z</time>
      </trkpt>
      <trkpt lat="46.70865" lon="5.59776">
        <ele>341.3</ele>
        <time>2019-07-29T12:04:08.000Z</time>
      </trkpt>
      <trkpt lat="46.70864" lon="5.59777">
        <ele>341.3</ele>
        <time>2019-07-29T12:04:18.000Z</time>
      </trkpt>
      <trkpt lat="46.70864" lon="5.59778">
        <ele>341.4</ele>
        <time>2019-07-29T12:04:28.000Z</time>
      </trkpt>
      <trkpt lat="46.70858" lon="5.59784">
        <ele>340</ele>
        <time>2019-07-29T12:03:22.000Z</time>
      </trkpt>
      <trkpt lat="46.70857" lon="5.59784">
        <ele>341.6</ele>
        <time>2019-07-29T12:03:32.000Z</time>
      </trkpt>
      <trkpt lat="46.70857" lon="5.59785">
        <ele>341.7</ele>
        <time>2019-07-29T12:03:42.000Z</time>
      </trkpt>
      <trkpt lat="46.70849" lon="5.59793">
        <ele>342.3</ele>
        <time>2019-07-29T12:03:52.000Z</time>
      </trkpt>
      <trkpt lat="46.70848" lon="5.59793">
        <ele>342.2</ele>
        <time>2019-07-29T12:04:02.000Z</time>
      </trkpt>
      <trkpt lat="46.70848" lon="5.59794">
        <ele>342.4</ele>
        <time>2019-07-29T12:04:12.000Z</time>
      </trkpt>
      <trkpt lat="46.70846" lon="5.59796">
        <ele>342.5</ele>
        <time>2019-07-29T12:04:22.000Z</time>
      </trkpt>
      <trkpt lat="46.7084" lon="5.59801">
        <ele>344</ele>
        <time>2019-07-29T12:03:36.000Z</time>
      </trkpt>
      <trkpt lat="46.70837" lon="5.59802">
        <ele>342.8</ele>
        <time>2019-07-29T12:03:46.000Z</time>
      </trkpt>
      <trkpt lat="46.70837" lon="5.59803">
        <ele>342.9</ele>
        <time>2019-07-29T12:03:56.000Z</time>
      </trkpt>
      <trkpt lat="46.70832" lon="5.59806">
        <ele>343</ele>
        <time>2019-07-29T12:04:06.000Z</time>
      </trkpt>
      <trkpt lat="46.70821" lon="5.5981">
        <ele>344</ele>
        <time>2019-07-29T12:03:48.000Z</time>
      </trkpt>
      <trkpt lat="46.70821" lon="5.59811">
        <ele>343.4</ele>
        <time>2019-07-29T12:03:58.000Z</time>
      </trkpt>
      <trkpt lat="46.7082" lon="5.59811">
        <ele>343.3</ele>
        <time>2019-07-29T12:04:08.000Z</time>
      </trkpt>
      <trkpt lat="46.70818" lon="5.59813">
        <ele>343.6</ele>
        <time>2019-07-29T12:04:18.000Z</time>
      </trkpt>
      <trkpt lat="46.70817" lon="5.59813">
        <ele>343.5</ele>
        <time>2019-07-29T12:04:28.000Z</time>
      </trkpt>
      <trkpt lat="46.70811" lon="5.59818">
        <ele>344.2</ele>
        <time>2019-07-29T12:04:38.000Z</time>
      </trkpt>
      <trkpt lat="46.70809" lon="5.59818">
        <ele>344</ele>
        <time>2019-07-29T12:04:48.000Z</time>
      </trkpt>
      <trkpt lat="46.70809" lon="5.59819">
        <ele>344.2</ele>
        <time>2019-07-29T12:04:58.000Z</time>
      </trkpt>
      <trkpt lat="46.70807" lon="5.59819">
        <ele>344</ele>
        <time>2019-07-29T12:05:08.000Z</time>
      </trkpt>
      <trkpt lat="46.70802" lon="5.59821">
        <ele>344</ele>
        <time>2019-07-29T12:04:03.000Z</time>
      </trkpt>
      <trkpt lat="46.70791" lon="5.5983">
        <ele>343.7</ele>
        <time>2019-07-29T12:04:13.000Z</time>
      </trkpt>
      <trkpt lat="46.7079" lon="5.5983">
        <ele>343.5</ele>
        <time>2019-07-29T12:04:23.000Z</time>
      </trkpt>
      <trkpt lat="46.7079" lon="5.59831">
        <ele>343.7</ele>
        <time>2019-07-29T12:04:33.000Z</time>
      </trkpt>
      <trkpt lat="46.70789" lon="5.59831">
        <ele>343.6</ele>
        <time>2019-07-29T12:04:43.000Z</time>
      </trkpt>
      <trkpt lat="46.70782" lon="5.59836">
        <ele>344</ele>
        <time>2019-07-29T12:04:16.000Z</time>
      </trkpt>
      <trkpt lat="46.70781" lon="5.59836">
        <ele>343.2</ele>
        <time>2019-07-29T12:04:26.000Z</time>
      </trkpt>
      <trkpt lat="46.70779" lon="5.59838">
        <ele>343.2</ele>
        <time>2019-07-29T12:04:36.000Z</time>
      </trkpt>
      <trkpt lat="46.70778" lon="5.59838">
        <ele>343</ele>
        <time>2019-07-29T12:04:46.000Z</time>
      </trkpt>
      <trkpt lat="46.70778" lon="5.59839">
        <ele>343.3</ele>
        <time>2019-07-29T12:04:56.000Z</time>
      </trkpt>
      <trkpt lat="46.70772" lon="5.59844">
        <ele>343.5</ele>
        <time>2019-07-29T12:05:06.000Z</time>
      </trkpt>
      <trkpt lat="46.70769" lon="5.59845">
        <ele>343.3</ele>
        <time>2019-07-29T12:05:16.000Z</time>
      </trkpt>
      <trkpt lat="46.70768" lon="5.59846">
        <ele>343.4</ele>
        <time>2019-07-29T12:05:26.000Z</time>
      </trkpt>
      <trkpt lat="46.70768" lon="5.59847">
        <ele>343.5</ele>
        <time>2019-07-29T12:05:36.000Z</time>
      </trkpt>
      <trkpt lat="46.70763" lon="5.5985">
        <ele>346</ele>
        <time>2019-07-29T12:04:28.000Z</time>
      </trkpt>
      <trkpt lat="46.70754" lon="5.59859">
        <ele>343.4</ele>
        <time>2019-07-29T12:04:38.000Z</time>
      </trkpt>
      <trkpt lat="46.70754" lon="5.59861">
        <ele>343.7</ele>
        <time>2019-07-29T12:04:48.000Z</time>
      </trkpt>
      <trkpt lat="46.70753" lon="5.59861">
        <ele>343.5</ele>
        <time>2019-07-29T12:04:58.000Z</time>
      </trkpt>
      <trkpt lat="46.70753" lon="5.59863">
        <ele>344</ele>
        <time>2019-07-29T12:05:08.000Z</time>
      </trkpt>
      <trkpt lat="46.70752" lon="5.59864">
        <ele>344.1</ele>
        <time>2019-07-29T12:05:18.000Z</time>
      </trkpt>
      <trkpt lat="46.70752" lon="5.59865">
        <ele>344.3</ele>
        <time>2019-07-29T12:05:28.000Z</time>
      </trkpt>
      <trkpt lat="46.70749" lon="5.59872">
        <ele>349</ele>
        <time>2019-07-29T12:04:45.000Z</time>
      </trkpt>
      <trkpt lat="46.7074" lon="5.5988">
        <ele>346.8</ele>
        <time>2019-07-29T12:04:55.000Z</time>
      </trkpt>
      <trkpt lat="46.70739" lon="5.5988">
        <ele>346.7</ele>
        <time>2019-07-29T12:05:05.000Z</time>
      </trkpt>
      <trkpt lat="46.70739" lon="5.59881">
        <ele>346.9</ele>
        <time>2019-07-29T12:05:15.000Z</time>
      </trkpt>
      <trkpt lat="46.70737" lon="5.59881">
        <ele>346.7</ele>
        <time>2019-07-29T12:05:25.000Z</time>
      </trkpt>
      <trkpt lat="46.70737" lon="5.59882">
        <ele>347</ele>
        <time>2019-07-29T12:05:35.000Z</time>
      </trkpt>
      <trkpt lat="46.70736" lon="5.59882">
        <ele>346.9</ele>
        <time>2019-07-29T12:05:45.000Z</time>
      </trkpt>
      <trkpt lat="46.70736" lon="5.59883">
        <ele>347.1</ele>
        <time>2019-07-29T12:05:55.000Z</time>
      </trkpt>
      <trkpt lat="46.70731" lon="5.59886">
        <ele>356</ele>
        <time>2019-07-29T12:05:04.000Z</time>
      </trkpt>
      <trkpt lat="46.70719" lon="5.59886">
        <ele>346.7</ele>
        <time>2019-07-29T12:05:14.000Z</time>
      </trkpt>
      <trkpt lat="46.70719" lon="5.59885">
        <ele>346.5</ele>
        <time>2019-07-29T12:05:24.000Z</time>
      </trkpt>
      <trkpt lat="46.7071" lon="5.59884">
        <ele>356</ele>
        <time>2019-07-29T12:05:19.000Z</time>
      </trkpt>
      <trkpt lat="46.70699" lon="5.59881">
        <ele>347.6</ele>
        <time>2019-07-29T12:05:29.000Z</time>
      </trkpt>
      <trkpt lat="46.70694" lon="5.59881">
        <ele>348.1</ele>
        <time>2019-07-29T12:05:39.000Z</time>
      </trkpt>
      <trkpt lat="46.70679" lon="5.59877">
        <ele>357</ele>
        <time>2019-07-29T12:05:37.000Z</time>
      </trkpt>
      <trkpt lat="46.70658" lon="5.59875">
        <ele>360</ele>
        <time>2019-07-29T12:05:57.000Z</time>
      </trkpt>
      <trkpt lat="46.70638" lon="5.59879">
        <ele>360</ele>
        <time>2019-07-29T12:06:16.000Z</time>
      </trkpt>
      <trkpt lat="46.70627" lon="5.59887">
        <ele>357.1</ele>
        <time>2019-07-29T12:06:26.000Z</time>
      </trkpt>
      <trkpt lat="46.70626" lon="5.59887">
        <ele>357.1</ele>
        <time>2019-07-29T12:06:36.000Z</time>
      </trkpt>
      <trkpt lat="46.70626" lon="5.59888">
        <ele>357.3</ele>
        <time>2019-07-29T12:06:46.000Z</time>
      </trkpt>
      <trkpt lat="46.70625" lon="5.59888">
        <ele>357.3</ele>
        <time>2019-07-29T12:06:56.000Z</time>
      </trkpt>
      <trkpt lat="46.70625" lon="5.59889">
        <ele>357.5</ele>
        <time>2019-07-29T12:07:06.000Z</time>
      </trkpt>
      <trkpt lat="46.70624" lon="5.59889">
        <ele>357.6</ele>
        <time>2019-07-29T12:07:16.000Z</time>
      </trkpt>
      <trkpt lat="46.70619" lon="5.59893">
        <ele>361</ele>
        <time>2019-07-29T12:06:33.000Z</time>
      </trkpt>
      <trkpt lat="46.7061" lon="5.59901">
        <ele>360.1</ele>
        <time>2019-07-29T12:06:43.000Z</time>
      </trkpt>
      <trkpt lat="46.70602" lon="5.59911">
        <ele>361</ele>
        <time>2019-07-29T12:06:50.000Z</time>
      </trkpt>
      <trkpt lat="46.70594" lon="5.59919">
        <ele>362.9</ele>
        <time>2019-07-29T12:07:00.000Z</time>
      </trkpt>
      <trkpt lat="46.70583" lon="5.59923">
        <ele>362</ele>
        <time>2019-07-29T12:07:06.000Z</time>
      </trkpt>
      <trkpt lat="46.70581" lon="5.59925">
        <ele>363.5</ele>
        <time>2019-07-29T12:07:16.000Z</time>
      </trkpt>
      <trkpt lat="46.7058" lon="5.59925">
        <ele>363.4</ele>
        <time>2019-07-29T12:07:26.000Z</time>
      </trkpt>
      <trkpt lat="46.70574" lon="5.59929">
        <ele>363.7</ele>
        <time>2019-07-29T12:07:36.000Z</time>
      </trkpt>
      <trkpt lat="46.70568" lon="5.59942">
        <ele>364</ele>
        <time>2019-07-29T12:07:24.000Z</time>
      </trkpt>
      <trkpt lat="46.70567" lon="5.59943">
        <ele>365.9</ele>
        <time>2019-07-29T12:07:34.000Z</time>
      </trkpt>
      <trkpt lat="46.70567" lon="5.59944">
        <ele>366.1</ele>
        <time>2019-07-29T12:07:44.000Z</time>
      </trkpt>
      <trkpt lat="46.70565" lon="5.59946">
        <ele>366.4</ele>
        <time>2019-07-29T12:07:54.000Z</time>
      </trkpt>
      <trkpt lat="46.70565" lon="5.59947">
        <ele>366.6</ele>
        <time>2019-07-29T12:08:04.000Z</time>
      </trkpt>
      <trkpt lat="46.70564" lon="5.59947">
        <ele>366.5</ele>
        <time>2019-07-29T12:08:14.000Z</time>
      </trkpt>
      <trkpt lat="46.7056" lon="5.59954">
        <ele>367.6</ele>
        <time>2019-07-29T12:08:24.000Z</time>
      </trkpt>
      <trkpt lat="46.70558" lon="5.59954">
        <ele>367.4</ele>
        <time>2019-07-29T12:08:34.000Z</time>
      </trkpt>
      <trkpt lat="46.70547" lon="5.5996">
        <ele>367</ele>
        <time>2019-07-29T12:07:42.000Z</time>
      </trkpt>
      <trkpt lat="46.70546" lon="5.5996">
        <ele>367</ele>
        <time>2019-07-29T12:07:52.000Z</time>
      </trkpt>
      <trkpt lat="46.70537" lon="5.59965">
        <ele>366.8</ele>
        <time>2019-07-29T12:08:02.000Z</time>
      </trkpt>
      <trkpt lat="46.70536" lon="5.59965">
        <ele>366.6</ele>
        <time>2019-07-29T12:08:12.000Z</time>
      </trkpt>
      <trkpt lat="46.70536" lon="5.59966">
        <ele>366.8</ele>
        <time>2019-07-29T12:08:22.000Z</time>
      </trkpt>
      <trkpt lat="46.70535" lon="5.59966">
        <ele>366.7</ele>
        <time>2019-07-29T12:08:32.000Z</time>
      </trkpt>
      <trkpt lat="46.7053" lon="5.59969">
        <ele>367</ele>
        <time>2019-07-29T12:07:55.000Z</time>
      </trkpt>
      <trkpt lat="46.70521" lon="5.59976">
        <ele>367.1</ele>
        <time>2019-07-29T12:08:05.000Z</time>
      </trkpt>
      <trkpt lat="46.70513" lon="5.59986">
        <ele>368</ele>
        <time>2019-07-29T12:08:10.000Z</time>
      </trkpt>
      <trkpt lat="46.70509" lon="5.5999">
        <ele>369</ele>
        <time>2019-07-29T12:08:20.000Z</time>
      </trkpt>
      <trkpt lat="46.70486" lon="5.60006">
        <ele>371</ele>
        <time>2019-07-29T12:08:30.000Z</time>
      </trkpt>
      <trkpt lat="46.70484" lon="5.60006">
        <ele>368.3</ele>
        <time>2019-07-29T12:08:40.000Z</time>
      </trkpt>
      <trkpt lat="46.70484" lon="5.60007">
        <ele>368.6</ele>
        <time>2019-07-29T12:08:50.000Z</time>
      </trkpt>
      <trkpt lat="46.70482" lon="5.60007">
        <ele>368.1</ele>
        <time>2019-07-29T12:09:00.000Z</time>
      </trkpt>
      <trkpt lat="46.70477" lon="5.60009">
        <ele>367.6</ele>
        <time>2019-07-29T12:09:10.000Z</time>
      </trkpt>
      <trkpt lat="46.70467" lon="5.60016">
        <ele>371</ele>
        <time>2019-07-29T12:08:45.000Z</time>
      </trkpt>
      <trkpt lat="46.70464" lon="5.60017">
        <ele>367.3</ele>
        <time>2019-07-29T12:08:55.000Z</time>
      </trkpt>
      <trkpt lat="46.70464" lon="5.60018">
        <ele>367.6</ele>
        <time>2019-07-29T12:09:05.000Z</time>
      </trkpt>
      <trkpt lat="46.70462" lon="5.60018">
        <ele>367.2</ele>
        <time>2019-07-29T12:09:15.000Z</time>
      </trkpt>
      <trkpt lat="46.70455" lon="5.60022">
        <ele>366.9</ele>
        <time>2019-07-29T12:09:25.000Z</time>
      </trkpt>
      <trkpt lat="46.70454" lon="5.60022">
        <ele>366.7</ele>
        <time>2019-07-29T12:09:35.000Z</time>
      </trkpt>
      <trkpt lat="46.70452" lon="5.60024">
        <ele>366.7</ele>
        <time>2019-07-29T12:09:45.000Z</time>
      </trkpt>
      <trkpt lat="46.70437" lon="5.60032">
        <ele>366</ele>
        <time>2019-07-29T12:09:03.000Z</time>
      </trkpt>
      <trkpt lat="46.70427" lon="5.60038">
        <ele>366</ele>
        <time>2019-07-29T12:09:13.000Z</time>
      </trkpt>
      <trkpt lat="46.70427" lon="5.60039">
        <ele>366.2</ele>
        <time>2019-07-29T12:09:23.000Z</time>
      </trkpt>
      <trkpt lat="46.70424" lon="5.6004">
        <ele>365.9</ele>
        <time>2019-07-29T12:09:33.000Z</time>
      </trkpt>
      <trkpt lat="46.70424" lon="5.60041">
        <ele>366.2</ele>
        <time>2019-07-29T12:09:43.000Z</time>
      </trkpt>
      <trkpt lat="46.70423" lon="5.60041">
        <ele>366</ele>
        <time>2019-07-29T12:09:53.000Z</time>
      </trkpt>
      <trkpt lat="46.70418" lon="5.60045">
        <ele>366</ele>
        <time>2019-07-29T12:09:18.000Z</time>
      </trkpt>
      <trkpt lat="46.70405" lon="5.60058">
        <ele>366.5</ele>
        <time>2019-07-29T12:09:28.000Z</time>
      </trkpt>
      <trkpt lat="46.70405" lon="5.60059">
        <ele>366.8</ele>
        <time>2019-07-29T12:09:38.000Z</time>
      </trkpt>
      <trkpt lat="46.70399" lon="5.60064">
        <ele>365</ele>
        <time>2019-07-29T12:09:34.000Z</time>
      </trkpt>
      <trkpt lat="46.70384" lon="5.60064">
        <ele>364.2</ele>
        <time>2019-07-29T12:09:44.000Z</time>
      </trkpt>
      <trkpt lat="46.70376" lon="5.60063">
        <ele>364</ele>
        <time>2019-07-29T12:09:46.000Z</time>
      </trkpt>
      <trkpt lat="46.70374" lon="5.60064">
        <ele>362.4</ele>
        <time>2019-07-29T12:09:56.000Z</time>
      </trkpt>
      <trkpt lat="46.70368" lon="5.60064">
        <ele>361.4</ele>
        <time>2019-07-29T12:10:06.000Z</time>
      </trkpt>
      <trkpt lat="46.70357" lon="5.60067">
        <ele>364</ele>
        <time>2019-07-29T12:09:54.000Z</time>
      </trkpt>
      <trkpt lat="46.70355" lon="5.60067">
        <ele>359.7</ele>
        <time>2019-07-29T12:10:04.000Z</time>
      </trkpt>
      <trkpt lat="46.70354" lon="5.60068">
        <ele>359.7</ele>
        <time>2019-07-29T12:10:14.000Z</time>
      </trkpt>
      <trkpt lat="46.70347" lon="5.60069">
        <ele>358.6</ele>
        <time>2019-07-29T12:10:24.000Z</time>
      </trkpt>
      <trkpt lat="46.70314" lon="5.60071">
        <ele>358</ele>
        <time>2019-07-29T12:10:15.000Z</time>
      </trkpt>
      <trkpt lat="46.70303" lon="5.6007">
        <ele>351.8</ele>
        <time>2019-07-29T12:10:25.000Z</time>
      </trkpt>
      <trkpt lat="46.70293" lon="5.60067">
        <ele>356</ele>
        <time>2019-07-29T12:10:23.000Z</time>
      </trkpt>
      <trkpt lat="46.70292" lon="5.60067">
        <ele>350.3</ele>
        <time>2019-07-29T12:10:33.000Z</time>
      </trkpt>
      <trkpt lat="46.70291" lon="5.60068">
        <ele>350.3</ele>
        <time>2019-07-29T12:10:43.000Z</time>
      </trkpt>
      <trkpt lat="46.70281" lon="5.60068">
        <ele>349.2</ele>
        <time>2019-07-29T12:10:53.000Z</time>
      </trkpt>
      <trkpt lat="46.70281" lon="5.60069">
        <ele>349.3</ele>
        <time>2019-07-29T12:11:03.000Z</time>
      </trkpt>
      <trkpt lat="46.70279" lon="5.60069">
        <ele>349.1</ele>
        <time>2019-07-29T12:11:13.000Z</time>
      </trkpt>
      <trkpt lat="46.70279" lon="5.6007">
        <ele>349.2</ele>
        <time>2019-07-29T12:11:23.000Z</time>
      </trkpt>
      <trkpt lat="46.70277" lon="5.6007">
        <ele>349.1</ele>
        <time>2019-07-29T12:11:33.000Z</time>
      </trkpt>
      <trkpt lat="46.70271" lon="5.60074">
        <ele>355</ele>
        <time>2019-07-29T12:10:37.000Z</time>
      </trkpt>
      <trkpt lat="46.7027" lon="5.60074">
        <ele>349.4</ele>
        <time>2019-07-29T12:10:47.000Z</time>
      </trkpt>
      <trkpt lat="46.7027" lon="5.60075">
        <ele>349.5</ele>
        <time>2019-07-29T12:10:57.000Z</time>
      </trkpt>
      <trkpt lat="46.70269" lon="5.60075">
        <ele>349.5</ele>
        <time>2019-07-29T12:11:07.000Z</time>
      </trkpt>
      <trkpt lat="46.70269" lon="5.60076">
        <ele>349.6</ele>
        <time>2019-07-29T12:11:17.000Z</time>
      </trkpt>
      <trkpt lat="46.70268" lon="5.60076">
        <ele>349.6</ele>
        <time>2019-07-29T12:11:27.000Z</time>
      </trkpt>
      <trkpt lat="46.70262" lon="5.60081">
        <ele>349.9</ele>
        <time>2019-07-29T12:11:37.000Z</time>
      </trkpt>
      <trkpt lat="46.70262" lon="5.60082">
        <ele>349.9</ele>
        <time>2019-07-29T12:11:47.000Z</time>
      </trkpt>
      <trkpt lat="46.70261" lon="5.60082">
        <ele>349.9</ele>
        <time>2019-07-29T12:11:57.000Z</time>
      </trkpt>
      <trkpt lat="46.70253" lon="5.60089">
        <ele>354</ele>
        <time>2019-07-29T12:10:52.000Z</time>
      </trkpt>
      <trkpt lat="46.70252" lon="5.6009">
        <ele>350.5</ele>
        <time>2019-07-29T12:11:02.000Z</time>
      </trkpt>
      <trkpt lat="46.70252" lon="5.60091">
        <ele>350.6</ele>
        <time>2019-07-29T12:11:12.000Z</time>
      </trkpt>
      <trkpt lat="46.70251" lon="5.60091">
        <ele>350.6</ele>
        <time>2019-07-29T12:11:22.000Z</time>
      </trkpt>
      <trkpt lat="46.70242" lon="5.60099">
        <ele>351.3</ele>
        <time>2019-07-29T12:11:32.000Z</time>
      </trkpt>
      <trkpt lat="46.70241" lon="5.60099">
        <ele>351.3</ele>
        <time>2019-07-29T12:11:42.000Z</time>
      </trkpt>
      <trkpt lat="46.70241" lon="5.601">
        <ele>351.3</ele>
        <time>2019-07-29T12:11:52.000Z</time>
      </trkpt>
      <trkpt lat="46.70239" lon="5.601">
        <ele>351.4</ele>
        <time>2019-07-29T12:12:02.000Z</time>
      </trkpt>
      <trkpt lat="46.70233" lon="5.60105">
        <ele>353</ele>
        <time>2019-07-29T12:11:09.000Z</time>
      </trkpt>
      <trkpt lat="46.70232" lon="5.60105">
        <ele>351.7</ele>
        <time>2019-07-29T12:11:19.000Z</time>
      </trkpt>
      <trkpt lat="46.70232" lon="5.60106">
        <ele>351.8</ele>
        <time>2019-07-29T12:11:29.000Z</time>
      </trkpt>
      <trkpt lat="46.70231" lon="5.60106">
        <ele>351.8</ele>
        <time>2019-07-29T12:11:39.000Z</time>
      </trkpt>
      <trkpt lat="46.70221" lon="5.60115">
        <ele>352.4</ele>
        <time>2019-07-29T12:11:49.000Z</time>
      </trkpt>
      <trkpt lat="46.7022" lon="5.60115">
        <ele>352.4</ele>
        <time>2019-07-29T12:11:59.000Z</time>
      </trkpt>
      <trkpt lat="46.70216" lon="5.6012">
        <ele>353</ele>
        <time>2019-07-29T12:11:23.000Z</time>
      </trkpt>
      <trkpt lat="46.70215" lon="5.60121">
        <ele>353.1</ele>
        <time>2019-07-29T12:11:33.000Z</time>
      </trkpt>
      <trkpt lat="46.70214" lon="5.60121">
        <ele>353.1</ele>
        <time>2019-07-29T12:11:43.000Z</time>
      </trkpt>
      <trkpt lat="46.70214" lon="5.60122">
        <ele>353.2</ele>
        <time>2019-07-29T12:11:53.000Z</time>
      </trkpt>
      <trkpt lat="46.70207" lon="5.60129">
        <ele>353.9</ele>
        <time>2019-07-29T12:12:03.000Z</time>
      </trkpt>
      <trkpt lat="46.70195" lon="5.60138">
        <ele>353</ele>
        <time>2019-07-29T12:11:42.000Z</time>
      </trkpt>
      <trkpt lat="46.70194" lon="5.60138">
        <ele>354.9</ele>
        <time>2019-07-29T12:11:52.000Z</time>
      </trkpt>
      <trkpt lat="46.70194" lon="5.60139">
        <ele>355</ele>
        <time>2019-07-29T12:12:02.000Z</time>
      </trkpt>
      <trkpt lat="46.70193" lon="5.60139">
        <ele>355</ele>
        <time>2019-07-29T12:12:12.000Z</time>
      </trkpt>
      <trkpt lat="46.70179" lon="5.60151">
        <ele>353</ele>
        <time>2019-07-29T12:11:54.000Z</time>
      </trkpt>
      <trkpt lat="46.70178" lon="5.60151">
        <ele>355.5</ele>
        <time>2019-07-29T12:12:04.000Z</time>
      </trkpt>
      <trkpt lat="46.70178" lon="5.60152">
        <ele>355.6</ele>
        <time>2019-07-29T12:12:14.000Z</time>
      </trkpt>
      <trkpt lat="46.70176" lon="5.60152">
        <ele>355.5</ele>
        <time>2019-07-29T12:12:24.000Z</time>
      </trkpt>
      <trkpt lat="46.70176" lon="5.60153">
        <ele>355.5</ele>
        <time>2019-07-29T12:12:34.000Z</time>
      </trkpt>
      <trkpt lat="46.70175" lon="5.60153">
        <ele>355.5</ele>
        <time>2019-07-29T12:12:44.000Z</time>
      </trkpt>
      <trkpt lat="46.7017" lon="5.60156">
        <ele>355.2</ele>
        <time>2019-07-29T12:12:54.000Z</time>
      </trkpt>
      <trkpt lat="46.70161" lon="5.60155">
        <ele>353</ele>
        <time>2019-07-29T12:12:06.000Z</time>
      </trkpt>
      <trkpt lat="46.70153" lon="5.60149">
        <ele>355.7</ele>
        <time>2019-07-29T12:12:16.000Z</time>
      </trkpt>
      <trkpt lat="46.70144" lon="5.6014">
        <ele>354</ele>
        <time>2019-07-29T12:12:19.000Z</time>
      </trkpt>
      <trkpt lat="46.70139" lon="5.60136">
        <ele>355.9</ele>
        <time>2019-07-29T12:12:29.000Z</time>
      </trkpt>
      <trkpt lat="46.70136" lon="5.60132">
        <ele>355.9</ele>
        <time>2019-07-29T12:12:39.000Z</time>
      </trkpt>
      <trkpt lat="46.70128" lon="5.60124">
        <ele>356</ele>
        <time>2019-07-29T12:12:31.000Z</time>
      </trkpt>
      <trkpt lat="46.70125" lon="5.6012">
        <ele>356.2</ele>
        <time>2019-07-29T12:12:41.000Z</time>
      </trkpt>
      <trkpt lat="46.70116" lon="5.60111">
        <ele>356.6</ele>
        <time>2019-07-29T12:12:51.000Z</time>
      </trkpt>
      <trkpt lat="46.70114" lon="5.60107">
        <ele>356.8</ele>
        <time>2019-07-29T12:13:01.000Z</time>
      </trkpt>
      <trkpt lat="46.70111" lon="5.60103">
        <ele>356</ele>
        <time>2019-07-29T12:12:46.000Z</time>
      </trkpt>
      <trkpt lat="46.70109" lon="5.60097">
        <ele>357.1</ele>
        <time>2019-07-29T12:12:56.000Z</time>
      </trkpt>
      <trkpt lat="46.70105" lon="5.60089">
        <ele>357.2</ele>
        <time>2019-07-29T12:13:06.000Z</time>
      </trkpt>
      <trkpt lat="46.70099" lon="5.60073">
        <ele>363</ele>
        <time>2019-07-29T12:13:01.000Z</time>
      </trkpt>
      <trkpt lat="46.70095" lon="5.60065">
        <ele>357.7</ele>
        <time>2019-07-29T12:13:11.000Z</time>
      </trkpt>
      <trkpt lat="46.70091" lon="5.60059">
        <ele>358.1</ele>
        <time>2019-07-29T12:13:21.000Z</time>
      </trkpt>
      <trkpt lat="46.70084" lon="5.60053">
        <ele>367</ele>
        <time>2019-07-29T12:13:16.000Z</time>
      </trkpt>
      <trkpt lat="46.70076" lon="5.60054">
        <ele>359.6</ele>
        <time>2019-07-29T12:13:26.000Z</time>
      </trkpt>
      <trkpt lat="46.70067" lon="5.60046">
        <ele>375</ele>
        <time>2019-07-29T12:13:35.000Z</time>
      </trkpt>
      <trkpt lat="46.70068" lon="5.60046">
        <ele>361.4</ele>
        <time>2019-07-29T12:13:45.000Z</time>
      </trkpt>
      <trkpt lat="46.70068" lon="5.60031">
        <ele>363.5</ele>
        <time>2019-07-29T12:13:55.000Z</time>
      </trkpt>
      <trkpt lat="46.70066" lon="5.60019">
        <ele>378</ele>
        <time>2019-07-29T12:13:58.000Z</time>
      </trkpt>
      <trkpt lat="46.70057" lon="5.6001">
        <ele>369.4</ele>
        <time>2019-07-29T12:14:08.000Z</time>
      </trkpt>
      <trkpt lat="46.70056" lon="5.60007">
        <ele>370.1</ele>
        <time>2019-07-29T12:14:18.000Z</time>
      </trkpt>
      <trkpt lat="46.70055" lon="5.60007">
        <ele>370.3</ele>
        <time>2019-07-29T12:14:28.000Z</time>
      </trkpt>
      <trkpt lat="46.70054" lon="5.60006">
        <ele>370.5</ele>
        <time>2019-07-29T12:14:38.000Z</time>
      </trkpt>
      <trkpt lat="46.70054" lon="5.60005">
        <ele>370.6</ele>
        <time>2019-07-29T12:14:48.000Z</time>
      </trkpt>
      <trkpt lat="46.70049" lon="5.60001">
        <ele>382</ele>
        <time>2019-07-29T12:14:22.000Z</time>
      </trkpt>
      <trkpt lat="46.70049" lon="5.6">
        <ele>371.9</ele>
        <time>2019-07-29T12:14:32.000Z</time>
      </trkpt>
      <trkpt lat="46.70046" lon="5.59999">
        <ele>372.4</ele>
        <time>2019-07-29T12:14:42.000Z</time>
      </trkpt>
      <trkpt lat="46.70046" lon="5.59998">
        <ele>372.4</ele>
        <time>2019-07-29T12:14:52.000Z</time>
      </trkpt>
      <trkpt lat="46.70045" lon="5.59998">
        <ele>372.5</ele>
        <time>2019-07-29T12:15:02.000Z</time>
      </trkpt>
      <trkpt lat="46.7004" lon="5.59994">
        <ele>373.3</ele>
        <time>2019-07-29T12:15:12.000Z</time>
      </trkpt>
      <trkpt lat="46.70035" lon="5.5998">
        <ele>388</ele>
        <time>2019-07-29T12:14:40.000Z</time>
      </trkpt>
      <trkpt lat="46.70035" lon="5.59935">
        <ele>392</ele>
        <time>2019-07-29T12:15:08.000Z</time>
      </trkpt>
      <trkpt lat="46.70027" lon="5.59909">
        <ele>393</ele>
        <time>2019-07-29T12:15:31.000Z</time>
      </trkpt>
      <trkpt lat="46.70019" lon="5.59899">
        <ele>388.8</ele>
        <time>2019-07-29T12:15:41.000Z</time>
      </trkpt>
      <trkpt lat="46.70019" lon="5.59898">
        <ele>389</ele>
        <time>2019-07-29T12:15:51.000Z</time>
      </trkpt>
      <trkpt lat="46.70018" lon="5.59897">
        <ele>389.4</ele>
        <time>2019-07-29T12:16:01.000Z</time>
      </trkpt>
      <trkpt lat="46.70018" lon="5.59893">
        <ele>390.1</ele>
        <time>2019-07-29T12:16:11.000Z</time>
      </trkpt>
      <trkpt lat="46.70017" lon="5.59893">
        <ele>390.4</ele>
        <time>2019-07-29T12:16:21.000Z</time>
      </trkpt>
      <trkpt lat="46.70016" lon="5.59885">
        <ele>395</ele>
        <time>2019-07-29T12:16:12.000Z</time>
      </trkpt>
      <trkpt lat="46.70013" lon="5.59873">
        <ele>394.8</ele>
        <time>2019-07-29T12:16:22.000Z</time>
      </trkpt>
      <trkpt lat="46.70019" lon="5.59863">
        <ele>394.6</ele>
        <time>2019-07-29T12:16:32.000Z</time>
      </trkpt>
      <trkpt lat="46.70019" lon="5.59862">
        <ele>396</ele>
        <time>2019-07-29T12:16:33.000Z</time>
      </trkpt>
      <trkpt lat="46.70021" lon="5.59859">
        <ele>394.4</ele>
        <time>2019-07-29T12:16:43.000Z</time>
      </trkpt>
      <trkpt lat="46.70021" lon="5.59858">
        <ele>394.5</ele>
        <time>2019-07-29T12:16:53.000Z</time>
      </trkpt>
      <trkpt lat="46.70025" lon="5.59852">
        <ele>394.1</ele>
        <time>2019-07-29T12:17:03.000Z</time>
      </trkpt>
      <trkpt lat="46.70029" lon="5.59839">
        <ele>396</ele>
        <time>2019-07-29T12:16:45.000Z</time>
      </trkpt>
      <trkpt lat="46.70031" lon="5.59817">
        <ele>396</ele>
        <time>2019-07-29T12:16:55.000Z</time>
      </trkpt>
      <trkpt lat="46.70031" lon="5.59806">
        <ele>397</ele>
        <time>2019-07-29T12:17:00.000Z</time>
      </trkpt>
      <trkpt lat="46.70029" lon="5.59798">
        <ele>397.9</ele>
        <time>2019-07-29T12:17:10.000Z</time>
      </trkpt>
      <trkpt lat="46.70023" lon="5.59792">
        <ele>399</ele>
        <time>2019-07-29T12:17:20.000Z</time>
      </trkpt>
      <trkpt lat="46.70014" lon="5.59792">
        <ele>398</ele>
        <time>2019-07-29T12:17:18.000Z</time>
      </trkpt>
      <trkpt lat="46.70008" lon="5.5979">
        <ele>400.6</ele>
        <time>2019-07-29T12:17:28.000Z</time>
      </trkpt>
      <trkpt lat="46.70003" lon="5.59783">
        <ele>400.9</ele>
        <time>2019-07-29T12:17:38.000Z</time>
      </trkpt>
      <trkpt lat="46.70001" lon="5.5977">
        <ele>398</ele>
        <time>2019-07-29T12:17:33.000Z</time>
      </trkpt>
      <trkpt lat="46.70002" lon="5.5976">
        <ele>400.9</ele>
        <time>2019-07-29T12:17:43.000Z</time>
      </trkpt>
      <trkpt lat="46.70001" lon="5.59751">
        <ele>400.9</ele>
        <time>2019-07-29T12:17:53.000Z</time>
      </trkpt>
      <trkpt lat="46.69999" lon="5.59744">
        <ele>400.5</ele>
        <time>2019-07-29T12:18:03.000Z</time>
      </trkpt>
      <trkpt lat="46.69998" lon="5.59734">
        <ele>397</ele>
        <time>2019-07-29T12:17:48.000Z</time>
      </trkpt>
      <trkpt lat="46.70002" lon="5.59726">
        <ele>399.3</ele>
        <time>2019-07-29T12:17:58.000Z</time>
      </trkpt>
      <trkpt lat="46.70012" lon="5.59715">
        <ele>397</ele>
        <time>2019-07-29T12:18:01.000Z</time>
      </trkpt>
      <trkpt lat="46.70015" lon="5.59706">
        <ele>400.1</ele>
        <time>2019-07-29T12:18:11.000Z</time>
      </trkpt>
      <trkpt lat="46.70017" lon="5.59686">
        <ele>396</ele>
        <time>2019-07-29T12:18:16.000Z</time>
      </trkpt>
      <trkpt lat="46.70017" lon="5.59663">
        <ele>401.6</ele>
        <time>2019-07-29T12:18:26.000Z</time>
      </trkpt>
      <trkpt lat="46.7002" lon="5.59648">
        <ele>395</ele>
        <time>2019-07-29T12:18:35.000Z</time>
      </trkpt>
      <trkpt lat="46.7002" lon="5.59639">
        <ele>402.2</ele>
        <time>2019-07-29T12:18:45.000Z</time>
      </trkpt>
      <trkpt lat="46.70019" lon="5.5963">
        <ele>401.2</ele>
        <time>2019-07-29T12:18:55.000Z</time>
      </trkpt>
      <trkpt lat="46.70017" lon="5.59623">
        <ele>400.3</ele>
        <time>2019-07-29T12:19:05.000Z</time>
      </trkpt>
      <trkpt lat="46.70013" lon="5.59617">
        <ele>394</ele>
        <time>2019-07-29T12:18:51.000Z</time>
      </trkpt>
      <trkpt lat="46.7001" lon="5.59609">
        <ele>398.5</ele>
        <time>2019-07-29T12:19:01.000Z</time>
      </trkpt>
      <trkpt lat="46.70006" lon="5.59595">
        <ele>396.6</ele>
        <time>2019-07-29T12:19:11.000Z</time>
      </trkpt>
      <trkpt lat="46.70004" lon="5.59582">
        <ele>392</ele>
        <time>2019-07-29T12:19:11.000Z</time>
      </trkpt>
      <trkpt lat="46.70007" lon="5.59561">
        <ele>393.4</ele>
        <time>2019-07-29T12:19:21.000Z</time>
      </trkpt>
      <trkpt lat="46.70007" lon="5.59553">
        <ele>388</ele>
        <time>2019-07-29T12:19:25.000Z</time>
      </trkpt>
      <trkpt lat="46.69998" lon="5.5953">
        <ele>390.2</ele>
        <time>2019-07-29T12:19:35.000Z</time>
      </trkpt>
      <trkpt lat="46.69998" lon="5.59522">
        <ele>385</ele>
        <time>2019-07-29T12:19:41.000Z</time>
      </trkpt>
      <trkpt lat="46.70001" lon="5.59511">
        <ele>388.2</ele>
        <time>2019-07-29T12:19:51.000Z</time>
      </trkpt>
      <trkpt lat="46.70004" lon="5.59502">
        <ele>387.1</ele>
        <time>2019-07-29T12:20:01.000Z</time>
      </trkpt>
      <trkpt lat="46.70007" lon="5.59495">
        <ele>383</ele>
        <time>2019-07-29T12:19:56.000Z</time>
      </trkpt>
      <trkpt lat="46.70013" lon="5.59492">
        <ele>385.7</ele>
        <time>2019-07-29T12:20:06.000Z</time>
      </trkpt>
      <trkpt lat="46.70022" lon="5.59485">
        <ele>384.6</ele>
        <time>2019-07-29T12:20:16.000Z</time>
      </trkpt>
      <trkpt lat="46.70027" lon="5.5948">
        <ele>376</ele>
        <time>2019-07-29T12:20:20.000Z</time>
      </trkpt>
      <trkpt lat="46.70032" lon="5.59471">
        <ele>382.2</ele>
        <time>2019-07-29T12:20:30.000Z</time>
      </trkpt>
      <trkpt lat="46.7004" lon="5.59463">
        <ele>380.1</ele>
        <time>2019-07-29T12:20:40.000Z</time>
      </trkpt>
      <trkpt lat="46.70047" lon="5.59448">
        <ele>371</ele>
        <time>2019-07-29T12:20:45.000Z</time>
      </trkpt>
      <trkpt lat="46.70049" lon="5.5944">
        <ele>376.2</ele>
        <time>2019-07-29T12:20:55.000Z</time>
      </trkpt>
      <trkpt lat="46.70053" lon="5.59434">
        <ele>375.1</ele>
        <time>2019-07-29T12:21:05.000Z</time>
      </trkpt>
      <trkpt lat="46.70058" lon="5.59418">
        <ele>369</ele>
        <time>2019-07-29T12:21:04.000Z</time>
      </trkpt>
      <trkpt lat="46.70061" lon="5.59406">
        <ele>372.5</ele>
        <time>2019-07-29T12:21:14.000Z</time>
      </trkpt>
      <trkpt lat="46.70068" lon="5.59397">
        <ele>372</ele>
        <time>2019-07-29T12:21:24.000Z</time>
      </trkpt>
      <trkpt lat="46.70074" lon="5.59381">
        <ele>367</ele>
        <time>2019-07-29T12:21:28.000Z</time>
      </trkpt>
      <trkpt lat="46.70076" lon="5.59373">
        <ele>372.8</ele>
        <time>2019-07-29T12:21:38.000Z</time>
      </trkpt>
      <trkpt lat="46.70077" lon="5.59366">
        <ele>373.4</ele>
        <time>2019-07-29T12:21:48.000Z</time>
      </trkpt>
      <trkpt lat="46.7008" lon="5.5936">
        <ele>373.9</ele>
        <time>2019-07-29T12:21:58.000Z</time>
      </trkpt>
      <trkpt lat="46.70084" lon="5.5935">
        <ele>367</ele>
        <time>2019-07-29T12:21:50.000Z</time>
      </trkpt>
      <trkpt lat="46.70085" lon="5.59342">
        <ele>374.5</ele>
        <time>2019-07-29T12:22:00.000Z</time>
      </trkpt>
      <trkpt lat="46.70089" lon="5.59337">
        <ele>374.3</ele>
        <time>2019-07-29T12:22:10.000Z</time>
      </trkpt>
      <trkpt lat="46.70092" lon="5.5933">
        <ele>373.8</ele>
        <time>2019-07-29T12:22:20.000Z</time>
      </trkpt>
      <trkpt lat="46.70094" lon="5.59317">
        <ele>366</ele>
        <time>2019-07-29T12:22:08.000Z</time>
      </trkpt>
      <trkpt lat="46.70096" lon="5.59308">
        <ele>371.8</ele>
        <time>2019-07-29T12:22:18.000Z</time>
      </trkpt>
      <trkpt lat="46.70097" lon="5.59298">
        <ele>371</ele>
        <time>2019-07-29T12:22:28.000Z</time>
      </trkpt>
      <trkpt lat="46.70107" lon="5.5925">
        <ele>365</ele>
        <time>2019-07-29T12:22:31.000Z</time>
      </trkpt>
      <trkpt lat="46.70108" lon="5.5924">
        <ele>367.8</ele>
        <time>2019-07-29T12:22:41.000Z</time>
      </trkpt>
      <trkpt lat="46.70113" lon="5.59218">
        <ele>365</ele>
        <time>2019-07-29T12:22:41.000Z</time>
      </trkpt>
      <trkpt lat="46.70119" lon="5.59201">
        <ele>366.4</ele>
        <time>2019-07-29T12:22:51.000Z</time>
      </trkpt>
      <trkpt lat="46.7012" lon="5.59193">
        <ele>361</ele>
        <time>2019-07-29T12:22:50.000Z</time>
      </trkpt>
      <trkpt lat="46.70117" lon="5.5919">
        <ele>366.8</ele>
        <time>2019-07-29T12:23:00.000Z</time>
      </trkpt>
      <trkpt lat="46.70119" lon="5.59182">
        <ele>367</ele>
        <time>2019-07-29T12:23:10.000Z</time>
      </trkpt>
      <trkpt lat="46.70122" lon="5.59174">
        <ele>367.2</ele>
        <time>2019-07-29T12:23:20.000Z</time>
      </trkpt>
      <trkpt lat="46.70123" lon="5.59165">
        <ele>360</ele>
        <time>2019-07-29T12:23:20.000Z</time>
      </trkpt>
      <trkpt lat="46.70122" lon="5.5916">
        <ele>368.5</ele>
        <time>2019-07-29T12:23:30.000Z</time>
      </trkpt>
      <trkpt lat="46.70132" lon="5.5915">
        <ele>369.2</ele>
        <time>2019-07-29T12:23:40.000Z</time>
      </trkpt>
      <trkpt lat="46.70138" lon="5.59148">
        <ele>358</ele>
        <time>2019-07-29T12:24:49.000Z</time>
      </trkpt>
      <trkpt lat="46.70156" lon="5.59138">
        <ele>358</ele>
        <time>2019-07-29T12:25:02.000Z</time>
      </trkpt>
      <trkpt lat="46.70161" lon="5.59137">
        <ele>368.5</ele>
        <time>2019-07-29T12:25:12.000Z</time>
      </trkpt>
      <trkpt lat="46.70167" lon="5.59134">
        <ele>368.3</ele>
        <time>2019-07-29T12:25:22.000Z</time>
      </trkpt>
      <trkpt lat="46.70172" lon="5.59126">
        <ele>357</ele>
        <time>2019-07-29T12:25:17.000Z</time>
      </trkpt>
      <trkpt lat="46.70175" lon="5.59116">
        <ele>369.3</ele>
        <time>2019-07-29T12:25:27.000Z</time>
      </trkpt>
      <trkpt lat="46.70175" lon="5.59107">
        <ele>369.7</ele>
        <time>2019-07-29T12:25:37.000Z</time>
      </trkpt>
      <trkpt lat="46.70176" lon="5.59098">
        <ele>357</ele>
        <time>2019-07-29T12:25:30.000Z</time>
      </trkpt>
      <trkpt lat="46.70178" lon="5.59088">
        <ele>369.3</ele>
        <time>2019-07-29T12:25:40.000Z</time>
      </trkpt>
      <trkpt lat="46.70184" lon="5.59067">
        <ele>358</ele>
        <time>2019-07-29T12:25:39.000Z</time>
      </trkpt>
      <trkpt lat="46.70185" lon="5.5906">
        <ele>367.3</ele>
        <time>2019-07-29T12:25:49.000Z</time>
      </trkpt>
      <trkpt lat="46.70188" lon="5.59054">
        <ele>366.6</ele>
        <time>2019-07-29T12:25:59.000Z</time>
      </trkpt>
      <trkpt lat="46.70188" lon="5.59038">
        <ele>359</ele>
        <time>2019-07-29T12:25:58.000Z</time>
      </trkpt>
      <trkpt lat="46.7019" lon="5.59027">
        <ele>363.7</ele>
        <time>2019-07-29T12:26:08.000Z</time>
      </trkpt>
      <trkpt lat="46.70191" lon="5.59016">
        <ele>362.8</ele>
        <time>2019-07-29T12:26:18.000Z</time>
      </trkpt>
      <trkpt lat="46.70191" lon="5.58996">
        <ele>360</ele>
        <time>2019-07-29T12:26:10.000Z</time>
      </trkpt>
      <trkpt lat="46.70189" lon="5.58985">
        <ele>361.1</ele>
        <time>2019-07-29T12:26:20.000Z</time>
      </trkpt>
      <trkpt lat="46.70189" lon="5.58973">
        <ele>360.4</ele>
        <time>2019-07-29T12:26:30.000Z</time>
      </trkpt>
      <trkpt lat="46.70188" lon="5.58961">
        <ele>355</ele>
        <time>2019-07-29T12:26:20.000Z</time>
      </trkpt>
      <trkpt lat="46.70184" lon="5.58949">
        <ele>360.7</ele>
        <time>2019-07-29T12:26:30.000Z</time>
      </trkpt>
      <trkpt lat="46.70181" lon="5.58935">
        <ele>351</ele>
        <time>2019-07-29T12:26:28.000Z</time>
      </trkpt>
      <trkpt lat="46.7018" lon="5.58934">
        <ele>359.9</ele>
        <time>2019-07-29T12:26:38.000Z</time>
      </trkpt>
      <trkpt lat="46.7018" lon="5.58932">
        <ele>359.7</ele>
        <time>2019-07-29T12:26:48.000Z</time>
      </trkpt>
      <trkpt lat="46.70179" lon="5.58931">
        <ele>359.7</ele>
        <time>2019-07-29T12:26:58.000Z</time>
      </trkpt>
      <trkpt lat="46.70179" lon="5.5893">
        <ele>359.5</ele>
        <time>2019-07-29T12:27:08.000Z</time>
      </trkpt>
      <trkpt lat="46.70176" lon="5.58923">
        <ele>358.8</ele>
        <time>2019-07-29T12:27:18.000Z</time>
      </trkpt>
      <trkpt lat="46.70173" lon="5.5891">
        <ele>345</ele>
        <time>2019-07-29T12:26:37.000Z</time>
      </trkpt>
      <trkpt lat="46.70175" lon="5.58887">
        <ele>353</ele>
        <time>2019-07-29T12:26:47.000Z</time>
      </trkpt>
      <trkpt lat="46.70182" lon="5.58865">
        <ele>339</ele>
        <time>2019-07-29T12:26:49.000Z</time>
      </trkpt>
      <trkpt lat="46.70186" lon="5.58856">
        <ele>348.3</ele>
        <time>2019-07-29T12:26:59.000Z</time>
      </trkpt>
      <trkpt lat="46.70188" lon="5.58849">
        <ele>347.4</ele>
        <time>2019-07-29T12:27:09.000Z</time>
      </trkpt>
      <trkpt lat="46.70191" lon="5.58842">
        <ele>346.3</ele>
        <time>2019-07-29T12:27:19.000Z</time>
      </trkpt>
      <trkpt lat="46.70195" lon="5.58828">
        <ele>336</ele>
        <time>2019-07-29T12:27:00.000Z</time>
      </trkpt>
      <trkpt lat="46.70207" lon="5.58803">
        <ele>333</ele>
        <time>2019-07-29T12:27:08.000Z</time>
      </trkpt>
      <trkpt lat="46.70214" lon="5.5878">
        <ele>341.2</ele>
        <time>2019-07-29T12:27:18.000Z</time>
      </trkpt>
      <trkpt lat="46.70219" lon="5.58767">
        <ele>325</ele>
        <time>2019-07-29T12:27:19.000Z</time>
      </trkpt>
      <trkpt lat="46.70223" lon="5.58754">
        <ele>339.3</ele>
        <time>2019-07-29T12:27:29.000Z</time>
      </trkpt>
      <trkpt lat="46.70232" lon="5.58736">
        <ele>324</ele>
        <time>2019-07-29T12:27:29.000Z</time>
      </trkpt>
      <trkpt lat="46.70235" lon="5.58726">
        <ele>338.1</ele>
        <time>2019-07-29T12:27:39.000Z</time>
      </trkpt>
      <trkpt lat="46.7024" lon="5.58718">
        <ele>337.9</ele>
        <time>2019-07-29T12:27:49.000Z</time>
      </trkpt>
      <trkpt lat="46.70246" lon="5.58711">
        <ele>324</ele>
        <time>2019-07-29T12:27:40.000Z</time>
      </trkpt>
      <trkpt lat="46.70251" lon="5.58702">
        <ele>338</ele>
        <time>2019-07-29T12:27:50.000Z</time>
      </trkpt>
      <trkpt lat="46.70266" lon="5.58649">
        <ele>323</ele>
        <time>2019-07-29T12:27:58.000Z</time>
      </trkpt>
      <trkpt lat="46.7027" lon="5.58639">
        <ele>336.7</ele>
        <time>2019-07-29T12:28:08.000Z</time>
      </trkpt>
      <trkpt lat="46.70276" lon="5.58618">
        <ele>324</ele>
        <time>2019-07-29T12:28:07.000Z</time>
      </trkpt>
      <trkpt lat="46.7028" lon="5.58595">
        <ele>334</ele>
        <time>2019-07-29T12:28:17.000Z</time>
      </trkpt>
      <trkpt lat="46.7028" lon="5.5856">
        <ele>325</ele>
        <time>2019-07-29T12:28:23.000Z</time>
      </trkpt>
      <trkpt lat="46.70283" lon="5.58551">
        <ele>336</ele>
        <time>2019-07-29T12:28:33.000Z</time>
      </trkpt>
      <trkpt lat="46.70285" lon="5.58543">
        <ele>336.3</ele>
        <time>2019-07-29T12:28:43.000Z</time>
      </trkpt>
      <trkpt lat="46.7029" lon="5.58534">
        <ele>327</ele>
        <time>2019-07-29T12:28:36.000Z</time>
      </trkpt>
      <trkpt lat="46.70293" lon="5.58526">
        <ele>337</ele>
        <time>2019-07-29T12:28:46.000Z</time>
      </trkpt>
      <trkpt lat="46.70304" lon="5.58504">
        <ele>331</ele>
        <time>2019-07-29T12:28:55.000Z</time>
      </trkpt>
      <trkpt lat="46.70306" lon="5.58495">
        <ele>337.2</ele>
        <time>2019-07-29T12:29:05.000Z</time>
      </trkpt>
      <trkpt lat="46.70309" lon="5.58486">
        <ele>337.5</ele>
        <time>2019-07-29T12:29:15.000Z</time>
      </trkpt>
      <trkpt lat="46.70312" lon="5.58479">
        <ele>331</ele>
        <time>2019-07-29T12:29:09.000Z</time>
      </trkpt>
      <trkpt lat="46.70313" lon="5.5847">
        <ele>338.1</ele>
        <time>2019-07-29T12:29:19.000Z</time>
      </trkpt>
      <trkpt lat="46.70315" lon="5.58462">
        <ele>338.4</ele>
        <time>2019-07-29T12:29:29.000Z</time>
      </trkpt>
      <trkpt lat="46.70316" lon="5.58454">
        <ele>338.7</ele>
        <time>2019-07-29T12:29:39.000Z</time>
      </trkpt>
      <trkpt lat="46.70316" lon="5.58445">
        <ele>332</ele>
        <time>2019-07-29T12:29:25.000Z</time>
      </trkpt>
      <trkpt lat="46.70321" lon="5.58432">
        <ele>339.2</ele>
        <time>2019-07-29T12:29:35.000Z</time>
      </trkpt>
      <trkpt lat="46.70329" lon="5.58397">
        <ele>332</ele>
        <time>2019-07-29T12:29:47.000Z</time>
      </trkpt>
      <trkpt lat="46.7033" lon="5.58389">
        <ele>340.9</ele>
        <time>2019-07-29T12:29:57.000Z</time>
      </trkpt>
      <trkpt lat="46.70332" lon="5.58381">
        <ele>341</ele>
        <time>2019-07-29T12:30:07.000Z</time>
      </trkpt>
      <trkpt lat="46.70335" lon="5.58357">
        <ele>333</ele>
        <time>2019-07-29T12:30:06.000Z</time>
      </trkpt>
      <trkpt lat="46.70337" lon="5.5835">
        <ele>341.6</ele>
        <time>2019-07-29T12:30:16.000Z</time>
      </trkpt>
      <trkpt lat="46.70338" lon="5.58342">
        <ele>341.9</ele>
        <time>2019-07-29T12:30:26.000Z</time>
      </trkpt>
      <trkpt lat="46.7034" lon="5.58333">
        <ele>342.2</ele>
        <time>2019-07-29T12:30:36.000Z</time>
      </trkpt>
      <trkpt lat="46.70343" lon="5.58314">
        <ele>336</ele>
        <time>2019-07-29T12:30:26.000Z</time>
      </trkpt>
      <trkpt lat="46.70345" lon="5.58307">
        <ele>341.5</ele>
        <time>2019-07-29T12:30:36.000Z</time>
      </trkpt>
      <trkpt lat="46.70346" lon="5.58295">
        <ele>341.5</ele>
        <time>2019-07-29T12:30:46.000Z</time>
      </trkpt>
      <trkpt lat="46.70346" lon="5.58268">
        <ele>343</ele>
        <time>2019-07-29T12:30:47.000Z</time>
      </trkpt>
      <trkpt lat="46.70344" lon="5.58259">
        <ele>341.1</ele>
        <time>2019-07-29T12:30:57.000Z</time>
      </trkpt>
      <trkpt lat="46.70341" lon="5.5825">
        <ele>341</ele>
        <time>2019-07-29T12:31:07.000Z</time>
      </trkpt>
      <trkpt lat="46.70335" lon="5.58239">
        <ele>344</ele>
        <time>2019-07-29T12:31:03.000Z</time>
      </trkpt>
      <trkpt lat="46.70334" lon="5.58238">
        <ele>341</ele>
        <time>2019-07-29T12:31:13.000Z</time>
      </trkpt>
      <trkpt lat="46.70332" lon="5.58238">
        <ele>341</ele>
        <time>2019-07-29T12:31:23.000Z</time>
      </trkpt>
      <trkpt lat="46.70332" lon="5.58237">
        <ele>341</ele>
        <time>2019-07-29T12:31:33.000Z</time>
      </trkpt>
      <trkpt lat="46.70331" lon="5.58237">
        <ele>341</ele>
        <time>2019-07-29T12:31:43.000Z</time>
      </trkpt>
      <trkpt lat="46.70313" lon="5.58225">
        <ele>345</ele>
        <time>2019-07-29T12:31:19.000Z</time>
      </trkpt>
      <trkpt lat="46.70307" lon="5.58217">
        <ele>341.2</ele>
        <time>2019-07-29T12:31:29.000Z</time>
      </trkpt>
      <trkpt lat="46.70304" lon="5.58209">
        <ele>341.5</ele>
        <time>2019-07-29T12:31:39.000Z</time>
      </trkpt>
      <trkpt lat="46.70302" lon="5.58198">
        <ele>346</ele>
        <time>2019-07-29T12:31:33.000Z</time>
      </trkpt>
      <trkpt lat="46.70303" lon="5.58185">
        <ele>342</ele>
        <time>2019-07-29T12:31:43.000Z</time>
      </trkpt>
      <trkpt lat="46.70301" lon="5.58176">
        <ele>342.1</ele>
        <time>2019-07-29T12:31:53.000Z</time>
      </trkpt>
      <trkpt lat="46.70296" lon="5.58168">
        <ele>347</ele>
        <time>2019-07-29T12:31:48.000Z</time>
      </trkpt>
      <trkpt lat="46.70294" lon="5.58157">
        <ele>342.6</ele>
        <time>2019-07-29T12:31:58.000Z</time>
      </trkpt>
      <trkpt lat="46.7029" lon="5.58149">
        <ele>342.9</ele>
        <time>2019-07-29T12:32:08.000Z</time>
      </trkpt>
      <trkpt lat="46.70287" lon="5.5814">
        <ele>347</ele>
        <time>2019-07-29T12:32:03.000Z</time>
      </trkpt>
      <trkpt lat="46.70285" lon="5.58131">
        <ele>343.8</ele>
        <time>2019-07-29T12:32:13.000Z</time>
      </trkpt>
      <trkpt lat="46.70283" lon="5.58118">
        <ele>344.4</ele>
        <time>2019-07-29T12:32:23.000Z</time>
      </trkpt>
      <trkpt lat="46.70284" lon="5.58105">
        <ele>346</ele>
        <time>2019-07-29T12:32:20.000Z</time>
      </trkpt>
      <trkpt lat="46.70286" lon="5.58094">
        <ele>345</ele>
        <time>2019-07-29T12:32:30.000Z</time>
      </trkpt>
      <trkpt lat="46.70284" lon="5.58083">
        <ele>345.6</ele>
        <time>2019-07-29T12:32:40.000Z</time>
      </trkpt>
      <trkpt lat="46.7028" lon="5.58075">
        <ele>347</ele>
        <time>2019-07-29T12:32:46.000Z</time>
      </trkpt>
      <trkpt lat="46.70273" lon="5.58056">
        <ele>348.1</ele>
        <time>2019-07-29T12:32:56.000Z</time>
      </trkpt>
      <trkpt lat="46.7027" lon="5.58046">
        <ele>349</ele>
        <time>2019-07-29T12:33:04.000Z</time>
      </trkpt>
      <trkpt lat="46.70266" lon="5.58037">
        <ele>350</ele>
        <time>2019-07-29T12:33:14.000Z</time>
      </trkpt>
      <trkpt lat="46.70256" lon="5.58019">
        <ele>351</ele>
        <time>2019-07-29T12:33:22.000Z</time>
      </trkpt>
      <trkpt lat="46.70247" lon="5.58005">
        <ele>353.7</ele>
        <time>2019-07-29T12:33:32.000Z</time>
      </trkpt>
      <trkpt lat="46.70238" lon="5.57979">
        <ele>353</ele>
        <time>2019-07-29T12:33:49.000Z</time>
      </trkpt>
      <trkpt lat="46.70234" lon="5.57969">
        <ele>356.2</ele>
        <time>2019-07-29T12:33:59.000Z</time>
      </trkpt>
      <trkpt lat="46.7023" lon="5.57961">
        <ele>356.8</ele>
        <time>2019-07-29T12:34:09.000Z</time>
      </trkpt>
      <trkpt lat="46.70225" lon="5.57953">
        <ele>354</ele>
        <time>2019-07-29T12:34:07.000Z</time>
      </trkpt>
      <trkpt lat="46.70219" lon="5.57945">
        <ele>358</ele>
        <time>2019-07-29T12:34:17.000Z</time>
      </trkpt>
      <trkpt lat="46.70212" lon="5.5793">
        <ele>357</ele>
        <time>2019-07-29T12:34:23.000Z</time>
      </trkpt>
      <trkpt lat="46.70207" lon="5.57923">
        <ele>360.3</ele>
        <time>2019-07-29T12:34:33.000Z</time>
      </trkpt>
      <trkpt lat="46.70196" lon="5.57912">
        <ele>361</ele>
        <time>2019-07-29T12:34:39.000Z</time>
      </trkpt>
      <trkpt lat="46.7019" lon="5.57899">
        <ele>362.9</ele>
        <time>2019-07-29T12:34:49.000Z</time>
      </trkpt>
      <trkpt lat="46.70183" lon="5.57891">
        <ele>366</ele>
        <time>2019-07-29T12:34:55.000Z</time>
      </trkpt>
      <trkpt lat="46.70175" lon="5.57878">
        <ele>365.5</ele>
        <time>2019-07-29T12:35:05.000Z</time>
      </trkpt>
      <trkpt lat="46.70169" lon="5.57871">
        <ele>369</ele>
        <time>2019-07-29T12:35:11.000Z</time>
      </trkpt>
      <trkpt lat="46.70166" lon="5.5786">
        <ele>368.2</ele>
        <time>2019-07-29T12:35:21.000Z</time>
      </trkpt>
      <trkpt lat="46.70161" lon="5.57853">
        <ele>369.4</ele>
        <time>2019-07-29T12:35:31.000Z</time>
      </trkpt>
      <trkpt lat="46.70155" lon="5.57847">
        <ele>373</ele>
        <time>2019-07-29T12:35:36.000Z</time>
      </trkpt>
      <trkpt lat="46.70149" lon="5.57839">
        <ele>371.8</ele>
        <time>2019-07-29T12:35:46.000Z</time>
      </trkpt>
      <trkpt lat="46.70145" lon="5.5783">
        <ele>373.3</ele>
        <time>2019-07-29T12:35:56.000Z</time>
      </trkpt>
      <trkpt lat="46.70139" lon="5.57823">
        <ele>373</ele>
        <time>2019-07-29T12:35:56.000Z</time>
      </trkpt>
      <trkpt lat="46.70132" lon="5.57817">
        <ele>375.4</ele>
        <time>2019-07-29T12:36:06.000Z</time>
      </trkpt>
      <trkpt lat="46.70122" lon="5.57804">
        <ele>380</ele>
        <time>2019-07-29T12:36:13.000Z</time>
      </trkpt>
      <trkpt lat="46.70119" lon="5.57798">
        <ele>378.1</ele>
        <time>2019-07-29T12:36:23.000Z</time>
      </trkpt>
      <trkpt lat="46.70116" lon="5.57787">
        <ele>379.7</ele>
        <time>2019-07-29T12:36:33.000Z</time>
      </trkpt>
      <trkpt lat="46.70105" lon="5.57771">
        <ele>380</ele>
        <time>2019-07-29T12:36:36.000Z</time>
      </trkpt>
      <trkpt lat="46.70102" lon="5.57765">
        <ele>380.6</ele>
        <time>2019-07-29T12:36:46.000Z</time>
      </trkpt>
      <trkpt lat="46.70097" lon="5.57757">
        <ele>380.6</ele>
        <time>2019-07-29T12:36:56.000Z</time>
      </trkpt>
      <trkpt lat="46.70094" lon="5.57749">
        <ele>380</ele>
        <time>2019-07-29T12:36:50.000Z</time>
      </trkpt>
      <trkpt lat="46.70084" lon="5.57734">
        <ele>381.2</ele>
        <time>2019-07-29T12:37:00.000Z</time>
      </trkpt>
      <trkpt lat="46.70077" lon="5.57727">
        <ele>380</ele>
        <time>2019-07-29T12:37:06.000Z</time>
      </trkpt>
      <trkpt lat="46.7007" lon="5.57722">
        <ele>382.5</ele>
        <time>2019-07-29T12:37:16.000Z</time>
      </trkpt>
      <trkpt lat="46.70064" lon="5.57719">
        <ele>382.7</ele>
        <time>2019-07-29T12:37:26.000Z</time>
      </trkpt>
      <trkpt lat="46.70059" lon="5.57715">
        <ele>380</ele>
        <time>2019-07-29T12:37:19.000Z</time>
      </trkpt>
      <trkpt lat="46.70055" lon="5.57715">
        <ele>383</ele>
        <time>2019-07-29T12:37:29.000Z</time>
      </trkpt>
      <trkpt lat="46.70036" lon="5.57705">
        <ele>381</ele>
        <time>2019-07-29T12:37:37.000Z</time>
      </trkpt>
      <trkpt lat="46.7003" lon="5.57703">
        <ele>383.9</ele>
        <time>2019-07-29T12:37:47.000Z</time>
      </trkpt>
      <trkpt lat="46.70018" lon="5.57701">
        <ele>384.3</ele>
        <time>2019-07-29T12:37:57.000Z</time>
      </trkpt>
      <trkpt lat="46.70013" lon="5.57699">
        <ele>381</ele>
        <time>2019-07-29T12:37:53.000Z</time>
      </trkpt>
      <trkpt lat="46.70007" lon="5.57699">
        <ele>384.6</ele>
        <time>2019-07-29T12:38:03.000Z</time>
      </trkpt>
      <trkpt lat="46.69995" lon="5.57695">
        <ele>385.2</ele>
        <time>2019-07-29T12:38:13.000Z</time>
      </trkpt>
      <trkpt lat="46.69988" lon="5.57696">
        <ele>381</ele>
        <time>2019-07-29T12:38:10.000Z</time>
      </trkpt>
      <trkpt lat="46.69983" lon="5.57695">
        <ele>385.6</ele>
        <time>2019-07-29T12:38:20.000Z</time>
      </trkpt>
      <trkpt lat="46.69977" lon="5.57693">
        <ele>385.8</ele>
        <time>2019-07-29T12:38:30.000Z</time>
      </trkpt>
      <trkpt lat="46.69972" lon="5.5769">
        <ele>386</ele>
        <time>2019-07-29T12:38:40.000Z</time>
      </trkpt>
      <trkpt lat="46.69965" lon="5.57688">
        <ele>382</ele>
        <time>2019-07-29T12:38:27.000Z</time>
      </trkpt>
      <trkpt lat="46.69959" lon="5.57689">
        <ele>386.4</ele>
        <time>2019-07-29T12:38:37.000Z</time>
      </trkpt>
      <trkpt lat="46.69954" lon="5.57688">
        <ele>386.5</ele>
        <time>2019-07-29T12:38:47.000Z</time>
      </trkpt>
      <trkpt lat="46.69947" lon="5.57688">
        <ele>386.7</ele>
        <time>2019-07-29T12:38:57.000Z</time>
      </trkpt>
      <trkpt lat="46.6994" lon="5.57685">
        <ele>385</ele>
        <time>2019-07-29T12:38:45.000Z</time>
      </trkpt>
      <trkpt lat="46.69934" lon="5.57684">
        <ele>385.9</ele>
        <time>2019-07-29T12:38:55.000Z</time>
      </trkpt>
      <trkpt lat="46.69927" lon="5.57685">
        <ele>385.4</ele>
        <time>2019-07-29T12:39:05.000Z</time>
      </trkpt>
      <trkpt lat="46.6992" lon="5.57684">
        <ele>385</ele>
        <time>2019-07-29T12:38:59.000Z</time>
      </trkpt>
      <trkpt lat="46.69912" lon="5.57681">
        <ele>384.5</ele>
        <time>2019-07-29T12:39:09.000Z</time>
      </trkpt>
      <trkpt lat="46.69905" lon="5.57677">
        <ele>384.4</ele>
        <time>2019-07-29T12:39:19.000Z</time>
      </trkpt>
      <trkpt lat="46.69898" lon="5.57669">
        <ele>383</ele>
        <time>2019-07-29T12:39:22.000Z</time>
      </trkpt>
      <trkpt lat="46.69881" lon="5.57659">
        <ele>383.9</ele>
        <time>2019-07-29T12:39:32.000Z</time>
      </trkpt>
      <trkpt lat="46.69856" lon="5.57649">
        <ele>383</ele>
        <time>2019-07-29T12:39:52.000Z</time>
      </trkpt>
      <trkpt lat="46.69856" lon="5.57648">
        <ele>383</ele>
        <time>2019-07-29T12:40:02.000Z</time>
      </trkpt>
      <trkpt lat="46.69853" lon="5.57647">
        <ele>383</ele>
        <time>2019-07-29T12:40:12.000Z</time>
      </trkpt>
      <trkpt lat="46.69847" lon="5.57643">
        <ele>383.5</ele>
        <time>2019-07-29T12:40:22.000Z</time>
      </trkpt>
      <trkpt lat="46.69836" lon="5.57638">
        <ele>385</ele>
        <time>2019-07-29T12:40:08.000Z</time>
      </trkpt>
      <trkpt lat="46.69836" lon="5.57637">
        <ele>384</ele>
        <time>2019-07-29T12:40:18.000Z</time>
      </trkpt>
      <trkpt lat="46.69834" lon="5.57637">
        <ele>384</ele>
        <time>2019-07-29T12:40:28.000Z</time>
      </trkpt>
      <trkpt lat="46.69834" lon="5.57636">
        <ele>384</ele>
        <time>2019-07-29T12:40:38.000Z</time>
      </trkpt>
      <trkpt lat="46.69832" lon="5.57636">
        <ele>383.9</ele>
        <time>2019-07-29T12:40:48.000Z</time>
      </trkpt>
      <trkpt lat="46.69825" lon="5.57633">
        <ele>383.6</ele>
        <time>2019-07-29T12:40:58.000Z</time>
      </trkpt>
      <trkpt lat="46.69825" lon="5.57632">
        <ele>383.6</ele>
        <time>2019-07-29T12:41:08.000Z</time>
      </trkpt>
      <trkpt lat="46.69823" lon="5.57632">
        <ele>383.5</ele>
        <time>2019-07-29T12:41:18.000Z</time>
      </trkpt>
      <trkpt lat="46.69816" lon="5.57628">
        <ele>386</ele>
        <time>2019-07-29T12:40:22.000Z</time>
      </trkpt>
      <trkpt lat="46.69814" lon="5.57628">
        <ele>383.4</ele>
        <time>2019-07-29T12:40:32.000Z</time>
      </trkpt>
      <trkpt lat="46.69813" lon="5.57627">
        <ele>383.5</ele>
        <time>2019-07-29T12:40:42.000Z</time>
      </trkpt>
      <trkpt lat="46.69811" lon="5.57627">
        <ele>383.4</ele>
        <time>2019-07-29T12:40:52.000Z</time>
      </trkpt>
      <trkpt lat="46.69805" lon="5.57625">
        <ele>383.5</ele>
        <time>2019-07-29T12:41:02.000Z</time>
      </trkpt>
      <trkpt lat="46.69795" lon="5.57619">
        <ele>389</ele>
        <time>2019-07-29T12:40:37.000Z</time>
      </trkpt>
      <trkpt lat="46.69795" lon="5.57618">
        <ele>383.8</ele>
        <time>2019-07-29T12:40:47.000Z</time>
      </trkpt>
      <trkpt lat="46.69793" lon="5.57618">
        <ele>383.7</ele>
        <time>2019-07-29T12:40:57.000Z</time>
      </trkpt>
      <trkpt lat="46.69792" lon="5.57617">
        <ele>383.8</ele>
        <time>2019-07-29T12:41:07.000Z</time>
      </trkpt>
      <trkpt lat="46.69786" lon="5.57615">
        <ele>383.8</ele>
        <time>2019-07-29T12:41:17.000Z</time>
      </trkpt>
      <trkpt lat="46.69774" lon="5.57613">
        <ele>389</ele>
        <time>2019-07-29T12:40:52.000Z</time>
      </trkpt>
      <trkpt lat="46.69774" lon="5.57612">
        <ele>383.9</ele>
        <time>2019-07-29T12:41:02.000Z</time>
      </trkpt>
      <trkpt lat="46.69772" lon="5.57612">
        <ele>383.9</ele>
        <time>2019-07-29T12:41:12.000Z</time>
      </trkpt>
      <trkpt lat="46.69771" lon="5.57611">
        <ele>384</ele>
        <time>2019-07-29T12:41:22.000Z</time>
      </trkpt>
      <trkpt lat="46.69727" lon="5.57599">
        <ele>386</ele>
        <time>2019-07-29T12:41:25.000Z</time>
      </trkpt>
      <trkpt lat="46.69726" lon="5.57598">
        <ele>384</ele>
        <time>2019-07-29T12:41:35.000Z</time>
      </trkpt>
      <trkpt lat="46.69724" lon="5.57598">
        <ele>384</ele>
        <time>2019-07-29T12:41:45.000Z</time>
      </trkpt>
      <trkpt lat="46.69719" lon="5.57596">
        <ele>383.9</ele>
        <time>2019-07-29T12:41:55.000Z</time>
      </trkpt>
      <trkpt lat="46.6971" lon="5.57587">
        <ele>386</ele>
        <time>2019-07-29T12:41:37.000Z</time>
      </trkpt>
      <trkpt lat="46.6971" lon="5.57572">
        <ele>385.1</ele>
        <time>2019-07-29T12:41:47.000Z</time>
      </trkpt>
      <trkpt lat="46.69711" lon="5.57572">
        <ele>385.2</ele>
        <time>2019-07-29T12:41:57.000Z</time>
      </trkpt>
      <trkpt lat="46.69711" lon="5.57571">
        <ele>385.2</ele>
        <time>2019-07-29T12:42:07.000Z</time>
      </trkpt>
      <trkpt lat="46.69713" lon="5.57571">
        <ele>385.3</ele>
        <time>2019-07-29T12:42:17.000Z</time>
      </trkpt>
      <trkpt lat="46.69713" lon="5.5757">
        <ele>385.3</ele>
        <time>2019-07-29T12:42:27.000Z</time>
      </trkpt>
      <trkpt lat="46.69715" lon="5.5757">
        <ele>385.5</ele>
        <time>2019-07-29T12:42:37.000Z</time>
      </trkpt>
      <trkpt lat="46.6972" lon="5.57567">
        <ele>386</ele>
        <time>2019-07-29T12:41:52.000Z</time>
      </trkpt>
      <trkpt lat="46.6973" lon="5.57568">
        <ele>386</ele>
        <time>2019-07-29T12:42:02.000Z</time>
      </trkpt>
      <trkpt lat="46.69731" lon="5.57568">
        <ele>386</ele>
        <time>2019-07-29T12:42:12.000Z</time>
      </trkpt>
      <trkpt lat="46.69731" lon="5.57567">
        <ele>386</ele>
        <time>2019-07-29T12:42:22.000Z</time>
      </trkpt>
      <trkpt lat="46.6974" lon="5.57567">
        <ele>386</ele>
        <time>2019-07-29T12:42:08.000Z</time>
      </trkpt>
      <trkpt lat="46.69749" lon="5.57559">
        <ele>386</ele>
        <time>2019-07-29T12:42:18.000Z</time>
      </trkpt>
      <trkpt lat="46.69749" lon="5.57558">
        <ele>386</ele>
        <time>2019-07-29T12:42:28.000Z</time>
      </trkpt>
      <trkpt lat="46.6975" lon="5.57557">
        <ele>386</ele>
        <time>2019-07-29T12:42:38.000Z</time>
      </trkpt>
      <trkpt lat="46.6975" lon="5.57555">
        <ele>385.9</ele>
        <time>2019-07-29T12:42:48.000Z</time>
      </trkpt>
      <trkpt lat="46.69751" lon="5.57554">
        <ele>385.8</ele>
        <time>2019-07-29T12:42:58.000Z</time>
      </trkpt>
      <trkpt lat="46.69753" lon="5.57545">
        <ele>381</ele>
        <time>2019-07-29T12:42:25.000Z</time>
      </trkpt>
      <trkpt lat="46.69755" lon="5.57531">
        <ele>383.2</ele>
        <time>2019-07-29T12:42:35.000Z</time>
      </trkpt>
      <trkpt lat="46.69758" lon="5.57517">
        <ele>378</ele>
        <time>2019-07-29T12:42:38.000Z</time>
      </trkpt>
      <trkpt lat="46.69758" lon="5.57513">
        <ele>381.3</ele>
        <time>2019-07-29T12:42:48.000Z</time>
      </trkpt>
      <trkpt lat="46.69757" lon="5.57512">
        <ele>381.3</ele>
        <time>2019-07-29T12:42:58.000Z</time>
      </trkpt>
      <trkpt lat="46.69757" lon="5.5751">
        <ele>381.1</ele>
        <time>2019-07-29T12:43:08.000Z</time>
      </trkpt>
      <trkpt lat="46.69755" lon="5.57502">
        <ele>380.6</ele>
        <time>2019-07-29T12:43:18.000Z</time>
      </trkpt>
      <trkpt lat="46.69745" lon="5.57493">
        <ele>378</ele>
        <time>2019-07-29T12:42:53.000Z</time>
      </trkpt>
      <trkpt lat="46.69742" lon="5.57492">
        <ele>378.8</ele>
        <time>2019-07-29T12:43:03.000Z</time>
      </trkpt>
      <trkpt lat="46.69742" lon="5.57491">
        <ele>378.5</ele>
        <time>2019-07-29T12:43:13.000Z</time>
      </trkpt>
      <trkpt lat="46.69736" lon="5.57489">
        <ele>377.9</ele>
        <time>2019-07-29T12:43:23.000Z</time>
      </trkpt>
      <trkpt lat="46.69725" lon="5.57484">
        <ele>371</ele>
        <time>2019-07-29T12:43:06.000Z</time>
      </trkpt>
      <trkpt lat="46.6972" lon="5.57484">
        <ele>376.4</ele>
        <time>2019-07-29T12:43:16.000Z</time>
      </trkpt>
      <trkpt lat="46.69715" lon="5.57483">
        <ele>375.9</ele>
        <time>2019-07-29T12:43:26.000Z</time>
      </trkpt>
      <trkpt lat="46.69705" lon="5.57484">
        <ele>371</ele>
        <time>2019-07-29T12:43:16.000Z</time>
      </trkpt>
      <trkpt lat="46.6969" lon="5.5749">
        <ele>375.7</ele>
        <time>2019-07-29T12:43:26.000Z</time>
      </trkpt>
      <trkpt lat="46.69685" lon="5.57493">
        <ele>369</ele>
        <time>2019-07-29T12:43:26.000Z</time>
      </trkpt>
      <trkpt lat="46.69677" lon="5.57501">
        <ele>376</ele>
        <time>2019-07-29T12:43:36.000Z</time>
      </trkpt>
      <trkpt lat="46.69649" lon="5.57523">
        <ele>368</ele>
        <time>2019-07-29T12:43:46.000Z</time>
      </trkpt>
      <trkpt lat="46.69646" lon="5.57523">
        <ele>373.1</ele>
        <time>2019-07-29T12:43:56.000Z</time>
      </trkpt>
      <trkpt lat="46.69645" lon="5.57524">
        <ele>373</ele>
        <time>2019-07-29T12:44:06.000Z</time>
      </trkpt>
      <trkpt lat="46.69638" lon="5.57525">
        <ele>371.4</ele>
        <time>2019-07-29T12:44:16.000Z</time>
      </trkpt>
      <trkpt lat="46.69637" lon="5.57526">
        <ele>371.2</ele>
        <time>2019-07-29T12:44:26.000Z</time>
      </trkpt>
      <trkpt lat="46.69627" lon="5.57527">
        <ele>365</ele>
        <time>2019-07-29T12:43:57.000Z</time>
      </trkpt>
      <trkpt lat="46.69624" lon="5.57529">
        <ele>367.9</ele>
        <time>2019-07-29T12:44:07.000Z</time>
      </trkpt>
      <trkpt lat="46.69617" lon="5.57531">
        <ele>366.1</ele>
        <time>2019-07-29T12:44:17.000Z</time>
      </trkpt>
      <trkpt lat="46.69614" lon="5.57531">
        <ele>365.3</ele>
        <time>2019-07-29T12:44:27.000Z</time>
      </trkpt>
      <trkpt lat="46.69613" lon="5.57532">
        <ele>365.1</ele>
        <time>2019-07-29T12:44:37.000Z</time>
      </trkpt>
      <trkpt lat="46.69601" lon="5.57532">
        <ele>365</ele>
        <time>2019-07-29T12:44:09.000Z</time>
      </trkpt>
      <trkpt lat="46.69591" lon="5.57533">
        <ele>362.4</ele>
        <time>2019-07-29T12:44:19.000Z</time>
      </trkpt>
      <trkpt lat="46.6959" lon="5.57532">
        <ele>362.2</ele>
        <time>2019-07-29T12:44:29.000Z</time>
      </trkpt>
      <trkpt lat="46.69585" lon="5.57532">
        <ele>361.6</ele>
        <time>2019-07-29T12:44:39.000Z</time>
      </trkpt>
      <trkpt lat="46.69572" lon="5.57528">
        <ele>363</ele>
        <time>2019-07-29T12:44:20.000Z</time>
      </trkpt>
      <trkpt lat="46.69563" lon="5.57523">
        <ele>359.1</ele>
        <time>2019-07-29T12:44:30.000Z</time>
      </trkpt>
      <trkpt lat="46.69562" lon="5.57523">
        <ele>359</ele>
        <time>2019-07-29T12:44:40.000Z</time>
      </trkpt>
      <trkpt lat="46.6956" lon="5.57521">
        <ele>358.6</ele>
        <time>2019-07-29T12:44:50.000Z</time>
      </trkpt>
      <trkpt lat="46.69553" lon="5.57518">
        <ele>360</ele>
        <time>2019-07-29T12:44:28.000Z</time>
      </trkpt>
      <trkpt lat="46.69543" lon="5.5752">
        <ele>356.4</ele>
        <time>2019-07-29T12:44:38.000Z</time>
      </trkpt>
      <trkpt lat="46.69536" lon="5.57528">
        <ele>358</ele>
        <time>2019-07-29T12:44:42.000Z</time>
      </trkpt>
      <trkpt lat="46.69529" lon="5.57524">
        <ele>354.8</ele>
        <time>2019-07-29T12:44:52.000Z</time>
      </trkpt>
      <trkpt lat="46.69522" lon="5.57519">
        <ele>353.1</ele>
        <time>2019-07-29T12:45:02.000Z</time>
      </trkpt>
      <trkpt lat="46.69513" lon="5.57515">
        <ele>354</ele>
        <time>2019-07-29T12:44:54.000Z</time>
      </trkpt>
      <trkpt lat="46.69504" lon="5.57514">
        <ele>349.7</ele>
        <time>2019-07-29T12:45:04.000Z</time>
      </trkpt>
      <trkpt lat="46.69495" lon="5.57511">
        <ele>347.9</ele>
        <time>2019-07-29T12:45:14.000Z</time>
      </trkpt>
      <trkpt lat="46.69486" lon="5.57509">
        <ele>350</ele>
        <time>2019-07-29T12:45:06.000Z</time>
      </trkpt>
      <trkpt lat="46.69476" lon="5.57508">
        <ele>344.3</ele>
        <time>2019-07-29T12:45:16.000Z</time>
      </trkpt>
      <trkpt lat="46.69459" lon="5.57502">
        <ele>348</ele>
        <time>2019-07-29T12:45:17.000Z</time>
      </trkpt>
      <trkpt lat="46.69445" lon="5.57498">
        <ele>341</ele>
        <time>2019-07-29T12:45:27.000Z</time>
      </trkpt>
      <trkpt lat="46.69441" lon="5.57489">
        <ele>346</ele>
        <time>2019-07-29T12:45:30.000Z</time>
      </trkpt>
      <trkpt lat="46.69443" lon="5.57482">
        <ele>340.5</ele>
        <time>2019-07-29T12:45:40.000Z</time>
      </trkpt>
      <trkpt lat="46.69438" lon="5.57491">
        <ele>341.2</ele>
        <time>2019-07-29T12:45:50.000Z</time>
      </trkpt>
      <trkpt lat="46.69435" lon="5.57501">
        <ele>341</ele>
        <time>2019-07-29T12:48:29.000Z</time>
      </trkpt>
      <trkpt lat="46.69435" lon="5.57515">
        <ele>342</ele>
        <time>2019-07-29T12:48:39.000Z</time>
      </trkpt>
      <trkpt lat="46.69433" lon="5.57525">
        <ele>342.4</ele>
        <time>2019-07-29T12:48:49.000Z</time>
      </trkpt>
      <trkpt lat="46.6943" lon="5.57535">
        <ele>341</ele>
        <time>2019-07-29T12:48:45.000Z</time>
      </trkpt>
      <trkpt lat="46.69428" lon="5.57545">
        <ele>343.1</ele>
        <time>2019-07-29T12:48:55.000Z</time>
      </trkpt>
      <trkpt lat="46.69425" lon="5.57572">
        <ele>343</ele>
        <time>2019-07-29T12:49:03.000Z</time>
      </trkpt>
      <trkpt lat="46.69421" lon="5.57587">
        <ele>344.2</ele>
        <time>2019-07-29T12:49:13.000Z</time>
      </trkpt>
      <trkpt lat="46.6942" lon="5.57596">
        <ele>344.2</ele>
        <time>2019-07-29T12:49:23.000Z</time>
      </trkpt>
      <trkpt lat="46.69415" lon="5.57612">
        <ele>345</ele>
        <time>2019-07-29T12:49:23.000Z</time>
      </trkpt>
      <trkpt lat="46.69412" lon="5.57618">
        <ele>344</ele>
        <time>2019-07-29T12:49:33.000Z</time>
      </trkpt>
      <trkpt lat="46.69408" lon="5.57646">
        <ele>346</ele>
        <time>2019-07-29T12:49:39.000Z</time>
      </trkpt>
      <trkpt lat="46.69406" lon="5.57652">
        <ele>343</ele>
        <time>2019-07-29T12:49:49.000Z</time>
      </trkpt>
      <trkpt lat="46.69403" lon="5.57658">
        <ele>342.3</ele>
        <time>2019-07-29T12:49:59.000Z</time>
      </trkpt>
      <trkpt lat="46.69398" lon="5.57661">
        <ele>341.6</ele>
        <time>2019-07-29T12:50:09.000Z</time>
      </trkpt>
      <trkpt lat="46.69393" lon="5.5766">
        <ele>346</ele>
        <time>2019-07-29T12:49:51.000Z</time>
      </trkpt>
      <trkpt lat="46.69388" lon="5.5766">
        <ele>341</ele>
        <time>2019-07-29T12:50:01.000Z</time>
      </trkpt>
      <trkpt lat="46.69378" lon="5.57657">
        <ele>341.4</ele>
        <time>2019-07-29T12:50:11.000Z</time>
      </trkpt>
      <trkpt lat="46.69371" lon="5.57657">
        <ele>344</ele>
        <time>2019-07-29T12:50:06.000Z</time>
      </trkpt>
      <trkpt lat="46.69362" lon="5.57655">
        <ele>341.7</ele>
        <time>2019-07-29T12:50:16.000Z</time>
      </trkpt>
      <trkpt lat="46.69353" lon="5.57654">
        <ele>342</ele>
        <time>2019-07-29T12:50:26.000Z</time>
      </trkpt>
      <trkpt lat="46.69343" lon="5.57652">
        <ele>342</ele>
        <time>2019-07-29T12:50:26.000Z</time>
      </trkpt>
      <trkpt lat="46.69336" lon="5.57649">
        <ele>342.9</ele>
        <time>2019-07-29T12:50:36.000Z</time>
      </trkpt>
      <trkpt lat="46.69311" lon="5.57645">
        <ele>338</ele>
        <time>2019-07-29T12:50:50.000Z</time>
      </trkpt>
      <trkpt lat="46.6931" lon="5.57644">
        <ele>344.1</ele>
        <time>2019-07-29T12:51:00.000Z</time>
      </trkpt>
      <trkpt lat="46.69302" lon="5.57643">
        <ele>344.4</ele>
        <time>2019-07-29T12:51:10.000Z</time>
      </trkpt>
      <trkpt lat="46.69294" lon="5.57641">
        <ele>344.7</ele>
        <time>2019-07-29T12:51:20.000Z</time>
      </trkpt>
      <trkpt lat="46.69286" lon="5.57641">
        <ele>338</ele>
        <time>2019-07-29T12:51:06.000Z</time>
      </trkpt>
      <trkpt lat="46.69277" lon="5.57644">
        <ele>344.1</ele>
        <time>2019-07-29T12:51:16.000Z</time>
      </trkpt>
      <trkpt lat="46.69268" lon="5.57648">
        <ele>338</ele>
        <time>2019-07-29T12:51:18.000Z</time>
      </trkpt>
      <trkpt lat="46.69265" lon="5.57648">
        <ele>342.9</ele>
        <time>2019-07-29T12:51:28.000Z</time>
      </trkpt>
      <trkpt lat="46.69265" lon="5.57649">
        <ele>342.7</ele>
        <time>2019-07-29T12:51:38.000Z</time>
      </trkpt>
      <trkpt lat="46.69258" lon="5.57649">
        <ele>342.5</ele>
        <time>2019-07-29T12:51:48.000Z</time>
      </trkpt>
      <trkpt lat="46.69248" lon="5.57647">
        <ele>338</ele>
        <time>2019-07-29T12:51:34.000Z</time>
      </trkpt>
      <trkpt lat="46.69239" lon="5.57642">
        <ele>342.7</ele>
        <time>2019-07-29T12:51:44.000Z</time>
      </trkpt>
      <trkpt lat="46.69237" lon="5.57642">
        <ele>342.6</ele>
        <time>2019-07-29T12:51:54.000Z</time>
      </trkpt>
      <trkpt lat="46.69237" lon="5.57641">
        <ele>342.7</ele>
        <time>2019-07-29T12:52:04.000Z</time>
      </trkpt>
      <trkpt lat="46.69235" lon="5.57641">
        <ele>342.6</ele>
        <time>2019-07-29T12:52:14.000Z</time>
      </trkpt>
      <trkpt lat="46.69234" lon="5.5764">
        <ele>342.7</ele>
        <time>2019-07-29T12:52:24.000Z</time>
      </trkpt>
      <trkpt lat="46.69228" lon="5.57638">
        <ele>335</ele>
        <time>2019-07-29T12:51:50.000Z</time>
      </trkpt>
      <trkpt lat="46.69227" lon="5.57637">
        <ele>342.5</ele>
        <time>2019-07-29T12:52:00.000Z</time>
      </trkpt>
      <trkpt lat="46.69225" lon="5.57637">
        <ele>342.4</ele>
        <time>2019-07-29T12:52:10.000Z</time>
      </trkpt>
      <trkpt lat="46.69225" lon="5.57636">
        <ele>342.5</ele>
        <time>2019-07-29T12:52:20.000Z</time>
      </trkpt>
      <trkpt lat="46.69216" lon="5.57634">
        <ele>341.9</ele>
        <time>2019-07-29T12:52:30.000Z</time>
      </trkpt>
      <trkpt lat="46.69216" lon="5.57633">
        <ele>342</ele>
        <time>2019-07-29T12:52:40.000Z</time>
      </trkpt>
      <trkpt lat="46.69214" lon="5.57633">
        <ele>341.8</ele>
        <time>2019-07-29T12:52:50.000Z</time>
      </trkpt>
      <trkpt lat="46.69213" lon="5.57632">
        <ele>341.8</ele>
        <time>2019-07-29T12:53:00.000Z</time>
      </trkpt>
      <trkpt lat="46.69207" lon="5.57631">
        <ele>335</ele>
        <time>2019-07-29T12:52:02.000Z</time>
      </trkpt>
      <trkpt lat="46.69183" lon="5.57621">
        <ele>341</ele>
        <time>2019-07-29T12:52:35.000Z</time>
      </trkpt>
      <trkpt lat="46.69164" lon="5.57612">
        <ele>341</ele>
        <time>2019-07-29T12:52:48.000Z</time>
      </trkpt>
      <trkpt lat="46.69157" lon="5.5761">
        <ele>338.1</ele>
        <time>2019-07-29T12:52:58.000Z</time>
      </trkpt>
      <trkpt lat="46.6915" lon="5.57606">
        <ele>337.9</ele>
        <time>2019-07-29T12:53:08.000Z</time>
      </trkpt>
      <trkpt lat="46.69143" lon="5.57604">
        <ele>338</ele>
        <time>2019-07-29T12:53:01.000Z</time>
      </trkpt>
      <trkpt lat="46.69135" lon="5.576">
        <ele>337.2</ele>
        <time>2019-07-29T12:53:11.000Z</time>
      </trkpt>
      <trkpt lat="46.69127" lon="5.57595">
        <ele>337</ele>
        <time>2019-07-29T12:53:21.000Z</time>
      </trkpt>
      <trkpt lat="46.69119" lon="5.57587">
        <ele>338</ele>
        <time>2019-07-29T12:53:17.000Z</time>
      </trkpt>
      <trkpt lat="46.69103" lon="5.57575">
        <ele>337</ele>
        <time>2019-07-29T12:53:27.000Z</time>
      </trkpt>
      <trkpt lat="46.69067" lon="5.57558">
        <ele>336</ele>
        <time>2019-07-29T12:53:43.000Z</time>
      </trkpt>
      <trkpt lat="46.6906" lon="5.57554">
        <ele>333.9</ele>
        <time>2019-07-29T12:53:53.000Z</time>
      </trkpt>
      <trkpt lat="46.69053" lon="5.57551">
        <ele>333.3</ele>
        <time>2019-07-29T12:54:03.000Z</time>
      </trkpt>
      <trkpt lat="46.69047" lon="5.5755">
        <ele>334</ele>
        <time>2019-07-29T12:53:53.000Z</time>
      </trkpt>
      <trkpt lat="46.69041" lon="5.57548">
        <ele>331.8</ele>
        <time>2019-07-29T12:54:03.000Z</time>
      </trkpt>
      <trkpt lat="46.69036" lon="5.57548">
        <ele>331.1</ele>
        <time>2019-07-29T12:54:13.000Z</time>
      </trkpt>
      <trkpt lat="46.69031" lon="5.57545">
        <ele>330.6</ele>
        <time>2019-07-29T12:54:23.000Z</time>
      </trkpt>
      <trkpt lat="46.69025" lon="5.57545">
        <ele>334</ele>
        <time>2019-07-29T12:54:49.000Z</time>
      </trkpt>
      <trkpt lat="46.69018" lon="5.57543">
        <ele>328.8</ele>
        <time>2019-07-29T12:54:59.000Z</time>
      </trkpt>
      <trkpt lat="46.69011" lon="5.5754">
        <ele>327.9</ele>
        <time>2019-07-29T12:55:09.000Z</time>
      </trkpt>
      <trkpt lat="46.69002" lon="5.57538">
        <ele>326</ele>
        <time>2019-07-29T12:55:03.000Z</time>
      </trkpt>
      <trkpt lat="46.68986" lon="5.57533">
        <ele>324.5</ele>
        <time>2019-07-29T12:55:13.000Z</time>
      </trkpt>
      <trkpt lat="46.68979" lon="5.57529">
        <ele>326</ele>
        <time>2019-07-29T12:55:13.000Z</time>
      </trkpt>
      <trkpt lat="46.68966" lon="5.57519">
        <ele>322.6</ele>
        <time>2019-07-29T12:55:23.000Z</time>
      </trkpt>
      <trkpt lat="46.68961" lon="5.57512">
        <ele>323</ele>
        <time>2019-07-29T12:55:22.000Z</time>
      </trkpt>
      <trkpt lat="46.68954" lon="5.57507">
        <ele>321.7</ele>
        <time>2019-07-29T12:55:32.000Z</time>
      </trkpt>
      <trkpt lat="46.68947" lon="5.57498">
        <ele>321.5</ele>
        <time>2019-07-29T12:55:42.000Z</time>
      </trkpt>
      <trkpt lat="46.68939" lon="5.57489">
        <ele>320</ele>
        <time>2019-07-29T12:55:33.000Z</time>
      </trkpt>
      <trkpt lat="46.68933" lon="5.57485">
        <ele>320</ele>
        <time>2019-07-29T12:55:43.000Z</time>
      </trkpt>
      <trkpt lat="46.68919" lon="5.57481">
        <ele>320</ele>
        <time>2019-07-29T12:55:42.000Z</time>
      </trkpt>
      <trkpt lat="46.68912" lon="5.5748">
        <ele>316.8</ele>
        <time>2019-07-29T12:55:52.000Z</time>
      </trkpt>
      <trkpt lat="46.68898" lon="5.57482">
        <ele>310</ele>
        <time>2019-07-29T12:55:51.000Z</time>
      </trkpt>
      <trkpt lat="46.68891" lon="5.57484">
        <ele>313.5</ele>
        <time>2019-07-29T12:56:01.000Z</time>
      </trkpt>
      <trkpt lat="46.6888" lon="5.57489">
        <ele>303</ele>
        <time>2019-07-29T12:55:58.000Z</time>
      </trkpt>
      <trkpt lat="46.68879" lon="5.5749">
        <ele>311.4</ele>
        <time>2019-07-29T12:56:08.000Z</time>
      </trkpt>
      <trkpt lat="46.68877" lon="5.5749">
        <ele>311.1</ele>
        <time>2019-07-29T12:56:18.000Z</time>
      </trkpt>
      <trkpt lat="46.68876" lon="5.57491">
        <ele>311</ele>
        <time>2019-07-29T12:56:28.000Z</time>
      </trkpt>
      <trkpt lat="46.68869" lon="5.57494">
        <ele>310</ele>
        <time>2019-07-29T12:56:38.000Z</time>
      </trkpt>
      <trkpt lat="46.6886" lon="5.57496">
        <ele>303</ele>
        <time>2019-07-29T12:56:06.000Z</time>
      </trkpt>
      <trkpt lat="46.68851" lon="5.575">
        <ele>307.2</ele>
        <time>2019-07-29T12:56:16.000Z</time>
      </trkpt>
      <trkpt lat="46.68837" lon="5.57504">
        <ele>298</ele>
        <time>2019-07-29T12:56:16.000Z</time>
      </trkpt>
      <trkpt lat="46.68833" lon="5.57494">
        <ele>303.9</ele>
        <time>2019-07-29T12:56:26.000Z</time>
      </trkpt>
      <trkpt lat="46.68831" lon="5.57483">
        <ele>303.6</ele>
        <time>2019-07-29T12:56:36.000Z</time>
      </trkpt>
      <trkpt lat="46.6883" lon="5.57481">
        <ele>303.4</ele>
        <time>2019-07-29T12:56:46.000Z</time>
      </trkpt>
      <trkpt lat="46.6883" lon="5.57478">
        <ele>297</ele>
        <time>2019-07-29T12:56:26.000Z</time>
      </trkpt>
      <trkpt lat="46.68829" lon="5.57477">
        <ele>303.2</ele>
        <time>2019-07-29T12:56:36.000Z</time>
      </trkpt>
      <trkpt lat="46.68827" lon="5.5747">
        <ele>302.8</ele>
        <time>2019-07-29T12:56:46.000Z</time>
      </trkpt>
      <trkpt lat="46.68822" lon="5.57463">
        <ele>301.8</ele>
        <time>2019-07-29T12:56:56.000Z</time>
      </trkpt>
      <trkpt lat="46.68816" lon="5.57458">
        <ele>296</ele>
        <time>2019-07-29T12:56:35.000Z</time>
      </trkpt>
      <trkpt lat="46.68811" lon="5.57449">
        <ele>299.3</ele>
        <time>2019-07-29T12:56:45.000Z</time>
      </trkpt>
      <trkpt lat="46.68797" lon="5.57432">
        <ele>297</ele>
        <time>2019-07-29T12:56:45.000Z</time>
      </trkpt>
      <trkpt lat="46.68771" lon="5.57407">
        <ele>297</ele>
        <time>2019-07-29T12:56:57.000Z</time>
      </trkpt>
      <trkpt lat="46.68766" lon="5.57404">
        <ele>293</ele>
        <time>2019-07-29T12:57:07.000Z</time>
      </trkpt>
      <trkpt lat="46.68757" lon="5.57396">
        <ele>291.9</ele>
        <time>2019-07-29T12:57:17.000Z</time>
      </trkpt>
      <trkpt lat="46.68741" lon="5.57379">
        <ele>296</ele>
        <time>2019-07-29T12:57:11.000Z</time>
      </trkpt>
      <trkpt lat="46.68736" lon="5.57373">
        <ele>290.1</ele>
        <time>2019-07-29T12:57:21.000Z</time>
      </trkpt>
      <trkpt lat="46.68732" lon="5.57365">
        <ele>289.7</ele>
        <time>2019-07-29T12:57:31.000Z</time>
      </trkpt>
      <trkpt lat="46.68726" lon="5.57355">
        <ele>295</ele>
        <time>2019-07-29T12:57:21.000Z</time>
      </trkpt>
      <trkpt lat="46.68718" lon="5.57346">
        <ele>287.5</ele>
        <time>2019-07-29T12:57:31.000Z</time>
      </trkpt>
      <trkpt lat="46.68711" lon="5.57341">
        <ele>286.8</ele>
        <time>2019-07-29T12:57:41.000Z</time>
      </trkpt>
      <trkpt lat="46.68705" lon="5.57334">
        <ele>293</ele>
        <time>2019-07-29T12:57:31.000Z</time>
      </trkpt>
      <trkpt lat="46.68698" lon="5.57329">
        <ele>285.4</ele>
        <time>2019-07-29T12:57:41.000Z</time>
      </trkpt>
      <trkpt lat="46.68683" lon="5.5732">
        <ele>289</ele>
        <time>2019-07-29T12:57:40.000Z</time>
      </trkpt>
      <trkpt lat="46.68658" lon="5.57295">
        <ele>281</ele>
        <time>2019-07-29T12:57:52.000Z</time>
      </trkpt>
      <trkpt lat="46.68651" lon="5.57287">
        <ele>280.5</ele>
        <time>2019-07-29T12:58:02.000Z</time>
      </trkpt>
      <trkpt lat="46.6865" lon="5.57285">
        <ele>280.4</ele>
        <time>2019-07-29T12:58:12.000Z</time>
      </trkpt>
      <trkpt lat="46.68636" lon="5.57272">
        <ele>281</ele>
        <time>2019-07-29T12:58:02.000Z</time>
      </trkpt>
      <trkpt lat="46.68632" lon="5.57271">
        <ele>278.7</ele>
        <time>2019-07-29T12:58:12.000Z</time>
      </trkpt>
      <trkpt lat="46.68626" lon="5.57267">
        <ele>278.4</ele>
        <time>2019-07-29T12:58:22.000Z</time>
      </trkpt>
      <trkpt lat="46.68619" lon="5.57264">
        <ele>277.9</ele>
        <time>2019-07-29T12:58:32.000Z</time>
      </trkpt>
      <trkpt lat="46.68608" lon="5.57258">
        <ele>280</ele>
        <time>2019-07-29T12:58:16.000Z</time>
      </trkpt>
      <trkpt lat="46.68592" lon="5.57252">
        <ele>275.6</ele>
        <time>2019-07-29T12:58:26.000Z</time>
      </trkpt>
      <trkpt lat="46.68591" lon="5.57251">
        <ele>275.6</ele>
        <time>2019-07-29T12:58:36.000Z</time>
      </trkpt>
      <trkpt lat="46.68584" lon="5.57248">
        <ele>280</ele>
        <time>2019-07-29T12:58:25.000Z</time>
      </trkpt>
      <trkpt lat="46.68565" lon="5.57238">
        <ele>281</ele>
        <time>2019-07-29T12:58:33.000Z</time>
      </trkpt>
      <trkpt lat="46.68555" lon="5.57229">
        <ele>272</ele>
        <time>2019-07-29T12:58:43.000Z</time>
      </trkpt>
      <trkpt lat="46.68555" lon="5.57228">
        <ele>272</ele>
        <time>2019-07-29T12:58:53.000Z</time>
      </trkpt>
      <trkpt lat="46.68553" lon="5.57225">
        <ele>271.8</ele>
        <time>2019-07-29T12:59:03.000Z</time>
      </trkpt>
      <trkpt lat="46.68549" lon="5.57221">
        <ele>279</ele>
        <time>2019-07-29T12:58:41.000Z</time>
      </trkpt>
      <trkpt lat="46.68535" lon="5.57196">
        <ele>277</ele>
        <time>2019-07-29T12:58:49.000Z</time>
      </trkpt>
      <trkpt lat="46.68532" lon="5.57192">
        <ele>269.2</ele>
        <time>2019-07-29T12:58:59.000Z</time>
      </trkpt>
      <trkpt lat="46.68528" lon="5.57182">
        <ele>268.6</ele>
        <time>2019-07-29T12:59:09.000Z</time>
      </trkpt>
      <trkpt lat="46.68528" lon="5.5718">
        <ele>268.5</ele>
        <time>2019-07-29T12:59:19.000Z</time>
      </trkpt>
      <trkpt lat="46.68524" lon="5.5717">
        <ele>276</ele>
        <time>2019-07-29T12:58:57.000Z</time>
      </trkpt>
      <trkpt lat="46.68523" lon="5.57169">
        <ele>268.1</ele>
        <time>2019-07-29T12:59:07.000Z</time>
      </trkpt>
      <trkpt lat="46.68522" lon="5.57166">
        <ele>268</ele>
        <time>2019-07-29T12:59:17.000Z</time>
      </trkpt>
      <trkpt lat="46.68517" lon="5.57158">
        <ele>268.3</ele>
        <time>2019-07-29T12:59:27.000Z</time>
      </trkpt>
      <trkpt lat="46.68507" lon="5.57148">
        <ele>275</ele>
        <time>2019-07-29T12:59:07.000Z</time>
      </trkpt>
      <trkpt lat="46.68506" lon="5.57148">
        <ele>268.7</ele>
        <time>2019-07-29T12:59:17.000Z</time>
      </trkpt>
      <trkpt lat="46.68505" lon="5.57147">
        <ele>268.7</ele>
        <time>2019-07-29T12:59:27.000Z</time>
      </trkpt>
      <trkpt lat="46.68505" lon="5.57146">
        <ele>268.7</ele>
        <time>2019-07-29T12:59:37.000Z</time>
      </trkpt>
      <trkpt lat="46.68498" lon="5.57139">
        <ele>269.5</ele>
        <time>2019-07-29T12:59:47.000Z</time>
      </trkpt>
      <trkpt lat="46.68498" lon="5.57137">
        <ele>269.5</ele>
        <time>2019-07-29T12:59:57.000Z</time>
      </trkpt>
      <trkpt lat="46.68496" lon="5.57135">
        <ele>270</ele>
        <time>2019-07-29T13:00:07.000Z</time>
      </trkpt>
      <trkpt lat="46.68492" lon="5.57127">
        <ele>275</ele>
        <time>2019-07-29T12:59:17.000Z</time>
      </trkpt>
      <trkpt lat="46.68489" lon="5.5711">
        <ele>271.7</ele>
        <time>2019-07-29T12:59:27.000Z</time>
      </trkpt>
      <trkpt lat="46.68488" lon="5.57107">
        <ele>271.9</ele>
        <time>2019-07-29T12:59:37.000Z</time>
      </trkpt>
      <trkpt lat="46.68488" lon="5.57103">
        <ele>271.7</ele>
        <time>2019-07-29T12:59:47.000Z</time>
      </trkpt>
      <trkpt lat="46.68486" lon="5.57092">
        <ele>274</ele>
        <time>2019-07-29T12:59:24.000Z</time>
      </trkpt>
      <trkpt lat="46.68485" lon="5.57089">
        <ele>272</ele>
        <time>2019-07-29T12:59:34.000Z</time>
      </trkpt>
      <trkpt lat="46.68485" lon="5.57087">
        <ele>271.9</ele>
        <time>2019-07-29T12:59:44.000Z</time>
      </trkpt>
      <trkpt lat="46.68484" lon="5.57085">
        <ele>272.1</ele>
        <time>2019-07-29T12:59:54.000Z</time>
      </trkpt>
      <trkpt lat="46.68482" lon="5.57075">
        <ele>272.3</ele>
        <time>2019-07-29T13:00:04.000Z</time>
      </trkpt>
      <trkpt lat="46.68482" lon="5.57073">
        <ele>272.2</ele>
        <time>2019-07-29T13:00:14.000Z</time>
      </trkpt>
      <trkpt lat="46.68481" lon="5.57071">
        <ele>272.3</ele>
        <time>2019-07-29T13:00:24.000Z</time>
      </trkpt>
      <trkpt lat="46.6848" lon="5.57056">
        <ele>274</ele>
        <time>2019-07-29T12:59:34.000Z</time>
      </trkpt>
      <trkpt lat="46.68479" lon="5.57054">
        <ele>271.9</ele>
        <time>2019-07-29T12:59:44.000Z</time>
      </trkpt>
      <trkpt lat="46.68479" lon="5.57038">
        <ele>270.9</ele>
        <time>2019-07-29T12:59:54.000Z</time>
      </trkpt>
      <trkpt lat="46.68478" lon="5.57026">
        <ele>274</ele>
        <time>2019-07-29T12:59:42.000Z</time>
      </trkpt>
      <trkpt lat="46.68477" lon="5.57024">
        <ele>270.1</ele>
        <time>2019-07-29T12:59:52.000Z</time>
      </trkpt>
      <trkpt lat="46.68475" lon="5.57013">
        <ele>269.3</ele>
        <time>2019-07-29T13:00:02.000Z</time>
      </trkpt>
      <trkpt lat="46.68474" lon="5.57012">
        <ele>269.2</ele>
        <time>2019-07-29T13:00:12.000Z</time>
      </trkpt>
      <trkpt lat="46.68474" lon="5.5701">
        <ele>269</ele>
        <time>2019-07-29T13:00:22.000Z</time>
      </trkpt>
      <trkpt lat="46.68473" lon="5.57009">
        <ele>268.9</ele>
        <time>2019-07-29T13:00:32.000Z</time>
      </trkpt>
      <trkpt lat="46.68473" lon="5.57007">
        <ele>268.7</ele>
        <time>2019-07-29T13:00:42.000Z</time>
      </trkpt>
      <trkpt lat="46.6847" lon="5.56998">
        <ele>274</ele>
        <time>2019-07-29T12:59:50.000Z</time>
      </trkpt>
      <trkpt lat="46.68469" lon="5.56997">
        <ele>269</ele>
        <time>2019-07-29T13:00:00.000Z</time>
      </trkpt>
      <trkpt lat="46.68469" lon="5.56995">
        <ele>269.1</ele>
        <time>2019-07-29T13:00:10.000Z</time>
      </trkpt>
      <trkpt lat="46.68468" lon="5.56994">
        <ele>269.4</ele>
        <time>2019-07-29T13:00:20.000Z</time>
      </trkpt>
      <trkpt lat="46.68466" lon="5.56986">
        <ele>270.2</ele>
        <time>2019-07-29T13:00:30.000Z</time>
      </trkpt>
      <trkpt lat="46.6846" lon="5.56972">
        <ele>275</ele>
        <time>2019-07-29T13:00:03.000Z</time>
      </trkpt>
      <trkpt lat="46.68459" lon="5.56971">
        <ele>272.3</ele>
        <time>2019-07-29T13:00:13.000Z</time>
      </trkpt>
      <trkpt lat="46.68459" lon="5.56969">
        <ele>272.1</ele>
        <time>2019-07-29T13:00:23.000Z</time>
      </trkpt>
      <trkpt lat="46.68457" lon="5.56967">
        <ele>272.4</ele>
        <time>2019-07-29T13:00:33.000Z</time>
      </trkpt>
      <trkpt lat="46.68447" lon="5.56946">
        <ele>277</ele>
        <time>2019-07-29T13:00:19.000Z</time>
      </trkpt>
      <trkpt lat="46.68447" lon="5.56945">
        <ele>271</ele>
        <time>2019-07-29T13:00:29.000Z</time>
      </trkpt>
      <trkpt lat="46.68445" lon="5.56942">
        <ele>271</ele>
        <time>2019-07-29T13:00:39.000Z</time>
      </trkpt>
      <trkpt lat="46.68442" lon="5.56933">
        <ele>271.4</ele>
        <time>2019-07-29T13:00:49.000Z</time>
      </trkpt>
      <trkpt lat="46.68442" lon="5.56931">
        <ele>271.4</ele>
        <time>2019-07-29T13:00:59.000Z</time>
      </trkpt>
      <trkpt lat="46.68441" lon="5.5693">
        <ele>271.5</ele>
        <time>2019-07-29T13:01:09.000Z</time>
      </trkpt>
      <trkpt lat="46.68441" lon="5.56927">
        <ele>271.5</ele>
        <time>2019-07-29T13:01:19.000Z</time>
      </trkpt>
      <trkpt lat="46.68435" lon="5.56905">
        <ele>280</ele>
        <time>2019-07-29T13:00:39.000Z</time>
      </trkpt>
      <trkpt lat="46.68434" lon="5.56904">
        <ele>272.8</ele>
        <time>2019-07-29T13:00:49.000Z</time>
      </trkpt>
      <trkpt lat="46.68434" lon="5.56903">
        <ele>272.8</ele>
        <time>2019-07-29T13:00:59.000Z</time>
      </trkpt>
      <trkpt lat="46.68433" lon="5.56902">
        <ele>273</ele>
        <time>2019-07-29T13:01:09.000Z</time>
      </trkpt>
      <trkpt lat="46.68433" lon="5.56901">
        <ele>273</ele>
        <time>2019-07-29T13:01:19.000Z</time>
      </trkpt>
      <trkpt lat="46.68432" lon="5.569">
        <ele>273.1</ele>
        <time>2019-07-29T13:01:29.000Z</time>
      </trkpt>
      <trkpt lat="46.68429" lon="5.56894">
        <ele>273.6</ele>
        <time>2019-07-29T13:01:39.000Z</time>
      </trkpt>
      <trkpt lat="46.68426" lon="5.56879">
        <ele>282</ele>
        <time>2019-07-29T13:00:55.000Z</time>
      </trkpt>
      <trkpt lat="46.68426" lon="5.56877">
        <ele>274.1</ele>
        <time>2019-07-29T13:01:05.000Z</time>
      </trkpt>
      <trkpt lat="46.68425" lon="5.56876">
        <ele>274.2</ele>
        <time>2019-07-29T13:01:15.000Z</time>
      </trkpt>
      <trkpt lat="46.68425" lon="5.56872">
        <ele>274.3</ele>
        <time>2019-07-29T13:01:25.000Z</time>
      </trkpt>
      <trkpt lat="46.68422" lon="5.5685">
        <ele>282</ele>
        <time>2019-07-29T13:01:07.000Z</time>
      </trkpt>
      <trkpt lat="46.68422" lon="5.56836">
        <ele>275</ele>
        <time>2019-07-29T13:01:17.000Z</time>
      </trkpt>
      <trkpt lat="46.68418" lon="5.5682">
        <ele>281</ele>
        <time>2019-07-29T13:01:23.000Z</time>
      </trkpt>
      <trkpt lat="46.68417" lon="5.56819">
        <ele>275</ele>
        <time>2019-07-29T13:01:33.000Z</time>
      </trkpt>
      <trkpt lat="46.68416" lon="5.56819">
        <ele>275.1</ele>
        <time>2019-07-29T13:01:43.000Z</time>
      </trkpt>
      <trkpt lat="46.68416" lon="5.56818">
        <ele>275.1</ele>
        <time>2019-07-29T13:01:53.000Z</time>
      </trkpt>
      <trkpt lat="46.68411" lon="5.56813">
        <ele>275.8</ele>
        <time>2019-07-29T13:02:03.000Z</time>
      </trkpt>
      <trkpt lat="46.68407" lon="5.56802">
        <ele>276.6</ele>
        <time>2019-07-29T13:02:13.000Z</time>
      </trkpt>
      <trkpt lat="46.68402" lon="5.56785">
        <ele>281</ele>
        <time>2019-07-29T13:01:42.000Z</time>
      </trkpt>
      <trkpt lat="46.68396" lon="5.56774">
        <ele>279.4</ele>
        <time>2019-07-29T13:01:52.000Z</time>
      </trkpt>
      <trkpt lat="46.68396" lon="5.56772">
        <ele>279.2</ele>
        <time>2019-07-29T13:02:02.000Z</time>
      </trkpt>
      <trkpt lat="46.68395" lon="5.56772">
        <ele>279.2</ele>
        <time>2019-07-29T13:02:12.000Z</time>
      </trkpt>
      <trkpt lat="46.68395" lon="5.5677">
        <ele>278.9</ele>
        <time>2019-07-29T13:02:22.000Z</time>
      </trkpt>
      <trkpt lat="46.68394" lon="5.56769">
        <ele>278.8</ele>
        <time>2019-07-29T13:02:32.000Z</time>
      </trkpt>
      <trkpt lat="46.68385" lon="5.5675">
        <ele>278</ele>
        <time>2019-07-29T13:02:01.000Z</time>
      </trkpt>
      <trkpt lat="46.68373" lon="5.56723">
        <ele>277</ele>
        <time>2019-07-29T13:02:15.000Z</time>
      </trkpt>
      <trkpt lat="46.68367" lon="5.56712">
        <ele>276.1</ele>
        <time>2019-07-29T13:02:25.000Z</time>
      </trkpt>
      <trkpt lat="46.68366" lon="5.56699">
        <ele>274</ele>
        <time>2019-07-29T13:02:22.000Z</time>
      </trkpt>
      <trkpt lat="46.68366" lon="5.56687">
        <ele>273.8</ele>
        <time>2019-07-29T13:02:32.000Z</time>
      </trkpt>
      <trkpt lat="46.68363" lon="5.56677">
        <ele>273.4</ele>
        <time>2019-07-29T13:02:42.000Z</time>
      </trkpt>
      <trkpt lat="46.68359" lon="5.56667">
        <ele>272</ele>
        <time>2019-07-29T13:02:31.000Z</time>
      </trkpt>
      <trkpt lat="46.68351" lon="5.5664">
        <ele>271</ele>
        <time>2019-07-29T13:02:39.000Z</time>
      </trkpt>
      <trkpt lat="46.68349" lon="5.56635">
        <ele>271.8</ele>
        <time>2019-07-29T13:02:49.000Z</time>
      </trkpt>
      <trkpt lat="46.68347" lon="5.56627">
        <ele>271.4</ele>
        <time>2019-07-29T13:02:59.000Z</time>
      </trkpt>
      <trkpt lat="46.68343" lon="5.56618">
        <ele>270.8</ele>
        <time>2019-07-29T13:03:09.000Z</time>
      </trkpt>
      <trkpt lat="46.6834" lon="5.56609">
        <ele>270</ele>
        <time>2019-07-29T13:02:49.000Z</time>
      </trkpt>
      <trkpt lat="46.68335" lon="5.56597">
        <ele>269.5</ele>
        <time>2019-07-29T13:02:59.000Z</time>
      </trkpt>
      <trkpt lat="46.68325" lon="5.56578">
        <ele>269</ele>
        <time>2019-07-29T13:03:00.000Z</time>
      </trkpt>
      <trkpt lat="46.68323" lon="5.56576">
        <ele>269.3</ele>
        <time>2019-07-29T13:03:10.000Z</time>
      </trkpt>
      <trkpt lat="46.6832" lon="5.5657">
        <ele>269</ele>
        <time>2019-07-29T13:03:20.000Z</time>
      </trkpt>
      <trkpt lat="46.68308" lon="5.56555">
        <ele>268</ele>
        <time>2019-07-29T13:03:09.000Z</time>
      </trkpt>
      <trkpt lat="46.68304" lon="5.56547">
        <ele>267.8</ele>
        <time>2019-07-29T13:03:19.000Z</time>
      </trkpt>
      <trkpt lat="46.68298" lon="5.56537">
        <ele>267.7</ele>
        <time>2019-07-29T13:03:29.000Z</time>
      </trkpt>
      <trkpt lat="46.68284" lon="5.56518">
        <ele>270</ele>
        <time>2019-07-29T13:03:24.000Z</time>
      </trkpt>
      <trkpt lat="46.68278" lon="5.56507">
        <ele>267.2</ele>
        <time>2019-07-29T13:03:34.000Z</time>
      </trkpt>
      <trkpt lat="46.68264" lon="5.56488">
        <ele>272</ele>
        <time>2019-07-29T13:03:36.000Z</time>
      </trkpt>
      <trkpt lat="46.68259" lon="5.56478">
        <ele>268.5</ele>
        <time>2019-07-29T13:03:46.000Z</time>
      </trkpt>
      <trkpt lat="46.68221" lon="5.56437">
        <ele>275</ele>
        <time>2019-07-29T13:03:59.000Z</time>
      </trkpt>
      <trkpt lat="46.68216" lon="5.56424">
        <ele>269.4</ele>
        <time>2019-07-29T13:04:09.000Z</time>
      </trkpt>
      <trkpt lat="46.68211" lon="5.56414">
        <ele>275</ele>
        <time>2019-07-29T13:04:09.000Z</time>
      </trkpt>
      <trkpt lat="46.68204" lon="5.56398">
        <ele>269.7</ele>
        <time>2019-07-29T13:04:19.000Z</time>
      </trkpt>
      <trkpt lat="46.682" lon="5.56393">
        <ele>269.8</ele>
        <time>2019-07-29T13:04:29.000Z</time>
      </trkpt>
      <trkpt lat="46.68195" lon="5.56385">
        <ele>275</ele>
        <time>2019-07-29T13:04:25.000Z</time>
      </trkpt>
      <trkpt lat="46.68192" lon="5.56376">
        <ele>270</ele>
        <time>2019-07-29T13:04:35.000Z</time>
      </trkpt>
      <trkpt lat="46.68182" lon="5.56363">
        <ele>274</ele>
        <time>2019-07-29T13:04:39.000Z</time>
      </trkpt>
      <trkpt lat="46.68179" lon="5.56356">
        <ele>269.5</ele>
        <time>2019-07-29T13:04:49.000Z</time>
      </trkpt>
      <trkpt lat="46.68165" lon="5.5634">
        <ele>274</ele>
        <time>2019-07-29T13:04:51.000Z</time>
      </trkpt>
      <trkpt lat="46.68159" lon="5.56332">
        <ele>269</ele>
        <time>2019-07-29T13:05:01.000Z</time>
      </trkpt>
      <trkpt lat="46.68152" lon="5.56324">
        <ele>269</ele>
        <time>2019-07-29T13:05:11.000Z</time>
      </trkpt>
      <trkpt lat="46.68146" lon="5.56314">
        <ele>272</ele>
        <time>2019-07-29T13:05:01.000Z</time>
      </trkpt>
      <trkpt lat="46.68142" lon="5.56303">
        <ele>269</ele>
        <time>2019-07-29T13:05:11.000Z</time>
      </trkpt>
      <trkpt lat="46.6813" lon="5.56279">
        <ele>270</ele>
        <time>2019-07-29T13:05:12.000Z</time>
      </trkpt>
      <trkpt lat="46.68124" lon="5.56269">
        <ele>268.5</ele>
        <time>2019-07-29T13:05:22.000Z</time>
      </trkpt>
      <trkpt lat="46.68113" lon="5.56254">
        <ele>270</ele>
        <time>2019-07-29T13:05:23.000Z</time>
      </trkpt>
      <trkpt lat="46.68107" lon="5.56242">
        <ele>267.3</ele>
        <time>2019-07-29T13:05:33.000Z</time>
      </trkpt>
      <trkpt lat="46.68106" lon="5.56241">
        <ele>267.3</ele>
        <time>2019-07-29T13:05:43.000Z</time>
      </trkpt>
      <trkpt lat="46.68106" lon="5.56239">
        <ele>267.1</ele>
        <time>2019-07-29T13:05:53.000Z</time>
      </trkpt>
      <trkpt lat="46.681" lon="5.56227">
        <ele>269</ele>
        <time>2019-07-29T13:05:31.000Z</time>
      </trkpt>
      <trkpt lat="46.68099" lon="5.56226">
        <ele>266.2</ele>
        <time>2019-07-29T13:05:41.000Z</time>
      </trkpt>
      <trkpt lat="46.68096" lon="5.56219">
        <ele>265.9</ele>
        <time>2019-07-29T13:05:51.000Z</time>
      </trkpt>
      <trkpt lat="46.68091" lon="5.56203">
        <ele>268</ele>
        <time>2019-07-29T13:05:37.000Z</time>
      </trkpt>
      <trkpt lat="46.68091" lon="5.56201">
        <ele>265.5</ele>
        <time>2019-07-29T13:05:47.000Z</time>
      </trkpt>
      <trkpt lat="46.6809" lon="5.56199">
        <ele>265.5</ele>
        <time>2019-07-29T13:05:57.000Z</time>
      </trkpt>
      <trkpt lat="46.68088" lon="5.5619">
        <ele>265.3</ele>
        <time>2019-07-29T13:06:07.000Z</time>
      </trkpt>
      <trkpt lat="46.68084" lon="5.56177">
        <ele>265</ele>
        <time>2019-07-29T13:05:44.000Z</time>
      </trkpt>
      <trkpt lat="46.68084" lon="5.56175">
        <ele>265.2</ele>
        <time>2019-07-29T13:05:54.000Z</time>
      </trkpt>
      <trkpt lat="46.68083" lon="5.56173">
        <ele>265.3</ele>
        <time>2019-07-29T13:06:04.000Z</time>
      </trkpt>
      <trkpt lat="46.68083" lon="5.56171">
        <ele>265.2</ele>
        <time>2019-07-29T13:06:14.000Z</time>
      </trkpt>
      <trkpt lat="46.68081" lon="5.56164">
        <ele>265.1</ele>
        <time>2019-07-29T13:06:24.000Z</time>
      </trkpt>
      <trkpt lat="46.68078" lon="5.56145">
        <ele>264</ele>
        <time>2019-07-29T13:05:53.000Z</time>
      </trkpt>
      <trkpt lat="46.68077" lon="5.56144">
        <ele>264.6</ele>
        <time>2019-07-29T13:06:03.000Z</time>
      </trkpt>
      <trkpt lat="46.68077" lon="5.56142">
        <ele>264.6</ele>
        <time>2019-07-29T13:06:13.000Z</time>
      </trkpt>
      <trkpt lat="46.68074" lon="5.56133">
        <ele>264.5</ele>
        <time>2019-07-29T13:06:23.000Z</time>
      </trkpt>
      <trkpt lat="46.68074" lon="5.56129">
        <ele>264.3</ele>
        <time>2019-07-29T13:06:33.000Z</time>
      </trkpt>
      <trkpt lat="46.68073" lon="5.56127">
        <ele>264.3</ele>
        <time>2019-07-29T13:06:43.000Z</time>
      </trkpt>
      <trkpt lat="46.68071" lon="5.56118">
        <ele>265</ele>
        <time>2019-07-29T13:06:00.000Z</time>
      </trkpt>
      <trkpt lat="46.68071" lon="5.56116">
        <ele>264.1</ele>
        <time>2019-07-29T13:06:10.000Z</time>
      </trkpt>
      <trkpt lat="46.6807" lon="5.56114">
        <ele>264.1</ele>
        <time>2019-07-29T13:06:20.000Z</time>
      </trkpt>
      <trkpt lat="46.68068" lon="5.56105">
        <ele>263.5</ele>
        <time>2019-07-29T13:06:30.000Z</time>
      </trkpt>
      <trkpt lat="46.68065" lon="5.56089">
        <ele>264</ele>
        <time>2019-07-29T13:06:08.000Z</time>
      </trkpt>
      <trkpt lat="46.68064" lon="5.56087">
        <ele>262.1</ele>
        <time>2019-07-29T13:06:18.000Z</time>
      </trkpt>
      <trkpt lat="46.68064" lon="5.56083">
        <ele>261.8</ele>
        <time>2019-07-29T13:06:28.000Z</time>
      </trkpt>
      <trkpt lat="46.68062" lon="5.56073">
        <ele>261.7</ele>
        <time>2019-07-29T13:06:38.000Z</time>
      </trkpt>
      <trkpt lat="46.68061" lon="5.56071">
        <ele>261.8</ele>
        <time>2019-07-29T13:06:48.000Z</time>
      </trkpt>
      <trkpt lat="46.68061" lon="5.56069">
        <ele>261.7</ele>
        <time>2019-07-29T13:06:58.000Z</time>
      </trkpt>
      <trkpt lat="46.6806" lon="5.56068">
        <ele>261.8</ele>
        <time>2019-07-29T13:07:08.000Z</time>
      </trkpt>
      <trkpt lat="46.68058" lon="5.56057">
        <ele>264</ele>
        <time>2019-07-29T13:06:17.000Z</time>
      </trkpt>
      <trkpt lat="46.68057" lon="5.56055">
        <ele>261.8</ele>
        <time>2019-07-29T13:06:27.000Z</time>
      </trkpt>
      <trkpt lat="46.68057" lon="5.56053">
        <ele>261.8</ele>
        <time>2019-07-29T13:06:37.000Z</time>
      </trkpt>
      <trkpt lat="46.68054" lon="5.56046">
        <ele>262.1</ele>
        <time>2019-07-29T13:06:47.000Z</time>
      </trkpt>
      <trkpt lat="46.6805" lon="5.56031">
        <ele>262</ele>
        <time>2019-07-29T13:06:24.000Z</time>
      </trkpt>
      <trkpt lat="46.68049" lon="5.56029">
        <ele>262.5</ele>
        <time>2019-07-29T13:06:34.000Z</time>
      </trkpt>
      <trkpt lat="46.68049" lon="5.56027">
        <ele>262.4</ele>
        <time>2019-07-29T13:06:44.000Z</time>
      </trkpt>
      <trkpt lat="46.68046" lon="5.56018">
        <ele>262.3</ele>
        <time>2019-07-29T13:06:54.000Z</time>
      </trkpt>
      <trkpt lat="46.68043" lon="5.56005">
        <ele>263</ele>
        <time>2019-07-29T13:06:32.000Z</time>
      </trkpt>
      <trkpt lat="46.68037" lon="5.55998">
        <ele>262.3</ele>
        <time>2019-07-29T13:06:42.000Z</time>
      </trkpt>
      <trkpt lat="46.68028" lon="5.55984">
        <ele>265</ele>
        <time>2019-07-29T13:06:40.000Z</time>
      </trkpt>
      <trkpt lat="46.68026" lon="5.55982">
        <ele>262.5</ele>
        <time>2019-07-29T13:06:50.000Z</time>
      </trkpt>
      <trkpt lat="46.68004" lon="5.55951">
        <ele>272</ele>
        <time>2019-07-29T13:06:53.000Z</time>
      </trkpt>
      <trkpt lat="46.67995" lon="5.55944">
        <ele>263.2</ele>
        <time>2019-07-29T13:07:03.000Z</time>
      </trkpt>
      <trkpt lat="46.67986" lon="5.55938">
        <ele>270</ele>
        <time>2019-07-29T13:07:01.000Z</time>
      </trkpt>
      <trkpt lat="46.67977" lon="5.55933">
        <ele>263.4</ele>
        <time>2019-07-29T13:07:11.000Z</time>
      </trkpt>
      <trkpt lat="46.67945" lon="5.55919">
        <ele>270</ele>
        <time>2019-07-29T13:07:19.000Z</time>
      </trkpt>
      <trkpt lat="46.67927" lon="5.55909">
        <ele>270</ele>
        <time>2019-07-29T13:07:26.000Z</time>
      </trkpt>
      <trkpt lat="46.67926" lon="5.55909">
        <ele>262.5</ele>
        <time>2019-07-29T13:07:36.000Z</time>
      </trkpt>
      <trkpt lat="46.67925" lon="5.55908">
        <ele>262.5</ele>
        <time>2019-07-29T13:07:46.000Z</time>
      </trkpt>
      <trkpt lat="46.67923" lon="5.55908">
        <ele>262.4</ele>
        <time>2019-07-29T13:07:56.000Z</time>
      </trkpt>
      <trkpt lat="46.67919" lon="5.55906">
        <ele>262.3</ele>
        <time>2019-07-29T13:08:06.000Z</time>
      </trkpt>
      <trkpt lat="46.67909" lon="5.559">
        <ele>270</ele>
        <time>2019-07-29T13:07:34.000Z</time>
      </trkpt>
      <trkpt lat="46.67899" lon="5.55895">
        <ele>261.4</ele>
        <time>2019-07-29T13:07:44.000Z</time>
      </trkpt>
      <trkpt lat="46.6789" lon="5.55896">
        <ele>270</ele>
        <time>2019-07-29T13:07:42.000Z</time>
      </trkpt>
      <trkpt lat="46.67881" lon="5.55896">
        <ele>261.8</ele>
        <time>2019-07-29T13:07:52.000Z</time>
      </trkpt>
      <trkpt lat="46.67874" lon="5.5589">
        <ele>261.6</ele>
        <time>2019-07-29T13:08:02.000Z</time>
      </trkpt>
      <trkpt lat="46.67868" lon="5.55881">
        <ele>267</ele>
        <time>2019-07-29T13:07:53.000Z</time>
      </trkpt>
      <trkpt lat="46.67856" lon="5.55866">
        <ele>260.4</ele>
        <time>2019-07-29T13:08:03.000Z</time>
      </trkpt>
      <trkpt lat="46.6784" lon="5.55855">
        <ele>266</ele>
        <time>2019-07-29T13:08:06.000Z</time>
      </trkpt>
      <trkpt lat="46.67823" lon="5.55846">
        <ele>259.1</ele>
        <time>2019-07-29T13:08:16.000Z</time>
      </trkpt>
      <trkpt lat="46.67813" lon="5.55839">
        <ele>266</ele>
        <time>2019-07-29T13:08:17.000Z</time>
      </trkpt>
      <trkpt lat="46.67783" lon="5.55815">
        <ele>264</ele>
        <time>2019-07-29T13:08:30.000Z</time>
      </trkpt>
      <trkpt lat="46.67777" lon="5.55806">
        <ele>258</ele>
        <time>2019-07-29T13:08:40.000Z</time>
      </trkpt>
      <trkpt lat="46.6776" lon="5.55768">
        <ele>261</ele>
        <time>2019-07-29T13:08:46.000Z</time>
      </trkpt>
      <trkpt lat="46.67754" lon="5.55756">
        <ele>257.8</ele>
        <time>2019-07-29T13:08:56.000Z</time>
      </trkpt>
      <trkpt lat="46.6775" lon="5.55746">
        <ele>257.9</ele>
        <time>2019-07-29T13:09:06.000Z</time>
      </trkpt>
      <trkpt lat="46.67745" lon="5.55737">
        <ele>259</ele>
        <time>2019-07-29T13:08:56.000Z</time>
      </trkpt>
      <trkpt lat="46.67739" lon="5.55729">
        <ele>257.9</ele>
        <time>2019-07-29T13:09:06.000Z</time>
      </trkpt>
      <trkpt lat="46.67731" lon="5.55722">
        <ele>258.4</ele>
        <time>2019-07-29T13:09:16.000Z</time>
      </trkpt>
      <trkpt lat="46.67722" lon="5.55716">
        <ele>257</ele>
        <time>2019-07-29T13:09:09.000Z</time>
      </trkpt>
      <trkpt lat="46.67715" lon="5.55714">
        <ele>258.7</ele>
        <time>2019-07-29T13:09:19.000Z</time>
      </trkpt>
      <trkpt lat="46.67709" lon="5.55719">
        <ele>259.2</ele>
        <time>2019-07-29T13:09:29.000Z</time>
      </trkpt>
      <trkpt lat="46.67713" lon="5.55709">
        <ele>257</ele>
        <time>2019-07-29T13:09:32.000Z</time>
      </trkpt>
      <trkpt lat="46.6772" lon="5.55699">
        <ele>258</ele>
        <time>2019-07-29T13:09:42.000Z</time>
      </trkpt>
      <trkpt lat="46.67714" lon="5.55679">
        <ele>257</ele>
        <time>2019-07-29T13:09:47.000Z</time>
      </trkpt>
      <trkpt lat="46.67707" lon="5.55676">
        <ele>256.6</ele>
        <time>2019-07-29T13:09:57.000Z</time>
      </trkpt>
      <trkpt lat="46.67699" lon="5.55677">
        <ele>256.2</ele>
        <time>2019-07-29T13:10:07.000Z</time>
      </trkpt>
      <trkpt lat="46.67686" lon="5.55687">
        <ele>262</ele>
        <time>2019-07-29T13:10:01.000Z</time>
      </trkpt>
      <trkpt lat="46.67676" lon="5.55686">
        <ele>255.3</ele>
        <time>2019-07-29T13:10:11.000Z</time>
      </trkpt>
      <trkpt lat="46.67674" lon="5.55685">
        <ele>255.3</ele>
        <time>2019-07-29T13:10:21.000Z</time>
      </trkpt>
      <trkpt lat="46.67667" lon="5.55684">
        <ele>262</ele>
        <time>2019-07-29T13:10:09.000Z</time>
      </trkpt>
      <trkpt lat="46.67659" lon="5.55684">
        <ele>255.9</ele>
        <time>2019-07-29T13:10:19.000Z</time>
      </trkpt>
      <trkpt lat="46.67651" lon="5.55685">
        <ele>256.9</ele>
        <time>2019-07-29T13:10:29.000Z</time>
      </trkpt>
      <trkpt lat="46.67643" lon="5.55682">
        <ele>263</ele>
        <time>2019-07-29T13:10:20.000Z</time>
      </trkpt>
      <trkpt lat="46.67641" lon="5.55668">
        <ele>258.7</ele>
        <time>2019-07-29T13:10:30.000Z</time>
      </trkpt>
      <trkpt lat="46.67642" lon="5.55654">
        <ele>261</ele>
        <time>2019-07-29T13:10:32.000Z</time>
      </trkpt>
      <trkpt lat="46.67628" lon="5.55655">
        <ele>259.9</ele>
        <time>2019-07-29T13:10:42.000Z</time>
      </trkpt>
      <trkpt lat="46.67628" lon="5.55656">
        <ele>259.9</ele>
        <time>2019-07-29T13:10:52.000Z</time>
      </trkpt>
      <trkpt lat="46.67619" lon="5.55657">
        <ele>260</ele>
        <time>2019-07-29T13:10:53.000Z</time>
      </trkpt>
      <trkpt lat="46.67617" lon="5.55657">
        <ele>260.4</ele>
        <time>2019-07-29T13:11:03.000Z</time>
      </trkpt>
      <trkpt lat="46.67616" lon="5.55656">
        <ele>260.4</ele>
        <time>2019-07-29T13:11:13.000Z</time>
      </trkpt>
      <trkpt lat="46.67608" lon="5.55656">
        <ele>260.4</ele>
        <time>2019-07-29T13:11:23.000Z</time>
      </trkpt>
      <trkpt lat="46.67595" lon="5.55651">
        <ele>258</ele>
        <time>2019-07-29T13:11:04.000Z</time>
      </trkpt>
      <trkpt lat="46.67586" lon="5.55649">
        <ele>259.1</ele>
        <time>2019-07-29T13:11:14.000Z</time>
      </trkpt>
      <trkpt lat="46.67585" lon="5.55648">
        <ele>259.1</ele>
        <time>2019-07-29T13:11:24.000Z</time>
      </trkpt>
      <trkpt lat="46.67582" lon="5.55648">
        <ele>259</ele>
        <time>2019-07-29T13:11:34.000Z</time>
      </trkpt>
      <trkpt lat="46.67576" lon="5.55646">
        <ele>258</ele>
        <time>2019-07-29T13:11:11.000Z</time>
      </trkpt>
      <trkpt lat="46.67565" lon="5.55644">
        <ele>259</ele>
        <time>2019-07-29T13:11:21.000Z</time>
      </trkpt>
      <trkpt lat="46.67565" lon="5.55643">
        <ele>259</ele>
        <time>2019-07-29T13:11:31.000Z</time>
      </trkpt>
      <trkpt lat="46.67559" lon="5.55633">
        <ele>264</ele>
        <time>2019-07-29T13:11:19.000Z</time>
      </trkpt>
      <trkpt lat="46.67559" lon="5.5562">
        <ele>259</ele>
        <time>2019-07-29T13:11:29.000Z</time>
      </trkpt>
      <trkpt lat="46.67568" lon="5.55583">
        <ele>262</ele>
        <time>2019-07-29T13:11:33.000Z</time>
      </trkpt>
      <trkpt lat="46.67572" lon="5.55556">
        <ele>260</ele>
        <time>2019-07-29T13:11:40.000Z</time>
      </trkpt>
      <trkpt lat="46.67573" lon="5.55542">
        <ele>257.8</ele>
        <time>2019-07-29T13:11:50.000Z</time>
      </trkpt>
      <trkpt lat="46.67575" lon="5.55529">
        <ele>259</ele>
        <time>2019-07-29T13:11:48.000Z</time>
      </trkpt>
      <trkpt lat="46.67574" lon="5.55513">
        <ele>257.3</ele>
        <time>2019-07-29T13:11:58.000Z</time>
      </trkpt>
      <trkpt lat="46.67574" lon="5.55494">
        <ele>259</ele>
        <time>2019-07-29T13:11:58.000Z</time>
      </trkpt>
      <trkpt lat="46.67573" lon="5.55492">
        <ele>257</ele>
        <time>2019-07-29T13:12:08.000Z</time>
      </trkpt>
      <trkpt lat="46.67572" lon="5.55476">
        <ele>257</ele>
        <time>2019-07-29T13:12:18.000Z</time>
      </trkpt>
      <trkpt lat="46.67571" lon="5.55474">
        <ele>257</ele>
        <time>2019-07-29T13:12:28.000Z</time>
      </trkpt>
      <trkpt lat="46.67569" lon="5.55464">
        <ele>257</ele>
        <time>2019-07-29T13:12:07.000Z</time>
      </trkpt>
      <trkpt lat="46.67567" lon="5.55458">
        <ele>256.7</ele>
        <time>2019-07-29T13:12:17.000Z</time>
      </trkpt>
      <trkpt lat="46.67563" lon="5.55449">
        <ele>256.4</ele>
        <time>2019-07-29T13:12:27.000Z</time>
      </trkpt>
      <trkpt lat="46.67563" lon="5.55447">
        <ele>256.3</ele>
        <time>2019-07-29T13:12:37.000Z</time>
      </trkpt>
      <trkpt lat="46.67562" lon="5.55446">
        <ele>256.3</ele>
        <time>2019-07-29T13:12:47.000Z</time>
      </trkpt>
      <trkpt lat="46.67562" lon="5.55444">
        <ele>256.2</ele>
        <time>2019-07-29T13:12:57.000Z</time>
      </trkpt>
      <trkpt lat="46.67561" lon="5.55443">
        <ele>256.2</ele>
        <time>2019-07-29T13:13:07.000Z</time>
      </trkpt>
      <trkpt lat="46.67558" lon="5.55433">
        <ele>257</ele>
        <time>2019-07-29T13:12:17.000Z</time>
      </trkpt>
      <trkpt lat="46.67558" lon="5.55431">
        <ele>256.1</ele>
        <time>2019-07-29T13:12:27.000Z</time>
      </trkpt>
      <trkpt lat="46.67556" lon="5.55428">
        <ele>256</ele>
        <time>2019-07-29T13:12:37.000Z</time>
      </trkpt>
      <trkpt lat="46.67553" lon="5.5542">
        <ele>256</ele>
        <time>2019-07-29T13:12:47.000Z</time>
      </trkpt>
      <trkpt lat="46.67546" lon="5.55409">
        <ele>257</ele>
        <time>2019-07-29T13:12:25.000Z</time>
      </trkpt>
      <trkpt lat="46.67544" lon="5.55407">
        <ele>255.9</ele>
        <time>2019-07-29T13:12:35.000Z</time>
      </trkpt>
      <trkpt lat="46.67541" lon="5.55406">
        <ele>255.8</ele>
        <time>2019-07-29T13:12:45.000Z</time>
      </trkpt>
      <trkpt lat="46.67529" lon="5.55397">
        <ele>257</ele>
        <time>2019-07-29T13:12:33.000Z</time>
      </trkpt>
      <trkpt lat="46.67516" lon="5.55389">
        <ele>255</ele>
        <time>2019-07-29T13:12:43.000Z</time>
      </trkpt>
      <trkpt lat="46.67507" lon="5.55385">
        <ele>264</ele>
        <time>2019-07-29T13:12:42.000Z</time>
      </trkpt>
      <trkpt lat="46.67503" lon="5.55382">
        <ele>255</ele>
        <time>2019-07-29T13:12:52.000Z</time>
      </trkpt>
      <trkpt lat="46.67496" lon="5.55378">
        <ele>255</ele>
        <time>2019-07-29T13:13:02.000Z</time>
      </trkpt>
      <trkpt lat="46.67495" lon="5.55378">
        <ele>255</ele>
        <time>2019-07-29T13:13:12.000Z</time>
      </trkpt>
      <trkpt lat="46.67493" lon="5.55376">
        <ele>255</ele>
        <time>2019-07-29T13:13:22.000Z</time>
      </trkpt>
      <trkpt lat="46.67484" lon="5.55372">
        <ele>267</ele>
        <time>2019-07-29T13:12:51.000Z</time>
      </trkpt>
      <trkpt lat="46.67471" lon="5.55363">
        <ele>255</ele>
        <time>2019-07-29T13:13:01.000Z</time>
      </trkpt>
      <trkpt lat="46.67468" lon="5.55362">
        <ele>255</ele>
        <time>2019-07-29T13:13:11.000Z</time>
      </trkpt>
      <trkpt lat="46.67461" lon="5.55358">
        <ele>267</ele>
        <time>2019-07-29T13:12:59.000Z</time>
      </trkpt>
      <trkpt lat="46.67457" lon="5.55354">
        <ele>254.9</ele>
        <time>2019-07-29T13:13:09.000Z</time>
      </trkpt>
      <trkpt lat="46.67449" lon="5.55348">
        <ele>254.6</ele>
        <time>2019-07-29T13:13:19.000Z</time>
      </trkpt>
      <trkpt lat="46.67449" lon="5.55347">
        <ele>254.6</ele>
        <time>2019-07-29T13:13:29.000Z</time>
      </trkpt>
      <trkpt lat="46.67441" lon="5.55338">
        <ele>265</ele>
        <time>2019-07-29T13:13:10.000Z</time>
      </trkpt>
      <trkpt lat="46.67441" lon="5.55336">
        <ele>254.1</ele>
        <time>2019-07-29T13:13:20.000Z</time>
      </trkpt>
      <trkpt lat="46.67425" lon="5.55312">
        <ele>264</ele>
        <time>2019-07-29T13:13:19.000Z</time>
      </trkpt>
      <trkpt lat="46.67419" lon="5.55304">
        <ele>254</ele>
        <time>2019-07-29T13:13:29.000Z</time>
      </trkpt>
      <trkpt lat="46.67414" lon="5.55293">
        <ele>254.1</ele>
        <time>2019-07-29T13:13:39.000Z</time>
      </trkpt>
      <trkpt lat="46.67406" lon="5.55281">
        <ele>257</ele>
        <time>2019-07-29T13:13:29.000Z</time>
      </trkpt>
      <trkpt lat="46.67406" lon="5.55279">
        <ele>254</ele>
        <time>2019-07-29T13:13:39.000Z</time>
      </trkpt>
      <trkpt lat="46.67405" lon="5.55278">
        <ele>254</ele>
        <time>2019-07-29T13:13:49.000Z</time>
      </trkpt>
      <trkpt lat="46.67405" lon="5.55275">
        <ele>254</ele>
        <time>2019-07-29T13:13:59.000Z</time>
      </trkpt>
      <trkpt lat="46.67402" lon="5.55268">
        <ele>254</ele>
        <time>2019-07-29T13:14:09.000Z</time>
      </trkpt>
      <trkpt lat="46.67402" lon="5.55254">
        <ele>256</ele>
        <time>2019-07-29T13:13:53.000Z</time>
      </trkpt>
      <trkpt lat="46.67392" lon="5.55249">
        <ele>254</ele>
        <time>2019-07-29T13:14:03.000Z</time>
      </trkpt>
      <trkpt lat="46.67388" lon="5.55246">
        <ele>254</ele>
        <time>2019-07-29T13:14:13.000Z</time>
      </trkpt>
      <trkpt lat="46.67384" lon="5.55244">
        <ele>256</ele>
        <time>2019-07-29T13:14:23.000Z</time>
      </trkpt>
      <trkpt lat="46.67379" lon="5.5524">
        <ele>259</ele>
        <time>2019-07-29T13:14:33.000Z</time>
        <extensions>
          <visugpx:TrkExtension xmlns:visugpx="https://www.visugpx.com/editgpx/">
            <visugpx:node>22</visugpx:node>
            </visugpx:TrkExtension>
        </extensions>
      </trkpt>
    </trkseg>
  </trk>
</gpx>